<?xml version="1.0" encoding="UTF-8"?>
<gpx xmlns="http://www.topografix.com/GPX/1/1" xmlns:xsi="http://www.w3.org/2001/XMLSchema-instance" version="1.1" xsi:schemaLocation="http://www.topografix.com/GPX/1/1 http://www.topografix.com/GPX/1/1/gpx.xsd">
  <metadata>
    <name>Aloha Tri Mondseeland</name>
  </metadata>
  <trk>
    <name>Aloha Tri Mondseeland</name>
    <trkseg>
      <trkpt lat="47.852543" lon="13.350191">
        <ele>485.46931</ele>
        <time>2024-09-08T08:08:00.000Z</time>
      </trkpt>
      <trkpt lat="47.852653" lon="13.350659">
        <ele>485.469307</ele>
        <time>2024-09-08T08:08:04.000Z</time>
      </trkpt>
      <trkpt lat="47.852851" lon="13.351671">
        <ele>485.55185</ele>
        <time>2024-09-08T08:08:12.000Z</time>
      </trkpt>
      <trkpt lat="47.85291" lon="13.352077">
        <ele>485.720645</ele>
        <time>2024-09-08T08:08:15.000Z</time>
      </trkpt>
      <trkpt lat="47.852931" lon="13.352335">
        <ele>485.826831</ele>
        <time>2024-09-08T08:08:17.000Z</time>
      </trkpt>
      <trkpt lat="47.852966" lon="13.352677">
        <ele>485.968341</ele>
        <time>2024-09-08T08:08:20.000Z</time>
      </trkpt>
      <trkpt lat="47.852992" lon="13.353046">
        <ele>486.117379</ele>
        <time>2024-09-08T08:08:23.000Z</time>
      </trkpt>
      <trkpt lat="47.852988" lon="13.353138">
        <ele>486.159679</ele>
        <time>2024-09-08T08:08:24.000Z</time>
      </trkpt>
      <trkpt lat="47.852997" lon="13.353178">
        <ele>486.17567</ele>
        <time>2024-09-08T08:08:24.000Z</time>
      </trkpt>
      <trkpt lat="47.852999" lon="13.353868">
        <ele>486.456537</ele>
        <time>2024-09-08T08:08:29.000Z</time>
      </trkpt>
      <trkpt lat="47.852994" lon="13.354601">
        <ele>486.850493</ele>
        <time>2024-09-08T08:08:34.000Z</time>
      </trkpt>
      <trkpt lat="47.852939" lon="13.355226">
        <ele>487.23373</ele>
        <time>2024-09-08T08:08:39.000Z</time>
      </trkpt>
      <trkpt lat="47.852878" lon="13.355851">
        <ele>487.623411</ele>
        <time>2024-09-08T08:08:44.000Z</time>
      </trkpt>
      <trkpt lat="47.852797" lon="13.356351">
        <ele>487.93917</ele>
        <time>2024-09-08T08:08:48.000Z</time>
      </trkpt>
      <trkpt lat="47.852703" lon="13.356878">
        <ele>488.255187</ele>
        <time>2024-09-08T08:08:52.000Z</time>
      </trkpt>
      <trkpt lat="47.852616" lon="13.357199">
        <ele>488.386248</ele>
        <time>2024-09-08T08:08:55.000Z</time>
      </trkpt>
      <trkpt lat="47.852578" lon="13.35731">
        <ele>488.435664</ele>
        <time>2024-09-08T08:08:56.000Z</time>
      </trkpt>
      <trkpt lat="47.852506" lon="13.357487">
        <ele>488.522096</ele>
        <time>2024-09-08T08:08:58.000Z</time>
      </trkpt>
      <trkpt lat="47.852203" lon="13.358026">
        <ele>488.793209</ele>
        <time>2024-09-08T08:09:03.000Z</time>
      </trkpt>
      <trkpt lat="47.852131" lon="13.358148">
        <ele>488.8622</ele>
        <time>2024-09-08T08:09:04.000Z</time>
      </trkpt>
      <trkpt lat="47.85189" lon="13.358489">
        <ele>489.049244</ele>
        <time>2024-09-08T08:09:08.000Z</time>
      </trkpt>
      <trkpt lat="47.851653" lon="13.358825">
        <ele>489.239187</ele>
        <time>2024-09-08T08:09:12.000Z</time>
      </trkpt>
      <trkpt lat="47.851492" lon="13.359087">
        <ele>489.203775</ele>
        <time>2024-09-08T08:09:15.000Z</time>
      </trkpt>
      <trkpt lat="47.851359" lon="13.359386">
        <ele>489.137653</ele>
        <time>2024-09-08T08:09:18.000Z</time>
      </trkpt>
      <trkpt lat="47.85131" lon="13.359499">
        <ele>489.114344</ele>
        <time>2024-09-08T08:09:19.000Z</time>
      </trkpt>
      <trkpt lat="47.851214" lon="13.35976">
        <ele>489.057554</ele>
        <time>2024-09-08T08:09:21.000Z</time>
      </trkpt>
      <trkpt lat="47.851073" lon="13.36015">
        <ele>488.978968</ele>
        <time>2024-09-08T08:09:24.000Z</time>
      </trkpt>
      <trkpt lat="47.851029" lon="13.360252">
        <ele>488.957413</ele>
        <time>2024-09-08T08:09:25.000Z</time>
      </trkpt>
      <trkpt lat="47.850987" lon="13.360361">
        <ele>488.934812</ele>
        <time>2024-09-08T08:09:26.000Z</time>
      </trkpt>
      <trkpt lat="47.850927" lon="13.36052">
        <ele>488.90019</ele>
        <time>2024-09-08T08:09:27.000Z</time>
      </trkpt>
      <trkpt lat="47.850852" lon="13.360654">
        <ele>488.867277</ele>
        <time>2024-09-08T08:09:28.000Z</time>
      </trkpt>
      <trkpt lat="47.850463" lon="13.361197">
        <ele>488.916052</ele>
        <time>2024-09-08T08:09:34.000Z</time>
      </trkpt>
      <trkpt lat="47.850131" lon="13.361411">
        <ele>489.220918</ele>
        <time>2024-09-08T08:09:38.000Z</time>
      </trkpt>
      <trkpt lat="47.849952" lon="13.361528">
        <ele>489.37954</ele>
        <time>2024-09-08T08:09:40.000Z</time>
      </trkpt>
      <trkpt lat="47.849784" lon="13.361659">
        <ele>489.543656</ele>
        <time>2024-09-08T08:09:42.000Z</time>
      </trkpt>
      <trkpt lat="47.849612" lon="13.361841">
        <ele>489.72809</ele>
        <time>2024-09-08T08:09:44.000Z</time>
      </trkpt>
      <trkpt lat="47.849429" lon="13.362107">
        <ele>489.931907</ele>
        <time>2024-09-08T08:09:47.000Z</time>
      </trkpt>
      <trkpt lat="47.849217" lon="13.362787">
        <ele>490.358502</ele>
        <time>2024-09-08T08:09:53.000Z</time>
      </trkpt>
      <trkpt lat="47.849166" lon="13.363064">
        <ele>490.507949</ele>
        <time>2024-09-08T08:09:55.000Z</time>
      </trkpt>
      <trkpt lat="47.849157" lon="13.36321">
        <ele>490.583017</ele>
        <time>2024-09-08T08:09:56.000Z</time>
      </trkpt>
      <trkpt lat="47.849129" lon="13.363317">
        <ele>490.642016</ele>
        <time>2024-09-08T08:09:57.000Z</time>
      </trkpt>
      <trkpt lat="47.849089" lon="13.363493">
        <ele>490.748425</ele>
        <time>2024-09-08T08:09:58.000Z</time>
      </trkpt>
      <trkpt lat="47.848803" lon="13.364151">
        <ele>491.161705</ele>
        <time>2024-09-08T08:10:04.000Z</time>
      </trkpt>
      <trkpt lat="47.84838" lon="13.364932">
        <ele>491.69373</ele>
        <time>2024-09-08T08:10:11.000Z</time>
      </trkpt>
      <trkpt lat="47.848263" lon="13.365272">
        <ele>491.389702</ele>
        <time>2024-09-08T08:10:14.000Z</time>
      </trkpt>
      <trkpt lat="47.848132" lon="13.365923">
        <ele>490.821447</ele>
        <time>2024-09-08T08:10:19.000Z</time>
      </trkpt>
      <trkpt lat="47.847901" lon="13.36778">
        <ele>489.347868</ele>
        <time>2024-09-08T08:10:33.000Z</time>
      </trkpt>
      <trkpt lat="47.847844" lon="13.368038">
        <ele>489.231311</ele>
        <time>2024-09-08T08:10:35.000Z</time>
      </trkpt>
      <trkpt lat="47.847747" lon="13.368422">
        <ele>489.056681</ele>
        <time>2024-09-08T08:10:38.000Z</time>
      </trkpt>
      <trkpt lat="47.847255" lon="13.369732">
        <ele>488.431959</ele>
        <time>2024-09-08T08:10:49.000Z</time>
      </trkpt>
      <trkpt lat="47.847046" lon="13.37017">
        <ele>488.261952</ele>
        <time>2024-09-08T08:10:53.000Z</time>
      </trkpt>
      <trkpt lat="47.846985" lon="13.370265">
        <ele>488.234907</ele>
        <time>2024-09-08T08:10:54.000Z</time>
      </trkpt>
      <trkpt lat="47.846893" lon="13.37044">
        <ele>488.190299</ele>
        <time>2024-09-08T08:10:56.000Z</time>
      </trkpt>
      <trkpt lat="47.846849" lon="13.370538">
        <ele>488.163671</ele>
        <time>2024-09-08T08:10:57.000Z</time>
      </trkpt>
      <trkpt lat="47.846735" lon="13.370743">
        <ele>488.107447</ele>
        <time>2024-09-08T08:10:59.000Z</time>
      </trkpt>
      <trkpt lat="47.846208" lon="13.371554">
        <ele>487.86658</ele>
        <time>2024-09-08T08:11:07.000Z</time>
      </trkpt>
      <trkpt lat="47.846085" lon="13.371726">
        <ele>487.811</ele>
        <time>2024-09-08T08:11:09.000Z</time>
      </trkpt>
      <trkpt lat="47.845974" lon="13.371913">
        <ele>487.75845</ele>
        <time>2024-09-08T08:11:11.000Z</time>
      </trkpt>
      <trkpt lat="47.8459" lon="13.372045">
        <ele>487.863849</ele>
        <time>2024-09-08T08:11:12.000Z</time>
      </trkpt>
      <trkpt lat="47.845894" lon="13.372064">
        <ele>487.893083</ele>
        <time>2024-09-08T08:11:12.000Z</time>
      </trkpt>
      <trkpt lat="47.845836" lon="13.372203">
        <ele>488.019364</ele>
        <time>2024-09-08T08:11:13.000Z</time>
      </trkpt>
      <trkpt lat="47.845684" lon="13.372794">
        <ele>488.488803</ele>
        <time>2024-09-08T08:11:18.000Z</time>
      </trkpt>
      <trkpt lat="47.845674" lon="13.372873">
        <ele>488.546296</ele>
        <time>2024-09-08T08:11:19.000Z</time>
      </trkpt>
      <trkpt lat="47.845618" lon="13.373279">
        <ele>488.850842</ele>
        <time>2024-09-08T08:11:22.000Z</time>
      </trkpt>
      <trkpt lat="47.845559" lon="13.373676">
        <ele>489.16981</ele>
        <time>2024-09-08T08:11:25.000Z</time>
      </trkpt>
      <trkpt lat="47.845506" lon="13.373913">
        <ele>489.344494</ele>
        <time>2024-09-08T08:11:27.000Z</time>
      </trkpt>
      <trkpt lat="47.845438" lon="13.374163">
        <ele>489.549886</ele>
        <time>2024-09-08T08:11:29.000Z</time>
      </trkpt>
      <trkpt lat="47.844711" lon="13.376065">
        <ele>491.921926</ele>
        <time>2024-09-08T08:11:45.000Z</time>
      </trkpt>
      <trkpt lat="47.844123" lon="13.377339">
        <ele>492.336405</ele>
        <time>2024-09-08T08:11:57.000Z</time>
      </trkpt>
      <trkpt lat="47.844008" lon="13.377533">
        <ele>492.169209</ele>
        <time>2024-09-08T08:11:59.000Z</time>
      </trkpt>
      <trkpt lat="47.843729" lon="13.377938">
        <ele>491.826768</ele>
        <time>2024-09-08T08:12:03.000Z</time>
      </trkpt>
      <trkpt lat="47.843597" lon="13.37815">
        <ele>491.637597</ele>
        <time>2024-09-08T08:12:05.000Z</time>
      </trkpt>
      <trkpt lat="47.843471" lon="13.378348">
        <ele>491.471762</ele>
        <time>2024-09-08T08:12:07.000Z</time>
      </trkpt>
      <trkpt lat="47.84332" lon="13.378639">
        <ele>491.244491</ele>
        <time>2024-09-08T08:12:10.000Z</time>
      </trkpt>
      <trkpt lat="47.843148" lon="13.378959">
        <ele>490.970633</ele>
        <time>2024-09-08T08:12:13.000Z</time>
      </trkpt>
      <trkpt lat="47.842884" lon="13.379516">
        <ele>490.501297</ele>
        <time>2024-09-08T08:12:18.000Z</time>
      </trkpt>
      <trkpt lat="47.842733" lon="13.379861">
        <ele>490.203196</ele>
        <time>2024-09-08T08:12:21.000Z</time>
      </trkpt>
      <trkpt lat="47.842557" lon="13.380277">
        <ele>489.867194</ele>
        <time>2024-09-08T08:12:25.000Z</time>
      </trkpt>
      <trkpt lat="47.842419" lon="13.380636">
        <ele>489.58402</ele>
        <time>2024-09-08T08:12:28.000Z</time>
      </trkpt>
      <trkpt lat="47.841964" lon="13.382476">
        <ele>489.994572</ele>
        <time>2024-09-08T08:12:43.000Z</time>
      </trkpt>
      <trkpt lat="47.841804" lon="13.382949">
        <ele>490.236316</ele>
        <time>2024-09-08T08:12:47.000Z</time>
      </trkpt>
      <trkpt lat="47.841706" lon="13.383146">
        <ele>490.35164</ele>
        <time>2024-09-08T08:12:49.000Z</time>
      </trkpt>
      <trkpt lat="47.841612" lon="13.383302">
        <ele>490.442294</ele>
        <time>2024-09-08T08:12:51.000Z</time>
      </trkpt>
      <trkpt lat="47.841363" lon="13.383659">
        <ele>490.537601</ele>
        <time>2024-09-08T08:12:55.000Z</time>
      </trkpt>
      <trkpt lat="47.841216" lon="13.383821">
        <ele>490.555275</ele>
        <time>2024-09-08T08:12:57.000Z</time>
      </trkpt>
      <trkpt lat="47.84115" lon="13.383918">
        <ele>490.564926</ele>
        <time>2024-09-08T08:12:58.000Z</time>
      </trkpt>
      <trkpt lat="47.840615" lon="13.384395">
        <ele>490.627502</ele>
        <time>2024-09-08T08:13:05.000Z</time>
      </trkpt>
      <trkpt lat="47.839656" lon="13.384955">
        <ele>489.999211</ele>
        <time>2024-09-08T08:13:16.000Z</time>
      </trkpt>
      <trkpt lat="47.838986" lon="13.385655">
        <ele>488.544954</ele>
        <time>2024-09-08T08:13:25.000Z</time>
      </trkpt>
      <trkpt lat="47.838396" lon="13.386037">
        <ele>487.421383</ele>
        <time>2024-09-08T08:13:32.000Z</time>
      </trkpt>
      <trkpt lat="47.838253" lon="13.386139">
        <ele>487.21181</ele>
        <time>2024-09-08T08:13:34.000Z</time>
      </trkpt>
      <trkpt lat="47.838233" lon="13.386146">
        <ele>487.175569</ele>
        <time>2024-09-08T08:13:34.000Z</time>
      </trkpt>
      <trkpt lat="47.838171" lon="13.386192">
        <ele>487.096003</ele>
        <time>2024-09-08T08:13:35.000Z</time>
      </trkpt>
      <trkpt lat="47.838089" lon="13.386247">
        <ele>486.983003</ele>
        <time>2024-09-08T08:13:36.000Z</time>
      </trkpt>
      <trkpt lat="47.837703" lon="13.38667">
        <ele>486.37697</ele>
        <time>2024-09-08T08:13:41.000Z</time>
      </trkpt>
      <trkpt lat="47.837381" lon="13.387239">
        <ele>485.766629</ele>
        <time>2024-09-08T08:13:47.000Z</time>
      </trkpt>
      <trkpt lat="47.837316" lon="13.387435">
        <ele>485.571592</ele>
        <time>2024-09-08T08:13:49.000Z</time>
      </trkpt>
      <trkpt lat="47.837158" lon="13.387876">
        <ele>485.209981</ele>
        <time>2024-09-08T08:13:53.000Z</time>
      </trkpt>
      <trkpt lat="47.837057" lon="13.388122">
        <ele>485.238521</ele>
        <time>2024-09-08T08:13:55.000Z</time>
      </trkpt>
      <trkpt lat="47.836982" lon="13.388342">
        <ele>485.263675</ele>
        <time>2024-09-08T08:13:57.000Z</time>
      </trkpt>
      <trkpt lat="47.836767" lon="13.388772">
        <ele>485.316347</ele>
        <time>2024-09-08T08:14:01.000Z</time>
      </trkpt>
      <trkpt lat="47.836685" lon="13.388894">
        <ele>485.334852</ele>
        <time>2024-09-08T08:14:02.000Z</time>
      </trkpt>
      <trkpt lat="47.836567" lon="13.389009">
        <ele>485.354033</ele>
        <time>2024-09-08T08:14:04.000Z</time>
      </trkpt>
      <trkpt lat="47.836385" lon="13.389202">
        <ele>485.389936</ele>
        <time>2024-09-08T08:14:06.000Z</time>
      </trkpt>
      <trkpt lat="47.83604" lon="13.389533">
        <ele>485.449145</ele>
        <time>2024-09-08T08:14:11.000Z</time>
      </trkpt>
      <trkpt lat="47.835965" lon="13.389631">
        <ele>485.465245</ele>
        <time>2024-09-08T08:14:12.000Z</time>
      </trkpt>
      <trkpt lat="47.835923" lon="13.389675">
        <ele>485.470643</ele>
        <time>2024-09-08T08:14:13.000Z</time>
      </trkpt>
      <trkpt lat="47.835841" lon="13.389777">
        <ele>485.424931</ele>
        <time>2024-09-08T08:14:14.000Z</time>
      </trkpt>
      <trkpt lat="47.835542" lon="13.390316">
        <ele>485.228999</ele>
        <time>2024-09-08T08:14:19.000Z</time>
      </trkpt>
      <trkpt lat="47.83537" lon="13.390739">
        <ele>485.083409</ele>
        <time>2024-09-08T08:14:23.000Z</time>
      </trkpt>
      <trkpt lat="47.835227" lon="13.39108">
        <ele>484.972027</ele>
        <time>2024-09-08T08:14:26.000Z</time>
      </trkpt>
      <trkpt lat="47.835087" lon="13.391423">
        <ele>484.856925</ele>
        <time>2024-09-08T08:14:29.000Z</time>
      </trkpt>
      <trkpt lat="47.83487" lon="13.39188">
        <ele>484.705109</ele>
        <time>2024-09-08T08:14:33.000Z</time>
      </trkpt>
      <trkpt lat="47.834847" lon="13.391947">
        <ele>484.691913</ele>
        <time>2024-09-08T08:14:34.000Z</time>
      </trkpt>
      <trkpt lat="47.834738" lon="13.392158">
        <ele>484.652677</ele>
        <time>2024-09-08T08:14:36.000Z</time>
      </trkpt>
      <trkpt lat="47.834493" lon="13.392555">
        <ele>484.570345</ele>
        <time>2024-09-08T08:14:40.000Z</time>
      </trkpt>
      <trkpt lat="47.834338" lon="13.392774">
        <ele>484.519803</ele>
        <time>2024-09-08T08:14:42.000Z</time>
      </trkpt>
      <trkpt lat="47.834176" lon="13.392971">
        <ele>484.4718</ele>
        <time>2024-09-08T08:14:44.000Z</time>
      </trkpt>
      <trkpt lat="47.833663" lon="13.393506">
        <ele>484.327451</ele>
        <time>2024-09-08T08:14:51.000Z</time>
      </trkpt>
      <trkpt lat="47.833442" lon="13.393693">
        <ele>484.334408</ele>
        <time>2024-09-08T08:14:54.000Z</time>
      </trkpt>
      <trkpt lat="47.833199" lon="13.393884">
        <ele>484.414971</ele>
        <time>2024-09-08T08:14:57.000Z</time>
      </trkpt>
      <trkpt lat="47.832864" lon="13.394177">
        <ele>484.533198</ele>
        <time>2024-09-08T08:15:01.000Z</time>
      </trkpt>
      <trkpt lat="47.832823" lon="13.394218">
        <ele>484.547611</ele>
        <time>2024-09-08T08:15:02.000Z</time>
      </trkpt>
      <trkpt lat="47.832775" lon="13.394269">
        <ele>484.560829</ele>
        <time>2024-09-08T08:15:03.000Z</time>
      </trkpt>
      <trkpt lat="47.832743" lon="13.394298">
        <ele>484.575476</ele>
        <time>2024-09-08T08:15:03.000Z</time>
      </trkpt>
      <trkpt lat="47.832669" lon="13.394383">
        <ele>484.604284</ele>
        <time>2024-09-08T08:15:04.000Z</time>
      </trkpt>
      <trkpt lat="47.83265" lon="13.394412">
        <ele>484.611603</ele>
        <time>2024-09-08T08:15:04.000Z</time>
      </trkpt>
      <trkpt lat="47.83248" lon="13.39461">
        <ele>484.675002</ele>
        <time>2024-09-08T08:15:06.000Z</time>
      </trkpt>
      <trkpt lat="47.832182" lon="13.39502">
        <ele>484.799188</ele>
        <time>2024-09-08T08:15:11.000Z</time>
      </trkpt>
      <trkpt lat="47.831993" lon="13.395289">
        <ele>484.85869</ele>
        <time>2024-09-08T08:15:14.000Z</time>
      </trkpt>
      <trkpt lat="47.831792" lon="13.395608">
        <ele>484.912223</ele>
        <time>2024-09-08T08:15:17.000Z</time>
      </trkpt>
      <trkpt lat="47.831444" lon="13.396054">
        <ele>484.996032</ele>
        <time>2024-09-08T08:15:22.000Z</time>
      </trkpt>
      <trkpt lat="47.831246" lon="13.396264">
        <ele>485.039603</ele>
        <time>2024-09-08T08:15:25.000Z</time>
      </trkpt>
      <trkpt lat="47.831109" lon="13.396403">
        <ele>485.070237</ele>
        <time>2024-09-08T08:15:27.000Z</time>
      </trkpt>
      <trkpt lat="47.831042" lon="13.396463">
        <ele>485.083292</ele>
        <time>2024-09-08T08:15:28.000Z</time>
      </trkpt>
      <trkpt lat="47.830979" lon="13.396523">
        <ele>485.099603</ele>
        <time>2024-09-08T08:15:29.000Z</time>
      </trkpt>
      <trkpt lat="47.830841" lon="13.396618">
        <ele>485.126511</ele>
        <time>2024-09-08T08:15:31.000Z</time>
      </trkpt>
      <trkpt lat="47.830531" lon="13.39683">
        <ele>485.269045</ele>
        <time>2024-09-08T08:15:35.000Z</time>
      </trkpt>
      <trkpt lat="47.830437" lon="13.396913">
        <ele>485.339852</ele>
        <time>2024-09-08T08:15:36.000Z</time>
      </trkpt>
      <trkpt lat="47.829969" lon="13.397205">
        <ele>485.691679</ele>
        <time>2024-09-08T08:15:42.000Z</time>
      </trkpt>
      <trkpt lat="47.829573" lon="13.397466">
        <ele>485.984284</ele>
        <time>2024-09-08T08:15:47.000Z</time>
      </trkpt>
      <trkpt lat="47.828654" lon="13.398164">
        <ele>487.317405</ele>
        <time>2024-09-08T08:15:58.000Z</time>
      </trkpt>
      <trkpt lat="47.828161" lon="13.398575">
        <ele>488.546234</ele>
        <time>2024-09-08T08:16:04.000Z</time>
      </trkpt>
      <trkpt lat="47.827914" lon="13.398749">
        <ele>489.130596</ele>
        <time>2024-09-08T08:16:07.000Z</time>
      </trkpt>
      <trkpt lat="47.827677" lon="13.398918">
        <ele>489.683285</ele>
        <time>2024-09-08T08:16:10.000Z</time>
      </trkpt>
      <trkpt lat="47.827031" lon="13.399292">
        <ele>492.050861</ele>
        <time>2024-09-08T08:16:18.000Z</time>
      </trkpt>
      <trkpt lat="47.826874" lon="13.399345">
        <ele>492.772485</ele>
        <time>2024-09-08T08:16:20.000Z</time>
      </trkpt>
      <trkpt lat="47.826764" lon="13.399381">
        <ele>493.254316</ele>
        <time>2024-09-08T08:16:21.000Z</time>
      </trkpt>
      <trkpt lat="47.826636" lon="13.399421">
        <ele>493.8186</ele>
        <time>2024-09-08T08:16:22.000Z</time>
      </trkpt>
      <trkpt lat="47.826384" lon="13.399481">
        <ele>494.962892</ele>
        <time>2024-09-08T08:16:25.000Z</time>
      </trkpt>
      <trkpt lat="47.826093" lon="13.399536">
        <ele>496.215548</ele>
        <time>2024-09-08T08:16:28.000Z</time>
      </trkpt>
      <trkpt lat="47.825715" lon="13.399546">
        <ele>497.837037</ele>
        <time>2024-09-08T08:16:32.000Z</time>
      </trkpt>
      <trkpt lat="47.825475" lon="13.399546">
        <ele>499.597857</ele>
        <time>2024-09-08T08:16:35.000Z</time>
      </trkpt>
      <trkpt lat="47.825118" lon="13.399537">
        <ele>502.748947</ele>
        <time>2024-09-08T08:16:39.000Z</time>
      </trkpt>
      <trkpt lat="47.824911" lon="13.399519">
        <ele>504.394907</ele>
        <time>2024-09-08T08:16:41.000Z</time>
      </trkpt>
      <trkpt lat="47.824641" lon="13.399473">
        <ele>506.741988</ele>
        <time>2024-09-08T08:16:44.000Z</time>
      </trkpt>
      <trkpt lat="47.824504" lon="13.399449">
        <ele>507.915582</ele>
        <time>2024-09-08T08:16:46.000Z</time>
      </trkpt>
      <trkpt lat="47.824371" lon="13.399404">
        <ele>508.974398</ele>
        <time>2024-09-08T08:16:48.000Z</time>
      </trkpt>
      <trkpt lat="47.82422" lon="13.399357">
        <ele>510.361673</ele>
        <time>2024-09-08T08:16:50.000Z</time>
      </trkpt>
      <trkpt lat="47.823519" lon="13.399039">
        <ele>515.284771</ele>
        <time>2024-09-08T08:16:58.000Z</time>
      </trkpt>
      <trkpt lat="47.822888" lon="13.398601">
        <ele>519.132277</ele>
        <time>2024-09-08T08:17:06.000Z</time>
      </trkpt>
      <trkpt lat="47.822303" lon="13.398022">
        <ele>522.92142</ele>
        <time>2024-09-08T08:17:14.000Z</time>
      </trkpt>
      <trkpt lat="47.821513" lon="13.397044">
        <ele>522.47098</ele>
        <time>2024-09-08T08:17:25.000Z</time>
      </trkpt>
      <trkpt lat="47.821083" lon="13.39669">
        <ele>522.254851</ele>
        <time>2024-09-08T08:17:30.000Z</time>
      </trkpt>
      <trkpt lat="47.820688" lon="13.396604">
        <ele>521.929867</ele>
        <time>2024-09-08T08:17:34.000Z</time>
      </trkpt>
      <trkpt lat="47.82033" lon="13.396666">
        <ele>521.294567</ele>
        <time>2024-09-08T08:17:38.000Z</time>
      </trkpt>
      <trkpt lat="47.819959" lon="13.396905">
        <ele>520.580934</ele>
        <time>2024-09-08T08:17:42.000Z</time>
      </trkpt>
      <trkpt lat="47.81968" lon="13.397249">
        <ele>519.961232</ele>
        <time>2024-09-08T08:17:46.000Z</time>
      </trkpt>
      <trkpt lat="47.819544" lon="13.397487">
        <ele>519.570302</ele>
        <time>2024-09-08T08:17:48.000Z</time>
      </trkpt>
      <trkpt lat="47.81936" lon="13.397789">
        <ele>519.109792</ele>
        <time>2024-09-08T08:17:51.000Z</time>
      </trkpt>
      <trkpt lat="47.819131" lon="13.398121">
        <ele>517.959384</ele>
        <time>2024-09-08T08:17:55.000Z</time>
      </trkpt>
      <trkpt lat="47.818876" lon="13.398339">
        <ele>516.738368</ele>
        <time>2024-09-08T08:17:58.000Z</time>
      </trkpt>
      <trkpt lat="47.817878" lon="13.398708">
        <ele>512.450295</ele>
        <time>2024-09-08T08:18:09.000Z</time>
      </trkpt>
      <trkpt lat="47.817486" lon="13.398978">
        <ele>510.13309</ele>
        <time>2024-09-08T08:18:14.000Z</time>
      </trkpt>
      <trkpt lat="47.817133" lon="13.39942">
        <ele>507.146144</ele>
        <time>2024-09-08T08:18:19.000Z</time>
      </trkpt>
      <trkpt lat="47.816772" lon="13.400105">
        <ele>503.227011</ele>
        <time>2024-09-08T08:18:26.000Z</time>
      </trkpt>
      <trkpt lat="47.816676" lon="13.400261">
        <ele>502.339328</ele>
        <time>2024-09-08T08:18:28.000Z</time>
      </trkpt>
      <trkpt lat="47.816567" lon="13.400401">
        <ele>501.410328</ele>
        <time>2024-09-08T08:18:30.000Z</time>
      </trkpt>
      <trkpt lat="47.81648" lon="13.400506">
        <ele>500.583535</ele>
        <time>2024-09-08T08:18:31.000Z</time>
      </trkpt>
      <trkpt lat="47.816296" lon="13.400665">
        <ele>499.31154</ele>
        <time>2024-09-08T08:18:33.000Z</time>
      </trkpt>
      <trkpt lat="47.816119" lon="13.400832">
        <ele>498.094977</ele>
        <time>2024-09-08T08:18:35.000Z</time>
      </trkpt>
      <trkpt lat="47.815737" lon="13.401321">
        <ele>495.31059</ele>
        <time>2024-09-08T08:18:41.000Z</time>
      </trkpt>
      <trkpt lat="47.815649" lon="13.401557">
        <ele>494.255922</ele>
        <time>2024-09-08T08:18:43.000Z</time>
      </trkpt>
      <trkpt lat="47.815581" lon="13.401777">
        <ele>493.40369</ele>
        <time>2024-09-08T08:18:45.000Z</time>
      </trkpt>
      <trkpt lat="47.815548" lon="13.40192">
        <ele>492.788489</ele>
        <time>2024-09-08T08:18:46.000Z</time>
      </trkpt>
      <trkpt lat="47.815524" lon="13.402032">
        <ele>492.38704</ele>
        <time>2024-09-08T08:18:47.000Z</time>
      </trkpt>
      <trkpt lat="47.815439" lon="13.402479">
        <ele>490.626763</ele>
        <time>2024-09-08T08:18:50.000Z</time>
      </trkpt>
      <trkpt lat="47.815397" lon="13.402844">
        <ele>489.448308</ele>
        <time>2024-09-08T08:18:53.000Z</time>
      </trkpt>
      <trkpt lat="47.815378" lon="13.403051">
        <ele>489.184457</ele>
        <time>2024-09-08T08:18:55.000Z</time>
      </trkpt>
      <trkpt lat="47.815333" lon="13.403453">
        <ele>488.626537</ele>
        <time>2024-09-08T08:18:58.000Z</time>
      </trkpt>
      <trkpt lat="47.815321" lon="13.403541">
        <ele>488.487901</ele>
        <time>2024-09-08T08:18:59.000Z</time>
      </trkpt>
      <trkpt lat="47.815265" lon="13.403848">
        <ele>488.069165</ele>
        <time>2024-09-08T08:19:01.000Z</time>
      </trkpt>
      <trkpt lat="47.81521" lon="13.4043">
        <ele>487.439064</ele>
        <time>2024-09-08T08:19:04.000Z</time>
      </trkpt>
      <trkpt lat="47.815206" lon="13.404418">
        <ele>487.270082</ele>
        <time>2024-09-08T08:19:05.000Z</time>
      </trkpt>
      <trkpt lat="47.815114" lon="13.406124">
        <ele>485.78694</ele>
        <time>2024-09-08T08:19:18.000Z</time>
      </trkpt>
      <trkpt lat="47.815074" lon="13.406367">
        <ele>485.744317</ele>
        <time>2024-09-08T08:19:20.000Z</time>
      </trkpt>
      <trkpt lat="47.815039" lon="13.406546">
        <ele>485.713139</ele>
        <time>2024-09-08T08:19:21.000Z</time>
      </trkpt>
      <trkpt lat="47.814785" lon="13.407256">
        <ele>485.580375</ele>
        <time>2024-09-08T08:19:27.000Z</time>
      </trkpt>
      <trkpt lat="47.814189" lon="13.408266">
        <ele>485.608638</ele>
        <time>2024-09-08T08:19:37.000Z</time>
      </trkpt>
      <trkpt lat="47.81392" lon="13.408598">
        <ele>485.729369</ele>
        <time>2024-09-08T08:19:41.000Z</time>
      </trkpt>
      <trkpt lat="47.813751" lon="13.408788">
        <ele>485.803471</ele>
        <time>2024-09-08T08:19:43.000Z</time>
      </trkpt>
      <trkpt lat="47.813547" lon="13.409069">
        <ele>485.900413</ele>
        <time>2024-09-08T08:19:46.000Z</time>
      </trkpt>
      <trkpt lat="47.81327" lon="13.409543">
        <ele>486.045626</ele>
        <time>2024-09-08T08:19:51.000Z</time>
      </trkpt>
      <trkpt lat="47.813207" lon="13.409643">
        <ele>486.078588</ele>
        <time>2024-09-08T08:19:52.000Z</time>
      </trkpt>
      <trkpt lat="47.813065" lon="13.41018">
        <ele>486.231667</ele>
        <time>2024-09-08T08:19:56.000Z</time>
      </trkpt>
      <trkpt lat="47.812998" lon="13.410488">
        <ele>486.318421</ele>
        <time>2024-09-08T08:19:58.000Z</time>
      </trkpt>
      <trkpt lat="47.812942" lon="13.410658">
        <ele>486.367065</ele>
        <time>2024-09-08T08:19:59.000Z</time>
      </trkpt>
      <trkpt lat="47.812916" lon="13.410743">
        <ele>486.39887</ele>
        <time>2024-09-08T08:20:00.000Z</time>
      </trkpt>
      <trkpt lat="47.812763" lon="13.411024">
        <ele>486.49291</ele>
        <time>2024-09-08T08:20:03.000Z</time>
      </trkpt>
      <trkpt lat="47.812442" lon="13.411488">
        <ele>486.671334</ele>
        <time>2024-09-08T08:20:08.000Z</time>
      </trkpt>
      <trkpt lat="47.811868" lon="13.41217">
        <ele>486.403837</ele>
        <time>2024-09-08T08:20:16.000Z</time>
      </trkpt>
      <trkpt lat="47.810928" lon="13.413824">
        <ele>484.894016</ele>
        <time>2024-09-08T08:20:32.000Z</time>
      </trkpt>
      <trkpt lat="47.810624" lon="13.414488">
        <ele>484.537453</ele>
        <time>2024-09-08T08:20:38.000Z</time>
      </trkpt>
      <trkpt lat="47.810566" lon="13.414585">
        <ele>484.485363</ele>
        <time>2024-09-08T08:20:39.000Z</time>
      </trkpt>
      <trkpt lat="47.810225" lon="13.415018">
        <ele>484.187111</ele>
        <time>2024-09-08T08:20:44.000Z</time>
      </trkpt>
      <trkpt lat="47.809735" lon="13.41519">
        <ele>483.844346</ele>
        <time>2024-09-08T08:20:50.000Z</time>
      </trkpt>
      <trkpt lat="47.809638" lon="13.415255">
        <ele>483.767666</ele>
        <time>2024-09-08T08:20:51.000Z</time>
      </trkpt>
      <trkpt lat="47.809599" lon="13.415276">
        <ele>483.743649</ele>
        <time>2024-09-08T08:20:51.000Z</time>
      </trkpt>
      <trkpt lat="47.809537" lon="13.415347">
        <ele>483.766273</ele>
        <time>2024-09-08T08:20:52.000Z</time>
      </trkpt>
      <trkpt lat="47.809429" lon="13.415469">
        <ele>483.867605</ele>
        <time>2024-09-08T08:20:54.000Z</time>
      </trkpt>
      <trkpt lat="47.80902" lon="13.416218">
        <ele>484.322923</ele>
        <time>2024-09-08T08:21:01.000Z</time>
      </trkpt>
      <trkpt lat="47.808026" lon="13.4173">
        <ele>485.16504</ele>
        <time>2024-09-08T08:21:15.000Z</time>
      </trkpt>
      <trkpt lat="47.807635" lon="13.418554">
        <ele>485.760999</ele>
        <time>2024-09-08T08:21:25.000Z</time>
      </trkpt>
      <trkpt lat="47.807338" lon="13.4192">
        <ele>486.100624</ele>
        <time>2024-09-08T08:21:31.000Z</time>
      </trkpt>
      <trkpt lat="47.807013" lon="13.419762">
        <ele>485.946641</ele>
        <time>2024-09-08T08:21:37.000Z</time>
      </trkpt>
      <trkpt lat="47.806687" lon="13.420729">
        <ele>485.599052</ele>
        <time>2024-09-08T08:21:45.000Z</time>
      </trkpt>
      <trkpt lat="47.806292" lon="13.422552">
        <ele>485.096246</ele>
        <time>2024-09-08T08:21:59.000Z</time>
      </trkpt>
      <trkpt lat="47.806192" lon="13.422871">
        <ele>485.025357</ele>
        <time>2024-09-08T08:22:02.000Z</time>
      </trkpt>
      <trkpt lat="47.805974" lon="13.423826">
        <ele>484.82165</ele>
        <time>2024-09-08T08:22:10.000Z</time>
      </trkpt>
      <trkpt lat="47.805761" lon="13.425771">
        <ele>487.140461</ele>
        <time>2024-09-08T08:22:25.000Z</time>
      </trkpt>
      <trkpt lat="47.805753" lon="13.425979">
        <ele>487.454876</ele>
        <time>2024-09-08T08:22:27.000Z</time>
      </trkpt>
      <trkpt lat="47.805762" lon="13.426139">
        <ele>487.690567</ele>
        <time>2024-09-08T08:22:28.000Z</time>
      </trkpt>
      <trkpt lat="47.805851" lon="13.427377">
        <ele>490.413602</ele>
        <time>2024-09-08T08:22:37.000Z</time>
      </trkpt>
      <trkpt lat="47.805976" lon="13.42834">
        <ele>493.411539</ele>
        <time>2024-09-08T08:22:44.000Z</time>
      </trkpt>
      <trkpt lat="47.805977" lon="13.428744">
        <ele>494.61181</ele>
        <time>2024-09-08T08:22:47.000Z</time>
      </trkpt>
      <trkpt lat="47.805963" lon="13.42879">
        <ele>494.777975</ele>
        <time>2024-09-08T08:22:47.000Z</time>
      </trkpt>
      <trkpt lat="47.805937" lon="13.428937">
        <ele>495.226976</ele>
        <time>2024-09-08T08:22:48.000Z</time>
      </trkpt>
      <trkpt lat="47.805928" lon="13.429005">
        <ele>495.450393</ele>
        <time>2024-09-08T08:22:49.000Z</time>
      </trkpt>
      <trkpt lat="47.805849" lon="13.429397">
        <ele>496.710624</ele>
        <time>2024-09-08T08:22:52.000Z</time>
      </trkpt>
      <trkpt lat="47.805818" lon="13.429812">
        <ele>496.908599</ele>
        <time>2024-09-08T08:22:55.000Z</time>
      </trkpt>
      <trkpt lat="47.805812" lon="13.42988">
        <ele>496.904024</ele>
        <time>2024-09-08T08:22:56.000Z</time>
      </trkpt>
      <trkpt lat="47.805817" lon="13.430043">
        <ele>496.891451</ele>
        <time>2024-09-08T08:22:57.000Z</time>
      </trkpt>
      <trkpt lat="47.80584" lon="13.43033">
        <ele>496.870264</ele>
        <time>2024-09-08T08:22:59.000Z</time>
      </trkpt>
      <trkpt lat="47.805868" lon="13.430855">
        <ele>496.829634</ele>
        <time>2024-09-08T08:23:03.000Z</time>
      </trkpt>
      <trkpt lat="47.805862" lon="13.431027">
        <ele>496.81793</ele>
        <time>2024-09-08T08:23:04.000Z</time>
      </trkpt>
      <trkpt lat="47.805844" lon="13.431061">
        <ele>496.814762</ele>
        <time>2024-09-08T08:23:04.000Z</time>
      </trkpt>
      <trkpt lat="47.805812" lon="13.431212">
        <ele>496.802389</ele>
        <time>2024-09-08T08:23:05.000Z</time>
      </trkpt>
      <trkpt lat="47.805763" lon="13.431487">
        <ele>496.782017</ele>
        <time>2024-09-08T08:23:07.000Z</time>
      </trkpt>
      <trkpt lat="47.805748" lon="13.431534">
        <ele>496.777322</ele>
        <time>2024-09-08T08:23:07.000Z</time>
      </trkpt>
      <trkpt lat="47.805694" lon="13.431912">
        <ele>496.748974</ele>
        <time>2024-09-08T08:23:10.000Z</time>
      </trkpt>
      <trkpt lat="47.805681" lon="13.432028">
        <ele>496.739186</ele>
        <time>2024-09-08T08:23:11.000Z</time>
      </trkpt>
      <trkpt lat="47.805703" lon="13.432164">
        <ele>496.579735</ele>
        <time>2024-09-08T08:23:12.000Z</time>
      </trkpt>
      <trkpt lat="47.805784" lon="13.432999">
        <ele>494.251379</ele>
        <time>2024-09-08T08:23:18.000Z</time>
      </trkpt>
      <trkpt lat="47.805776" lon="13.43443">
        <ele>490.258163</ele>
        <time>2024-09-08T08:23:29.000Z</time>
      </trkpt>
      <trkpt lat="47.805757" lon="13.434697">
        <ele>489.560151</ele>
        <time>2024-09-08T08:23:31.000Z</time>
      </trkpt>
      <trkpt lat="47.805744" lon="13.434957">
        <ele>489.140997</ele>
        <time>2024-09-08T08:23:33.000Z</time>
      </trkpt>
      <trkpt lat="47.805757" lon="13.435921">
        <ele>488.275579</ele>
        <time>2024-09-08T08:23:40.000Z</time>
      </trkpt>
      <trkpt lat="47.805692" lon="13.436878">
        <ele>487.414974</ele>
        <time>2024-09-08T08:23:47.000Z</time>
      </trkpt>
      <trkpt lat="47.805787" lon="13.437349">
        <ele>486.975928</ele>
        <time>2024-09-08T08:23:51.000Z</time>
      </trkpt>
      <trkpt lat="47.805898" lon="13.437583">
        <ele>486.894307</ele>
        <time>2024-09-08T08:23:53.000Z</time>
      </trkpt>
      <trkpt lat="47.805945" lon="13.437704">
        <ele>486.890513</ele>
        <time>2024-09-08T08:23:54.000Z</time>
      </trkpt>
      <trkpt lat="47.806032" lon="13.438024">
        <ele>486.881208</ele>
        <time>2024-09-08T08:23:57.000Z</time>
      </trkpt>
      <trkpt lat="47.806063" lon="13.438356">
        <ele>486.872423</ele>
        <time>2024-09-08T08:24:00.000Z</time>
      </trkpt>
      <trkpt lat="47.805938" lon="13.439458">
        <ele>486.842634</ele>
        <time>2024-09-08T08:24:08.000Z</time>
      </trkpt>
      <trkpt lat="47.806054" lon="13.440533">
        <ele>486.530951</ele>
        <time>2024-09-08T08:24:16.000Z</time>
      </trkpt>
      <trkpt lat="47.806072" lon="13.440832">
        <ele>486.36561</ele>
        <time>2024-09-08T08:24:18.000Z</time>
      </trkpt>
      <trkpt lat="47.80608" lon="13.440882">
        <ele>486.345956</ele>
        <time>2024-09-08T08:24:18.000Z</time>
      </trkpt>
      <trkpt lat="47.806077" lon="13.44141">
        <ele>486.052687</ele>
        <time>2024-09-08T08:24:22.000Z</time>
      </trkpt>
      <trkpt lat="47.806062" lon="13.441752">
        <ele>485.872519</ele>
        <time>2024-09-08T08:24:25.000Z</time>
      </trkpt>
      <trkpt lat="47.806033" lon="13.442042">
        <ele>485.713991</ele>
        <time>2024-09-08T08:24:27.000Z</time>
      </trkpt>
      <trkpt lat="47.806019" lon="13.442524">
        <ele>485.450047</ele>
        <time>2024-09-08T08:24:31.000Z</time>
      </trkpt>
      <trkpt lat="47.806018" lon="13.442915">
        <ele>485.262534</ele>
        <time>2024-09-08T08:24:34.000Z</time>
      </trkpt>
      <trkpt lat="47.806012" lon="13.44297">
        <ele>485.230533</ele>
        <time>2024-09-08T08:24:34.000Z</time>
      </trkpt>
      <trkpt lat="47.806018" lon="13.443125">
        <ele>485.160132</ele>
        <time>2024-09-08T08:24:35.000Z</time>
      </trkpt>
      <trkpt lat="47.806033" lon="13.443887">
        <ele>484.818203</ele>
        <time>2024-09-08T08:24:41.000Z</time>
      </trkpt>
      <trkpt lat="47.806063" lon="13.444158">
        <ele>484.688864</ele>
        <time>2024-09-08T08:24:43.000Z</time>
      </trkpt>
      <trkpt lat="47.806131" lon="13.445002">
        <ele>484.297777</ele>
        <time>2024-09-08T08:24:49.000Z</time>
      </trkpt>
      <trkpt lat="47.806151" lon="13.445654">
        <ele>484.192785</ele>
        <time>2024-09-08T08:24:54.000Z</time>
      </trkpt>
      <trkpt lat="47.806113" lon="13.446138">
        <ele>484.24987</ele>
        <time>2024-09-08T08:24:58.000Z</time>
      </trkpt>
      <trkpt lat="47.806071" lon="13.446357">
        <ele>484.276808</ele>
        <time>2024-09-08T08:25:00.000Z</time>
      </trkpt>
      <trkpt lat="47.805887" lon="13.447163">
        <ele>484.37937</ele>
        <time>2024-09-08T08:25:06.000Z</time>
      </trkpt>
      <trkpt lat="47.805801" lon="13.447672">
        <ele>484.442177</ele>
        <time>2024-09-08T08:25:10.000Z</time>
      </trkpt>
      <trkpt lat="47.805761" lon="13.448009">
        <ele>484.461068</ele>
        <time>2024-09-08T08:25:13.000Z</time>
      </trkpt>
      <trkpt lat="47.80573" lon="13.448362">
        <ele>484.414675</ele>
        <time>2024-09-08T08:25:16.000Z</time>
      </trkpt>
      <trkpt lat="47.805714" lon="13.448414">
        <ele>484.408308</ele>
        <time>2024-09-08T08:25:16.000Z</time>
      </trkpt>
      <trkpt lat="47.805694" lon="13.448638">
        <ele>484.377882</ele>
        <time>2024-09-08T08:25:18.000Z</time>
      </trkpt>
      <trkpt lat="47.805531" lon="13.449204">
        <ele>484.299066</ele>
        <time>2024-09-08T08:25:23.000Z</time>
      </trkpt>
      <trkpt lat="47.805504" lon="13.449234">
        <ele>484.294854</ele>
        <time>2024-09-08T08:25:23.000Z</time>
      </trkpt>
      <trkpt lat="47.805507" lon="13.449256">
        <ele>484.292898</ele>
        <time>2024-09-08T08:25:23.000Z</time>
      </trkpt>
      <trkpt lat="47.805508" lon="13.44925">
        <ele>484.291919</ele>
        <time>2024-09-08T08:25:23.000Z</time>
      </trkpt>
      <trkpt lat="47.805441" lon="13.449489">
        <ele>484.259393</ele>
        <time>2024-09-08T08:25:25.000Z</time>
      </trkpt>
      <trkpt lat="47.805111" lon="13.450067">
        <ele>484.163287</ele>
        <time>2024-09-08T08:25:31.000Z</time>
      </trkpt>
      <trkpt lat="47.805037" lon="13.450194">
        <ele>484.139284</ele>
        <time>2024-09-08T08:25:32.000Z</time>
      </trkpt>
      <trkpt lat="47.804939" lon="13.450371">
        <ele>484.152767</ele>
        <time>2024-09-08T08:25:34.000Z</time>
      </trkpt>
      <trkpt lat="47.804858" lon="13.450498">
        <ele>484.189681</ele>
        <time>2024-09-08T08:25:35.000Z</time>
      </trkpt>
      <trkpt lat="47.804677" lon="13.450606">
        <ele>484.246875</ele>
        <time>2024-09-08T08:25:37.000Z</time>
      </trkpt>
      <trkpt lat="47.804533" lon="13.450651">
        <ele>484.291485</ele>
        <time>2024-09-08T08:25:39.000Z</time>
      </trkpt>
      <trkpt lat="47.804445" lon="13.450647">
        <ele>484.315409</ele>
        <time>2024-09-08T08:25:40.000Z</time>
      </trkpt>
      <trkpt lat="47.804411" lon="13.450659">
        <ele>484.325263</ele>
        <time>2024-09-08T08:25:40.000Z</time>
      </trkpt>
      <trkpt lat="47.804357" lon="13.450628">
        <ele>484.347692</ele>
        <time>2024-09-08T08:25:41.000Z</time>
      </trkpt>
      <trkpt lat="47.804275" lon="13.450595">
        <ele>484.371409</ele>
        <time>2024-09-08T08:25:42.000Z</time>
      </trkpt>
      <trkpt lat="47.804188" lon="13.450591">
        <ele>484.397927</ele>
        <time>2024-09-08T08:25:43.000Z</time>
      </trkpt>
      <trkpt lat="47.804086" lon="13.450596">
        <ele>484.42948</ele>
        <time>2024-09-08T08:25:44.000Z</time>
      </trkpt>
      <trkpt lat="47.803743" lon="13.450658">
        <ele>484.532056</ele>
        <time>2024-09-08T08:25:48.000Z</time>
      </trkpt>
      <trkpt lat="47.803658" lon="13.450675">
        <ele>484.554118</ele>
        <time>2024-09-08T08:25:49.000Z</time>
      </trkpt>
      <trkpt lat="47.803582" lon="13.450676">
        <ele>484.577302</ele>
        <time>2024-09-08T08:25:50.000Z</time>
      </trkpt>
      <trkpt lat="47.803566" lon="13.450661">
        <ele>484.58424</ele>
        <time>2024-09-08T08:25:50.000Z</time>
      </trkpt>
      <trkpt lat="47.803487" lon="13.450631">
        <ele>484.607369</ele>
        <time>2024-09-08T08:25:51.000Z</time>
      </trkpt>
      <trkpt lat="47.803419" lon="13.450562">
        <ele>484.633177</ele>
        <time>2024-09-08T08:25:52.000Z</time>
      </trkpt>
      <trkpt lat="47.803349" lon="13.450448">
        <ele>484.66053</ele>
        <time>2024-09-08T08:25:53.000Z</time>
      </trkpt>
      <trkpt lat="47.80332" lon="13.450338">
        <ele>484.765447</ele>
        <time>2024-09-08T08:25:54.000Z</time>
      </trkpt>
      <trkpt lat="47.803286" lon="13.450063">
        <ele>484.991891</ele>
        <time>2024-09-08T08:25:56.000Z</time>
      </trkpt>
      <trkpt lat="47.803269" lon="13.449853">
        <ele>485.169636</ele>
        <time>2024-09-08T08:25:58.000Z</time>
      </trkpt>
      <trkpt lat="47.802932" lon="13.449">
        <ele>485.986424</ele>
        <time>2024-09-08T08:26:05.000Z</time>
      </trkpt>
      <trkpt lat="47.802862" lon="13.448579">
        <ele>486.335043</ele>
        <time>2024-09-08T08:26:08.000Z</time>
      </trkpt>
      <trkpt lat="47.802829" lon="13.448426">
        <ele>486.474563</ele>
        <time>2024-09-08T08:26:09.000Z</time>
      </trkpt>
      <trkpt lat="47.802771" lon="13.448218">
        <ele>486.658467</ele>
        <time>2024-09-08T08:26:11.000Z</time>
      </trkpt>
      <trkpt lat="47.802731" lon="13.448095">
        <ele>486.780959</ele>
        <time>2024-09-08T08:26:12.000Z</time>
      </trkpt>
      <trkpt lat="47.802636" lon="13.447798">
        <ele>486.942727</ele>
        <time>2024-09-08T08:26:14.000Z</time>
      </trkpt>
      <trkpt lat="47.802547" lon="13.447588">
        <ele>487.018157</ele>
        <time>2024-09-08T08:26:16.000Z</time>
      </trkpt>
      <trkpt lat="47.802216" lon="13.4468">
        <ele>487.308588</ele>
        <time>2024-09-08T08:26:23.000Z</time>
      </trkpt>
      <trkpt lat="47.802122" lon="13.445954">
        <ele>487.579343</ele>
        <time>2024-09-08T08:26:29.000Z</time>
      </trkpt>
      <trkpt lat="47.801907" lon="13.445264">
        <ele>487.604034</ele>
        <time>2024-09-08T08:26:35.000Z</time>
      </trkpt>
      <trkpt lat="47.801906" lon="13.444951">
        <ele>487.492075</ele>
        <time>2024-09-08T08:26:37.000Z</time>
      </trkpt>
      <trkpt lat="47.801978" lon="13.44435">
        <ele>487.266646</ele>
        <time>2024-09-08T08:26:42.000Z</time>
      </trkpt>
      <trkpt lat="47.80205" lon="13.444077">
        <ele>487.16297</ele>
        <time>2024-09-08T08:26:44.000Z</time>
      </trkpt>
      <trkpt lat="47.802212" lon="13.443497">
        <ele>486.934637</ele>
        <time>2024-09-08T08:26:49.000Z</time>
      </trkpt>
      <trkpt lat="47.802286" lon="13.443305">
        <ele>486.857955</ele>
        <time>2024-09-08T08:26:51.000Z</time>
      </trkpt>
      <trkpt lat="47.802351" lon="13.442707">
        <ele>486.75509</ele>
        <time>2024-09-08T08:26:56.000Z</time>
      </trkpt>
      <trkpt lat="47.802272" lon="13.442151">
        <ele>486.755767</ele>
        <time>2024-09-08T08:27:00.000Z</time>
      </trkpt>
      <trkpt lat="47.801877" lon="13.440371">
        <ele>486.851059</ele>
        <time>2024-09-08T08:27:14.000Z</time>
      </trkpt>
      <trkpt lat="47.801448" lon="13.439247">
        <ele>488.283853</ele>
        <time>2024-09-08T08:27:24.000Z</time>
      </trkpt>
      <trkpt lat="47.801346" lon="13.438946">
        <ele>488.673974</ele>
        <time>2024-09-08T08:27:27.000Z</time>
      </trkpt>
      <trkpt lat="47.801087" lon="13.438111">
        <ele>489.702129</ele>
        <time>2024-09-08T08:27:34.000Z</time>
      </trkpt>
      <trkpt lat="47.800995" lon="13.437895">
        <ele>489.982225</ele>
        <time>2024-09-08T08:27:36.000Z</time>
      </trkpt>
      <trkpt lat="47.80072" lon="13.43732">
        <ele>490.801355</ele>
        <time>2024-09-08T08:27:41.000Z</time>
      </trkpt>
      <trkpt lat="47.800674" lon="13.437229">
        <ele>490.937386</ele>
        <time>2024-09-08T08:27:42.000Z</time>
      </trkpt>
      <trkpt lat="47.800598" lon="13.437091">
        <ele>491.123603</ele>
        <time>2024-09-08T08:27:43.000Z</time>
      </trkpt>
      <trkpt lat="47.800596" lon="13.437086">
        <ele>491.145749</ele>
        <time>2024-09-08T08:27:43.000Z</time>
      </trkpt>
      <trkpt lat="47.800485" lon="13.436815">
        <ele>491.508489</ele>
        <time>2024-09-08T08:27:45.000Z</time>
      </trkpt>
      <trkpt lat="47.800325" lon="13.436182">
        <ele>492.270473</ele>
        <time>2024-09-08T08:27:50.000Z</time>
      </trkpt>
      <trkpt lat="47.800104" lon="13.434727">
        <ele>493.163906</ele>
        <time>2024-09-08T08:28:01.000Z</time>
      </trkpt>
      <trkpt lat="47.800083" lon="13.433668">
        <ele>493.532794</ele>
        <time>2024-09-08T08:28:09.000Z</time>
      </trkpt>
      <trkpt lat="47.799896" lon="13.43291">
        <ele>493.739514</ele>
        <time>2024-09-08T08:28:15.000Z</time>
      </trkpt>
      <trkpt lat="47.799886" lon="13.432537">
        <ele>493.744703</ele>
        <time>2024-09-08T08:28:18.000Z</time>
      </trkpt>
      <trkpt lat="47.799906" lon="13.432351">
        <ele>493.747641</ele>
        <time>2024-09-08T08:28:19.000Z</time>
      </trkpt>
      <trkpt lat="47.800069" lon="13.431691">
        <ele>493.757854</ele>
        <time>2024-09-08T08:28:24.000Z</time>
      </trkpt>
      <trkpt lat="47.800181" lon="13.430926">
        <ele>493.768949</ele>
        <time>2024-09-08T08:28:30.000Z</time>
      </trkpt>
      <trkpt lat="47.800266" lon="13.428554">
        <ele>492.10435</ele>
        <time>2024-09-08T08:28:48.000Z</time>
      </trkpt>
      <trkpt lat="47.800294" lon="13.428279">
        <ele>491.871699</ele>
        <time>2024-09-08T08:28:50.000Z</time>
      </trkpt>
      <trkpt lat="47.800352" lon="13.427917">
        <ele>491.560071</ele>
        <time>2024-09-08T08:28:53.000Z</time>
      </trkpt>
      <trkpt lat="47.80039" lon="13.42769">
        <ele>491.354161</ele>
        <time>2024-09-08T08:28:55.000Z</time>
      </trkpt>
      <trkpt lat="47.800579" lon="13.42671">
        <ele>490.44074</ele>
        <time>2024-09-08T08:29:03.000Z</time>
      </trkpt>
      <trkpt lat="47.800646" lon="13.426081">
        <ele>489.8766</ele>
        <time>2024-09-08T08:29:08.000Z</time>
      </trkpt>
      <trkpt lat="47.800613" lon="13.42572">
        <ele>489.557522</ele>
        <time>2024-09-08T08:29:11.000Z</time>
      </trkpt>
      <trkpt lat="47.80058" lon="13.425553">
        <ele>489.410247</ele>
        <time>2024-09-08T08:29:12.000Z</time>
      </trkpt>
      <trkpt lat="47.800517" lon="13.425353">
        <ele>489.209426</ele>
        <time>2024-09-08T08:29:14.000Z</time>
      </trkpt>
      <trkpt lat="47.800356" lon="13.425">
        <ele>489.848786</ele>
        <time>2024-09-08T08:29:17.000Z</time>
      </trkpt>
      <trkpt lat="47.800187" lon="13.424655">
        <ele>490.761124</ele>
        <time>2024-09-08T08:29:20.000Z</time>
      </trkpt>
      <trkpt lat="47.79982" lon="13.423903">
        <ele>492.740162</ele>
        <time>2024-09-08T08:29:27.000Z</time>
      </trkpt>
      <trkpt lat="47.799616" lon="13.423523">
        <ele>493.760197</ele>
        <time>2024-09-08T08:29:31.000Z</time>
      </trkpt>
      <trkpt lat="47.799497" lon="13.423199">
        <ele>494.555669</ele>
        <time>2024-09-08T08:29:34.000Z</time>
      </trkpt>
      <trkpt lat="47.799378" lon="13.422742">
        <ele>495.938715</ele>
        <time>2024-09-08T08:29:38.000Z</time>
      </trkpt>
      <trkpt lat="47.799385" lon="13.42262">
        <ele>496.295979</ele>
        <time>2024-09-08T08:29:39.000Z</time>
      </trkpt>
      <trkpt lat="47.79926" lon="13.422169">
        <ele>497.782801</ele>
        <time>2024-09-08T08:29:43.000Z</time>
      </trkpt>
      <trkpt lat="47.799266" lon="13.421154">
        <ele>500.8682</ele>
        <time>2024-09-08T08:29:51.000Z</time>
      </trkpt>
      <trkpt lat="47.799209" lon="13.420905">
        <ele>501.686486</ele>
        <time>2024-09-08T08:29:53.000Z</time>
      </trkpt>
      <trkpt lat="47.799071" lon="13.420449">
        <ele>503.00948</ele>
        <time>2024-09-08T08:29:57.000Z</time>
      </trkpt>
      <trkpt lat="47.799031" lon="13.420324">
        <ele>503.135367</ele>
        <time>2024-09-08T08:29:58.000Z</time>
      </trkpt>
      <trkpt lat="47.798863" lon="13.41919">
        <ele>504.150735</ele>
        <time>2024-09-08T08:30:07.000Z</time>
      </trkpt>
      <trkpt lat="47.798736" lon="13.41836">
        <ele>504.898325</ele>
        <time>2024-09-08T08:30:13.000Z</time>
      </trkpt>
      <trkpt lat="47.798748" lon="13.417386">
        <ele>505.078189</ele>
        <time>2024-09-08T08:30:20.000Z</time>
      </trkpt>
      <trkpt lat="47.798689" lon="13.417256">
        <ele>505.011507</ele>
        <time>2024-09-08T08:30:21.000Z</time>
      </trkpt>
      <trkpt lat="47.798464" lon="13.417189">
        <ele>504.866884</ele>
        <time>2024-09-08T08:30:24.000Z</time>
      </trkpt>
      <trkpt lat="47.798352" lon="13.416805">
        <ele>504.693192</ele>
        <time>2024-09-08T08:30:27.000Z</time>
      </trkpt>
      <trkpt lat="47.798431" lon="13.416248">
        <ele>504.449398</ele>
        <time>2024-09-08T08:30:31.000Z</time>
      </trkpt>
      <trkpt lat="47.798269" lon="13.415877">
        <ele>504.265321</ele>
        <time>2024-09-08T08:30:34.000Z</time>
      </trkpt>
      <trkpt lat="47.798257" lon="13.415144">
        <ele>503.910428</ele>
        <time>2024-09-08T08:30:39.000Z</time>
      </trkpt>
      <trkpt lat="47.798386" lon="13.414113">
        <ele>503.386496</ele>
        <time>2024-09-08T08:30:47.000Z</time>
      </trkpt>
      <trkpt lat="47.798515" lon="13.413551">
        <ele>503.083085</ele>
        <time>2024-09-08T08:30:51.000Z</time>
      </trkpt>
      <trkpt lat="47.798549" lon="13.412989">
        <ele>502.793236</ele>
        <time>2024-09-08T08:30:55.000Z</time>
      </trkpt>
      <trkpt lat="47.798441" lon="13.412242">
        <ele>502.383864</ele>
        <time>2024-09-08T08:31:01.000Z</time>
      </trkpt>
      <trkpt lat="47.798715" lon="13.410914">
        <ele>501.633758</ele>
        <time>2024-09-08T08:31:11.000Z</time>
      </trkpt>
      <trkpt lat="47.798665" lon="13.410044">
        <ele>500.84999</ele>
        <time>2024-09-08T08:31:18.000Z</time>
      </trkpt>
      <trkpt lat="47.798675" lon="13.408989">
        <ele>499.366029</ele>
        <time>2024-09-08T08:31:26.000Z</time>
      </trkpt>
      <trkpt lat="47.798507" lon="13.408576">
        <ele>498.681209</ele>
        <time>2024-09-08T08:31:30.000Z</time>
      </trkpt>
      <trkpt lat="47.798242" lon="13.4074">
        <ele>496.056492</ele>
        <time>2024-09-08T08:31:39.000Z</time>
      </trkpt>
      <trkpt lat="47.798237" lon="13.407105">
        <ele>495.075196</ele>
        <time>2024-09-08T08:31:41.000Z</time>
      </trkpt>
      <trkpt lat="47.798258" lon="13.406875">
        <ele>494.276063</ele>
        <time>2024-09-08T08:31:43.000Z</time>
      </trkpt>
      <trkpt lat="47.798305" lon="13.406715">
        <ele>493.734198</ele>
        <time>2024-09-08T08:31:44.000Z</time>
      </trkpt>
      <trkpt lat="47.798447" lon="13.406396">
        <ele>492.464591</ele>
        <time>2024-09-08T08:31:47.000Z</time>
      </trkpt>
      <trkpt lat="47.798439" lon="13.406291">
        <ele>492.162491</ele>
        <time>2024-09-08T08:31:48.000Z</time>
      </trkpt>
      <trkpt lat="47.798551" lon="13.406172">
        <ele>491.497394</ele>
        <time>2024-09-08T08:31:50.000Z</time>
      </trkpt>
      <trkpt lat="47.798715" lon="13.406023">
        <ele>490.570924</ele>
        <time>2024-09-08T08:31:52.000Z</time>
      </trkpt>
      <trkpt lat="47.799121" lon="13.405588">
        <ele>488.38749</ele>
        <time>2024-09-08T08:31:58.000Z</time>
      </trkpt>
      <trkpt lat="47.799198" lon="13.405429">
        <ele>488.014641</ele>
        <time>2024-09-08T08:31:59.000Z</time>
      </trkpt>
      <trkpt lat="47.799276" lon="13.405216">
        <ele>487.523267</ele>
        <time>2024-09-08T08:32:01.000Z</time>
      </trkpt>
      <trkpt lat="47.799517" lon="13.40255">
        <ele>483.392158</ele>
        <time>2024-09-08T08:32:21.000Z</time>
      </trkpt>
      <trkpt lat="47.799516" lon="13.402201">
        <ele>483.26776</ele>
        <time>2024-09-08T08:32:24.000Z</time>
      </trkpt>
      <trkpt lat="47.799513" lon="13.402054">
        <ele>483.213054</ele>
        <time>2024-09-08T08:32:25.000Z</time>
      </trkpt>
      <trkpt lat="47.799508" lon="13.401982">
        <ele>483.187423</ele>
        <time>2024-09-08T08:32:26.000Z</time>
      </trkpt>
      <trkpt lat="47.799464" lon="13.40169">
        <ele>483.080657</ele>
        <time>2024-09-08T08:32:28.000Z</time>
      </trkpt>
      <trkpt lat="47.799292" lon="13.400989">
        <ele>482.821589</ele>
        <time>2024-09-08T08:32:34.000Z</time>
      </trkpt>
      <trkpt lat="47.799146" lon="13.400586">
        <ele>482.690806</ele>
        <time>2024-09-08T08:32:37.000Z</time>
      </trkpt>
      <trkpt lat="47.798776" lon="13.399969">
        <ele>482.893378</ele>
        <time>2024-09-08T08:32:43.000Z</time>
      </trkpt>
      <trkpt lat="47.797682" lon="13.398492">
        <ele>483.413856</ele>
        <time>2024-09-08T08:32:59.000Z</time>
      </trkpt>
      <trkpt lat="47.797688" lon="13.398312">
        <ele>483.447411</ele>
        <time>2024-09-08T08:33:00.000Z</time>
      </trkpt>
      <trkpt lat="47.798544" lon="13.396859">
        <ele>483.814253</ele>
        <time>2024-09-08T08:33:14.000Z</time>
      </trkpt>
      <trkpt lat="47.798676" lon="13.396502">
        <ele>483.906445</ele>
        <time>2024-09-08T08:33:17.000Z</time>
      </trkpt>
      <trkpt lat="47.798799" lon="13.395872">
        <ele>484.065028</ele>
        <time>2024-09-08T08:33:22.000Z</time>
      </trkpt>
      <trkpt lat="47.798858" lon="13.395505">
        <ele>484.154309</ele>
        <time>2024-09-08T08:33:25.000Z</time>
      </trkpt>
      <trkpt lat="47.798926" lon="13.394898">
        <ele>484.301744</ele>
        <time>2024-09-08T08:33:30.000Z</time>
      </trkpt>
      <trkpt lat="47.799077" lon="13.394187">
        <ele>484.483062</ele>
        <time>2024-09-08T08:33:36.000Z</time>
      </trkpt>
      <trkpt lat="47.799652" lon="13.392771">
        <ele>485.891933</ele>
        <time>2024-09-08T08:33:48.000Z</time>
      </trkpt>
      <trkpt lat="47.799904" lon="13.392158">
        <ele>486.515267</ele>
        <time>2024-09-08T08:33:53.000Z</time>
      </trkpt>
      <trkpt lat="47.799989" lon="13.391965">
        <ele>486.713633</ele>
        <time>2024-09-08T08:33:55.000Z</time>
      </trkpt>
      <trkpt lat="47.80006" lon="13.391831">
        <ele>487.016836</ele>
        <time>2024-09-08T08:33:56.000Z</time>
      </trkpt>
      <trkpt lat="47.800092" lon="13.391764">
        <ele>487.265477</ele>
        <time>2024-09-08T08:33:57.000Z</time>
      </trkpt>
      <trkpt lat="47.800165" lon="13.391624">
        <ele>487.780815</ele>
        <time>2024-09-08T08:33:58.000Z</time>
      </trkpt>
      <trkpt lat="47.800187" lon="13.3916">
        <ele>487.882351</ele>
        <time>2024-09-08T08:33:58.000Z</time>
      </trkpt>
      <trkpt lat="47.800788" lon="13.390523">
        <ele>492.130541</ele>
        <time>2024-09-08T08:34:08.000Z</time>
      </trkpt>
      <trkpt lat="47.800961" lon="13.389981">
        <ele>493.989801</ele>
        <time>2024-09-08T08:34:12.000Z</time>
      </trkpt>
      <trkpt lat="47.801029" lon="13.389475">
        <ele>495.687458</ele>
        <time>2024-09-08T08:34:16.000Z</time>
      </trkpt>
      <trkpt lat="47.801045" lon="13.389259">
        <ele>496.582251</ele>
        <time>2024-09-08T08:34:18.000Z</time>
      </trkpt>
      <trkpt lat="47.801038" lon="13.38917">
        <ele>496.956166</ele>
        <time>2024-09-08T08:34:19.000Z</time>
      </trkpt>
      <trkpt lat="47.801125" lon="13.388582">
        <ele>499.259533</ele>
        <time>2024-09-08T08:34:24.000Z</time>
      </trkpt>
      <trkpt lat="47.801161" lon="13.388449">
        <ele>499.852798</ele>
        <time>2024-09-08T08:34:25.000Z</time>
      </trkpt>
      <trkpt lat="47.801215" lon="13.388309">
        <ele>500.509936</ele>
        <time>2024-09-08T08:34:26.000Z</time>
      </trkpt>
      <trkpt lat="47.801255" lon="13.388223">
        <ele>500.931221</ele>
        <time>2024-09-08T08:34:27.000Z</time>
      </trkpt>
      <trkpt lat="47.801337" lon="13.38802">
        <ele>501.858237</ele>
        <time>2024-09-08T08:34:29.000Z</time>
      </trkpt>
      <trkpt lat="47.801387" lon="13.387884">
        <ele>502.44989</ele>
        <time>2024-09-08T08:34:30.000Z</time>
      </trkpt>
      <trkpt lat="47.801427" lon="13.387762">
        <ele>502.938204</ele>
        <time>2024-09-08T08:34:31.000Z</time>
      </trkpt>
      <trkpt lat="47.801428" lon="13.387737">
        <ele>503.08555</ele>
        <time>2024-09-08T08:34:31.000Z</time>
      </trkpt>
      <trkpt lat="47.801481" lon="13.387323">
        <ele>504.732046</ele>
        <time>2024-09-08T08:34:34.000Z</time>
      </trkpt>
      <trkpt lat="47.801478" lon="13.387244">
        <ele>505.062298</ele>
        <time>2024-09-08T08:34:35.000Z</time>
      </trkpt>
      <trkpt lat="47.801487" lon="13.386895">
        <ele>505.503953</ele>
        <time>2024-09-08T08:34:38.000Z</time>
      </trkpt>
      <trkpt lat="47.801489" lon="13.386449">
        <ele>505.53187</ele>
        <time>2024-09-08T08:34:41.000Z</time>
      </trkpt>
      <trkpt lat="47.801599" lon="13.385937">
        <ele>505.565409</ele>
        <time>2024-09-08T08:34:45.000Z</time>
      </trkpt>
      <trkpt lat="47.801648" lon="13.385816">
        <ele>505.5731</ele>
        <time>2024-09-08T08:34:46.000Z</time>
      </trkpt>
      <trkpt lat="47.801671" lon="13.38575">
        <ele>505.577979</ele>
        <time>2024-09-08T08:34:47.000Z</time>
      </trkpt>
      <trkpt lat="47.801778" lon="13.385568">
        <ele>505.592834</ele>
        <time>2024-09-08T08:34:49.000Z</time>
      </trkpt>
      <trkpt lat="47.801857" lon="13.385463">
        <ele>505.601771</ele>
        <time>2024-09-08T08:34:50.000Z</time>
      </trkpt>
      <trkpt lat="47.802473" lon="13.384744">
        <ele>505.31683</ele>
        <time>2024-09-08T08:34:59.000Z</time>
      </trkpt>
      <trkpt lat="47.802765" lon="13.38426">
        <ele>504.657312</ele>
        <time>2024-09-08T08:35:04.000Z</time>
      </trkpt>
      <trkpt lat="47.802993" lon="13.383524">
        <ele>503.811923</ele>
        <time>2024-09-08T08:35:10.000Z</time>
      </trkpt>
      <trkpt lat="47.803193" lon="13.383057">
        <ele>503.236346</ele>
        <time>2024-09-08T08:35:14.000Z</time>
      </trkpt>
      <trkpt lat="47.803895" lon="13.382167">
        <ele>503.300427</ele>
        <time>2024-09-08T08:35:24.000Z</time>
      </trkpt>
      <trkpt lat="47.804037" lon="13.381947">
        <ele>503.421074</ele>
        <time>2024-09-08T08:35:26.000Z</time>
      </trkpt>
      <trkpt lat="47.804066" lon="13.381851">
        <ele>503.464262</ele>
        <time>2024-09-08T08:35:27.000Z</time>
      </trkpt>
      <trkpt lat="47.804144" lon="13.381687">
        <ele>503.546099</ele>
        <time>2024-09-08T08:35:29.000Z</time>
      </trkpt>
      <trkpt lat="47.804205" lon="13.381545">
        <ele>503.618279</ele>
        <time>2024-09-08T08:35:30.000Z</time>
      </trkpt>
      <trkpt lat="47.804238" lon="13.381444">
        <ele>503.666633</ele>
        <time>2024-09-08T08:35:31.000Z</time>
      </trkpt>
      <trkpt lat="47.804396" lon="13.381116">
        <ele>503.830307</ele>
        <time>2024-09-08T08:35:34.000Z</time>
      </trkpt>
      <trkpt lat="47.804495" lon="13.380899">
        <ele>503.939935</ele>
        <time>2024-09-08T08:35:36.000Z</time>
      </trkpt>
      <trkpt lat="47.804626" lon="13.380689">
        <ele>503.777347</ele>
        <time>2024-09-08T08:35:38.000Z</time>
      </trkpt>
      <trkpt lat="47.805145" lon="13.379973">
        <ele>502.657362</ele>
        <time>2024-09-08T08:35:46.000Z</time>
      </trkpt>
      <trkpt lat="47.806023" lon="13.379137">
        <ele>501.122353</ele>
        <time>2024-09-08T08:35:58.000Z</time>
      </trkpt>
      <trkpt lat="47.806089" lon="13.379048">
        <ele>501.128394</ele>
        <time>2024-09-08T08:35:59.000Z</time>
      </trkpt>
      <trkpt lat="47.806142" lon="13.378962">
        <ele>501.132588</ele>
        <time>2024-09-08T08:36:00.000Z</time>
      </trkpt>
      <trkpt lat="47.806246" lon="13.378771">
        <ele>501.143791</ele>
        <time>2024-09-08T08:36:02.000Z</time>
      </trkpt>
      <trkpt lat="47.806284" lon="13.378649">
        <ele>501.14932</ele>
        <time>2024-09-08T08:36:03.000Z</time>
      </trkpt>
      <trkpt lat="47.806347" lon="13.378454">
        <ele>501.158499</ele>
        <time>2024-09-08T08:36:05.000Z</time>
      </trkpt>
      <trkpt lat="47.806357" lon="13.378383">
        <ele>501.161646</ele>
        <time>2024-09-08T08:36:06.000Z</time>
      </trkpt>
      <trkpt lat="47.806417" lon="13.378187">
        <ele>501.171055</ele>
        <time>2024-09-08T08:36:08.000Z</time>
      </trkpt>
      <trkpt lat="47.806464" lon="13.378018">
        <ele>501.178498</ele>
        <time>2024-09-08T08:36:09.000Z</time>
      </trkpt>
      <trkpt lat="47.806513" lon="13.377785">
        <ele>501.189048</ele>
        <time>2024-09-08T08:36:11.000Z</time>
      </trkpt>
      <trkpt lat="47.806743" lon="13.37716">
        <ele>501.219276</ele>
        <time>2024-09-08T08:36:16.000Z</time>
      </trkpt>
      <trkpt lat="47.807486" lon="13.375946">
        <ele>502.961034</ele>
        <time>2024-09-08T08:36:28.000Z</time>
      </trkpt>
      <trkpt lat="47.807889" lon="13.375076">
        <ele>504.294437</ele>
        <time>2024-09-08T08:36:36.000Z</time>
      </trkpt>
      <trkpt lat="47.807982" lon="13.37487">
        <ele>504.613585</ele>
        <time>2024-09-08T08:36:38.000Z</time>
      </trkpt>
      <trkpt lat="47.808078" lon="13.374744">
        <ele>504.845375</ele>
        <time>2024-09-08T08:36:39.000Z</time>
      </trkpt>
      <trkpt lat="47.808366" lon="13.374425">
        <ele>505.509564</ele>
        <time>2024-09-08T08:36:43.000Z</time>
      </trkpt>
      <trkpt lat="47.808478" lon="13.374306">
        <ele>505.7851</ele>
        <time>2024-09-08T08:36:45.000Z</time>
      </trkpt>
      <trkpt lat="47.808983" lon="13.373836">
        <ele>506.87529</ele>
        <time>2024-09-08T08:36:52.000Z</time>
      </trkpt>
      <trkpt lat="47.809489" lon="13.373166">
        <ele>508.063114</ele>
        <time>2024-09-08T08:37:00.000Z</time>
      </trkpt>
      <trkpt lat="47.809572" lon="13.373069">
        <ele>508.145783</ele>
        <time>2024-09-08T08:37:01.000Z</time>
      </trkpt>
      <trkpt lat="47.809623" lon="13.372989">
        <ele>508.20702</ele>
        <time>2024-09-08T08:37:02.000Z</time>
      </trkpt>
      <trkpt lat="47.809904" lon="13.372595">
        <ele>508.512403</ele>
        <time>2024-09-08T08:37:06.000Z</time>
      </trkpt>
      <trkpt lat="47.810191" lon="13.372157">
        <ele>508.849858</ele>
        <time>2024-09-08T08:37:11.000Z</time>
      </trkpt>
      <trkpt lat="47.81037" lon="13.371971">
        <ele>509.031908</ele>
        <time>2024-09-08T08:37:13.000Z</time>
      </trkpt>
      <trkpt lat="47.810698" lon="13.371714">
        <ele>509.325136</ele>
        <time>2024-09-08T08:37:17.000Z</time>
      </trkpt>
      <trkpt lat="47.810754" lon="13.371674">
        <ele>509.38217</ele>
        <time>2024-09-08T08:37:18.000Z</time>
      </trkpt>
      <trkpt lat="47.81117" lon="13.371231">
        <ele>507.837522</ele>
        <time>2024-09-08T08:37:24.000Z</time>
      </trkpt>
      <trkpt lat="47.81203" lon="13.370594">
        <ele>504.288653</ele>
        <time>2024-09-08T08:37:35.000Z</time>
      </trkpt>
      <trkpt lat="47.812532" lon="13.369885">
        <ele>501.651814</ele>
        <time>2024-09-08T08:37:43.000Z</time>
      </trkpt>
      <trkpt lat="47.812542" lon="13.369854">
        <ele>501.527138</ele>
        <time>2024-09-08T08:37:43.000Z</time>
      </trkpt>
      <trkpt lat="47.812621" lon="13.36974">
        <ele>501.168047</ele>
        <time>2024-09-08T08:37:44.000Z</time>
      </trkpt>
      <trkpt lat="47.812668" lon="13.369669">
        <ele>500.867645</ele>
        <time>2024-09-08T08:37:45.000Z</time>
      </trkpt>
      <trkpt lat="47.812857" lon="13.369434">
        <ele>499.922266</ele>
        <time>2024-09-08T08:37:48.000Z</time>
      </trkpt>
      <trkpt lat="47.813532" lon="13.368886">
        <ele>496.900032</ele>
        <time>2024-09-08T08:37:57.000Z</time>
      </trkpt>
      <trkpt lat="47.813572" lon="13.368819">
        <ele>496.642963</ele>
        <time>2024-09-08T08:37:58.000Z</time>
      </trkpt>
      <trkpt lat="47.813629" lon="13.368763">
        <ele>496.362224</ele>
        <time>2024-09-08T08:37:59.000Z</time>
      </trkpt>
      <trkpt lat="47.813798" lon="13.3685">
        <ele>495.646672</ele>
        <time>2024-09-08T08:38:02.000Z</time>
      </trkpt>
      <trkpt lat="47.813947" lon="13.368113">
        <ele>495.512371</ele>
        <time>2024-09-08T08:38:05.000Z</time>
      </trkpt>
      <trkpt lat="47.813977" lon="13.367973">
        <ele>495.468153</ele>
        <time>2024-09-08T08:38:06.000Z</time>
      </trkpt>
      <trkpt lat="47.814023" lon="13.367794">
        <ele>495.409499</ele>
        <time>2024-09-08T08:38:07.000Z</time>
      </trkpt>
      <trkpt lat="47.814354" lon="13.366253">
        <ele>494.917255</ele>
        <time>2024-09-08T08:38:19.000Z</time>
      </trkpt>
      <trkpt lat="47.814396" lon="13.366126">
        <ele>494.874672</ele>
        <time>2024-09-08T08:38:20.000Z</time>
      </trkpt>
      <trkpt lat="47.814451" lon="13.365972">
        <ele>494.794751</ele>
        <time>2024-09-08T08:38:21.000Z</time>
      </trkpt>
      <trkpt lat="47.814854" lon="13.365363">
        <ele>494.437093</ele>
        <time>2024-09-08T08:38:27.000Z</time>
      </trkpt>
      <trkpt lat="47.815475" lon="13.364813">
        <ele>493.984082</ele>
        <time>2024-09-08T08:38:35.000Z</time>
      </trkpt>
      <trkpt lat="47.815569" lon="13.364749">
        <ele>493.919619</ele>
        <time>2024-09-08T08:38:36.000Z</time>
      </trkpt>
      <trkpt lat="47.815673" lon="13.364671">
        <ele>493.843878</ele>
        <time>2024-09-08T08:38:37.000Z</time>
      </trkpt>
      <trkpt lat="47.815726" lon="13.364635">
        <ele>493.801843</ele>
        <time>2024-09-08T08:38:38.000Z</time>
      </trkpt>
      <trkpt lat="47.815829" lon="13.36456">
        <ele>493.73267</ele>
        <time>2024-09-08T08:38:39.000Z</time>
      </trkpt>
      <trkpt lat="47.816071" lon="13.364375">
        <ele>493.33431</ele>
        <time>2024-09-08T08:38:42.000Z</time>
      </trkpt>
      <trkpt lat="47.816085" lon="13.36429">
        <ele>493.246505</ele>
        <time>2024-09-08T08:38:43.000Z</time>
      </trkpt>
      <trkpt lat="47.816198" lon="13.364204">
        <ele>493.059242</ele>
        <time>2024-09-08T08:38:44.000Z</time>
      </trkpt>
      <trkpt lat="47.816658" lon="13.363874">
        <ele>492.283326</ele>
        <time>2024-09-08T08:38:50.000Z</time>
      </trkpt>
      <trkpt lat="47.816902" lon="13.363698">
        <ele>491.8497</ele>
        <time>2024-09-08T08:38:53.000Z</time>
      </trkpt>
      <trkpt lat="47.817181" lon="13.36348">
        <ele>491.369727</ele>
        <time>2024-09-08T08:38:57.000Z</time>
      </trkpt>
      <trkpt lat="47.817699" lon="13.36312">
        <ele>490.180195</ele>
        <time>2024-09-08T08:39:03.000Z</time>
      </trkpt>
      <trkpt lat="47.817797" lon="13.363035">
        <ele>489.854706</ele>
        <time>2024-09-08T08:39:04.000Z</time>
      </trkpt>
      <trkpt lat="47.818012" lon="13.362872">
        <ele>489.220383</ele>
        <time>2024-09-08T08:39:07.000Z</time>
      </trkpt>
      <trkpt lat="47.818735" lon="13.36232">
        <ele>487.131172</ele>
        <time>2024-09-08T08:39:16.000Z</time>
      </trkpt>
      <trkpt lat="47.819768" lon="13.361524">
        <ele>484.923134</ele>
        <time>2024-09-08T08:39:29.000Z</time>
      </trkpt>
      <trkpt lat="47.820018" lon="13.361335">
        <ele>484.497401</ele>
        <time>2024-09-08T08:39:32.000Z</time>
      </trkpt>
      <trkpt lat="47.82289" lon="13.359007">
        <ele>483.017557</ele>
        <time>2024-09-08T08:40:08.000Z</time>
      </trkpt>
      <trkpt lat="47.823718" lon="13.358341">
        <ele>482.982379</ele>
        <time>2024-09-08T08:40:18.000Z</time>
      </trkpt>
      <trkpt lat="47.824023" lon="13.358108">
        <ele>482.999366</ele>
        <time>2024-09-08T08:40:22.000Z</time>
      </trkpt>
      <trkpt lat="47.824201" lon="13.357953">
        <ele>483.01449</ele>
        <time>2024-09-08T08:40:24.000Z</time>
      </trkpt>
      <trkpt lat="47.824371" lon="13.357807">
        <ele>483.027607</ele>
        <time>2024-09-08T08:40:26.000Z</time>
      </trkpt>
      <trkpt lat="47.826257" lon="13.35627">
        <ele>483.448381</ele>
        <time>2024-09-08T08:40:50.000Z</time>
      </trkpt>
      <trkpt lat="47.826627" lon="13.355984">
        <ele>483.591872</ele>
        <time>2024-09-08T08:40:55.000Z</time>
      </trkpt>
      <trkpt lat="47.826783" lon="13.355859">
        <ele>483.648934</ele>
        <time>2024-09-08T08:40:57.000Z</time>
      </trkpt>
      <trkpt lat="47.827133" lon="13.355632">
        <ele>483.949509</ele>
        <time>2024-09-08T08:41:01.000Z</time>
      </trkpt>
      <trkpt lat="47.82731" lon="13.35552">
        <ele>484.160363</ele>
        <time>2024-09-08T08:41:03.000Z</time>
      </trkpt>
      <trkpt lat="47.827381" lon="13.355467">
        <ele>484.258248</ele>
        <time>2024-09-08T08:41:04.000Z</time>
      </trkpt>
      <trkpt lat="47.828329" lon="13.354926">
        <ele>485.419499</ele>
        <time>2024-09-08T08:41:15.000Z</time>
      </trkpt>
      <trkpt lat="47.829583" lon="13.354299">
        <ele>487.422974</ele>
        <time>2024-09-08T08:41:30.000Z</time>
      </trkpt>
      <trkpt lat="47.829794" lon="13.354186">
        <ele>487.811088</ele>
        <time>2024-09-08T08:41:32.000Z</time>
      </trkpt>
      <trkpt lat="47.829952" lon="13.354096">
        <ele>488.071087</ele>
        <time>2024-09-08T08:41:34.000Z</time>
      </trkpt>
      <trkpt lat="47.830037" lon="13.354045">
        <ele>488.213452</ele>
        <time>2024-09-08T08:41:35.000Z</time>
      </trkpt>
      <trkpt lat="47.830363" lon="13.353836">
        <ele>488.788647</ele>
        <time>2024-09-08T08:41:39.000Z</time>
      </trkpt>
      <trkpt lat="47.830732" lon="13.353609">
        <ele>489.330561</ele>
        <time>2024-09-08T08:41:43.000Z</time>
      </trkpt>
      <trkpt lat="47.831304" lon="13.353123">
        <ele>490.225017</ele>
        <time>2024-09-08T08:41:50.000Z</time>
      </trkpt>
      <trkpt lat="47.83157" lon="13.352882">
        <ele>490.649619</ele>
        <time>2024-09-08T08:41:53.000Z</time>
      </trkpt>
      <trkpt lat="47.831762" lon="13.352689">
        <ele>490.975231</ele>
        <time>2024-09-08T08:41:56.000Z</time>
      </trkpt>
      <trkpt lat="47.831942" lon="13.352512">
        <ele>491.168823</ele>
        <time>2024-09-08T08:41:58.000Z</time>
      </trkpt>
      <trkpt lat="47.832072" lon="13.352373">
        <ele>491.214953</ele>
        <time>2024-09-08T08:42:00.000Z</time>
      </trkpt>
      <trkpt lat="47.83271" lon="13.351658">
        <ele>491.440899</ele>
        <time>2024-09-08T08:42:09.000Z</time>
      </trkpt>
      <trkpt lat="47.833706" lon="13.350541">
        <ele>492.271837</ele>
        <time>2024-09-08T08:42:23.000Z</time>
      </trkpt>
      <trkpt lat="47.834045" lon="13.350155">
        <ele>492.812352</ele>
        <time>2024-09-08T08:42:28.000Z</time>
      </trkpt>
      <trkpt lat="47.834145" lon="13.350041">
        <ele>492.961868</ele>
        <time>2024-09-08T08:42:29.000Z</time>
      </trkpt>
      <trkpt lat="47.834361" lon="13.349825">
        <ele>493.296037</ele>
        <time>2024-09-08T08:42:32.000Z</time>
      </trkpt>
      <trkpt lat="47.834608" lon="13.349596">
        <ele>493.660064</ele>
        <time>2024-09-08T08:42:35.000Z</time>
      </trkpt>
      <trkpt lat="47.834939" lon="13.349321">
        <ele>494.353839</ele>
        <time>2024-09-08T08:42:39.000Z</time>
      </trkpt>
      <trkpt lat="47.835196" lon="13.349124">
        <ele>495.06144</ele>
        <time>2024-09-08T08:42:42.000Z</time>
      </trkpt>
      <trkpt lat="47.835445" lon="13.348959">
        <ele>495.707568</ele>
        <time>2024-09-08T08:42:45.000Z</time>
      </trkpt>
      <trkpt lat="47.835831" lon="13.348722">
        <ele>496.705022</ele>
        <time>2024-09-08T08:42:50.000Z</time>
      </trkpt>
      <trkpt lat="47.836161" lon="13.348557">
        <ele>497.556338</ele>
        <time>2024-09-08T08:42:54.000Z</time>
      </trkpt>
      <trkpt lat="47.836917" lon="13.348242">
        <ele>498.635312</ele>
        <time>2024-09-08T08:43:03.000Z</time>
      </trkpt>
      <trkpt lat="47.837331" lon="13.34807">
        <ele>498.931119</ele>
        <time>2024-09-08T08:43:08.000Z</time>
      </trkpt>
      <trkpt lat="47.838139" lon="13.347578">
        <ele>499.52898</ele>
        <time>2024-09-08T08:43:18.000Z</time>
      </trkpt>
      <trkpt lat="47.838875" lon="13.346931">
        <ele>498.479405</ele>
        <time>2024-09-08T08:43:28.000Z</time>
      </trkpt>
      <trkpt lat="47.83908" lon="13.346724">
        <ele>498.169072</ele>
        <time>2024-09-08T08:43:31.000Z</time>
      </trkpt>
      <trkpt lat="47.839238" lon="13.346518">
        <ele>497.90433</ele>
        <time>2024-09-08T08:43:33.000Z</time>
      </trkpt>
      <trkpt lat="47.839915" lon="13.345502">
        <ele>496.346292</ele>
        <time>2024-09-08T08:43:44.000Z</time>
      </trkpt>
      <trkpt lat="47.840368" lon="13.344686">
        <ele>494.935104</ele>
        <time>2024-09-08T08:43:52.000Z</time>
      </trkpt>
      <trkpt lat="47.840906" lon="13.34375">
        <ele>493.408908</ele>
        <time>2024-09-08T08:44:01.000Z</time>
      </trkpt>
      <trkpt lat="47.841573" lon="13.342624">
        <ele>491.954022</ele>
        <time>2024-09-08T08:44:12.000Z</time>
      </trkpt>
      <trkpt lat="47.842248" lon="13.341438">
        <ele>490.697348</ele>
        <time>2024-09-08T08:44:24.000Z</time>
      </trkpt>
      <trkpt lat="47.842418" lon="13.341125">
        <ele>490.429775</ele>
        <time>2024-09-08T08:44:27.000Z</time>
      </trkpt>
      <trkpt lat="47.842452" lon="13.341083">
        <ele>490.386907</ele>
        <time>2024-09-08T08:44:27.000Z</time>
      </trkpt>
      <trkpt lat="47.842745" lon="13.340587">
        <ele>489.970444</ele>
        <time>2024-09-08T08:44:32.000Z</time>
      </trkpt>
      <trkpt lat="47.843277" lon="13.339848">
        <ele>489.126548</ele>
        <time>2024-09-08T08:44:40.000Z</time>
      </trkpt>
      <trkpt lat="47.843624" lon="13.339534">
        <ele>488.368438</ele>
        <time>2024-09-08T08:44:45.000Z</time>
      </trkpt>
      <trkpt lat="47.843763" lon="13.339438">
        <ele>488.077593</ele>
        <time>2024-09-08T08:44:47.000Z</time>
      </trkpt>
      <trkpt lat="47.843826" lon="13.339373">
        <ele>487.940696</ele>
        <time>2024-09-08T08:44:48.000Z</time>
      </trkpt>
      <trkpt lat="47.844107" lon="13.339194">
        <ele>487.34425</ele>
        <time>2024-09-08T08:44:51.000Z</time>
      </trkpt>
      <trkpt lat="47.844188" lon="13.339147">
        <ele>487.166375</ele>
        <time>2024-09-08T08:44:52.000Z</time>
      </trkpt>
      <trkpt lat="47.844377" lon="13.339057">
        <ele>486.815149</ele>
        <time>2024-09-08T08:44:54.000Z</time>
      </trkpt>
      <trkpt lat="47.844716" lon="13.338946">
        <ele>486.132204</ele>
        <time>2024-09-08T08:44:58.000Z</time>
      </trkpt>
      <trkpt lat="47.844788" lon="13.338937">
        <ele>486.005176</ele>
        <time>2024-09-08T08:44:59.000Z</time>
      </trkpt>
      <trkpt lat="47.845013" lon="13.338878">
        <ele>485.605344</ele>
        <time>2024-09-08T08:45:02.000Z</time>
      </trkpt>
      <trkpt lat="47.845337" lon="13.338844">
        <ele>485.061638</ele>
        <time>2024-09-08T08:45:06.000Z</time>
      </trkpt>
      <trkpt lat="47.84547" lon="13.338848">
        <ele>484.859003</ele>
        <time>2024-09-08T08:45:07.000Z</time>
      </trkpt>
      <trkpt lat="47.845561" lon="13.338861">
        <ele>484.684491</ele>
        <time>2024-09-08T08:45:08.000Z</time>
      </trkpt>
      <trkpt lat="47.845585" lon="13.338863">
        <ele>484.645538</ele>
        <time>2024-09-08T08:45:08.000Z</time>
      </trkpt>
      <trkpt lat="47.845715" lon="13.338891">
        <ele>484.435331</ele>
        <time>2024-09-08T08:45:09.000Z</time>
      </trkpt>
      <trkpt lat="47.84573" lon="13.338879">
        <ele>484.387879</ele>
        <time>2024-09-08T08:45:09.000Z</time>
      </trkpt>
      <trkpt lat="47.845747" lon="13.338879">
        <ele>484.369164</ele>
        <time>2024-09-08T08:45:09.000Z</time>
      </trkpt>
      <trkpt lat="47.845938" lon="13.338923">
        <ele>484.055422</ele>
        <time>2024-09-08T08:45:11.000Z</time>
      </trkpt>
      <trkpt lat="47.846063" lon="13.338975">
        <ele>483.826271</ele>
        <time>2024-09-08T08:45:12.000Z</time>
      </trkpt>
      <trkpt lat="47.846227" lon="13.33904">
        <ele>483.548967</ele>
        <time>2024-09-08T08:45:14.000Z</time>
      </trkpt>
      <trkpt lat="47.846359" lon="13.339095">
        <ele>483.31134</ele>
        <time>2024-09-08T08:45:16.000Z</time>
      </trkpt>
      <trkpt lat="47.846565" lon="13.33922">
        <ele>482.961506</ele>
        <time>2024-09-08T08:45:18.000Z</time>
      </trkpt>
      <trkpt lat="47.846656" lon="13.339288">
        <ele>482.990517</ele>
        <time>2024-09-08T08:45:19.000Z</time>
      </trkpt>
      <trkpt lat="47.846878" lon="13.339443">
        <ele>483.062068</ele>
        <time>2024-09-08T08:45:22.000Z</time>
      </trkpt>
      <trkpt lat="47.84719" lon="13.339657">
        <ele>483.163291</ele>
        <time>2024-09-08T08:45:26.000Z</time>
      </trkpt>
      <trkpt lat="47.847283" lon="13.339742">
        <ele>483.198015</ele>
        <time>2024-09-08T08:45:27.000Z</time>
      </trkpt>
      <trkpt lat="47.847383" lon="13.339781">
        <ele>483.229505</ele>
        <time>2024-09-08T08:45:28.000Z</time>
      </trkpt>
      <trkpt lat="47.847514" lon="13.339918">
        <ele>483.275246</ele>
        <time>2024-09-08T08:45:30.000Z</time>
      </trkpt>
      <trkpt lat="47.847554" lon="13.339972">
        <ele>483.289769</ele>
        <time>2024-09-08T08:45:31.000Z</time>
      </trkpt>
      <trkpt lat="47.847594" lon="13.339991">
        <ele>483.304775</ele>
        <time>2024-09-08T08:45:31.000Z</time>
      </trkpt>
      <trkpt lat="47.84761" lon="13.34004">
        <ele>483.317434</ele>
        <time>2024-09-08T08:45:31.000Z</time>
      </trkpt>
      <trkpt lat="47.847762" lon="13.340162">
        <ele>483.365298</ele>
        <time>2024-09-08T08:45:33.000Z</time>
      </trkpt>
      <trkpt lat="47.847819" lon="13.340175">
        <ele>483.387083</ele>
        <time>2024-09-08T08:45:34.000Z</time>
      </trkpt>
      <trkpt lat="47.847943" lon="13.340259">
        <ele>483.423121</ele>
        <time>2024-09-08T08:45:36.000Z</time>
      </trkpt>
      <trkpt lat="47.848017" lon="13.340311">
        <ele>483.447161</ele>
        <time>2024-09-08T08:45:37.000Z</time>
      </trkpt>
      <trkpt lat="47.848688" lon="13.340852">
        <ele>484.012222</ele>
        <time>2024-09-08T08:45:45.000Z</time>
      </trkpt>
      <trkpt lat="47.849179" lon="13.341257">
        <ele>484.469092</ele>
        <time>2024-09-08T08:45:51.000Z</time>
      </trkpt>
      <trkpt lat="47.849301" lon="13.34137">
        <ele>484.581124</ele>
        <time>2024-09-08T08:45:53.000Z</time>
      </trkpt>
      <trkpt lat="47.849424" lon="13.341502">
        <ele>484.714527</ele>
        <time>2024-09-08T08:45:55.000Z</time>
      </trkpt>
      <trkpt lat="47.849564" lon="13.341654">
        <ele>484.851541</ele>
        <time>2024-09-08T08:45:57.000Z</time>
      </trkpt>
      <trkpt lat="47.849708" lon="13.341838">
        <ele>484.966441</ele>
        <time>2024-09-08T08:45:59.000Z</time>
      </trkpt>
      <trkpt lat="47.849904" lon="13.34217">
        <ele>484.91456</ele>
        <time>2024-09-08T08:46:02.000Z</time>
      </trkpt>
      <trkpt lat="47.850024" lon="13.342381">
        <ele>484.884443</ele>
        <time>2024-09-08T08:46:04.000Z</time>
      </trkpt>
      <trkpt lat="47.850055" lon="13.342468">
        <ele>484.871239</ele>
        <time>2024-09-08T08:46:05.000Z</time>
      </trkpt>
      <trkpt lat="47.850083" lon="13.342526">
        <ele>484.863174</ele>
        <time>2024-09-08T08:46:06.000Z</time>
      </trkpt>
      <trkpt lat="47.850376" lon="13.343195">
        <ele>484.773141</ele>
        <time>2024-09-08T08:46:12.000Z</time>
      </trkpt>
      <trkpt lat="47.850514" lon="13.343737">
        <ele>484.706835</ele>
        <time>2024-09-08T08:46:16.000Z</time>
      </trkpt>
      <trkpt lat="47.850565" lon="13.343952">
        <ele>484.680287</ele>
        <time>2024-09-08T08:46:18.000Z</time>
      </trkpt>
      <trkpt lat="47.85057" lon="13.343971">
        <ele>484.678285</ele>
        <time>2024-09-08T08:46:18.000Z</time>
      </trkpt>
      <trkpt lat="47.850574" lon="13.343989">
        <ele>484.677212</ele>
        <time>2024-09-08T08:46:18.000Z</time>
      </trkpt>
      <trkpt lat="47.850567" lon="13.343986">
        <ele>484.676864</ele>
        <time>2024-09-08T08:46:18.000Z</time>
      </trkpt>
      <trkpt lat="47.850615" lon="13.344271">
        <ele>484.560434</ele>
        <time>2024-09-08T08:46:20.000Z</time>
      </trkpt>
      <trkpt lat="47.850649" lon="13.344431">
        <ele>484.474504</ele>
        <time>2024-09-08T08:46:21.000Z</time>
      </trkpt>
      <trkpt lat="47.85066" lon="13.344568">
        <ele>484.401421</ele>
        <time>2024-09-08T08:46:22.000Z</time>
      </trkpt>
      <trkpt lat="47.850714" lon="13.344922">
        <ele>484.214952</ele>
        <time>2024-09-08T08:46:25.000Z</time>
      </trkpt>
      <trkpt lat="47.850723" lon="13.344968">
        <ele>484.188178</ele>
        <time>2024-09-08T08:46:25.000Z</time>
      </trkpt>
      <trkpt lat="47.850763" lon="13.345158">
        <ele>484.086874</ele>
        <time>2024-09-08T08:46:26.000Z</time>
      </trkpt>
      <trkpt lat="47.850792" lon="13.345311">
        <ele>483.997433</ele>
        <time>2024-09-08T08:46:27.000Z</time>
      </trkpt>
      <trkpt lat="47.85085" lon="13.345527">
        <ele>483.88309</ele>
        <time>2024-09-08T08:46:29.000Z</time>
      </trkpt>
      <trkpt lat="47.850967" lon="13.345823">
        <ele>483.70489</ele>
        <time>2024-09-08T08:46:32.000Z</time>
      </trkpt>
      <trkpt lat="47.851063" lon="13.346033">
        <ele>483.566862</ele>
        <time>2024-09-08T08:46:34.000Z</time>
      </trkpt>
      <trkpt lat="47.85124" lon="13.346417">
        <ele>483.321923</ele>
        <time>2024-09-08T08:46:37.000Z</time>
      </trkpt>
      <trkpt lat="47.851354" lon="13.346651">
        <ele>483.277013</ele>
        <time>2024-09-08T08:46:39.000Z</time>
      </trkpt>
      <trkpt lat="47.851652" lon="13.347368">
        <ele>483.307054</ele>
        <time>2024-09-08T08:46:45.000Z</time>
      </trkpt>
      <trkpt lat="47.851782" lon="13.347661">
        <ele>483.319692</ele>
        <time>2024-09-08T08:46:48.000Z</time>
      </trkpt>
      <trkpt lat="47.852084" lon="13.348549">
        <ele>483.355023</ele>
        <time>2024-09-08T08:46:55.000Z</time>
      </trkpt>
      <trkpt lat="47.852225" lon="13.348917">
        <ele>483.434379</ele>
        <time>2024-09-08T08:46:58.000Z</time>
      </trkpt>
      <trkpt lat="47.852286" lon="13.349162">
        <ele>483.601092</ele>
        <time>2024-09-08T08:47:00.000Z</time>
      </trkpt>
      <trkpt lat="47.85251" lon="13.349991">
        <ele>484.171176</ele>
        <time>2024-09-08T08:47:07.000Z</time>
      </trkpt>
      <trkpt lat="47.852526" lon="13.350076">
        <ele>484.218732</ele>
        <time>2024-09-08T08:47:08.000Z</time>
      </trkpt>
      <trkpt lat="47.852523" lon="13.350082">
        <ele>484.226263</ele>
        <time>2024-09-08T08:47:08.000Z</time>
      </trkpt>
      <trkpt lat="47.852539" lon="13.350132">
        <ele>484.268064</ele>
        <time>2024-09-08T08:47:08.000Z</time>
      </trkpt>
      <trkpt lat="47.852535" lon="13.350145">
        <ele>484.26868</ele>
        <time>2024-09-08T08:47:08.000Z</time>
      </trkpt>
      <trkpt lat="47.85255" lon="13.350177">
        <ele>484.29695</ele>
        <time>2024-09-08T08:47:08.000Z</time>
      </trkpt>
      <trkpt lat="47.85255" lon="13.350202">
        <ele>484.305071</ele>
        <time>2024-09-08T08:47:08.000Z</time>
      </trkpt>
      <trkpt lat="47.852649" lon="13.350657">
        <ele>484.620731</ele>
        <time>2024-09-08T08:47:12.000Z</time>
      </trkpt>
      <trkpt lat="47.852836" lon="13.351682">
        <ele>485.247936</ele>
        <time>2024-09-08T08:47:20.000Z</time>
      </trkpt>
      <trkpt lat="47.852908" lon="13.352074">
        <ele>485.467488</ele>
        <time>2024-09-08T08:47:23.000Z</time>
      </trkpt>
      <trkpt lat="47.85294" lon="13.35233">
        <ele>485.605596</ele>
        <time>2024-09-08T08:47:25.000Z</time>
      </trkpt>
      <trkpt lat="47.852967" lon="13.352671">
        <ele>485.789652</ele>
        <time>2024-09-08T08:47:28.000Z</time>
      </trkpt>
      <trkpt lat="47.852987" lon="13.353044">
        <ele>485.983487</ele>
        <time>2024-09-08T08:47:31.000Z</time>
      </trkpt>
      <trkpt lat="47.85299" lon="13.35314">
        <ele>486.038506</ele>
        <time>2024-09-08T08:47:32.000Z</time>
      </trkpt>
      <trkpt lat="47.852991" lon="13.353186">
        <ele>486.059287</ele>
        <time>2024-09-08T08:47:32.000Z</time>
      </trkpt>
      <trkpt lat="47.853008" lon="13.353867">
        <ele>486.424599</ele>
        <time>2024-09-08T08:47:37.000Z</time>
      </trkpt>
      <trkpt lat="47.853" lon="13.354606">
        <ele>486.861143</ele>
        <time>2024-09-08T08:47:43.000Z</time>
      </trkpt>
      <trkpt lat="47.852944" lon="13.355227">
        <ele>487.242943</ele>
        <time>2024-09-08T08:47:48.000Z</time>
      </trkpt>
      <trkpt lat="47.852879" lon="13.355855">
        <ele>487.631177</ele>
        <time>2024-09-08T08:47:53.000Z</time>
      </trkpt>
      <trkpt lat="47.852798" lon="13.356354">
        <ele>487.94575</ele>
        <time>2024-09-08T08:47:57.000Z</time>
      </trkpt>
      <trkpt lat="47.852711" lon="13.35689">
        <ele>488.236789</ele>
        <time>2024-09-08T08:48:01.000Z</time>
      </trkpt>
      <trkpt lat="47.852613" lon="13.357193">
        <ele>488.376597</ele>
        <time>2024-09-08T08:48:04.000Z</time>
      </trkpt>
      <trkpt lat="47.852568" lon="13.357298">
        <ele>488.429339</ele>
        <time>2024-09-08T08:48:05.000Z</time>
      </trkpt>
      <trkpt lat="47.8525" lon="13.357496">
        <ele>488.52154</ele>
        <time>2024-09-08T08:48:07.000Z</time>
      </trkpt>
      <trkpt lat="47.852203" lon="13.358029">
        <ele>488.810831</ele>
        <time>2024-09-08T08:48:12.000Z</time>
      </trkpt>
      <trkpt lat="47.852123" lon="13.358161">
        <ele>488.884421</ele>
        <time>2024-09-08T08:48:13.000Z</time>
      </trkpt>
      <trkpt lat="47.851899" lon="13.358488">
        <ele>489.083991</ele>
        <time>2024-09-08T08:48:16.000Z</time>
      </trkpt>
      <trkpt lat="47.851669" lon="13.35883">
        <ele>489.235031</ele>
        <time>2024-09-08T08:48:20.000Z</time>
      </trkpt>
      <trkpt lat="47.851495" lon="13.359094">
        <ele>489.169536</ele>
        <time>2024-09-08T08:48:23.000Z</time>
      </trkpt>
      <trkpt lat="47.851361" lon="13.359394">
        <ele>489.104541</ele>
        <time>2024-09-08T08:48:26.000Z</time>
      </trkpt>
      <trkpt lat="47.851325" lon="13.359496">
        <ele>489.08162</ele>
        <time>2024-09-08T08:48:27.000Z</time>
      </trkpt>
      <trkpt lat="47.851218" lon="13.359774">
        <ele>489.025807</ele>
        <time>2024-09-08T08:48:29.000Z</time>
      </trkpt>
      <trkpt lat="47.851081" lon="13.360134">
        <ele>488.948546</ele>
        <time>2024-09-08T08:48:32.000Z</time>
      </trkpt>
      <trkpt lat="47.851039" lon="13.36025">
        <ele>488.927366</ele>
        <time>2024-09-08T08:48:33.000Z</time>
      </trkpt>
      <trkpt lat="47.851" lon="13.36036">
        <ele>488.905134</ele>
        <time>2024-09-08T08:48:34.000Z</time>
      </trkpt>
      <trkpt lat="47.850933" lon="13.36051">
        <ele>488.871114</ele>
        <time>2024-09-08T08:48:35.000Z</time>
      </trkpt>
      <trkpt lat="47.850868" lon="13.360652">
        <ele>488.838759</ele>
        <time>2024-09-08T08:48:36.000Z</time>
      </trkpt>
      <trkpt lat="47.850475" lon="13.361193">
        <ele>488.975315</ele>
        <time>2024-09-08T08:48:42.000Z</time>
      </trkpt>
      <trkpt lat="47.85014" lon="13.36141">
        <ele>489.255578</ele>
        <time>2024-09-08T08:48:46.000Z</time>
      </trkpt>
      <trkpt lat="47.849963" lon="13.361529">
        <ele>489.401377</ele>
        <time>2024-09-08T08:48:48.000Z</time>
      </trkpt>
      <trkpt lat="47.84978" lon="13.361655">
        <ele>489.552233</ele>
        <time>2024-09-08T08:48:50.000Z</time>
      </trkpt>
      <trkpt lat="47.849606" lon="13.361842">
        <ele>489.721764</ele>
        <time>2024-09-08T08:48:52.000Z</time>
      </trkpt>
      <trkpt lat="47.849432" lon="13.362097">
        <ele>489.90912</ele>
        <time>2024-09-08T08:48:55.000Z</time>
      </trkpt>
      <trkpt lat="47.849218" lon="13.362786">
        <ele>490.326939</ele>
        <time>2024-09-08T08:49:01.000Z</time>
      </trkpt>
      <trkpt lat="47.849174" lon="13.363076">
        <ele>490.493002</ele>
        <time>2024-09-08T08:49:03.000Z</time>
      </trkpt>
      <trkpt lat="47.849157" lon="13.363208">
        <ele>490.576426</ele>
        <time>2024-09-08T08:49:04.000Z</time>
      </trkpt>
      <trkpt lat="47.849133" lon="13.363312">
        <ele>490.641985</ele>
        <time>2024-09-08T08:49:05.000Z</time>
      </trkpt>
      <trkpt lat="47.849078" lon="13.3635">
        <ele>490.760221</ele>
        <time>2024-09-08T08:49:07.000Z</time>
      </trkpt>
      <trkpt lat="47.848801" lon="13.364149">
        <ele>491.219476</ele>
        <time>2024-09-08T08:49:13.000Z</time>
      </trkpt>
      <trkpt lat="47.848375" lon="13.364922">
        <ele>491.639372</ele>
        <time>2024-09-08T08:49:20.000Z</time>
      </trkpt>
      <trkpt lat="47.848262" lon="13.365277">
        <ele>491.321931</ele>
        <time>2024-09-08T08:49:23.000Z</time>
      </trkpt>
      <trkpt lat="47.848133" lon="13.365921">
        <ele>490.773526</ele>
        <time>2024-09-08T08:49:28.000Z</time>
      </trkpt>
      <trkpt lat="47.847899" lon="13.367781">
        <ele>489.389792</ele>
        <time>2024-09-08T08:49:42.000Z</time>
      </trkpt>
      <trkpt lat="47.847842" lon="13.36804">
        <ele>489.264415</ele>
        <time>2024-09-08T08:49:44.000Z</time>
      </trkpt>
      <trkpt lat="47.847743" lon="13.368431">
        <ele>489.076565</ele>
        <time>2024-09-08T08:49:47.000Z</time>
      </trkpt>
      <trkpt lat="47.847267" lon="13.369722">
        <ele>488.404594</ele>
        <time>2024-09-08T08:49:58.000Z</time>
      </trkpt>
      <trkpt lat="47.847043" lon="13.370164">
        <ele>488.256172</ele>
        <time>2024-09-08T08:50:02.000Z</time>
      </trkpt>
      <trkpt lat="47.846986" lon="13.370267">
        <ele>488.227965</ele>
        <time>2024-09-08T08:50:03.000Z</time>
      </trkpt>
      <trkpt lat="47.846892" lon="13.370441">
        <ele>488.181377</ele>
        <time>2024-09-08T08:50:05.000Z</time>
      </trkpt>
      <trkpt lat="47.846845" lon="13.370533">
        <ele>488.153589</ele>
        <time>2024-09-08T08:50:06.000Z</time>
      </trkpt>
      <trkpt lat="47.846748" lon="13.370757">
        <ele>488.094882</ele>
        <time>2024-09-08T08:50:08.000Z</time>
      </trkpt>
      <trkpt lat="47.846197" lon="13.371551">
        <ele>487.843456</ele>
        <time>2024-09-08T08:50:17.000Z</time>
      </trkpt>
      <trkpt lat="47.84607" lon="13.37174">
        <ele>487.785416</ele>
        <time>2024-09-08T08:50:19.000Z</time>
      </trkpt>
      <trkpt lat="47.845964" lon="13.371925">
        <ele>487.852541</ele>
        <time>2024-09-08T08:50:21.000Z</time>
      </trkpt>
      <trkpt lat="47.845914" lon="13.372035">
        <ele>487.95119</ele>
        <time>2024-09-08T08:50:22.000Z</time>
      </trkpt>
      <trkpt lat="47.845886" lon="13.372066">
        <ele>487.977526</ele>
        <time>2024-09-08T08:50:22.000Z</time>
      </trkpt>
      <trkpt lat="47.845842" lon="13.372202">
        <ele>488.091246</ele>
        <time>2024-09-08T08:50:23.000Z</time>
      </trkpt>
      <trkpt lat="47.84568" lon="13.372794">
        <ele>488.513986</ele>
        <time>2024-09-08T08:50:28.000Z</time>
      </trkpt>
      <trkpt lat="47.845669" lon="13.372871">
        <ele>488.565781</ele>
        <time>2024-09-08T08:50:29.000Z</time>
      </trkpt>
      <trkpt lat="47.845628" lon="13.373273">
        <ele>488.840039</ele>
        <time>2024-09-08T08:50:32.000Z</time>
      </trkpt>
      <trkpt lat="47.845554" lon="13.373683">
        <ele>489.127284</ele>
        <time>2024-09-08T08:50:35.000Z</time>
      </trkpt>
      <trkpt lat="47.845512" lon="13.373909">
        <ele>489.284593</ele>
        <time>2024-09-08T08:50:37.000Z</time>
      </trkpt>
      <trkpt lat="47.845432" lon="13.374163">
        <ele>489.469556</ele>
        <time>2024-09-08T08:50:39.000Z</time>
      </trkpt>
      <trkpt lat="47.844714" lon="13.376054">
        <ele>491.997293</ele>
        <time>2024-09-08T08:50:55.000Z</time>
      </trkpt>
      <trkpt lat="47.844118" lon="13.377341">
        <ele>492.272837</ele>
        <time>2024-09-08T08:51:07.000Z</time>
      </trkpt>
      <trkpt lat="47.844004" lon="13.377545">
        <ele>492.127116</ele>
        <time>2024-09-08T08:51:09.000Z</time>
      </trkpt>
      <trkpt lat="47.843736" lon="13.377938">
        <ele>491.828618</ele>
        <time>2024-09-08T08:51:13.000Z</time>
      </trkpt>
      <trkpt lat="47.843589" lon="13.378147">
        <ele>491.663704</ele>
        <time>2024-09-08T08:51:15.000Z</time>
      </trkpt>
      <trkpt lat="47.843471" lon="13.378358">
        <ele>491.519164</ele>
        <time>2024-09-08T08:51:17.000Z</time>
      </trkpt>
      <trkpt lat="47.843308" lon="13.37864">
        <ele>491.319659</ele>
        <time>2024-09-08T08:51:20.000Z</time>
      </trkpt>
      <trkpt lat="47.843158" lon="13.378974">
        <ele>491.009628</ele>
        <time>2024-09-08T08:51:23.000Z</time>
      </trkpt>
      <trkpt lat="47.842892" lon="13.379518">
        <ele>490.49956</ele>
        <time>2024-09-08T08:51:28.000Z</time>
      </trkpt>
      <trkpt lat="47.842718" lon="13.379876">
        <ele>490.175577</ele>
        <time>2024-09-08T08:51:31.000Z</time>
      </trkpt>
      <trkpt lat="47.842551" lon="13.380277">
        <ele>489.81039</ele>
        <time>2024-09-08T08:51:35.000Z</time>
      </trkpt>
      <trkpt lat="47.842416" lon="13.380632">
        <ele>489.502634</ele>
        <time>2024-09-08T08:51:38.000Z</time>
      </trkpt>
      <trkpt lat="47.841973" lon="13.382468">
        <ele>490.007482</ele>
        <time>2024-09-08T08:51:53.000Z</time>
      </trkpt>
      <trkpt lat="47.841807" lon="13.382947">
        <ele>490.233247</ele>
        <time>2024-09-08T08:51:57.000Z</time>
      </trkpt>
      <trkpt lat="47.841704" lon="13.383156">
        <ele>490.340919</ele>
        <time>2024-09-08T08:51:59.000Z</time>
      </trkpt>
      <trkpt lat="47.841622" lon="13.383292">
        <ele>490.425585</ele>
        <time>2024-09-08T08:52:00.000Z</time>
      </trkpt>
      <trkpt lat="47.841365" lon="13.383656">
        <ele>490.497132</ele>
        <time>2024-09-08T08:52:04.000Z</time>
      </trkpt>
      <trkpt lat="47.841222" lon="13.383828">
        <ele>490.531092</ele>
        <time>2024-09-08T08:52:06.000Z</time>
      </trkpt>
      <trkpt lat="47.841148" lon="13.383914">
        <ele>490.549604</ele>
        <time>2024-09-08T08:52:07.000Z</time>
      </trkpt>
      <trkpt lat="47.8406" lon="13.384395">
        <ele>490.669793</ele>
        <time>2024-09-08T08:52:14.000Z</time>
      </trkpt>
      <trkpt lat="47.839646" lon="13.384949">
        <ele>489.944803</ele>
        <time>2024-09-08T08:52:25.000Z</time>
      </trkpt>
      <trkpt lat="47.83899" lon="13.385645">
        <ele>488.543701</ele>
        <time>2024-09-08T08:52:34.000Z</time>
      </trkpt>
      <trkpt lat="47.838396" lon="13.386036">
        <ele>487.491339</ele>
        <time>2024-09-08T08:52:41.000Z</time>
      </trkpt>
      <trkpt lat="47.838243" lon="13.386141">
        <ele>487.265443</ele>
        <time>2024-09-08T08:52:43.000Z</time>
      </trkpt>
      <trkpt lat="47.838231" lon="13.386145">
        <ele>487.226389</ele>
        <time>2024-09-08T08:52:43.000Z</time>
      </trkpt>
      <trkpt lat="47.838175" lon="13.386202">
        <ele>487.140615</ele>
        <time>2024-09-08T08:52:44.000Z</time>
      </trkpt>
      <trkpt lat="47.838089" lon="13.386258">
        <ele>487.018811</ele>
        <time>2024-09-08T08:52:45.000Z</time>
      </trkpt>
      <trkpt lat="47.8377" lon="13.386686">
        <ele>486.365581</ele>
        <time>2024-09-08T08:52:50.000Z</time>
      </trkpt>
      <trkpt lat="47.837391" lon="13.387234">
        <ele>485.707697</ele>
        <time>2024-09-08T08:52:55.000Z</time>
      </trkpt>
      <trkpt lat="47.837304" lon="13.387433">
        <ele>485.497469</ele>
        <time>2024-09-08T08:52:57.000Z</time>
      </trkpt>
      <trkpt lat="47.837157" lon="13.387883">
        <ele>485.246647</ele>
        <time>2024-09-08T08:53:01.000Z</time>
      </trkpt>
      <trkpt lat="47.837069" lon="13.388132">
        <ele>485.271962</ele>
        <time>2024-09-08T08:53:03.000Z</time>
      </trkpt>
      <trkpt lat="47.836982" lon="13.388353">
        <ele>485.294263</ele>
        <time>2024-09-08T08:53:05.000Z</time>
      </trkpt>
      <trkpt lat="47.836767" lon="13.388773">
        <ele>485.340965</ele>
        <time>2024-09-08T08:53:09.000Z</time>
      </trkpt>
      <trkpt lat="47.836684" lon="13.388893">
        <ele>485.357372</ele>
        <time>2024-09-08T08:53:10.000Z</time>
      </trkpt>
      <trkpt lat="47.836575" lon="13.389011">
        <ele>485.374371</ele>
        <time>2024-09-08T08:53:11.000Z</time>
      </trkpt>
      <trkpt lat="47.836373" lon="13.389204">
        <ele>485.406213</ele>
        <time>2024-09-08T08:53:14.000Z</time>
      </trkpt>
      <trkpt lat="47.836043" lon="13.389533">
        <ele>485.458708</ele>
        <time>2024-09-08T08:53:18.000Z</time>
      </trkpt>
      <trkpt lat="47.83595" lon="13.389622">
        <ele>485.447892</ele>
        <time>2024-09-08T08:53:19.000Z</time>
      </trkpt>
      <trkpt lat="47.835926" lon="13.389672">
        <ele>485.428517</ele>
        <time>2024-09-08T08:53:19.000Z</time>
      </trkpt>
      <trkpt lat="47.835843" lon="13.389774">
        <ele>485.386503</ele>
        <time>2024-09-08T08:53:20.000Z</time>
      </trkpt>
      <trkpt lat="47.835536" lon="13.390305">
        <ele>485.206389</ele>
        <time>2024-09-08T08:53:25.000Z</time>
      </trkpt>
      <trkpt lat="47.835365" lon="13.390748">
        <ele>485.072568</ele>
        <time>2024-09-08T08:53:29.000Z</time>
      </trkpt>
      <trkpt lat="47.835223" lon="13.39107">
        <ele>484.970183</ele>
        <time>2024-09-08T08:53:32.000Z</time>
      </trkpt>
      <trkpt lat="47.835086" lon="13.391412">
        <ele>484.864358</ele>
        <time>2024-09-08T08:53:35.000Z</time>
      </trkpt>
      <trkpt lat="47.834872" lon="13.391877">
        <ele>484.735456</ele>
        <time>2024-09-08T08:53:39.000Z</time>
      </trkpt>
      <trkpt lat="47.834843" lon="13.391951">
        <ele>484.720213</ele>
        <time>2024-09-08T08:53:40.000Z</time>
      </trkpt>
      <trkpt lat="47.834738" lon="13.392145">
        <ele>484.674885</ele>
        <time>2024-09-08T08:53:42.000Z</time>
      </trkpt>
      <trkpt lat="47.834495" lon="13.392547">
        <ele>484.57976</ele>
        <time>2024-09-08T08:53:46.000Z</time>
      </trkpt>
      <trkpt lat="47.834336" lon="13.392768">
        <ele>484.521366</ele>
        <time>2024-09-08T08:53:48.000Z</time>
      </trkpt>
      <trkpt lat="47.834188" lon="13.392968">
        <ele>484.465907</ele>
        <time>2024-09-08T08:53:50.000Z</time>
      </trkpt>
      <trkpt lat="47.833657" lon="13.393496">
        <ele>484.299152</ele>
        <time>2024-09-08T08:53:57.000Z</time>
      </trkpt>
      <trkpt lat="47.833429" lon="13.393678">
        <ele>484.351345</ele>
        <time>2024-09-08T08:54:00.000Z</time>
      </trkpt>
      <trkpt lat="47.833191" lon="13.393884">
        <ele>484.427981</ele>
        <time>2024-09-08T08:54:03.000Z</time>
      </trkpt>
      <trkpt lat="47.832859" lon="13.394176">
        <ele>484.540495</ele>
        <time>2024-09-08T08:54:07.000Z</time>
      </trkpt>
      <trkpt lat="47.832822" lon="13.394219">
        <ele>484.554227</ele>
        <time>2024-09-08T08:54:08.000Z</time>
      </trkpt>
      <trkpt lat="47.832781" lon="13.394266">
        <ele>484.56679</ele>
        <time>2024-09-08T08:54:09.000Z</time>
      </trkpt>
      <trkpt lat="47.832738" lon="13.394295">
        <ele>484.580734</ele>
        <time>2024-09-08T08:54:10.000Z</time>
      </trkpt>
      <trkpt lat="47.832673" lon="13.394382">
        <ele>484.60814</ele>
        <time>2024-09-08T08:54:11.000Z</time>
      </trkpt>
      <trkpt lat="47.832654" lon="13.394409">
        <ele>484.615119</ele>
        <time>2024-09-08T08:54:11.000Z</time>
      </trkpt>
      <trkpt lat="47.832481" lon="13.3946">
        <ele>484.675447</ele>
        <time>2024-09-08T08:54:13.000Z</time>
      </trkpt>
      <trkpt lat="47.832178" lon="13.395023">
        <ele>484.793613</ele>
        <time>2024-09-08T08:54:18.000Z</time>
      </trkpt>
      <trkpt lat="47.831993" lon="13.395298">
        <ele>484.84434</ele>
        <time>2024-09-08T08:54:21.000Z</time>
      </trkpt>
      <trkpt lat="47.831784" lon="13.395608">
        <ele>484.901358</ele>
        <time>2024-09-08T08:54:24.000Z</time>
      </trkpt>
      <trkpt lat="47.831439" lon="13.39605">
        <ele>484.990593</ele>
        <time>2024-09-08T08:54:29.000Z</time>
      </trkpt>
      <trkpt lat="47.83125" lon="13.396258">
        <ele>485.036967</ele>
        <time>2024-09-08T08:54:32.000Z</time>
      </trkpt>
      <trkpt lat="47.831121" lon="13.396402">
        <ele>485.069582</ele>
        <time>2024-09-08T08:54:34.000Z</time>
      </trkpt>
      <trkpt lat="47.831046" lon="13.396458">
        <ele>485.083477</ele>
        <time>2024-09-08T08:54:35.000Z</time>
      </trkpt>
      <trkpt lat="47.830981" lon="13.396522">
        <ele>485.100865</ele>
        <time>2024-09-08T08:54:36.000Z</time>
      </trkpt>
      <trkpt lat="47.830833" lon="13.39662">
        <ele>485.129492</ele>
        <time>2024-09-08T08:54:38.000Z</time>
      </trkpt>
      <trkpt lat="47.830526" lon="13.396834">
        <ele>485.304455</ele>
        <time>2024-09-08T08:54:42.000Z</time>
      </trkpt>
      <trkpt lat="47.830433" lon="13.396895">
        <ele>485.368418</ele>
        <time>2024-09-08T08:54:43.000Z</time>
      </trkpt>
      <trkpt lat="47.829954" lon="13.397206">
        <ele>485.686223</ele>
        <time>2024-09-08T08:54:49.000Z</time>
      </trkpt>
      <trkpt lat="47.829571" lon="13.39746">
        <ele>485.950539</ele>
        <time>2024-09-08T08:54:54.000Z</time>
      </trkpt>
      <trkpt lat="47.828646" lon="13.398152">
        <ele>487.349791</ele>
        <time>2024-09-08T08:55:06.000Z</time>
      </trkpt>
      <trkpt lat="47.828147" lon="13.398567">
        <ele>488.536986</ele>
        <time>2024-09-08T08:55:12.000Z</time>
      </trkpt>
      <trkpt lat="47.827913" lon="13.398752">
        <ele>489.101552</ele>
        <time>2024-09-08T08:55:15.000Z</time>
      </trkpt>
      <trkpt lat="47.827686" lon="13.398926">
        <ele>489.63553</ele>
        <time>2024-09-08T08:55:18.000Z</time>
      </trkpt>
      <trkpt lat="47.827047" lon="13.399282">
        <ele>492.094183</ele>
        <time>2024-09-08T08:55:26.000Z</time>
      </trkpt>
      <trkpt lat="47.826876" lon="13.399347">
        <ele>492.783114</ele>
        <time>2024-09-08T08:55:28.000Z</time>
      </trkpt>
      <trkpt lat="47.82677" lon="13.399378">
        <ele>493.243098</ele>
        <time>2024-09-08T08:55:29.000Z</time>
      </trkpt>
      <trkpt lat="47.826634" lon="13.399432">
        <ele>493.781818</ele>
        <time>2024-09-08T08:55:31.000Z</time>
      </trkpt>
      <trkpt lat="47.826377" lon="13.399497">
        <ele>494.874263</ele>
        <time>2024-09-08T08:55:34.000Z</time>
      </trkpt>
      <trkpt lat="47.826091" lon="13.399531">
        <ele>496.070176</ele>
        <time>2024-09-08T08:55:37.000Z</time>
      </trkpt>
      <trkpt lat="47.825717" lon="13.399552">
        <ele>497.825186</ele>
        <time>2024-09-08T08:55:41.000Z</time>
      </trkpt>
      <trkpt lat="47.825477" lon="13.399556">
        <ele>499.744292</ele>
        <time>2024-09-08T08:55:44.000Z</time>
      </trkpt>
      <trkpt lat="47.825115" lon="13.399528">
        <ele>502.853007</ele>
        <time>2024-09-08T08:55:48.000Z</time>
      </trkpt>
      <trkpt lat="47.824922" lon="13.399519">
        <ele>504.47686</ele>
        <time>2024-09-08T08:55:50.000Z</time>
      </trkpt>
      <trkpt lat="47.824641" lon="13.39947">
        <ele>506.792348</ele>
        <time>2024-09-08T08:55:53.000Z</time>
      </trkpt>
      <trkpt lat="47.824491" lon="13.399448">
        <ele>507.950179</ele>
        <time>2024-09-08T08:55:55.000Z</time>
      </trkpt>
      <trkpt lat="47.824366" lon="13.399408">
        <ele>508.994734</ele>
        <time>2024-09-08T08:55:56.000Z</time>
      </trkpt>
      <trkpt lat="47.824209" lon="13.399359">
        <ele>510.363363</ele>
        <time>2024-09-08T08:55:58.000Z</time>
      </trkpt>
      <trkpt lat="47.823521" lon="13.399053">
        <ele>515.154901</ele>
        <time>2024-09-08T08:56:06.000Z</time>
      </trkpt>
      <trkpt lat="47.822885" lon="13.398593">
        <ele>519.264498</ele>
        <time>2024-09-08T08:56:14.000Z</time>
      </trkpt>
      <trkpt lat="47.822289" lon="13.398017">
        <ele>522.743936</ele>
        <time>2024-09-08T08:56:22.000Z</time>
      </trkpt>
      <trkpt lat="47.821512" lon="13.397041">
        <ele>522.446227</ele>
        <time>2024-09-08T08:56:33.000Z</time>
      </trkpt>
      <trkpt lat="47.821088" lon="13.396685">
        <ele>522.304906</ele>
        <time>2024-09-08T08:56:38.000Z</time>
      </trkpt>
      <trkpt lat="47.820684" lon="13.39661">
        <ele>521.898832</ele>
        <time>2024-09-08T08:56:43.000Z</time>
      </trkpt>
      <trkpt lat="47.820325" lon="13.396672">
        <ele>521.287533</ele>
        <time>2024-09-08T08:56:47.000Z</time>
      </trkpt>
      <trkpt lat="47.819962" lon="13.396916">
        <ele>520.600865</ele>
        <time>2024-09-08T08:56:51.000Z</time>
      </trkpt>
      <trkpt lat="47.819692" lon="13.397255">
        <ele>520.004583</ele>
        <time>2024-09-08T08:56:55.000Z</time>
      </trkpt>
      <trkpt lat="47.819543" lon="13.397481">
        <ele>519.628426</ele>
        <time>2024-09-08T08:56:57.000Z</time>
      </trkpt>
      <trkpt lat="47.819376" lon="13.397786">
        <ele>519.16232</ele>
        <time>2024-09-08T08:57:00.000Z</time>
      </trkpt>
      <trkpt lat="47.819123" lon="13.398114">
        <ele>517.864317</ele>
        <time>2024-09-08T08:57:04.000Z</time>
      </trkpt>
      <trkpt lat="47.818876" lon="13.398336">
        <ele>516.692504</ele>
        <time>2024-09-08T08:57:07.000Z</time>
      </trkpt>
      <trkpt lat="47.817874" lon="13.398705">
        <ele>512.577238</ele>
        <time>2024-09-08T08:57:18.000Z</time>
      </trkpt>
      <trkpt lat="47.817487" lon="13.398981">
        <ele>510.065152</ele>
        <time>2024-09-08T08:57:23.000Z</time>
      </trkpt>
      <trkpt lat="47.817132" lon="13.399419">
        <ele>507.099682</ele>
        <time>2024-09-08T08:57:28.000Z</time>
      </trkpt>
      <trkpt lat="47.816768" lon="13.400118">
        <ele>503.208749</ele>
        <time>2024-09-08T08:57:35.000Z</time>
      </trkpt>
      <trkpt lat="47.816686" lon="13.400258">
        <ele>502.327444</ele>
        <time>2024-09-08T08:57:36.000Z</time>
      </trkpt>
      <trkpt lat="47.816569" lon="13.400391">
        <ele>501.405115</ele>
        <time>2024-09-08T08:57:38.000Z</time>
      </trkpt>
      <trkpt lat="47.81648" lon="13.400495">
        <ele>500.584282</ele>
        <time>2024-09-08T08:57:39.000Z</time>
      </trkpt>
      <trkpt lat="47.816296" lon="13.40067">
        <ele>499.396844</ele>
        <time>2024-09-08T08:57:41.000Z</time>
      </trkpt>
      <trkpt lat="47.816113" lon="13.400829">
        <ele>498.149677</ele>
        <time>2024-09-08T08:57:43.000Z</time>
      </trkpt>
      <trkpt lat="47.815737" lon="13.401318">
        <ele>495.295215</ele>
        <time>2024-09-08T08:57:49.000Z</time>
      </trkpt>
      <trkpt lat="47.815633" lon="13.401569">
        <ele>494.214003</ele>
        <time>2024-09-08T08:57:51.000Z</time>
      </trkpt>
      <trkpt lat="47.815583" lon="13.401772">
        <ele>493.340326</ele>
        <time>2024-09-08T08:57:53.000Z</time>
      </trkpt>
      <trkpt lat="47.815545" lon="13.401932">
        <ele>492.709643</ele>
        <time>2024-09-08T08:57:54.000Z</time>
      </trkpt>
      <trkpt lat="47.815522" lon="13.402022">
        <ele>492.298086</ele>
        <time>2024-09-08T08:57:55.000Z</time>
      </trkpt>
      <trkpt lat="47.815443" lon="13.402497">
        <ele>490.493506</ele>
        <time>2024-09-08T08:57:59.000Z</time>
      </trkpt>
      <trkpt lat="47.8154" lon="13.402845">
        <ele>489.606263</ele>
        <time>2024-09-08T08:58:02.000Z</time>
      </trkpt>
      <trkpt lat="47.815385" lon="13.403052">
        <ele>489.319926</ele>
        <time>2024-09-08T08:58:04.000Z</time>
      </trkpt>
      <trkpt lat="47.815321" lon="13.403453">
        <ele>488.714428</ele>
        <time>2024-09-08T08:58:07.000Z</time>
      </trkpt>
      <trkpt lat="47.815323" lon="13.403554">
        <ele>488.56399</ele>
        <time>2024-09-08T08:58:08.000Z</time>
      </trkpt>
      <trkpt lat="47.815275" lon="13.403843">
        <ele>488.109532</ele>
        <time>2024-09-08T08:58:10.000Z</time>
      </trkpt>
      <trkpt lat="47.815207" lon="13.404297">
        <ele>487.425705</ele>
        <time>2024-09-08T08:58:13.000Z</time>
      </trkpt>
      <trkpt lat="47.815206" lon="13.404417">
        <ele>487.242331</ele>
        <time>2024-09-08T08:58:14.000Z</time>
      </trkpt>
      <trkpt lat="47.815119" lon="13.40612">
        <ele>485.809795</ele>
        <time>2024-09-08T08:58:27.000Z</time>
      </trkpt>
      <trkpt lat="47.815084" lon="13.40638">
        <ele>485.761754</ele>
        <time>2024-09-08T08:58:29.000Z</time>
      </trkpt>
      <trkpt lat="47.815048" lon="13.406543">
        <ele>485.726651</ele>
        <time>2024-09-08T08:58:30.000Z</time>
      </trkpt>
      <trkpt lat="47.814791" lon="13.407257">
        <ele>485.577089</ele>
        <time>2024-09-08T08:58:36.000Z</time>
      </trkpt>
      <trkpt lat="47.814182" lon="13.408274">
        <ele>485.62738</ele>
        <time>2024-09-08T08:58:46.000Z</time>
      </trkpt>
      <trkpt lat="47.813908" lon="13.408594">
        <ele>485.73356</ele>
        <time>2024-09-08T08:58:50.000Z</time>
      </trkpt>
      <trkpt lat="47.81374" lon="13.408785">
        <ele>485.798726</ele>
        <time>2024-09-08T08:58:52.000Z</time>
      </trkpt>
      <trkpt lat="47.813552" lon="13.409077">
        <ele>485.883979</ele>
        <time>2024-09-08T08:58:55.000Z</time>
      </trkpt>
      <trkpt lat="47.813271" lon="13.409547">
        <ele>486.011705</ele>
        <time>2024-09-08T08:59:00.000Z</time>
      </trkpt>
      <trkpt lat="47.813215" lon="13.409646">
        <ele>486.050895</ele>
        <time>2024-09-08T08:59:01.000Z</time>
      </trkpt>
      <trkpt lat="47.813075" lon="13.410188">
        <ele>486.225323</ele>
        <time>2024-09-08T08:59:05.000Z</time>
      </trkpt>
      <trkpt lat="47.813003" lon="13.410487">
        <ele>486.32334</ele>
        <time>2024-09-08T08:59:07.000Z</time>
      </trkpt>
      <trkpt lat="47.812951" lon="13.410647">
        <ele>486.378301</ele>
        <time>2024-09-08T08:59:08.000Z</time>
      </trkpt>
      <trkpt lat="47.81291" lon="13.410757">
        <ele>486.414238</ele>
        <time>2024-09-08T08:59:09.000Z</time>
      </trkpt>
      <trkpt lat="47.812762" lon="13.411013">
        <ele>486.520501</ele>
        <time>2024-09-08T08:59:12.000Z</time>
      </trkpt>
      <trkpt lat="47.812447" lon="13.411484">
        <ele>486.722098</ele>
        <time>2024-09-08T08:59:17.000Z</time>
      </trkpt>
      <trkpt lat="47.811878" lon="13.412174">
        <ele>486.357758</ele>
        <time>2024-09-08T08:59:25.000Z</time>
      </trkpt>
      <trkpt lat="47.810918" lon="13.413833">
        <ele>484.943375</ele>
        <time>2024-09-08T08:59:41.000Z</time>
      </trkpt>
      <trkpt lat="47.810628" lon="13.414497">
        <ele>484.54813</ele>
        <time>2024-09-08T08:59:47.000Z</time>
      </trkpt>
      <trkpt lat="47.810578" lon="13.414583">
        <ele>484.490373</ele>
        <time>2024-09-08T08:59:48.000Z</time>
      </trkpt>
      <trkpt lat="47.810228" lon="13.415007">
        <ele>484.159769</ele>
        <time>2024-09-08T08:59:53.000Z</time>
      </trkpt>
      <trkpt lat="47.809742" lon="13.415202">
        <ele>483.779812</ele>
        <time>2024-09-08T08:59:59.000Z</time>
      </trkpt>
      <trkpt lat="47.809625" lon="13.415258">
        <ele>483.744009</ele>
        <time>2024-09-08T09:00:00.000Z</time>
      </trkpt>
      <trkpt lat="47.809601" lon="13.415274">
        <ele>483.767504</ele>
        <time>2024-09-08T09:00:00.000Z</time>
      </trkpt>
      <trkpt lat="47.809535" lon="13.415345">
        <ele>483.818271</ele>
        <time>2024-09-08T09:00:01.000Z</time>
      </trkpt>
      <trkpt lat="47.809413" lon="13.415471">
        <ele>483.912662</ele>
        <time>2024-09-08T09:00:03.000Z</time>
      </trkpt>
      <trkpt lat="47.809004" lon="13.41623">
        <ele>484.336711</ele>
        <time>2024-09-08T09:00:10.000Z</time>
      </trkpt>
      <trkpt lat="47.808026" lon="13.417303">
        <ele>485.148287</ele>
        <time>2024-09-08T09:00:24.000Z</time>
      </trkpt>
      <trkpt lat="47.807621" lon="13.418541">
        <ele>485.786753</ele>
        <time>2024-09-08T09:00:34.000Z</time>
      </trkpt>
      <trkpt lat="47.807352" lon="13.4192">
        <ele>486.133282</ele>
        <time>2024-09-08T09:00:40.000Z</time>
      </trkpt>
      <trkpt lat="47.807019" lon="13.419764">
        <ele>485.916069</ele>
        <time>2024-09-08T09:00:46.000Z</time>
      </trkpt>
      <trkpt lat="47.806692" lon="13.420739">
        <ele>485.604742</ele>
        <time>2024-09-08T09:00:54.000Z</time>
      </trkpt>
      <trkpt lat="47.806297" lon="13.422548">
        <ele>485.089733</ele>
        <time>2024-09-08T09:01:08.000Z</time>
      </trkpt>
      <trkpt lat="47.806187" lon="13.422869">
        <ele>485.000373</ele>
        <time>2024-09-08T09:01:11.000Z</time>
      </trkpt>
      <trkpt lat="47.805972" lon="13.423823">
        <ele>484.743665</ele>
        <time>2024-09-08T09:01:19.000Z</time>
      </trkpt>
      <trkpt lat="47.80577" lon="13.425771">
        <ele>487.081647</ele>
        <time>2024-09-08T09:01:34.000Z</time>
      </trkpt>
      <trkpt lat="47.805749" lon="13.425982">
        <ele>487.371089</ele>
        <time>2024-09-08T09:01:36.000Z</time>
      </trkpt>
      <trkpt lat="47.80575" lon="13.426143">
        <ele>487.588083</ele>
        <time>2024-09-08T09:01:37.000Z</time>
      </trkpt>
      <trkpt lat="47.805859" lon="13.427387">
        <ele>490.484144</ele>
        <time>2024-09-08T09:01:46.000Z</time>
      </trkpt>
      <trkpt lat="47.805975" lon="13.428344">
        <ele>493.510831</ele>
        <time>2024-09-08T09:01:53.000Z</time>
      </trkpt>
      <trkpt lat="47.805965" lon="13.428734">
        <ele>494.722596</ele>
        <time>2024-09-08T09:01:56.000Z</time>
      </trkpt>
      <trkpt lat="47.805967" lon="13.428786">
        <ele>494.890346</ele>
        <time>2024-09-08T09:01:56.000Z</time>
      </trkpt>
      <trkpt lat="47.805931" lon="13.428939">
        <ele>495.343667</ele>
        <time>2024-09-08T09:01:57.000Z</time>
      </trkpt>
      <trkpt lat="47.805916" lon="13.429001">
        <ele>495.569225</ele>
        <time>2024-09-08T09:01:57.000Z</time>
      </trkpt>
      <trkpt lat="47.805847" lon="13.429409">
        <ele>496.64391</ele>
        <time>2024-09-08T09:02:00.000Z</time>
      </trkpt>
      <trkpt lat="47.805824" lon="13.429815">
        <ele>496.704382</ele>
        <time>2024-09-08T09:02:03.000Z</time>
      </trkpt>
      <trkpt lat="47.805809" lon="13.429878">
        <ele>496.713246</ele>
        <time>2024-09-08T09:02:03.000Z</time>
      </trkpt>
      <trkpt lat="47.805818" lon="13.430049">
        <ele>496.73752</ele>
        <time>2024-09-08T09:02:04.000Z</time>
      </trkpt>
      <trkpt lat="47.805847" lon="13.430325">
        <ele>496.778478</ele>
        <time>2024-09-08T09:02:06.000Z</time>
      </trkpt>
      <trkpt lat="47.805869" lon="13.430868">
        <ele>496.857036</ele>
        <time>2024-09-08T09:02:10.000Z</time>
      </trkpt>
      <trkpt lat="47.805856" lon="13.43101">
        <ele>496.879661</ele>
        <time>2024-09-08T09:02:11.000Z</time>
      </trkpt>
      <trkpt lat="47.805852" lon="13.431066">
        <ele>496.885786</ele>
        <time>2024-09-08T09:02:11.000Z</time>
      </trkpt>
      <trkpt lat="47.805825" lon="13.43121">
        <ele>496.90971</ele>
        <time>2024-09-08T09:02:12.000Z</time>
      </trkpt>
      <trkpt lat="47.805776" lon="13.431474">
        <ele>496.949068</ele>
        <time>2024-09-08T09:02:14.000Z</time>
      </trkpt>
      <trkpt lat="47.805761" lon="13.431537">
        <ele>496.95815</ele>
        <time>2024-09-08T09:02:14.000Z</time>
      </trkpt>
      <trkpt lat="47.805702" lon="13.431902">
        <ele>497.012973</ele>
        <time>2024-09-08T09:02:17.000Z</time>
      </trkpt>
      <trkpt lat="47.805685" lon="13.432034">
        <ele>496.849642</ele>
        <time>2024-09-08T09:02:18.000Z</time>
      </trkpt>
      <trkpt lat="47.805687" lon="13.43217">
        <ele>496.481262</ele>
        <time>2024-09-08T09:02:19.000Z</time>
      </trkpt>
      <trkpt lat="47.805791" lon="13.432993">
        <ele>494.157723</ele>
        <time>2024-09-08T09:02:25.000Z</time>
      </trkpt>
      <trkpt lat="47.805779" lon="13.434444">
        <ele>490.172737</ele>
        <time>2024-09-08T09:02:36.000Z</time>
      </trkpt>
      <trkpt lat="47.805758" lon="13.434686">
        <ele>489.563148</ele>
        <time>2024-09-08T09:02:38.000Z</time>
      </trkpt>
      <trkpt lat="47.805734" lon="13.434954">
        <ele>489.2843</ele>
        <time>2024-09-08T09:02:40.000Z</time>
      </trkpt>
      <trkpt lat="47.805751" lon="13.43593">
        <ele>488.314837</ele>
        <time>2024-09-08T09:02:47.000Z</time>
      </trkpt>
      <trkpt lat="47.805692" lon="13.436882">
        <ele>487.350772</ele>
        <time>2024-09-08T09:02:54.000Z</time>
      </trkpt>
      <trkpt lat="47.805789" lon="13.437346">
        <ele>486.913953</ele>
        <time>2024-09-08T09:02:58.000Z</time>
      </trkpt>
      <trkpt lat="47.805896" lon="13.437587">
        <ele>486.908755</ele>
        <time>2024-09-08T09:03:00.000Z</time>
      </trkpt>
      <trkpt lat="47.80594" lon="13.437712">
        <ele>486.9062</ele>
        <time>2024-09-08T09:03:01.000Z</time>
      </trkpt>
      <trkpt lat="47.806042" lon="13.438035">
        <ele>486.899905</ele>
        <time>2024-09-08T09:03:04.000Z</time>
      </trkpt>
      <trkpt lat="47.806076" lon="13.438356">
        <ele>486.893983</ele>
        <time>2024-09-08T09:03:06.000Z</time>
      </trkpt>
      <trkpt lat="47.805948" lon="13.43946">
        <ele>486.873864</ele>
        <time>2024-09-08T09:03:14.000Z</time>
      </trkpt>
      <trkpt lat="47.806055" lon="13.440535">
        <ele>486.506606</ele>
        <time>2024-09-08T09:03:22.000Z</time>
      </trkpt>
      <trkpt lat="47.806066" lon="13.440844">
        <ele>486.347181</ele>
        <time>2024-09-08T09:03:24.000Z</time>
      </trkpt>
      <trkpt lat="47.806072" lon="13.440868">
        <ele>486.328221</ele>
        <time>2024-09-08T09:03:24.000Z</time>
      </trkpt>
      <trkpt lat="47.806084" lon="13.441416">
        <ele>486.045457</ele>
        <time>2024-09-08T09:03:28.000Z</time>
      </trkpt>
      <trkpt lat="47.806053" lon="13.44174">
        <ele>485.871737</ele>
        <time>2024-09-08T09:03:30.000Z</time>
      </trkpt>
      <trkpt lat="47.806048" lon="13.442028">
        <ele>485.71889</ele>
        <time>2024-09-08T09:03:32.000Z</time>
      </trkpt>
      <trkpt lat="47.80603" lon="13.442524">
        <ele>485.464644</ele>
        <time>2024-09-08T09:03:36.000Z</time>
      </trkpt>
      <trkpt lat="47.80601" lon="13.442905">
        <ele>485.278661</ele>
        <time>2024-09-08T09:03:39.000Z</time>
      </trkpt>
      <trkpt lat="47.806012" lon="13.442973">
        <ele>485.244847</ele>
        <time>2024-09-08T09:03:40.000Z</time>
      </trkpt>
      <trkpt lat="47.806019" lon="13.443137">
        <ele>485.170504</ele>
        <time>2024-09-08T09:03:41.000Z</time>
      </trkpt>
      <trkpt lat="47.806031" lon="13.443882">
        <ele>484.809421</ele>
        <time>2024-09-08T09:03:47.000Z</time>
      </trkpt>
      <trkpt lat="47.806064" lon="13.444167">
        <ele>484.672848</ele>
        <time>2024-09-08T09:03:49.000Z</time>
      </trkpt>
      <trkpt lat="47.806133" lon="13.445003">
        <ele>484.259859</ele>
        <time>2024-09-08T09:03:55.000Z</time>
      </trkpt>
      <trkpt lat="47.806163" lon="13.445663">
        <ele>484.224011</ele>
        <time>2024-09-08T09:04:00.000Z</time>
      </trkpt>
      <trkpt lat="47.806119" lon="13.446138">
        <ele>484.273847</ele>
        <time>2024-09-08T09:04:04.000Z</time>
      </trkpt>
      <trkpt lat="47.806068" lon="13.446353">
        <ele>484.297366</ele>
        <time>2024-09-08T09:04:06.000Z</time>
      </trkpt>
      <trkpt lat="47.805897" lon="13.447169">
        <ele>484.386873</ele>
        <time>2024-09-08T09:04:12.000Z</time>
      </trkpt>
      <trkpt lat="47.805795" lon="13.44767">
        <ele>484.441706</ele>
        <time>2024-09-08T09:04:16.000Z</time>
      </trkpt>
      <trkpt lat="47.805768" lon="13.448006">
        <ele>484.427604</ele>
        <time>2024-09-08T09:04:19.000Z</time>
      </trkpt>
      <trkpt lat="47.805732" lon="13.44836">
        <ele>484.386687</ele>
        <time>2024-09-08T09:04:22.000Z</time>
      </trkpt>
      <trkpt lat="47.80573" lon="13.448411">
        <ele>484.381065</ele>
        <time>2024-09-08T09:04:22.000Z</time>
      </trkpt>
      <trkpt lat="47.80569" lon="13.448635">
        <ele>484.354229</ele>
        <time>2024-09-08T09:04:24.000Z</time>
      </trkpt>
      <trkpt lat="47.805518" lon="13.449203">
        <ele>484.284693</ele>
        <time>2024-09-08T09:04:29.000Z</time>
      </trkpt>
      <trkpt lat="47.805505" lon="13.449226">
        <ele>484.280968</ele>
        <time>2024-09-08T09:04:29.000Z</time>
      </trkpt>
      <trkpt lat="47.80551" lon="13.449254">
        <ele>484.279241</ele>
        <time>2024-09-08T09:04:29.000Z</time>
      </trkpt>
      <trkpt lat="47.805501" lon="13.449264">
        <ele>484.278372</ele>
        <time>2024-09-08T09:04:29.000Z</time>
      </trkpt>
      <trkpt lat="47.805448" lon="13.449493">
        <ele>484.2497</ele>
        <time>2024-09-08T09:04:31.000Z</time>
      </trkpt>
      <trkpt lat="47.805112" lon="13.450066">
        <ele>484.164909</ele>
        <time>2024-09-08T09:04:37.000Z</time>
      </trkpt>
      <trkpt lat="47.805025" lon="13.450201">
        <ele>484.157716</ele>
        <time>2024-09-08T09:04:38.000Z</time>
      </trkpt>
      <trkpt lat="47.804933" lon="13.45036">
        <ele>484.191852</ele>
        <time>2024-09-08T09:04:40.000Z</time>
      </trkpt>
      <trkpt lat="47.804854" lon="13.450504">
        <ele>484.221362</ele>
        <time>2024-09-08T09:04:41.000Z</time>
      </trkpt>
      <trkpt lat="47.804688" lon="13.450608">
        <ele>484.267091</ele>
        <time>2024-09-08T09:04:43.000Z</time>
      </trkpt>
      <trkpt lat="47.804531" lon="13.45064">
        <ele>484.30276</ele>
        <time>2024-09-08T09:04:45.000Z</time>
      </trkpt>
      <trkpt lat="47.804448" lon="13.450656">
        <ele>484.321879</ele>
        <time>2024-09-08T09:04:46.000Z</time>
      </trkpt>
      <trkpt lat="47.804428" lon="13.450652">
        <ele>484.329774</ele>
        <time>2024-09-08T09:04:46.000Z</time>
      </trkpt>
      <trkpt lat="47.804349" lon="13.450614">
        <ele>484.347704</ele>
        <time>2024-09-08T09:04:47.000Z</time>
      </trkpt>
      <trkpt lat="47.804276" lon="13.450589">
        <ele>484.366655</ele>
        <time>2024-09-08T09:04:48.000Z</time>
      </trkpt>
      <trkpt lat="47.804185" lon="13.450586">
        <ele>484.387857</ele>
        <time>2024-09-08T09:04:49.000Z</time>
      </trkpt>
      <trkpt lat="47.804078" lon="13.450598">
        <ele>484.413092</ele>
        <time>2024-09-08T09:04:50.000Z</time>
      </trkpt>
      <trkpt lat="47.803728" lon="13.450654">
        <ele>484.495098</ele>
        <time>2024-09-08T09:04:54.000Z</time>
      </trkpt>
      <trkpt lat="47.803653" lon="13.450667">
        <ele>484.512759</ele>
        <time>2024-09-08T09:04:55.000Z</time>
      </trkpt>
      <trkpt lat="47.803583" lon="13.450661">
        <ele>484.5313</ele>
        <time>2024-09-08T09:04:56.000Z</time>
      </trkpt>
      <trkpt lat="47.803552" lon="13.450662">
        <ele>484.536835</ele>
        <time>2024-09-08T09:04:56.000Z</time>
      </trkpt>
      <trkpt lat="47.803477" lon="13.450636">
        <ele>484.555338</ele>
        <time>2024-09-08T09:04:57.000Z</time>
      </trkpt>
      <trkpt lat="47.803405" lon="13.450564">
        <ele>484.575968</ele>
        <time>2024-09-08T09:04:58.000Z</time>
      </trkpt>
      <trkpt lat="47.803366" lon="13.450443">
        <ele>484.685045</ele>
        <time>2024-09-08T09:04:59.000Z</time>
      </trkpt>
      <trkpt lat="47.803325" lon="13.450334">
        <ele>484.794976</ele>
        <time>2024-09-08T09:05:00.000Z</time>
      </trkpt>
      <trkpt lat="47.803284" lon="13.450056">
        <ele>485.020397</ele>
        <time>2024-09-08T09:05:02.000Z</time>
      </trkpt>
      <trkpt lat="47.803258" lon="13.449857">
        <ele>485.197331</ele>
        <time>2024-09-08T09:05:04.000Z</time>
      </trkpt>
      <trkpt lat="47.802919" lon="13.448988">
        <ele>486.010375</ele>
        <time>2024-09-08T09:05:12.000Z</time>
      </trkpt>
      <trkpt lat="47.802855" lon="13.448581">
        <ele>486.357408</ele>
        <time>2024-09-08T09:05:15.000Z</time>
      </trkpt>
      <trkpt lat="47.802814" lon="13.448429">
        <ele>486.496294</ele>
        <time>2024-09-08T09:05:16.000Z</time>
      </trkpt>
      <trkpt lat="47.802772" lon="13.448226">
        <ele>486.679338</ele>
        <time>2024-09-08T09:05:18.000Z</time>
      </trkpt>
      <trkpt lat="47.802716" lon="13.448092">
        <ele>486.789411</ele>
        <time>2024-09-08T09:05:19.000Z</time>
      </trkpt>
      <trkpt lat="47.802634" lon="13.4478">
        <ele>486.904911</ele>
        <time>2024-09-08T09:05:21.000Z</time>
      </trkpt>
      <trkpt lat="47.802552" lon="13.447588">
        <ele>486.989638</ele>
        <time>2024-09-08T09:05:23.000Z</time>
      </trkpt>
      <trkpt lat="47.802214" lon="13.446805">
        <ele>487.315885</ele>
        <time>2024-09-08T09:05:30.000Z</time>
      </trkpt>
      <trkpt lat="47.802125" lon="13.445956">
        <ele>487.620045</ele>
        <time>2024-09-08T09:05:36.000Z</time>
      </trkpt>
      <trkpt lat="47.80191" lon="13.445274">
        <ele>487.569849</ele>
        <time>2024-09-08T09:05:42.000Z</time>
      </trkpt>
      <trkpt lat="47.801892" lon="13.444966">
        <ele>487.463356</ele>
        <time>2024-09-08T09:05:44.000Z</time>
      </trkpt>
      <trkpt lat="47.801982" lon="13.444339">
        <ele>487.248959</ele>
        <time>2024-09-08T09:05:49.000Z</time>
      </trkpt>
      <trkpt lat="47.802044" lon="13.44407">
        <ele>487.150358</ele>
        <time>2024-09-08T09:05:51.000Z</time>
      </trkpt>
      <trkpt lat="47.802218" lon="13.443492">
        <ele>486.933204</ele>
        <time>2024-09-08T09:05:56.000Z</time>
      </trkpt>
      <trkpt lat="47.802287" lon="13.443304">
        <ele>486.860271</ele>
        <time>2024-09-08T09:05:58.000Z</time>
      </trkpt>
      <trkpt lat="47.802352" lon="13.442704">
        <ele>486.788915</ele>
        <time>2024-09-08T09:06:03.000Z</time>
      </trkpt>
      <trkpt lat="47.802274" lon="13.442153">
        <ele>486.762309</ele>
        <time>2024-09-08T09:06:07.000Z</time>
      </trkpt>
      <trkpt lat="47.801875" lon="13.440371">
        <ele>486.925534</ele>
        <time>2024-09-08T09:06:21.000Z</time>
      </trkpt>
      <trkpt lat="47.801457" lon="13.439249">
        <ele>488.295595</ele>
        <time>2024-09-08T09:06:31.000Z</time>
      </trkpt>
      <trkpt lat="47.80134" lon="13.438933">
        <ele>488.66865</ele>
        <time>2024-09-08T09:06:34.000Z</time>
      </trkpt>
      <trkpt lat="47.801088" lon="13.438103">
        <ele>489.662816</ele>
        <time>2024-09-08T09:06:41.000Z</time>
      </trkpt>
      <trkpt lat="47.801011" lon="13.43789">
        <ele>489.953142</ele>
        <time>2024-09-08T09:06:43.000Z</time>
      </trkpt>
      <trkpt lat="47.800715" lon="13.437328">
        <ele>490.798908</ele>
        <time>2024-09-08T09:06:48.000Z</time>
      </trkpt>
      <trkpt lat="47.800669" lon="13.437223">
        <ele>490.939355</ele>
        <time>2024-09-08T09:06:49.000Z</time>
      </trkpt>
      <trkpt lat="47.800603" lon="13.437105">
        <ele>491.131623</ele>
        <time>2024-09-08T09:06:50.000Z</time>
      </trkpt>
      <trkpt lat="47.800588" lon="13.437083">
        <ele>491.154505</ele>
        <time>2024-09-08T09:06:50.000Z</time>
      </trkpt>
      <trkpt lat="47.800486" lon="13.436813">
        <ele>491.529036</ele>
        <time>2024-09-08T09:06:52.000Z</time>
      </trkpt>
      <trkpt lat="47.800315" lon="13.436197">
        <ele>492.315764</ele>
        <time>2024-09-08T09:06:57.000Z</time>
      </trkpt>
      <trkpt lat="47.800087" lon="13.434732">
        <ele>493.144123</ele>
        <time>2024-09-08T09:07:08.000Z</time>
      </trkpt>
      <trkpt lat="47.800081" lon="13.433666">
        <ele>493.544675</ele>
        <time>2024-09-08T09:07:16.000Z</time>
      </trkpt>
      <trkpt lat="47.7999" lon="13.432909">
        <ele>493.727749</ele>
        <time>2024-09-08T09:07:22.000Z</time>
      </trkpt>
      <trkpt lat="47.799874" lon="13.432551">
        <ele>493.742343</ele>
        <time>2024-09-08T09:07:25.000Z</time>
      </trkpt>
      <trkpt lat="47.799904" lon="13.432342">
        <ele>493.750647</ele>
        <time>2024-09-08T09:07:27.000Z</time>
      </trkpt>
      <trkpt lat="47.800072" lon="13.431678">
        <ele>493.779388</ele>
        <time>2024-09-08T09:07:32.000Z</time>
      </trkpt>
      <trkpt lat="47.800182" lon="13.430937">
        <ele>493.810684</ele>
        <time>2024-09-08T09:07:38.000Z</time>
      </trkpt>
      <trkpt lat="47.800284" lon="13.428538">
        <ele>492.138672</ele>
        <time>2024-09-08T09:07:56.000Z</time>
      </trkpt>
      <trkpt lat="47.800306" lon="13.428263">
        <ele>491.919811</ele>
        <time>2024-09-08T09:07:58.000Z</time>
      </trkpt>
      <trkpt lat="47.80036" lon="13.427909">
        <ele>491.611813</ele>
        <time>2024-09-08T09:08:01.000Z</time>
      </trkpt>
      <trkpt lat="47.800393" lon="13.427685">
        <ele>491.383043</ele>
        <time>2024-09-08T09:08:03.000Z</time>
      </trkpt>
      <trkpt lat="47.800579" lon="13.426703">
        <ele>490.380699</ele>
        <time>2024-09-08T09:08:11.000Z</time>
      </trkpt>
      <trkpt lat="47.80065" lon="13.426078">
        <ele>489.761638</ele>
        <time>2024-09-08T09:08:16.000Z</time>
      </trkpt>
      <trkpt lat="47.800612" lon="13.425724">
        <ele>489.411514</ele>
        <time>2024-09-08T09:08:19.000Z</time>
      </trkpt>
      <trkpt lat="47.800588" lon="13.425555">
        <ele>489.249872</ele>
        <time>2024-09-08T09:08:20.000Z</time>
      </trkpt>
      <trkpt lat="47.800522" lon="13.425358">
        <ele>489.175636</ele>
        <time>2024-09-08T09:08:22.000Z</time>
      </trkpt>
      <trkpt lat="47.800353" lon="13.425005">
        <ele>490.024168</ele>
        <time>2024-09-08T09:08:25.000Z</time>
      </trkpt>
      <trkpt lat="47.80019" lon="13.424659">
        <ele>490.87169</ele>
        <time>2024-09-08T09:08:28.000Z</time>
      </trkpt>
      <trkpt lat="47.799806" lon="13.423919">
        <ele>492.710109</ele>
        <time>2024-09-08T09:08:35.000Z</time>
      </trkpt>
      <trkpt lat="47.799623" lon="13.423528">
        <ele>493.657683</ele>
        <time>2024-09-08T09:08:39.000Z</time>
      </trkpt>
      <trkpt lat="47.799501" lon="13.423207">
        <ele>494.410723</ele>
        <time>2024-09-08T09:08:42.000Z</time>
      </trkpt>
      <trkpt lat="47.799365" lon="13.42275">
        <ele>495.938336</ele>
        <time>2024-09-08T09:08:46.000Z</time>
      </trkpt>
      <trkpt lat="47.799372" lon="13.422632">
        <ele>496.302505</ele>
        <time>2024-09-08T09:08:47.000Z</time>
      </trkpt>
      <trkpt lat="47.799264" lon="13.42218">
        <ele>497.818059</ele>
        <time>2024-09-08T09:08:51.000Z</time>
      </trkpt>
      <trkpt lat="47.799264" lon="13.421153">
        <ele>500.963133</ele>
        <time>2024-09-08T09:08:59.000Z</time>
      </trkpt>
      <trkpt lat="47.799212" lon="13.420889">
        <ele>501.797226</ele>
        <time>2024-09-08T09:09:01.000Z</time>
      </trkpt>
      <trkpt lat="47.799065" lon="13.420449">
        <ele>502.857164</ele>
        <time>2024-09-08T09:09:05.000Z</time>
      </trkpt>
      <trkpt lat="47.799027" lon="13.420326">
        <ele>502.999404</ele>
        <time>2024-09-08T09:09:06.000Z</time>
      </trkpt>
      <trkpt lat="47.798862" lon="13.419198">
        <ele>504.146616</ele>
        <time>2024-09-08T09:09:15.000Z</time>
      </trkpt>
      <trkpt lat="47.798741" lon="13.418356">
        <ele>504.991287</ele>
        <time>2024-09-08T09:09:21.000Z</time>
      </trkpt>
      <trkpt lat="47.798732" lon="13.417385">
        <ele>505.040753</ele>
        <time>2024-09-08T09:09:28.000Z</time>
      </trkpt>
      <trkpt lat="47.798704" lon="13.417242">
        <ele>504.97791</ele>
        <time>2024-09-08T09:09:29.000Z</time>
      </trkpt>
      <trkpt lat="47.798465" lon="13.417181">
        <ele>504.84163</ele>
        <time>2024-09-08T09:09:32.000Z</time>
      </trkpt>
      <trkpt lat="47.798355" lon="13.4168">
        <ele>504.677975</ele>
        <time>2024-09-08T09:09:35.000Z</time>
      </trkpt>
      <trkpt lat="47.79844" lon="13.416242">
        <ele>504.448256</ele>
        <time>2024-09-08T09:09:39.000Z</time>
      </trkpt>
      <trkpt lat="47.798267" lon="13.415874">
        <ele>504.274789</ele>
        <time>2024-09-08T09:09:42.000Z</time>
      </trkpt>
      <trkpt lat="47.798267" lon="13.415134">
        <ele>503.910572</ele>
        <time>2024-09-08T09:09:48.000Z</time>
      </trkpt>
      <trkpt lat="47.798396" lon="13.414117">
        <ele>503.387928</ele>
        <time>2024-09-08T09:09:56.000Z</time>
      </trkpt>
      <trkpt lat="47.79851" lon="13.413554">
        <ele>503.085239</ele>
        <time>2024-09-08T09:10:00.000Z</time>
      </trkpt>
      <trkpt lat="47.798545" lon="13.412978">
        <ele>502.791291</ele>
        <time>2024-09-08T09:10:04.000Z</time>
      </trkpt>
      <trkpt lat="47.798442" lon="13.412234">
        <ele>502.382384</ele>
        <time>2024-09-08T09:10:10.000Z</time>
      </trkpt>
      <trkpt lat="47.79871" lon="13.410902">
        <ele>501.633119</ele>
        <time>2024-09-08T09:10:20.000Z</time>
      </trkpt>
      <trkpt lat="47.798662" lon="13.410052">
        <ele>500.787175</ele>
        <time>2024-09-08T09:10:26.000Z</time>
      </trkpt>
      <trkpt lat="47.798667" lon="13.408999">
        <ele>499.423084</ele>
        <time>2024-09-08T09:10:34.000Z</time>
      </trkpt>
      <trkpt lat="47.798505" lon="13.408576">
        <ele>498.793571</ele>
        <time>2024-09-08T09:10:38.000Z</time>
      </trkpt>
      <trkpt lat="47.798244" lon="13.407398">
        <ele>495.98208</ele>
        <time>2024-09-08T09:10:47.000Z</time>
      </trkpt>
      <trkpt lat="47.798246" lon="13.407114">
        <ele>495.006413</ele>
        <time>2024-09-08T09:10:49.000Z</time>
      </trkpt>
      <trkpt lat="47.798256" lon="13.406874">
        <ele>494.211863</ele>
        <time>2024-09-08T09:10:51.000Z</time>
      </trkpt>
      <trkpt lat="47.798313" lon="13.406728">
        <ele>493.673104</ele>
        <time>2024-09-08T09:10:52.000Z</time>
      </trkpt>
      <trkpt lat="47.798435" lon="13.406386">
        <ele>492.410757</ele>
        <time>2024-09-08T09:10:55.000Z</time>
      </trkpt>
      <trkpt lat="47.798441" lon="13.4063">
        <ele>492.11038</ele>
        <time>2024-09-08T09:10:56.000Z</time>
      </trkpt>
      <trkpt lat="47.798547" lon="13.406177">
        <ele>491.449099</ele>
        <time>2024-09-08T09:10:57.000Z</time>
      </trkpt>
      <trkpt lat="47.798709" lon="13.406024">
        <ele>490.527942</ele>
        <time>2024-09-08T09:10:59.000Z</time>
      </trkpt>
      <trkpt lat="47.799125" lon="13.405601">
        <ele>488.508303</ele>
        <time>2024-09-08T09:11:05.000Z</time>
      </trkpt>
      <trkpt lat="47.799186" lon="13.40544">
        <ele>488.11482</ele>
        <time>2024-09-08T09:11:06.000Z</time>
      </trkpt>
      <trkpt lat="47.799281" lon="13.40521">
        <ele>487.596254</ele>
        <time>2024-09-08T09:11:08.000Z</time>
      </trkpt>
      <trkpt lat="47.799517" lon="13.402554">
        <ele>483.437688</ele>
        <time>2024-09-08T09:11:28.000Z</time>
      </trkpt>
      <trkpt lat="47.79952" lon="13.402202">
        <ele>483.292337</ele>
        <time>2024-09-08T09:11:31.000Z</time>
      </trkpt>
      <trkpt lat="47.799507" lon="13.402044">
        <ele>483.228401</ele>
        <time>2024-09-08T09:11:32.000Z</time>
      </trkpt>
      <trkpt lat="47.799494" lon="13.401979">
        <ele>483.198437</ele>
        <time>2024-09-08T09:11:33.000Z</time>
      </trkpt>
      <trkpt lat="47.799452" lon="13.401689">
        <ele>483.07368</ele>
        <time>2024-09-08T09:11:35.000Z</time>
      </trkpt>
      <trkpt lat="47.799293" lon="13.400984">
        <ele>482.770937</ele>
        <time>2024-09-08T09:11:41.000Z</time>
      </trkpt>
      <trkpt lat="47.799147" lon="13.400593">
        <ele>482.706929</ele>
        <time>2024-09-08T09:11:44.000Z</time>
      </trkpt>
      <trkpt lat="47.798785" lon="13.39996">
        <ele>482.903727</ele>
        <time>2024-09-08T09:11:50.000Z</time>
      </trkpt>
      <trkpt lat="47.797672" lon="13.398491">
        <ele>483.406942</ele>
        <time>2024-09-08T09:12:07.000Z</time>
      </trkpt>
      <trkpt lat="47.797697" lon="13.398316">
        <ele>483.441133</ele>
        <time>2024-09-08T09:12:08.000Z</time>
      </trkpt>
      <trkpt lat="47.798531" lon="13.396863">
        <ele>483.815249</ele>
        <time>2024-09-08T09:12:22.000Z</time>
      </trkpt>
      <trkpt lat="47.798669" lon="13.396491">
        <ele>483.911248</ele>
        <time>2024-09-08T09:12:25.000Z</time>
      </trkpt>
      <trkpt lat="47.798798" lon="13.395873">
        <ele>484.064117</ele>
        <time>2024-09-08T09:12:30.000Z</time>
      </trkpt>
      <trkpt lat="47.798857" lon="13.395512">
        <ele>484.150185</ele>
        <time>2024-09-08T09:12:33.000Z</time>
      </trkpt>
      <trkpt lat="47.798935" lon="13.394912">
        <ele>484.292316</ele>
        <time>2024-09-08T09:12:38.000Z</time>
      </trkpt>
      <trkpt lat="47.799085" lon="13.394183">
        <ele>484.524182</ele>
        <time>2024-09-08T09:12:44.000Z</time>
      </trkpt>
      <trkpt lat="47.799646" lon="13.392768">
        <ele>485.833265</ele>
        <time>2024-09-08T09:12:56.000Z</time>
      </trkpt>
      <trkpt lat="47.799904" lon="13.392145">
        <ele>486.403001</ele>
        <time>2024-09-08T09:13:01.000Z</time>
      </trkpt>
      <trkpt lat="47.79999" lon="13.39196">
        <ele>486.665281</ele>
        <time>2024-09-08T09:13:03.000Z</time>
      </trkpt>
      <trkpt lat="47.800072" lon="13.391817">
        <ele>487.171535</ele>
        <time>2024-09-08T09:13:04.000Z</time>
      </trkpt>
      <trkpt lat="47.800091" lon="13.391755">
        <ele>487.410419</ele>
        <time>2024-09-08T09:13:05.000Z</time>
      </trkpt>
      <trkpt lat="47.800173" lon="13.391627">
        <ele>487.905476</ele>
        <time>2024-09-08T09:13:06.000Z</time>
      </trkpt>
      <trkpt lat="47.800186" lon="13.391602">
        <ele>488.00302</ele>
        <time>2024-09-08T09:13:06.000Z</time>
      </trkpt>
      <trkpt lat="47.800785" lon="13.390524">
        <ele>492.084099</ele>
        <time>2024-09-08T09:13:16.000Z</time>
      </trkpt>
      <trkpt lat="47.800954" lon="13.389972">
        <ele>493.870223</ele>
        <time>2024-09-08T09:13:21.000Z</time>
      </trkpt>
      <trkpt lat="47.801036" lon="13.389474">
        <ele>495.699022</ele>
        <time>2024-09-08T09:13:25.000Z</time>
      </trkpt>
      <trkpt lat="47.801041" lon="13.389252">
        <ele>496.613803</ele>
        <time>2024-09-08T09:13:27.000Z</time>
      </trkpt>
      <trkpt lat="47.80105" lon="13.389164">
        <ele>496.99605</ele>
        <time>2024-09-08T09:13:28.000Z</time>
      </trkpt>
      <trkpt lat="47.801126" lon="13.388596">
        <ele>499.350843</ele>
        <time>2024-09-08T09:13:32.000Z</time>
      </trkpt>
      <trkpt lat="47.801168" lon="13.388457">
        <ele>499.957353</ele>
        <time>2024-09-08T09:13:33.000Z</time>
      </trkpt>
      <trkpt lat="47.801215" lon="13.388315">
        <ele>500.629149</ele>
        <time>2024-09-08T09:13:34.000Z</time>
      </trkpt>
      <trkpt lat="47.801251" lon="13.388218">
        <ele>501.059839</ele>
        <time>2024-09-08T09:13:35.000Z</time>
      </trkpt>
      <trkpt lat="47.801355" lon="13.388013">
        <ele>502.007549</ele>
        <time>2024-09-08T09:13:37.000Z</time>
      </trkpt>
      <trkpt lat="47.801392" lon="13.387874">
        <ele>502.612408</ele>
        <time>2024-09-08T09:13:38.000Z</time>
      </trkpt>
      <trkpt lat="47.801425" lon="13.387765">
        <ele>503.111613</ele>
        <time>2024-09-08T09:13:39.000Z</time>
      </trkpt>
      <trkpt lat="47.801435" lon="13.387728">
        <ele>503.262247</ele>
        <time>2024-09-08T09:13:39.000Z</time>
      </trkpt>
      <trkpt lat="47.801491" lon="13.387328">
        <ele>504.945504</ele>
        <time>2024-09-08T09:13:42.000Z</time>
      </trkpt>
      <trkpt lat="47.801488" lon="13.387242">
        <ele>505.164208</ele>
        <time>2024-09-08T09:13:43.000Z</time>
      </trkpt>
      <trkpt lat="47.801485" lon="13.386893">
        <ele>505.251915</ele>
        <time>2024-09-08T09:13:46.000Z</time>
      </trkpt>
      <trkpt lat="47.801489" lon="13.386435">
        <ele>505.368196</ele>
        <time>2024-09-08T09:13:49.000Z</time>
      </trkpt>
      <trkpt lat="47.801605" lon="13.385923">
        <ele>505.50797</ele>
        <time>2024-09-08T09:13:53.000Z</time>
      </trkpt>
      <trkpt lat="47.801652" lon="13.385816">
        <ele>505.54002</ele>
        <time>2024-09-08T09:13:54.000Z</time>
      </trkpt>
      <trkpt lat="47.801676" lon="13.38575">
        <ele>505.560303</ele>
        <time>2024-09-08T09:13:55.000Z</time>
      </trkpt>
      <trkpt lat="47.801785" lon="13.385572">
        <ele>505.622235</ele>
        <time>2024-09-08T09:13:57.000Z</time>
      </trkpt>
      <trkpt lat="47.80185" lon="13.385465">
        <ele>505.659441</ele>
        <time>2024-09-08T09:13:58.000Z</time>
      </trkpt>
      <trkpt lat="47.80248" lon="13.384733">
        <ele>505.323844</ele>
        <time>2024-09-08T09:14:07.000Z</time>
      </trkpt>
      <trkpt lat="47.802766" lon="13.384259">
        <ele>504.614393</ele>
        <time>2024-09-08T09:14:12.000Z</time>
      </trkpt>
      <trkpt lat="47.802981" lon="13.383534">
        <ele>503.704987</ele>
        <time>2024-09-08T09:14:18.000Z</time>
      </trkpt>
      <trkpt lat="47.803181" lon="13.383064">
        <ele>503.085825</ele>
        <time>2024-09-08T09:14:22.000Z</time>
      </trkpt>
      <trkpt lat="47.803896" lon="13.382155">
        <ele>503.36313</ele>
        <time>2024-09-08T09:14:32.000Z</time>
      </trkpt>
      <trkpt lat="47.80402" lon="13.381942">
        <ele>503.490077</ele>
        <time>2024-09-08T09:14:34.000Z</time>
      </trkpt>
      <trkpt lat="47.804077" lon="13.381849">
        <ele>503.535527</ele>
        <time>2024-09-08T09:14:35.000Z</time>
      </trkpt>
      <trkpt lat="47.80414" lon="13.38169">
        <ele>503.621648</ele>
        <time>2024-09-08T09:14:36.000Z</time>
      </trkpt>
      <trkpt lat="47.804198" lon="13.381537">
        <ele>503.697611</ele>
        <time>2024-09-08T09:14:37.000Z</time>
      </trkpt>
      <trkpt lat="47.804237" lon="13.381447">
        <ele>503.748497</ele>
        <time>2024-09-08T09:14:38.000Z</time>
      </trkpt>
      <trkpt lat="47.804385" lon="13.381107">
        <ele>503.920749</ele>
        <time>2024-09-08T09:14:41.000Z</time>
      </trkpt>
      <trkpt lat="47.804504" lon="13.38091">
        <ele>503.977579</ele>
        <time>2024-09-08T09:14:43.000Z</time>
      </trkpt>
      <trkpt lat="47.80462" lon="13.380689">
        <ele>503.679491</ele>
        <time>2024-09-08T09:14:45.000Z</time>
      </trkpt>
      <trkpt lat="47.805142" lon="13.37996">
        <ele>502.607784</ele>
        <time>2024-09-08T09:14:53.000Z</time>
      </trkpt>
      <trkpt lat="47.806021" lon="13.379125">
        <ele>501.256158</ele>
        <time>2024-09-08T09:15:05.000Z</time>
      </trkpt>
      <trkpt lat="47.806093" lon="13.379039">
        <ele>501.244636</ele>
        <time>2024-09-08T09:15:06.000Z</time>
      </trkpt>
      <trkpt lat="47.806138" lon="13.378963">
        <ele>501.236594</ele>
        <time>2024-09-08T09:15:07.000Z</time>
      </trkpt>
      <trkpt lat="47.806253" lon="13.378768">
        <ele>501.215195</ele>
        <time>2024-09-08T09:15:09.000Z</time>
      </trkpt>
      <trkpt lat="47.806282" lon="13.378658">
        <ele>501.204648</ele>
        <time>2024-09-08T09:15:10.000Z</time>
      </trkpt>
      <trkpt lat="47.806341" lon="13.378462">
        <ele>501.187073</ele>
        <time>2024-09-08T09:15:12.000Z</time>
      </trkpt>
      <trkpt lat="47.806368" lon="13.37838">
        <ele>501.18108</ele>
        <time>2024-09-08T09:15:13.000Z</time>
      </trkpt>
      <trkpt lat="47.806414" lon="13.378193">
        <ele>501.163059</ele>
        <time>2024-09-08T09:15:14.000Z</time>
      </trkpt>
      <trkpt lat="47.806448" lon="13.378018">
        <ele>501.148828</ele>
        <time>2024-09-08T09:15:15.000Z</time>
      </trkpt>
      <trkpt lat="47.806511" lon="13.377782">
        <ele>501.128692</ele>
        <time>2024-09-08T09:15:17.000Z</time>
      </trkpt>
      <trkpt lat="47.806743" lon="13.377174">
        <ele>501.070911</ele>
        <time>2024-09-08T09:15:22.000Z</time>
      </trkpt>
      <trkpt lat="47.807497" lon="13.375945">
        <ele>502.988878</ele>
        <time>2024-09-08T09:15:34.000Z</time>
      </trkpt>
      <trkpt lat="47.807885" lon="13.375071">
        <ele>504.339235</ele>
        <time>2024-09-08T09:15:42.000Z</time>
      </trkpt>
      <trkpt lat="47.80798" lon="13.374872">
        <ele>504.656047</ele>
        <time>2024-09-08T09:15:44.000Z</time>
      </trkpt>
      <trkpt lat="47.808083" lon="13.374745">
        <ele>504.88383</ele>
        <time>2024-09-08T09:15:45.000Z</time>
      </trkpt>
      <trkpt lat="47.808369" lon="13.374438">
        <ele>505.536839</ele>
        <time>2024-09-08T09:15:49.000Z</time>
      </trkpt>
      <trkpt lat="47.808481" lon="13.374311">
        <ele>505.807731</ele>
        <time>2024-09-08T09:15:51.000Z</time>
      </trkpt>
      <trkpt lat="47.808978" lon="13.373839">
        <ele>506.879547</ele>
        <time>2024-09-08T09:15:58.000Z</time>
      </trkpt>
      <trkpt lat="47.809488" lon="13.373171">
        <ele>507.981816</ele>
        <time>2024-09-08T09:16:06.000Z</time>
      </trkpt>
      <trkpt lat="47.809573" lon="13.373072">
        <ele>508.080513</ele>
        <time>2024-09-08T09:16:07.000Z</time>
      </trkpt>
      <trkpt lat="47.809632" lon="13.372992">
        <ele>508.153619</ele>
        <time>2024-09-08T09:16:08.000Z</time>
      </trkpt>
      <trkpt lat="47.809892" lon="13.372589">
        <ele>508.51824</ele>
        <time>2024-09-08T09:16:12.000Z</time>
      </trkpt>
      <trkpt lat="47.810185" lon="13.372166">
        <ele>508.921124</ele>
        <time>2024-09-08T09:16:17.000Z</time>
      </trkpt>
      <trkpt lat="47.810373" lon="13.371979">
        <ele>509.138458</ele>
        <time>2024-09-08T09:16:20.000Z</time>
      </trkpt>
      <trkpt lat="47.810688" lon="13.371726">
        <ele>509.488545</ele>
        <time>2024-09-08T09:16:24.000Z</time>
      </trkpt>
      <trkpt lat="47.810758" lon="13.371669">
        <ele>509.482431</ele>
        <time>2024-09-08T09:16:25.000Z</time>
      </trkpt>
      <trkpt lat="47.811177" lon="13.37123">
        <ele>507.693298</ele>
        <time>2024-09-08T09:16:31.000Z</time>
      </trkpt>
      <trkpt lat="47.812017" lon="13.370588">
        <ele>504.345452</ele>
        <time>2024-09-08T09:16:42.000Z</time>
      </trkpt>
      <trkpt lat="47.812524" lon="13.369878">
        <ele>501.698898</ele>
        <time>2024-09-08T09:16:50.000Z</time>
      </trkpt>
      <trkpt lat="47.81254" lon="13.369849">
        <ele>501.569415</ele>
        <time>2024-09-08T09:16:50.000Z</time>
      </trkpt>
      <trkpt lat="47.812621" lon="13.369743">
        <ele>501.196456</ele>
        <time>2024-09-08T09:16:51.000Z</time>
      </trkpt>
      <trkpt lat="47.812666" lon="13.369661">
        <ele>500.88448</ele>
        <time>2024-09-08T09:16:52.000Z</time>
      </trkpt>
      <trkpt lat="47.812852" lon="13.369439">
        <ele>499.90262</ele>
        <time>2024-09-08T09:16:55.000Z</time>
      </trkpt>
      <trkpt lat="47.81352" lon="13.368894">
        <ele>496.763807</ele>
        <time>2024-09-08T09:17:03.000Z</time>
      </trkpt>
      <trkpt lat="47.813574" lon="13.368836">
        <ele>496.496834</ele>
        <time>2024-09-08T09:17:04.000Z</time>
      </trkpt>
      <trkpt lat="47.813626" lon="13.368765">
        <ele>496.205241</ele>
        <time>2024-09-08T09:17:05.000Z</time>
      </trkpt>
      <trkpt lat="47.813805" lon="13.36849">
        <ele>495.785436</ele>
        <time>2024-09-08T09:17:08.000Z</time>
      </trkpt>
      <trkpt lat="47.81395" lon="13.368109">
        <ele>495.61651</ele>
        <time>2024-09-08T09:17:11.000Z</time>
      </trkpt>
      <trkpt lat="47.813979" lon="13.36798">
        <ele>495.560899</ele>
        <time>2024-09-08T09:17:12.000Z</time>
      </trkpt>
      <trkpt lat="47.814029" lon="13.367798">
        <ele>495.487111</ele>
        <time>2024-09-08T09:17:13.000Z</time>
      </trkpt>
      <trkpt lat="47.814348" lon="13.366257">
        <ele>494.867904</ele>
        <time>2024-09-08T09:17:25.000Z</time>
      </trkpt>
      <trkpt lat="47.814399" lon="13.366127">
        <ele>494.815124</ele>
        <time>2024-09-08T09:17:26.000Z</time>
      </trkpt>
      <trkpt lat="47.814459" lon="13.365969">
        <ele>494.740052</ele>
        <time>2024-09-08T09:17:27.000Z</time>
      </trkpt>
      <trkpt lat="47.814857" lon="13.365347">
        <ele>494.42231</ele>
        <time>2024-09-08T09:17:33.000Z</time>
      </trkpt>
      <trkpt lat="47.81548" lon="13.364818">
        <ele>494.019866</ele>
        <time>2024-09-08T09:17:41.000Z</time>
      </trkpt>
      <trkpt lat="47.81557" lon="13.364751">
        <ele>493.9626</ele>
        <time>2024-09-08T09:17:42.000Z</time>
      </trkpt>
      <trkpt lat="47.815666" lon="13.364662">
        <ele>493.895304</ele>
        <time>2024-09-08T09:17:43.000Z</time>
      </trkpt>
      <trkpt lat="47.815729" lon="13.364628">
        <ele>493.857975</ele>
        <time>2024-09-08T09:17:44.000Z</time>
      </trkpt>
      <trkpt lat="47.815836" lon="13.364555">
        <ele>493.716844</ele>
        <time>2024-09-08T09:17:45.000Z</time>
      </trkpt>
      <trkpt lat="47.816075" lon="13.364376">
        <ele>493.321557</ele>
        <time>2024-09-08T09:17:48.000Z</time>
      </trkpt>
      <trkpt lat="47.816081" lon="13.364303">
        <ele>493.235958</ele>
        <time>2024-09-08T09:17:49.000Z</time>
      </trkpt>
      <trkpt lat="47.816189" lon="13.364221">
        <ele>493.053391</ele>
        <time>2024-09-08T09:17:50.000Z</time>
      </trkpt>
      <trkpt lat="47.816655" lon="13.36388">
        <ele>492.296926</ele>
        <time>2024-09-08T09:17:56.000Z</time>
      </trkpt>
      <trkpt lat="47.81691" lon="13.363688">
        <ele>491.874176</ele>
        <time>2024-09-08T09:17:59.000Z</time>
      </trkpt>
      <trkpt lat="47.817189" lon="13.363494">
        <ele>491.406242</ele>
        <time>2024-09-08T09:18:02.000Z</time>
      </trkpt>
      <trkpt lat="47.817686" lon="13.363116">
        <ele>490.138721</ele>
        <time>2024-09-08T09:18:08.000Z</time>
      </trkpt>
      <trkpt lat="47.817804" lon="13.363043">
        <ele>489.818693</ele>
        <time>2024-09-08T09:18:09.000Z</time>
      </trkpt>
      <trkpt lat="47.818028" lon="13.362864">
        <ele>489.195008</ele>
        <time>2024-09-08T09:18:12.000Z</time>
      </trkpt>
      <trkpt lat="47.818738" lon="13.362337">
        <ele>487.14079</ele>
        <time>2024-09-08T09:18:21.000Z</time>
      </trkpt>
      <trkpt lat="47.819783" lon="13.361527">
        <ele>484.917099</ele>
        <time>2024-09-08T09:18:34.000Z</time>
      </trkpt>
      <trkpt lat="47.820012" lon="13.361333">
        <ele>484.458883</ele>
        <time>2024-09-08T09:18:37.000Z</time>
      </trkpt>
      <trkpt lat="47.822886" lon="13.359015">
        <ele>483.0194</ele>
        <time>2024-09-08T09:19:13.000Z</time>
      </trkpt>
      <trkpt lat="47.823717" lon="13.358346">
        <ele>482.976725</ele>
        <time>2024-09-08T09:19:24.000Z</time>
      </trkpt>
      <trkpt lat="47.824022" lon="13.358102">
        <ele>482.999447</ele>
        <time>2024-09-08T09:19:28.000Z</time>
      </trkpt>
      <trkpt lat="47.824202" lon="13.357955">
        <ele>483.01419</ele>
        <time>2024-09-08T09:19:30.000Z</time>
      </trkpt>
      <trkpt lat="47.82438" lon="13.357797">
        <ele>483.026977</ele>
        <time>2024-09-08T09:19:32.000Z</time>
      </trkpt>
      <trkpt lat="47.826257" lon="13.356267">
        <ele>483.433552</ele>
        <time>2024-09-08T09:19:56.000Z</time>
      </trkpt>
      <trkpt lat="47.826627" lon="13.355978">
        <ele>483.56278</ele>
        <time>2024-09-08T09:20:01.000Z</time>
      </trkpt>
      <trkpt lat="47.826795" lon="13.355875">
        <ele>483.614166</ele>
        <time>2024-09-08T09:20:03.000Z</time>
      </trkpt>
      <trkpt lat="47.827133" lon="13.355644">
        <ele>483.975986</ele>
        <time>2024-09-08T09:20:07.000Z</time>
      </trkpt>
      <trkpt lat="47.827299" lon="13.355526">
        <ele>484.179735</ele>
        <time>2024-09-08T09:20:09.000Z</time>
      </trkpt>
      <trkpt lat="47.82739" lon="13.355469">
        <ele>484.274303</ele>
        <time>2024-09-08T09:20:10.000Z</time>
      </trkpt>
      <trkpt lat="47.828337" lon="13.354908">
        <ele>485.396339</ele>
        <time>2024-09-08T09:20:21.000Z</time>
      </trkpt>
      <trkpt lat="47.829576" lon="13.354299">
        <ele>487.424916</ele>
        <time>2024-09-08T09:20:36.000Z</time>
      </trkpt>
      <trkpt lat="47.8298" lon="13.354188">
        <ele>487.809771</ele>
        <time>2024-09-08T09:20:39.000Z</time>
      </trkpt>
      <trkpt lat="47.829947" lon="13.354108">
        <ele>488.067606</ele>
        <time>2024-09-08T09:20:41.000Z</time>
      </trkpt>
      <trkpt lat="47.830036" lon="13.354056">
        <ele>488.208778</ele>
        <time>2024-09-08T09:20:42.000Z</time>
      </trkpt>
      <trkpt lat="47.830355" lon="13.353847">
        <ele>488.763617</ele>
        <time>2024-09-08T09:20:46.000Z</time>
      </trkpt>
      <trkpt lat="47.830728" lon="13.353614">
        <ele>489.326637</ele>
        <time>2024-09-08T09:20:50.000Z</time>
      </trkpt>
      <trkpt lat="47.831303" lon="13.353109">
        <ele>490.255927</ele>
        <time>2024-09-08T09:20:57.000Z</time>
      </trkpt>
      <trkpt lat="47.831555" lon="13.352876">
        <ele>490.697095</ele>
        <time>2024-09-08T09:21:00.000Z</time>
      </trkpt>
      <trkpt lat="47.83177" lon="13.352692">
        <ele>491.035392</ele>
        <time>2024-09-08T09:21:03.000Z</time>
      </trkpt>
      <trkpt lat="47.831941" lon="13.352524">
        <ele>491.132655</ele>
        <time>2024-09-08T09:21:05.000Z</time>
      </trkpt>
      <trkpt lat="47.832069" lon="13.352377">
        <ele>491.182177</ele>
        <time>2024-09-08T09:21:07.000Z</time>
      </trkpt>
      <trkpt lat="47.832699" lon="13.351668">
        <ele>491.424744</ele>
        <time>2024-09-08T09:21:16.000Z</time>
      </trkpt>
      <trkpt lat="47.833706" lon="13.350527">
        <ele>492.297947</ele>
        <time>2024-09-08T09:21:30.000Z</time>
      </trkpt>
      <trkpt lat="47.834047" lon="13.35014">
        <ele>492.792481</ele>
        <time>2024-09-08T09:21:35.000Z</time>
      </trkpt>
      <trkpt lat="47.834145" lon="13.350036">
        <ele>492.929272</ele>
        <time>2024-09-08T09:21:36.000Z</time>
      </trkpt>
      <trkpt lat="47.834373" lon="13.349817">
        <ele>493.235042</ele>
        <time>2024-09-08T09:21:39.000Z</time>
      </trkpt>
      <trkpt lat="47.834609" lon="13.349587">
        <ele>493.568093</ele>
        <time>2024-09-08T09:21:42.000Z</time>
      </trkpt>
      <trkpt lat="47.834941" lon="13.349316">
        <ele>494.370631</ele>
        <time>2024-09-08T09:21:46.000Z</time>
      </trkpt>
      <trkpt lat="47.835206" lon="13.349126">
        <ele>495.08509</ele>
        <time>2024-09-08T09:21:49.000Z</time>
      </trkpt>
      <trkpt lat="47.835447" lon="13.34896">
        <ele>495.737469</ele>
        <time>2024-09-08T09:21:52.000Z</time>
      </trkpt>
      <trkpt lat="47.835826" lon="13.34872">
        <ele>496.74461</ele>
        <time>2024-09-08T09:21:57.000Z</time>
      </trkpt>
      <trkpt lat="47.83615" lon="13.348544">
        <ele>497.604162</ele>
        <time>2024-09-08T09:22:01.000Z</time>
      </trkpt>
      <trkpt lat="47.83692" lon="13.348229">
        <ele>498.594473</ele>
        <time>2024-09-08T09:22:10.000Z</time>
      </trkpt>
      <trkpt lat="47.837341" lon="13.34806">
        <ele>498.941432</ele>
        <time>2024-09-08T09:22:15.000Z</time>
      </trkpt>
      <trkpt lat="47.838147" lon="13.347587">
        <ele>499.466002</ele>
        <time>2024-09-08T09:22:25.000Z</time>
      </trkpt>
      <trkpt lat="47.838875" lon="13.346933">
        <ele>498.471113</ele>
        <time>2024-09-08T09:22:34.000Z</time>
      </trkpt>
      <trkpt lat="47.839077" lon="13.346726">
        <ele>498.179766</ele>
        <time>2024-09-08T09:22:37.000Z</time>
      </trkpt>
      <trkpt lat="47.839236" lon="13.346522">
        <ele>497.931206</ele>
        <time>2024-09-08T09:22:39.000Z</time>
      </trkpt>
      <trkpt lat="47.839908" lon="13.345497">
        <ele>496.333669</ele>
        <time>2024-09-08T09:22:50.000Z</time>
      </trkpt>
      <trkpt lat="47.840378" lon="13.344682">
        <ele>494.921988</ele>
        <time>2024-09-08T09:22:58.000Z</time>
      </trkpt>
      <trkpt lat="47.840906" lon="13.343761">
        <ele>493.434356</ele>
        <time>2024-09-08T09:23:07.000Z</time>
      </trkpt>
      <trkpt lat="47.841587" lon="13.342624">
        <ele>491.934209</ele>
        <time>2024-09-08T09:23:18.000Z</time>
      </trkpt>
      <trkpt lat="47.842247" lon="13.34144">
        <ele>490.709357</ele>
        <time>2024-09-08T09:23:29.000Z</time>
      </trkpt>
      <trkpt lat="47.842427" lon="13.341137">
        <ele>490.44602</ele>
        <time>2024-09-08T09:23:32.000Z</time>
      </trkpt>
      <trkpt lat="47.842454" lon="13.341085">
        <ele>490.40382</ele>
        <time>2024-09-08T09:23:32.000Z</time>
      </trkpt>
      <trkpt lat="47.842735" lon="13.34059">
        <ele>489.993937</ele>
        <time>2024-09-08T09:23:37.000Z</time>
      </trkpt>
      <trkpt lat="47.843286" lon="13.339847">
        <ele>489.080348</ele>
        <time>2024-09-08T09:23:45.000Z</time>
      </trkpt>
      <trkpt lat="47.843623" lon="13.33953">
        <ele>488.342029</ele>
        <time>2024-09-08T09:23:49.000Z</time>
      </trkpt>
      <trkpt lat="47.843747" lon="13.339428">
        <ele>488.05877</ele>
        <time>2024-09-08T09:23:51.000Z</time>
      </trkpt>
      <trkpt lat="47.843816" lon="13.339372">
        <ele>487.925443</ele>
        <time>2024-09-08T09:23:52.000Z</time>
      </trkpt>
      <trkpt lat="47.844104" lon="13.339193">
        <ele>487.344574</ele>
        <time>2024-09-08T09:23:55.000Z</time>
      </trkpt>
      <trkpt lat="47.844191" lon="13.339141">
        <ele>487.17134</ele>
        <time>2024-09-08T09:23:56.000Z</time>
      </trkpt>
      <trkpt lat="47.844373" lon="13.339069">
        <ele>486.829283</ele>
        <time>2024-09-08T09:23:58.000Z</time>
      </trkpt>
      <trkpt lat="47.84473" lon="13.338947">
        <ele>486.165923</ele>
        <time>2024-09-08T09:24:02.000Z</time>
      </trkpt>
      <trkpt lat="47.844791" lon="13.338939">
        <ele>486.04814</ele>
        <time>2024-09-08T09:24:03.000Z</time>
      </trkpt>
      <trkpt lat="47.845014" lon="13.33889">
        <ele>485.631779</ele>
        <time>2024-09-08T09:24:06.000Z</time>
      </trkpt>
      <trkpt lat="47.845337" lon="13.338845">
        <ele>485.063323</ele>
        <time>2024-09-08T09:24:10.000Z</time>
      </trkpt>
      <trkpt lat="47.845453" lon="13.338848">
        <ele>484.851452</ele>
        <time>2024-09-08T09:24:11.000Z</time>
      </trkpt>
      <trkpt lat="47.845568" lon="13.338864">
        <ele>484.668999</ele>
        <time>2024-09-08T09:24:12.000Z</time>
      </trkpt>
      <trkpt lat="47.845594" lon="13.338856">
        <ele>484.628271</ele>
        <time>2024-09-08T09:24:12.000Z</time>
      </trkpt>
      <trkpt lat="47.845702" lon="13.33888">
        <ele>484.408467</ele>
        <time>2024-09-08T09:24:13.000Z</time>
      </trkpt>
      <trkpt lat="47.845745" lon="13.338891">
        <ele>484.358846</ele>
        <time>2024-09-08T09:24:13.000Z</time>
      </trkpt>
      <trkpt lat="47.845751" lon="13.338887">
        <ele>484.339311</ele>
        <time>2024-09-08T09:24:13.000Z</time>
      </trkpt>
      <trkpt lat="47.845932" lon="13.338926">
        <ele>484.011257</ele>
        <time>2024-09-08T09:24:15.000Z</time>
      </trkpt>
      <trkpt lat="47.84606" lon="13.338961">
        <ele>483.771669</ele>
        <time>2024-09-08T09:24:16.000Z</time>
      </trkpt>
      <trkpt lat="47.846228" lon="13.339027">
        <ele>483.481723</ele>
        <time>2024-09-08T09:24:18.000Z</time>
      </trkpt>
      <trkpt lat="47.846368" lon="13.339102">
        <ele>483.233273</ele>
        <time>2024-09-08T09:24:20.000Z</time>
      </trkpt>
      <trkpt lat="47.846579" lon="13.339229">
        <ele>483.051815</ele>
        <time>2024-09-08T09:24:23.000Z</time>
      </trkpt>
      <trkpt lat="47.846654" lon="13.339285">
        <ele>483.072376</ele>
        <time>2024-09-08T09:24:24.000Z</time>
      </trkpt>
      <trkpt lat="47.846887" lon="13.339429">
        <ele>483.123127</ele>
        <time>2024-09-08T09:24:27.000Z</time>
      </trkpt>
      <trkpt lat="47.847189" lon="13.33965">
        <ele>483.19492</ele>
        <time>2024-09-08T09:24:31.000Z</time>
      </trkpt>
      <trkpt lat="47.847292" lon="13.33973">
        <ele>483.21954</ele>
        <time>2024-09-08T09:24:32.000Z</time>
      </trkpt>
      <trkpt lat="47.847395" lon="13.339791">
        <ele>483.24186</ele>
        <time>2024-09-08T09:24:33.000Z</time>
      </trkpt>
      <trkpt lat="47.847521" lon="13.339922">
        <ele>483.274303</ele>
        <time>2024-09-08T09:24:35.000Z</time>
      </trkpt>
      <trkpt lat="47.847558" lon="13.339954">
        <ele>483.284607</ele>
        <time>2024-09-08T09:24:35.000Z</time>
      </trkpt>
      <trkpt lat="47.847597" lon="13.339993">
        <ele>483.295255</ele>
        <time>2024-09-08T09:24:36.000Z</time>
      </trkpt>
      <trkpt lat="47.847624" lon="13.340051">
        <ele>483.304221</ele>
        <time>2024-09-08T09:24:37.000Z</time>
      </trkpt>
      <trkpt lat="47.847749" lon="13.340168">
        <ele>483.338157</ele>
        <time>2024-09-08T09:24:39.000Z</time>
      </trkpt>
      <trkpt lat="47.847819" lon="13.340179">
        <ele>483.353618</ele>
        <time>2024-09-08T09:24:40.000Z</time>
      </trkpt>
      <trkpt lat="47.847938" lon="13.340252">
        <ele>483.379181</ele>
        <time>2024-09-08T09:24:41.000Z</time>
      </trkpt>
      <trkpt lat="47.848001" lon="13.340303">
        <ele>483.396225</ele>
        <time>2024-09-08T09:24:42.000Z</time>
      </trkpt>
      <trkpt lat="47.848688" lon="13.340853">
        <ele>484.023694</ele>
        <time>2024-09-08T09:24:51.000Z</time>
      </trkpt>
      <trkpt lat="47.849188" lon="13.341251">
        <ele>484.494128</ele>
        <time>2024-09-08T09:24:57.000Z</time>
      </trkpt>
      <trkpt lat="47.849308" lon="13.341371">
        <ele>484.609489</ele>
        <time>2024-09-08T09:24:59.000Z</time>
      </trkpt>
      <trkpt lat="47.849432" lon="13.341508">
        <ele>484.74685</ele>
        <time>2024-09-08T09:25:01.000Z</time>
      </trkpt>
      <trkpt lat="47.84956" lon="13.341644">
        <ele>484.887911</ele>
        <time>2024-09-08T09:25:03.000Z</time>
      </trkpt>
      <trkpt lat="47.849699" lon="13.341842">
        <ele>484.91761</ele>
        <time>2024-09-08T09:25:05.000Z</time>
      </trkpt>
      <trkpt lat="47.849916" lon="13.342161">
        <ele>484.882208</ele>
        <time>2024-09-08T09:25:08.000Z</time>
      </trkpt>
      <trkpt lat="47.850008" lon="13.342372">
        <ele>484.861664</ele>
        <time>2024-09-08T09:25:10.000Z</time>
      </trkpt>
      <trkpt lat="47.850066" lon="13.342473">
        <ele>484.852669</ele>
        <time>2024-09-08T09:25:11.000Z</time>
      </trkpt>
      <trkpt lat="47.850088" lon="13.342533">
        <ele>484.847177</ele>
        <time>2024-09-08T09:25:12.000Z</time>
      </trkpt>
      <trkpt lat="47.850367" lon="13.343203">
        <ele>484.785747</ele>
        <time>2024-09-08T09:25:18.000Z</time>
      </trkpt>
      <trkpt lat="47.850518" lon="13.343735">
        <ele>484.740513</ele>
        <time>2024-09-08T09:25:22.000Z</time>
      </trkpt>
      <trkpt lat="47.850573" lon="13.343957">
        <ele>484.71282</ele>
        <time>2024-09-08T09:25:24.000Z</time>
      </trkpt>
      <trkpt lat="47.850567" lon="13.343966">
        <ele>484.703658</ele>
        <time>2024-09-08T09:25:24.000Z</time>
      </trkpt>
      <trkpt lat="47.850561" lon="13.34398">
        <ele>484.698721</ele>
        <time>2024-09-08T09:25:24.000Z</time>
      </trkpt>
      <trkpt lat="47.850566" lon="13.343988">
        <ele>484.697157</ele>
        <time>2024-09-08T09:25:24.000Z</time>
      </trkpt>
      <trkpt lat="47.850619" lon="13.344265">
        <ele>484.544716</ele>
        <time>2024-09-08T09:25:26.000Z</time>
      </trkpt>
      <trkpt lat="47.850644" lon="13.344429">
        <ele>484.458808</ele>
        <time>2024-09-08T09:25:27.000Z</time>
      </trkpt>
      <trkpt lat="47.850669" lon="13.344576">
        <ele>484.385757</ele>
        <time>2024-09-08T09:25:28.000Z</time>
      </trkpt>
      <trkpt lat="47.85071" lon="13.344915">
        <ele>484.199365</ele>
        <time>2024-09-08T09:25:31.000Z</time>
      </trkpt>
      <trkpt lat="47.850718" lon="13.344972">
        <ele>484.17259</ele>
        <time>2024-09-08T09:25:31.000Z</time>
      </trkpt>
      <trkpt lat="47.850757" lon="13.345147">
        <ele>484.071321</ele>
        <time>2024-09-08T09:25:32.000Z</time>
      </trkpt>
      <trkpt lat="47.850798" lon="13.345307">
        <ele>483.981919</ele>
        <time>2024-09-08T09:25:33.000Z</time>
      </trkpt>
      <trkpt lat="47.850852" lon="13.34552">
        <ele>483.867613</ele>
        <time>2024-09-08T09:25:35.000Z</time>
      </trkpt>
      <trkpt lat="47.85097" lon="13.345822">
        <ele>483.68949</ele>
        <time>2024-09-08T09:25:38.000Z</time>
      </trkpt>
      <trkpt lat="47.851057" lon="13.346032">
        <ele>483.551516</ele>
        <time>2024-09-08T09:25:40.000Z</time>
      </trkpt>
      <trkpt lat="47.851248" lon="13.346419">
        <ele>483.32784</ele>
        <time>2024-09-08T09:25:44.000Z</time>
      </trkpt>
      <trkpt lat="47.851348" lon="13.346667">
        <ele>483.325219</ele>
        <time>2024-09-08T09:25:46.000Z</time>
      </trkpt>
      <trkpt lat="47.851661" lon="13.347373">
        <ele>483.317564</ele>
        <time>2024-09-08T09:25:52.000Z</time>
      </trkpt>
      <trkpt lat="47.851772" lon="13.347662">
        <ele>483.314348</ele>
        <time>2024-09-08T09:25:54.000Z</time>
      </trkpt>
      <trkpt lat="47.852081" lon="13.348545">
        <ele>483.305334</ele>
        <time>2024-09-08T09:26:01.000Z</time>
      </trkpt>
      <trkpt lat="47.852219" lon="13.348907">
        <ele>483.458402</ele>
        <time>2024-09-08T09:26:04.000Z</time>
      </trkpt>
      <trkpt lat="47.852293" lon="13.349158">
        <ele>483.6222</ele>
        <time>2024-09-08T09:26:06.000Z</time>
      </trkpt>
      <trkpt lat="47.852498" lon="13.349988">
        <ele>484.18226</ele>
        <time>2024-09-08T09:26:13.000Z</time>
      </trkpt>
      <trkpt lat="47.852527" lon="13.350076">
        <ele>484.228979</ele>
        <time>2024-09-08T09:26:14.000Z</time>
      </trkpt>
      <trkpt lat="47.852528" lon="13.350075">
        <ele>484.236378</ele>
        <time>2024-09-08T09:26:14.000Z</time>
      </trkpt>
      <trkpt lat="47.852532" lon="13.350133">
        <ele>484.277427</ele>
        <time>2024-09-08T09:26:14.000Z</time>
      </trkpt>
      <trkpt lat="47.852546" lon="13.35014">
        <ele>484.278068</ele>
        <time>2024-09-08T09:26:14.000Z</time>
      </trkpt>
      <trkpt lat="47.85254" lon="13.35018">
        <ele>484.305828</ele>
        <time>2024-09-08T09:26:14.000Z</time>
      </trkpt>
      <trkpt lat="47.852546" lon="13.350194">
        <ele>484.313809</ele>
        <time>2024-09-08T09:26:14.000Z</time>
      </trkpt>
      <trkpt lat="47.852664" lon="13.350666">
        <ele>484.623917</ele>
        <time>2024-09-08T09:26:18.000Z</time>
      </trkpt>
      <trkpt lat="47.852835" lon="13.351666">
        <ele>485.233961</ele>
        <time>2024-09-08T09:26:26.000Z</time>
      </trkpt>
      <trkpt lat="47.8529" lon="13.352085">
        <ele>485.456557</ele>
        <time>2024-09-08T09:26:29.000Z</time>
      </trkpt>
      <trkpt lat="47.852939" lon="13.352328">
        <ele>485.596567</ele>
        <time>2024-09-08T09:26:31.000Z</time>
      </trkpt>
      <trkpt lat="47.852967" lon="13.35267">
        <ele>485.783161</ele>
        <time>2024-09-08T09:26:34.000Z</time>
      </trkpt>
      <trkpt lat="47.852985" lon="13.353049">
        <ele>485.979664</ele>
        <time>2024-09-08T09:26:37.000Z</time>
      </trkpt>
      <trkpt lat="47.852988" lon="13.353137">
        <ele>486.035442</ele>
        <time>2024-09-08T09:26:38.000Z</time>
      </trkpt>
      <trkpt lat="47.85299" lon="13.353176">
        <ele>486.056523</ele>
        <time>2024-09-08T09:26:38.000Z</time>
      </trkpt>
      <trkpt lat="47.853004" lon="13.353866">
        <ele>486.428007</ele>
        <time>2024-09-08T09:26:43.000Z</time>
      </trkpt>
      <trkpt lat="47.853" lon="13.354601">
        <ele>486.871907</ele>
        <time>2024-09-08T09:26:48.000Z</time>
      </trkpt>
      <trkpt lat="47.852949" lon="13.355218">
        <ele>487.251526</ele>
        <time>2024-09-08T09:26:53.000Z</time>
      </trkpt>
      <trkpt lat="47.852885" lon="13.355846">
        <ele>487.637556</ele>
        <time>2024-09-08T09:26:58.000Z</time>
      </trkpt>
      <trkpt lat="47.852795" lon="13.356356">
        <ele>487.950333</ele>
        <time>2024-09-08T09:27:02.000Z</time>
      </trkpt>
      <trkpt lat="47.852714" lon="13.356891">
        <ele>488.223524</ele>
        <time>2024-09-08T09:27:06.000Z</time>
      </trkpt>
      <trkpt lat="47.852619" lon="13.357193">
        <ele>488.37155</ele>
        <time>2024-09-08T09:27:08.000Z</time>
      </trkpt>
      <trkpt lat="47.852576" lon="13.357297">
        <ele>488.42737</ele>
        <time>2024-09-08T09:27:09.000Z</time>
      </trkpt>
      <trkpt lat="47.852504" lon="13.357493">
        <ele>488.524993</ele>
        <time>2024-09-08T09:27:11.000Z</time>
      </trkpt>
      <trkpt lat="47.852204" lon="13.358043">
        <ele>488.831236</ele>
        <time>2024-09-08T09:27:16.000Z</time>
      </trkpt>
      <trkpt lat="47.852133" lon="13.358152">
        <ele>488.909141</ele>
        <time>2024-09-08T09:27:17.000Z</time>
      </trkpt>
      <trkpt lat="47.851885" lon="13.35848">
        <ele>489.120429</ele>
        <time>2024-09-08T09:27:21.000Z</time>
      </trkpt>
      <trkpt lat="47.851661" lon="13.358827">
        <ele>489.195692</ele>
        <time>2024-09-08T09:27:25.000Z</time>
      </trkpt>
      <trkpt lat="47.851502" lon="13.359097">
        <ele>489.133448</ele>
        <time>2024-09-08T09:27:28.000Z</time>
      </trkpt>
      <trkpt lat="47.851368" lon="13.359394">
        <ele>489.071672</ele>
        <time>2024-09-08T09:27:31.000Z</time>
      </trkpt>
      <trkpt lat="47.851324" lon="13.359499">
        <ele>489.049887</ele>
        <time>2024-09-08T09:27:32.000Z</time>
      </trkpt>
      <trkpt lat="47.851207" lon="13.359763">
        <ele>488.996839</ele>
        <time>2024-09-08T09:27:34.000Z</time>
      </trkpt>
      <trkpt lat="47.851078" lon="13.360151">
        <ele>488.923398</ele>
        <time>2024-09-08T09:27:37.000Z</time>
      </trkpt>
      <trkpt lat="47.851029" lon="13.360252">
        <ele>488.903265</ele>
        <time>2024-09-08T09:27:38.000Z</time>
      </trkpt>
      <trkpt lat="47.851" lon="13.360344">
        <ele>488.882147</ele>
        <time>2024-09-08T09:27:39.000Z</time>
      </trkpt>
      <trkpt lat="47.850932" lon="13.360505">
        <ele>488.849803</ele>
        <time>2024-09-08T09:27:40.000Z</time>
      </trkpt>
      <trkpt lat="47.850865" lon="13.360652">
        <ele>488.81904</ele>
        <time>2024-09-08T09:27:41.000Z</time>
      </trkpt>
      <trkpt lat="47.850467" lon="13.361203">
        <ele>489.029152</ele>
        <time>2024-09-08T09:27:47.000Z</time>
      </trkpt>
      <trkpt lat="47.850136" lon="13.361409">
        <ele>489.282683</ele>
        <time>2024-09-08T09:27:51.000Z</time>
      </trkpt>
      <trkpt lat="47.849954" lon="13.361534">
        <ele>489.414601</ele>
        <time>2024-09-08T09:27:53.000Z</time>
      </trkpt>
      <trkpt lat="47.849787" lon="13.36166">
        <ele>489.551062</ele>
        <time>2024-09-08T09:27:55.000Z</time>
      </trkpt>
      <trkpt lat="47.849612" lon="13.361835">
        <ele>489.704439</ele>
        <time>2024-09-08T09:27:57.000Z</time>
      </trkpt>
      <trkpt lat="47.849437" lon="13.362106">
        <ele>489.873933</ele>
        <time>2024-09-08T09:28:00.000Z</time>
      </trkpt>
      <trkpt lat="47.849222" lon="13.362786">
        <ele>490.308958</ele>
        <time>2024-09-08T09:28:06.000Z</time>
      </trkpt>
      <trkpt lat="47.849174" lon="13.363076">
        <ele>490.490265</ele>
        <time>2024-09-08T09:28:08.000Z</time>
      </trkpt>
      <trkpt lat="47.849147" lon="13.363208">
        <ele>490.581339</ele>
        <time>2024-09-08T09:28:09.000Z</time>
      </trkpt>
      <trkpt lat="47.849124" lon="13.36331">
        <ele>490.652913</ele>
        <time>2024-09-08T09:28:10.000Z</time>
      </trkpt>
      <trkpt lat="47.849081" lon="13.363508">
        <ele>490.781991</ele>
        <time>2024-09-08T09:28:12.000Z</time>
      </trkpt>
      <trkpt lat="47.848793" lon="13.364152">
        <ele>491.283391</ele>
        <time>2024-09-08T09:28:18.000Z</time>
      </trkpt>
      <trkpt lat="47.848377" lon="13.364935">
        <ele>491.556206</ele>
        <time>2024-09-08T09:28:25.000Z</time>
      </trkpt>
      <trkpt lat="47.848256" lon="13.365279">
        <ele>491.253099</ele>
        <time>2024-09-08T09:28:28.000Z</time>
      </trkpt>
      <trkpt lat="47.84814" lon="13.36593">
        <ele>490.729445</ele>
        <time>2024-09-08T09:28:33.000Z</time>
      </trkpt>
      <trkpt lat="47.847908" lon="13.367776">
        <ele>489.426755</ele>
        <time>2024-09-08T09:28:47.000Z</time>
      </trkpt>
      <trkpt lat="47.847852" lon="13.368039">
        <ele>489.291799</ele>
        <time>2024-09-08T09:28:49.000Z</time>
      </trkpt>
      <trkpt lat="47.847736" lon="13.36843">
        <ele>489.089596</ele>
        <time>2024-09-08T09:28:52.000Z</time>
      </trkpt>
      <trkpt lat="47.847265" lon="13.369731">
        <ele>488.374208</ele>
        <time>2024-09-08T09:29:03.000Z</time>
      </trkpt>
      <trkpt lat="47.847041" lon="13.370164">
        <ele>488.24872</ele>
        <time>2024-09-08T09:29:07.000Z</time>
      </trkpt>
      <trkpt lat="47.846984" lon="13.37027">
        <ele>488.219933</ele>
        <time>2024-09-08T09:29:08.000Z</time>
      </trkpt>
      <trkpt lat="47.846901" lon="13.370435">
        <ele>488.17243</ele>
        <time>2024-09-08T09:29:10.000Z</time>
      </trkpt>
      <trkpt lat="47.846843" lon="13.370549">
        <ele>488.144077</ele>
        <time>2024-09-08T09:29:11.000Z</time>
      </trkpt>
      <trkpt lat="47.846742" lon="13.370747">
        <ele>488.084191</ele>
        <time>2024-09-08T09:29:13.000Z</time>
      </trkpt>
      <trkpt lat="47.84621" lon="13.371548">
        <ele>487.827695</ele>
        <time>2024-09-08T09:29:21.000Z</time>
      </trkpt>
      <trkpt lat="47.846075" lon="13.371728">
        <ele>487.792472</ele>
        <time>2024-09-08T09:29:23.000Z</time>
      </trkpt>
      <trkpt lat="47.845972" lon="13.371922">
        <ele>487.940349</ele>
        <time>2024-09-08T09:29:25.000Z</time>
      </trkpt>
      <trkpt lat="47.845904" lon="13.372044">
        <ele>488.027763</ele>
        <time>2024-09-08T09:29:26.000Z</time>
      </trkpt>
      <trkpt lat="47.845897" lon="13.372073">
        <ele>488.051091</ele>
        <time>2024-09-08T09:29:26.000Z</time>
      </trkpt>
      <trkpt lat="47.845836" lon="13.372207">
        <ele>488.15186</ele>
        <time>2024-09-08T09:29:27.000Z</time>
      </trkpt>
      <trkpt lat="47.845673" lon="13.372798">
        <ele>488.526458</ele>
        <time>2024-09-08T09:29:32.000Z</time>
      </trkpt>
      <trkpt lat="47.845668" lon="13.372865">
        <ele>488.572349</ele>
        <time>2024-09-08T09:29:33.000Z</time>
      </trkpt>
      <trkpt lat="47.845617" lon="13.373266">
        <ele>488.81537</ele>
        <time>2024-09-08T09:29:36.000Z</time>
      </trkpt>
      <trkpt lat="47.845546" lon="13.373689">
        <ele>489.069911</ele>
        <time>2024-09-08T09:29:39.000Z</time>
      </trkpt>
      <trkpt lat="47.845508" lon="13.373909">
        <ele>489.209302</ele>
        <time>2024-09-08T09:29:41.000Z</time>
      </trkpt>
      <trkpt lat="47.845441" lon="13.374168">
        <ele>489.373207</ele>
        <time>2024-09-08T09:29:43.000Z</time>
      </trkpt>
      <trkpt lat="47.844712" lon="13.376067">
        <ele>492.073832</ele>
        <time>2024-09-08T09:29:59.000Z</time>
      </trkpt>
      <trkpt lat="47.844124" lon="13.377345">
        <ele>492.219883</ele>
        <time>2024-09-08T09:30:11.000Z</time>
      </trkpt>
      <trkpt lat="47.843998" lon="13.377541">
        <ele>492.097473</ele>
        <time>2024-09-08T09:30:13.000Z</time>
      </trkpt>
      <trkpt lat="47.843745" lon="13.377927">
        <ele>491.846736</ele>
        <time>2024-09-08T09:30:17.000Z</time>
      </trkpt>
      <trkpt lat="47.843595" lon="13.378147">
        <ele>491.708237</ele>
        <time>2024-09-08T09:30:19.000Z</time>
      </trkpt>
      <trkpt lat="47.843477" lon="13.378357">
        <ele>491.586826</ele>
        <time>2024-09-08T09:30:21.000Z</time>
      </trkpt>
      <trkpt lat="47.843308" lon="13.378648">
        <ele>491.366626</ele>
        <time>2024-09-08T09:30:24.000Z</time>
      </trkpt>
      <trkpt lat="47.843147" lon="13.378973">
        <ele>491.033333</ele>
        <time>2024-09-08T09:30:27.000Z</time>
      </trkpt>
      <trkpt lat="47.842881" lon="13.379513">
        <ele>490.48498</ele>
        <time>2024-09-08T09:30:32.000Z</time>
      </trkpt>
      <trkpt lat="47.842723" lon="13.379862">
        <ele>490.136686</ele>
        <time>2024-09-08T09:30:35.000Z</time>
      </trkpt>
      <trkpt lat="47.842559" lon="13.38028">
        <ele>489.744084</ele>
        <time>2024-09-08T09:30:39.000Z</time>
      </trkpt>
      <trkpt lat="47.842424" lon="13.380621">
        <ele>489.413232</ele>
        <time>2024-09-08T09:30:42.000Z</time>
      </trkpt>
      <trkpt lat="47.841971" lon="13.382471">
        <ele>490.01373</ele>
        <time>2024-09-08T09:30:57.000Z</time>
      </trkpt>
      <trkpt lat="47.841803" lon="13.38294">
        <ele>490.221223</ele>
        <time>2024-09-08T09:31:01.000Z</time>
      </trkpt>
      <trkpt lat="47.841703" lon="13.383155">
        <ele>490.320213</ele>
        <time>2024-09-08T09:31:03.000Z</time>
      </trkpt>
      <trkpt lat="47.841609" lon="13.383297">
        <ele>490.372052</ele>
        <time>2024-09-08T09:31:04.000Z</time>
      </trkpt>
      <trkpt lat="47.841353" lon="13.383661">
        <ele>490.469653</ele>
        <time>2024-09-08T09:31:08.000Z</time>
      </trkpt>
      <trkpt lat="47.841223" lon="13.383823">
        <ele>490.518884</ele>
        <time>2024-09-08T09:31:10.000Z</time>
      </trkpt>
      <trkpt lat="47.841149" lon="13.383918">
        <ele>490.545734</ele>
        <time>2024-09-08T09:31:11.000Z</time>
      </trkpt>
      <trkpt lat="47.840601" lon="13.384403">
        <ele>490.72007</ele>
        <time>2024-09-08T09:31:18.000Z</time>
      </trkpt>
      <trkpt lat="47.839653" lon="13.384947">
        <ele>489.895747</ele>
        <time>2024-09-08T09:31:29.000Z</time>
      </trkpt>
      <trkpt lat="47.838978" lon="13.385651">
        <ele>488.554418</ele>
        <time>2024-09-08T09:31:38.000Z</time>
      </trkpt>
      <trkpt lat="47.838407" lon="13.386041">
        <ele>487.547315</ele>
        <time>2024-09-08T09:31:45.000Z</time>
      </trkpt>
      <trkpt lat="47.838253" lon="13.386142">
        <ele>487.306193</ele>
        <time>2024-09-08T09:31:47.000Z</time>
      </trkpt>
      <trkpt lat="47.83823" lon="13.386146">
        <ele>487.264504</ele>
        <time>2024-09-08T09:31:47.000Z</time>
      </trkpt>
      <trkpt lat="47.838163" lon="13.38619">
        <ele>487.172929</ele>
        <time>2024-09-08T09:31:48.000Z</time>
      </trkpt>
      <trkpt lat="47.838084" lon="13.386253">
        <ele>487.042934</ele>
        <time>2024-09-08T09:31:49.000Z</time>
      </trkpt>
      <trkpt lat="47.83769" lon="13.386682">
        <ele>486.345614</ele>
        <time>2024-09-08T09:31:54.000Z</time>
      </trkpt>
      <trkpt lat="47.837395" lon="13.387231">
        <ele>485.643352</ele>
        <time>2024-09-08T09:31:59.000Z</time>
      </trkpt>
      <trkpt lat="47.837316" lon="13.387431">
        <ele>485.418952</ele>
        <time>2024-09-08T09:32:01.000Z</time>
      </trkpt>
      <trkpt lat="47.837145" lon="13.38787">
        <ele>485.291539</ele>
        <time>2024-09-08T09:32:05.000Z</time>
      </trkpt>
      <trkpt lat="47.837055" lon="13.388127">
        <ele>485.310875</ele>
        <time>2024-09-08T09:32:07.000Z</time>
      </trkpt>
      <trkpt lat="47.836974" lon="13.38834">
        <ele>485.327889</ele>
        <time>2024-09-08T09:32:09.000Z</time>
      </trkpt>
      <trkpt lat="47.836768" lon="13.38877">
        <ele>485.363566</ele>
        <time>2024-09-08T09:32:13.000Z</time>
      </trkpt>
      <trkpt lat="47.836667" lon="13.388889">
        <ele>485.376094</ele>
        <time>2024-09-08T09:32:14.000Z</time>
      </trkpt>
      <trkpt lat="47.836577" lon="13.389014">
        <ele>485.389059</ele>
        <time>2024-09-08T09:32:15.000Z</time>
      </trkpt>
      <trkpt lat="47.83638" lon="13.389202">
        <ele>485.41337</ele>
        <time>2024-09-08T09:32:18.000Z</time>
      </trkpt>
      <trkpt lat="47.836043" lon="13.389521">
        <ele>485.438017</ele>
        <time>2024-09-08T09:32:22.000Z</time>
      </trkpt>
      <trkpt lat="47.835957" lon="13.389615">
        <ele>485.400566</ele>
        <time>2024-09-08T09:32:23.000Z</time>
      </trkpt>
      <trkpt lat="47.835923" lon="13.389678">
        <ele>485.3833</ele>
        <time>2024-09-08T09:32:24.000Z</time>
      </trkpt>
      <trkpt lat="47.83584" lon="13.389767">
        <ele>485.345866</ele>
        <time>2024-09-08T09:32:25.000Z</time>
      </trkpt>
      <trkpt lat="47.835549" lon="13.390304">
        <ele>485.18536</ele>
        <time>2024-09-08T09:32:30.000Z</time>
      </trkpt>
      <trkpt lat="47.835363" lon="13.390739">
        <ele>485.0661</ele>
        <time>2024-09-08T09:32:34.000Z</time>
      </trkpt>
      <trkpt lat="47.835229" lon="13.391081">
        <ele>484.97488</ele>
        <time>2024-09-08T09:32:37.000Z</time>
      </trkpt>
      <trkpt lat="47.835082" lon="13.391425">
        <ele>484.880576</ele>
        <time>2024-09-08T09:32:40.000Z</time>
      </trkpt>
      <trkpt lat="47.834877" lon="13.391872">
        <ele>484.762656</ele>
        <time>2024-09-08T09:32:44.000Z</time>
      </trkpt>
      <trkpt lat="47.834845" lon="13.391954">
        <ele>484.745351</ele>
        <time>2024-09-08T09:32:45.000Z</time>
      </trkpt>
      <trkpt lat="47.834732" lon="13.392148">
        <ele>484.69389</ele>
        <time>2024-09-08T09:32:47.000Z</time>
      </trkpt>
      <trkpt lat="47.834497" lon="13.392556">
        <ele>484.585927</ele>
        <time>2024-09-08T09:32:51.000Z</time>
      </trkpt>
      <trkpt lat="47.834341" lon="13.392775">
        <ele>484.51963</ele>
        <time>2024-09-08T09:32:53.000Z</time>
      </trkpt>
      <trkpt lat="47.834176" lon="13.392971">
        <ele>484.456694</ele>
        <time>2024-09-08T09:32:55.000Z</time>
      </trkpt>
      <trkpt lat="47.833653" lon="13.393494">
        <ele>484.29822</ele>
        <time>2024-09-08T09:33:02.000Z</time>
      </trkpt>
      <trkpt lat="47.833428" lon="13.393692">
        <ele>484.367979</ele>
        <time>2024-09-08T09:33:05.000Z</time>
      </trkpt>
      <trkpt lat="47.833197" lon="13.393884">
        <ele>484.440005</ele>
        <time>2024-09-08T09:33:08.000Z</time>
      </trkpt>
      <trkpt lat="47.832852" lon="13.394191">
        <ele>484.54575</ele>
        <time>2024-09-08T09:33:12.000Z</time>
      </trkpt>
      <trkpt lat="47.832816" lon="13.394221">
        <ele>484.55863</ele>
        <time>2024-09-08T09:33:12.000Z</time>
      </trkpt>
      <trkpt lat="47.832778" lon="13.394251">
        <ele>484.570458</ele>
        <time>2024-09-08T09:33:12.000Z</time>
      </trkpt>
      <trkpt lat="47.832737" lon="13.394293">
        <ele>484.583546</ele>
        <time>2024-09-08T09:33:13.000Z</time>
      </trkpt>
      <trkpt lat="47.832662" lon="13.394382">
        <ele>484.609309</ele>
        <time>2024-09-08T09:33:14.000Z</time>
      </trkpt>
      <trkpt lat="47.832644" lon="13.394413">
        <ele>484.615854</ele>
        <time>2024-09-08T09:33:14.000Z</time>
      </trkpt>
      <trkpt lat="47.832478" lon="13.394593">
        <ele>484.67255</ele>
        <time>2024-09-08T09:33:16.000Z</time>
      </trkpt>
      <trkpt lat="47.832174" lon="13.395012">
        <ele>484.779428</ele>
        <time>2024-09-08T09:33:21.000Z</time>
      </trkpt>
      <trkpt lat="47.832006" lon="13.395285">
        <ele>484.831138</ele>
        <time>2024-09-08T09:33:24.000Z</time>
      </trkpt>
      <trkpt lat="47.831787" lon="13.395602">
        <ele>484.892024</ele>
        <time>2024-09-08T09:33:27.000Z</time>
      </trkpt>
      <trkpt lat="47.831442" lon="13.396055">
        <ele>484.987333</ele>
        <time>2024-09-08T09:33:32.000Z</time>
      </trkpt>
      <trkpt lat="47.831247" lon="13.396258">
        <ele>485.03689</ele>
        <time>2024-09-08T09:33:35.000Z</time>
      </trkpt>
      <trkpt lat="47.831107" lon="13.3964">
        <ele>485.071731</ele>
        <time>2024-09-08T09:33:37.000Z</time>
      </trkpt>
      <trkpt lat="47.831043" lon="13.396455">
        <ele>485.086572</ele>
        <time>2024-09-08T09:33:38.000Z</time>
      </trkpt>
      <trkpt lat="47.830973" lon="13.396527">
        <ele>485.105143</ele>
        <time>2024-09-08T09:33:39.000Z</time>
      </trkpt>
      <trkpt lat="47.830848" lon="13.396616">
        <ele>485.135727</ele>
        <time>2024-09-08T09:33:41.000Z</time>
      </trkpt>
      <trkpt lat="47.830514" lon="13.396845">
        <ele>485.32989</ele>
        <time>2024-09-08T09:33:45.000Z</time>
      </trkpt>
      <trkpt lat="47.830435" lon="13.396901">
        <ele>485.387482</ele>
        <time>2024-09-08T09:33:46.000Z</time>
      </trkpt>
      <trkpt lat="47.829967" lon="13.397207">
        <ele>485.673577</ele>
        <time>2024-09-08T09:33:52.000Z</time>
      </trkpt>
      <trkpt lat="47.829572" lon="13.397463">
        <ele>485.911544</ele>
        <time>2024-09-08T09:33:57.000Z</time>
      </trkpt>
      <trkpt lat="47.828653" lon="13.398159">
        <ele>487.377023</ele>
        <time>2024-09-08T09:34:08.000Z</time>
      </trkpt>
      <trkpt lat="47.828156" lon="13.398571">
        <ele>488.522063</ele>
        <time>2024-09-08T09:34:14.000Z</time>
      </trkpt>
      <trkpt lat="47.827907" lon="13.398761">
        <ele>489.066598</ele>
        <time>2024-09-08T09:34:17.000Z</time>
      </trkpt>
      <trkpt lat="47.827688" lon="13.398931">
        <ele>489.581594</ele>
        <time>2024-09-08T09:34:20.000Z</time>
      </trkpt>
      <trkpt lat="47.827037" lon="13.39928">
        <ele>492.112969</ele>
        <time>2024-09-08T09:34:28.000Z</time>
      </trkpt>
      <trkpt lat="47.826872" lon="13.399341">
        <ele>492.770531</ele>
        <time>2024-09-08T09:34:30.000Z</time>
      </trkpt>
      <trkpt lat="47.826777" lon="13.39938">
        <ele>493.209583</ele>
        <time>2024-09-08T09:34:31.000Z</time>
      </trkpt>
      <trkpt lat="47.826644" lon="13.399417">
        <ele>493.723782</ele>
        <time>2024-09-08T09:34:33.000Z</time>
      </trkpt>
      <trkpt lat="47.82638" lon="13.399494">
        <ele>494.766493</ele>
        <time>2024-09-08T09:34:36.000Z</time>
      </trkpt>
      <trkpt lat="47.826092" lon="13.399529">
        <ele>495.907943</ele>
        <time>2024-09-08T09:34:39.000Z</time>
      </trkpt>
      <trkpt lat="47.825711" lon="13.399557">
        <ele>497.996163</ele>
        <time>2024-09-08T09:34:43.000Z</time>
      </trkpt>
      <trkpt lat="47.825487" lon="13.399552">
        <ele>499.885747</ele>
        <time>2024-09-08T09:34:45.000Z</time>
      </trkpt>
      <trkpt lat="47.825104" lon="13.399537">
        <ele>502.946623</ele>
        <time>2024-09-08T09:34:49.000Z</time>
      </trkpt>
      <trkpt lat="47.824905" lon="13.399511">
        <ele>504.545498</ele>
        <time>2024-09-08T09:34:51.000Z</time>
      </trkpt>
      <trkpt lat="47.824634" lon="13.399471">
        <ele>506.825359</ele>
        <time>2024-09-08T09:34:54.000Z</time>
      </trkpt>
      <trkpt lat="47.8245" lon="13.399446">
        <ele>507.96537</ele>
        <time>2024-09-08T09:34:56.000Z</time>
      </trkpt>
      <trkpt lat="47.824368" lon="13.399413">
        <ele>508.993874</ele>
        <time>2024-09-08T09:34:57.000Z</time>
      </trkpt>
      <trkpt lat="47.824213" lon="13.399355">
        <ele>510.34145</ele>
        <time>2024-09-08T09:34:59.000Z</time>
      </trkpt>
      <trkpt lat="47.823516" lon="13.399052">
        <ele>515.079578</ele>
        <time>2024-09-08T09:35:07.000Z</time>
      </trkpt>
      <trkpt lat="47.822871" lon="13.398594">
        <ele>519.438146</ele>
        <time>2024-09-08T09:35:15.000Z</time>
      </trkpt>
      <trkpt lat="47.822289" lon="13.39803">
        <ele>522.556192</ele>
        <time>2024-09-08T09:35:23.000Z</time>
      </trkpt>
      <trkpt lat="47.821514" lon="13.397046">
        <ele>522.434194</ele>
        <time>2024-09-08T09:35:34.000Z</time>
      </trkpt>
      <trkpt lat="47.821076" lon="13.396697">
        <ele>522.376295</ele>
        <time>2024-09-08T09:35:40.000Z</time>
      </trkpt>
      <trkpt lat="47.820686" lon="13.396605">
        <ele>521.873144</ele>
        <time>2024-09-08T09:35:44.000Z</time>
      </trkpt>
      <trkpt lat="47.820328" lon="13.39666">
        <ele>521.284258</ele>
        <time>2024-09-08T09:35:48.000Z</time>
      </trkpt>
      <trkpt lat="47.819963" lon="13.396914">
        <ele>520.622803</ele>
        <time>2024-09-08T09:35:52.000Z</time>
      </trkpt>
      <trkpt lat="47.819685" lon="13.397254">
        <ele>520.048387</ele>
        <time>2024-09-08T09:35:56.000Z</time>
      </trkpt>
      <trkpt lat="47.81953" lon="13.397485">
        <ele>519.686048</ele>
        <time>2024-09-08T09:35:58.000Z</time>
      </trkpt>
      <trkpt lat="47.81936" lon="13.397785">
        <ele>519.030741</ele>
        <time>2024-09-08T09:36:01.000Z</time>
      </trkpt>
      <trkpt lat="47.819139" lon="13.398119">
        <ele>517.787635</ele>
        <time>2024-09-08T09:36:05.000Z</time>
      </trkpt>
      <trkpt lat="47.818886" lon="13.398341">
        <ele>516.665409</ele>
        <time>2024-09-08T09:36:08.000Z</time>
      </trkpt>
      <trkpt lat="47.817881" lon="13.398712">
        <ele>512.724234</ele>
        <time>2024-09-08T09:36:20.000Z</time>
      </trkpt>
      <trkpt lat="47.817488" lon="13.398995">
        <ele>509.997074</ele>
        <time>2024-09-08T09:36:25.000Z</time>
      </trkpt>
      <trkpt lat="47.817134" lon="13.399416">
        <ele>507.055848</ele>
        <time>2024-09-08T09:36:30.000Z</time>
      </trkpt>
      <trkpt lat="47.816765" lon="13.400118">
        <ele>503.196715</ele>
        <time>2024-09-08T09:36:37.000Z</time>
      </trkpt>
      <trkpt lat="47.816677" lon="13.400258">
        <ele>502.322609</ele>
        <time>2024-09-08T09:36:38.000Z</time>
      </trkpt>
      <trkpt lat="47.816573" lon="13.400404">
        <ele>501.407816</ele>
        <time>2024-09-08T09:36:40.000Z</time>
      </trkpt>
      <trkpt lat="47.816482" lon="13.400495">
        <ele>500.617676</ele>
        <time>2024-09-08T09:36:41.000Z</time>
      </trkpt>
      <trkpt lat="47.81631" lon="13.400654">
        <ele>499.458555</ele>
        <time>2024-09-08T09:36:43.000Z</time>
      </trkpt>
      <trkpt lat="47.816121" lon="13.40083">
        <ele>498.18387</ele>
        <time>2024-09-08T09:36:45.000Z</time>
      </trkpt>
      <trkpt lat="47.81574" lon="13.40131">
        <ele>495.266423</ele>
        <time>2024-09-08T09:36:51.000Z</time>
      </trkpt>
      <trkpt lat="47.815643" lon="13.401568">
        <ele>494.161357</ele>
        <time>2024-09-08T09:36:53.000Z</time>
      </trkpt>
      <trkpt lat="47.815567" lon="13.401771">
        <ele>493.268395</ele>
        <time>2024-09-08T09:36:55.000Z</time>
      </trkpt>
      <trkpt lat="47.815534" lon="13.401934">
        <ele>492.623791</ele>
        <time>2024-09-08T09:36:56.000Z</time>
      </trkpt>
      <trkpt lat="47.815511" lon="13.40202">
        <ele>492.203171</ele>
        <time>2024-09-08T09:36:57.000Z</time>
      </trkpt>
      <trkpt lat="47.815439" lon="13.402487">
        <ele>490.35875</ele>
        <time>2024-09-08T09:37:01.000Z</time>
      </trkpt>
      <trkpt lat="47.815401" lon="13.402858">
        <ele>489.753942</ele>
        <time>2024-09-08T09:37:04.000Z</time>
      </trkpt>
      <trkpt lat="47.815372" lon="13.403047">
        <ele>489.443865</ele>
        <time>2024-09-08T09:37:05.000Z</time>
      </trkpt>
      <trkpt lat="47.815335" lon="13.403444">
        <ele>488.788164</ele>
        <time>2024-09-08T09:37:08.000Z</time>
      </trkpt>
      <trkpt lat="47.815327" lon="13.403554">
        <ele>488.625254</ele>
        <time>2024-09-08T09:37:09.000Z</time>
      </trkpt>
      <trkpt lat="47.815272" lon="13.403845">
        <ele>488.133126</ele>
        <time>2024-09-08T09:37:11.000Z</time>
      </trkpt>
      <trkpt lat="47.815221" lon="13.40429">
        <ele>487.392598</ele>
        <time>2024-09-08T09:37:14.000Z</time>
      </trkpt>
      <trkpt lat="47.815205" lon="13.404413">
        <ele>487.193997</ele>
        <time>2024-09-08T09:37:15.000Z</time>
      </trkpt>
      <trkpt lat="47.815118" lon="13.406124">
        <ele>485.83236</ele>
        <time>2024-09-08T09:37:28.000Z</time>
      </trkpt>
      <trkpt lat="47.81508" lon="13.406373">
        <ele>485.778468</ele>
        <time>2024-09-08T09:37:30.000Z</time>
      </trkpt>
      <trkpt lat="47.81504" lon="13.406552">
        <ele>485.739064</ele>
        <time>2024-09-08T09:37:31.000Z</time>
      </trkpt>
      <trkpt lat="47.814798" lon="13.407247">
        <ele>485.571239</ele>
        <time>2024-09-08T09:37:37.000Z</time>
      </trkpt>
      <trkpt lat="47.81418" lon="13.40827">
        <ele>485.640263</ele>
        <time>2024-09-08T09:37:47.000Z</time>
      </trkpt>
      <trkpt lat="47.813917" lon="13.408586">
        <ele>485.731671</ele>
        <time>2024-09-08T09:37:51.000Z</time>
      </trkpt>
      <trkpt lat="47.813742" lon="13.4088">
        <ele>485.787766</ele>
        <time>2024-09-08T09:37:54.000Z</time>
      </trkpt>
      <trkpt lat="47.813549" lon="13.409069">
        <ele>485.861152</ele>
        <time>2024-09-08T09:37:57.000Z</time>
      </trkpt>
      <trkpt lat="47.813272" lon="13.409535">
        <ele>485.987445</ele>
        <time>2024-09-08T09:38:02.000Z</time>
      </trkpt>
      <trkpt lat="47.813201" lon="13.409653">
        <ele>486.034581</ele>
        <time>2024-09-08T09:38:03.000Z</time>
      </trkpt>
      <trkpt lat="47.813064" lon="13.410174">
        <ele>486.226612</ele>
        <time>2024-09-08T09:38:07.000Z</time>
      </trkpt>
      <trkpt lat="47.812996" lon="13.410489">
        <ele>486.334513</ele>
        <time>2024-09-08T09:38:09.000Z</time>
      </trkpt>
      <trkpt lat="47.812947" lon="13.41064">
        <ele>486.395028</ele>
        <time>2024-09-08T09:38:10.000Z</time>
      </trkpt>
      <trkpt lat="47.812918" lon="13.410758">
        <ele>486.434601</ele>
        <time>2024-09-08T09:38:11.000Z</time>
      </trkpt>
      <trkpt lat="47.812756" lon="13.411011">
        <ele>486.551562</ele>
        <time>2024-09-08T09:38:14.000Z</time>
      </trkpt>
      <trkpt lat="47.812442" lon="13.41149">
        <ele>486.773492</ele>
        <time>2024-09-08T09:38:19.000Z</time>
      </trkpt>
      <trkpt lat="47.811885" lon="13.412183">
        <ele>486.316219</ele>
        <time>2024-09-08T09:38:27.000Z</time>
      </trkpt>
      <trkpt lat="47.810917" lon="13.413838">
        <ele>484.98307</ele>
        <time>2024-09-08T09:38:43.000Z</time>
      </trkpt>
      <trkpt lat="47.81062" lon="13.414485">
        <ele>484.549849</ele>
        <time>2024-09-08T09:38:49.000Z</time>
      </trkpt>
      <trkpt lat="47.810577" lon="13.414576">
        <ele>484.486548</ele>
        <time>2024-09-08T09:38:50.000Z</time>
      </trkpt>
      <trkpt lat="47.810229" lon="13.415008">
        <ele>484.124178</ele>
        <time>2024-09-08T09:38:55.000Z</time>
      </trkpt>
      <trkpt lat="47.80973" lon="13.415196">
        <ele>483.729031</ele>
        <time>2024-09-08T09:39:01.000Z</time>
      </trkpt>
      <trkpt lat="47.809631" lon="13.415267">
        <ele>483.798164</ele>
        <time>2024-09-08T09:39:02.000Z</time>
      </trkpt>
      <trkpt lat="47.809595" lon="13.41529">
        <ele>483.819818</ele>
        <time>2024-09-08T09:39:02.000Z</time>
      </trkpt>
      <trkpt lat="47.809527" lon="13.415336">
        <ele>483.866662</ele>
        <time>2024-09-08T09:39:03.000Z</time>
      </trkpt>
      <trkpt lat="47.809418" lon="13.415476">
        <ele>483.953715</ele>
        <time>2024-09-08T09:39:05.000Z</time>
      </trkpt>
      <trkpt lat="47.809014" lon="13.416222">
        <ele>484.344862</ele>
        <time>2024-09-08T09:39:12.000Z</time>
      </trkpt>
      <trkpt lat="47.808038" lon="13.417312">
        <ele>485.139715</ele>
        <time>2024-09-08T09:39:26.000Z</time>
      </trkpt>
      <trkpt lat="47.807627" lon="13.418543">
        <ele>485.816667</ele>
        <time>2024-09-08T09:39:36.000Z</time>
      </trkpt>
      <trkpt lat="47.807339" lon="13.4192">
        <ele>486.08081</ele>
        <time>2024-09-08T09:39:42.000Z</time>
      </trkpt>
      <trkpt lat="47.807014" lon="13.419765">
        <ele>485.890098</ele>
        <time>2024-09-08T09:39:48.000Z</time>
      </trkpt>
      <trkpt lat="47.806681" lon="13.420728">
        <ele>485.616746</ele>
        <time>2024-09-08T09:39:56.000Z</time>
      </trkpt>
      <trkpt lat="47.806299" lon="13.422562">
        <ele>485.072358</ele>
        <time>2024-09-08T09:40:10.000Z</time>
      </trkpt>
      <trkpt lat="47.806176" lon="13.422859">
        <ele>484.966256</ele>
        <time>2024-09-08T09:40:13.000Z</time>
      </trkpt>
      <trkpt lat="47.805968" lon="13.423824">
        <ele>484.661389</ele>
        <time>2024-09-08T09:40:21.000Z</time>
      </trkpt>
      <trkpt lat="47.805772" lon="13.425776">
        <ele>487.00972</ele>
        <time>2024-09-08T09:40:36.000Z</time>
      </trkpt>
      <trkpt lat="47.805764" lon="13.425979">
        <ele>487.275243</ele>
        <time>2024-09-08T09:40:38.000Z</time>
      </trkpt>
      <trkpt lat="47.805748" lon="13.426133">
        <ele>487.474291</ele>
        <time>2024-09-08T09:40:39.000Z</time>
      </trkpt>
      <trkpt lat="47.805846" lon="13.427382">
        <ele>490.570852</ele>
        <time>2024-09-08T09:40:48.000Z</time>
      </trkpt>
      <trkpt lat="47.805977" lon="13.428346">
        <ele>493.607234</ele>
        <time>2024-09-08T09:40:55.000Z</time>
      </trkpt>
      <trkpt lat="47.805976" lon="13.428731">
        <ele>494.822901</ele>
        <time>2024-09-08T09:40:58.000Z</time>
      </trkpt>
      <trkpt lat="47.805968" lon="13.42879">
        <ele>494.991178</ele>
        <time>2024-09-08T09:40:58.000Z</time>
      </trkpt>
      <trkpt lat="47.805935" lon="13.428926">
        <ele>495.445966</ele>
        <time>2024-09-08T09:40:59.000Z</time>
      </trkpt>
      <trkpt lat="47.805913" lon="13.428996">
        <ele>495.672216</ele>
        <time>2024-09-08T09:41:00.000Z</time>
      </trkpt>
      <trkpt lat="47.805854" lon="13.4294">
        <ele>496.381735</ele>
        <time>2024-09-08T09:41:03.000Z</time>
      </trkpt>
      <trkpt lat="47.805813" lon="13.429808">
        <ele>496.534004</ele>
        <time>2024-09-08T09:41:06.000Z</time>
      </trkpt>
      <trkpt lat="47.805822" lon="13.429867">
        <ele>496.556288</ele>
        <time>2024-09-08T09:41:06.000Z</time>
      </trkpt>
      <trkpt lat="47.805829" lon="13.430035">
        <ele>496.617434</ele>
        <time>2024-09-08T09:41:07.000Z</time>
      </trkpt>
      <trkpt lat="47.805845" lon="13.430317">
        <ele>496.720592</ele>
        <time>2024-09-08T09:41:09.000Z</time>
      </trkpt>
      <trkpt lat="47.805876" lon="13.430863">
        <ele>496.918379</ele>
        <time>2024-09-08T09:41:13.000Z</time>
      </trkpt>
      <trkpt lat="47.805854" lon="13.431015">
        <ele>496.975338</ele>
        <time>2024-09-08T09:41:14.000Z</time>
      </trkpt>
      <trkpt lat="47.805842" lon="13.431054">
        <ele>496.990806</ele>
        <time>2024-09-08T09:41:14.000Z</time>
      </trkpt>
      <trkpt lat="47.805815" lon="13.431222">
        <ele>497.051014</ele>
        <time>2024-09-08T09:41:15.000Z</time>
      </trkpt>
      <trkpt lat="47.805762" lon="13.431482">
        <ele>497.150131</ele>
        <time>2024-09-08T09:41:17.000Z</time>
      </trkpt>
      <trkpt lat="47.805751" lon="13.431534">
        <ele>497.173016</ele>
        <time>2024-09-08T09:41:17.000Z</time>
      </trkpt>
      <trkpt lat="47.805697" lon="13.431907">
        <ele>497.085386</ele>
        <time>2024-09-08T09:41:20.000Z</time>
      </trkpt>
      <trkpt lat="47.80569" lon="13.432032">
        <ele>496.727852</ele>
        <time>2024-09-08T09:41:21.000Z</time>
      </trkpt>
      <trkpt lat="47.805699" lon="13.432161">
        <ele>496.362563</ele>
        <time>2024-09-08T09:41:22.000Z</time>
      </trkpt>
      <trkpt lat="47.80578" lon="13.433002">
        <ele>494.058474</ele>
        <time>2024-09-08T09:41:28.000Z</time>
      </trkpt>
      <trkpt lat="47.805779" lon="13.434441">
        <ele>490.106857</ele>
        <time>2024-09-08T09:41:39.000Z</time>
      </trkpt>
      <trkpt lat="47.805751" lon="13.434681">
        <ele>489.724184</ele>
        <time>2024-09-08T09:41:41.000Z</time>
      </trkpt>
      <trkpt lat="47.805738" lon="13.434958">
        <ele>489.414139</ele>
        <time>2024-09-08T09:41:43.000Z</time>
      </trkpt>
      <trkpt lat="47.80575" lon="13.435924">
        <ele>488.336182</ele>
        <time>2024-09-08T09:41:50.000Z</time>
      </trkpt>
      <trkpt lat="47.805692" lon="13.436881">
        <ele>487.264224</ele>
        <time>2024-09-08T09:41:57.000Z</time>
      </trkpt>
      <trkpt lat="47.805786" lon="13.437355">
        <ele>486.934145</ele>
        <time>2024-09-08T09:42:01.000Z</time>
      </trkpt>
      <trkpt lat="47.80588" lon="13.437591">
        <ele>486.930236</ele>
        <time>2024-09-08T09:42:03.000Z</time>
      </trkpt>
      <trkpt lat="47.805944" lon="13.437722">
        <ele>486.928286</ele>
        <time>2024-09-08T09:42:04.000Z</time>
      </trkpt>
      <trkpt lat="47.806034" lon="13.438038">
        <ele>486.923534</ele>
        <time>2024-09-08T09:42:07.000Z</time>
      </trkpt>
      <trkpt lat="47.806062" lon="13.438367">
        <ele>486.919047</ele>
        <time>2024-09-08T09:42:09.000Z</time>
      </trkpt>
      <trkpt lat="47.80594" lon="13.439471">
        <ele>486.903851</ele>
        <time>2024-09-08T09:42:17.000Z</time>
      </trkpt>
      <trkpt lat="47.806048" lon="13.44054">
        <ele>486.484354</ele>
        <time>2024-09-08T09:42:25.000Z</time>
      </trkpt>
      <trkpt lat="47.806066" lon="13.440833">
        <ele>486.331341</ele>
        <time>2024-09-08T09:42:27.000Z</time>
      </trkpt>
      <trkpt lat="47.806067" lon="13.440876">
        <ele>486.313159</ele>
        <time>2024-09-08T09:42:27.000Z</time>
      </trkpt>
      <trkpt lat="47.806084" lon="13.441405">
        <ele>486.041793</ele>
        <time>2024-09-08T09:42:31.000Z</time>
      </trkpt>
      <trkpt lat="47.806066" lon="13.441745">
        <ele>485.875066</ele>
        <time>2024-09-08T09:42:34.000Z</time>
      </trkpt>
      <trkpt lat="47.806035" lon="13.442037">
        <ele>485.728385</ele>
        <time>2024-09-08T09:42:36.000Z</time>
      </trkpt>
      <trkpt lat="47.806013" lon="13.442518">
        <ele>485.483507</ele>
        <time>2024-09-08T09:42:40.000Z</time>
      </trkpt>
      <trkpt lat="47.806009" lon="13.442911">
        <ele>485.288554</ele>
        <time>2024-09-08T09:42:43.000Z</time>
      </trkpt>
      <trkpt lat="47.806016" lon="13.442984">
        <ele>485.253125</ele>
        <time>2024-09-08T09:42:44.000Z</time>
      </trkpt>
      <trkpt lat="47.806019" lon="13.443122">
        <ele>485.175213</ele>
        <time>2024-09-08T09:42:45.000Z</time>
      </trkpt>
      <trkpt lat="47.806041" lon="13.443878">
        <ele>484.796736</ele>
        <time>2024-09-08T09:42:51.000Z</time>
      </trkpt>
      <trkpt lat="47.806062" lon="13.444163">
        <ele>484.653599</ele>
        <time>2024-09-08T09:42:53.000Z</time>
      </trkpt>
      <trkpt lat="47.80614" lon="13.445012">
        <ele>484.220719</ele>
        <time>2024-09-08T09:42:59.000Z</time>
      </trkpt>
      <trkpt lat="47.806156" lon="13.445653">
        <ele>484.255006</ele>
        <time>2024-09-08T09:43:04.000Z</time>
      </trkpt>
      <trkpt lat="47.806116" lon="13.446123">
        <ele>484.295964</ele>
        <time>2024-09-08T09:43:08.000Z</time>
      </trkpt>
      <trkpt lat="47.806078" lon="13.446344">
        <ele>484.315309</ele>
        <time>2024-09-08T09:43:10.000Z</time>
      </trkpt>
      <trkpt lat="47.805887" lon="13.447162">
        <ele>484.388905</ele>
        <time>2024-09-08T09:43:16.000Z</time>
      </trkpt>
      <trkpt lat="47.805813" lon="13.447682">
        <ele>484.42826</ele>
        <time>2024-09-08T09:43:20.000Z</time>
      </trkpt>
      <trkpt lat="47.805759" lon="13.448003">
        <ele>484.39656</ele>
        <time>2024-09-08T09:43:22.000Z</time>
      </trkpt>
      <trkpt lat="47.805725" lon="13.448357">
        <ele>484.362139</ele>
        <time>2024-09-08T09:43:25.000Z</time>
      </trkpt>
      <trkpt lat="47.805718" lon="13.448417">
        <ele>484.357407</ele>
        <time>2024-09-08T09:43:25.000Z</time>
      </trkpt>
      <trkpt lat="47.805695" lon="13.448639">
        <ele>484.334856</ele>
        <time>2024-09-08T09:43:27.000Z</time>
      </trkpt>
      <trkpt lat="47.80553" lon="13.449196">
        <ele>484.276376</ele>
        <time>2024-09-08T09:43:32.000Z</time>
      </trkpt>
      <trkpt lat="47.805514" lon="13.449232">
        <ele>484.273252</ele>
        <time>2024-09-08T09:43:32.000Z</time>
      </trkpt>
      <trkpt lat="47.805503" lon="13.449256">
        <ele>484.271803</ele>
        <time>2024-09-08T09:43:32.000Z</time>
      </trkpt>
      <trkpt lat="47.805503" lon="13.449258">
        <ele>484.271063</ele>
        <time>2024-09-08T09:43:32.000Z</time>
      </trkpt>
      <trkpt lat="47.805448" lon="13.449497">
        <ele>484.246949</ele>
        <time>2024-09-08T09:43:34.000Z</time>
      </trkpt>
      <trkpt lat="47.805124" lon="13.450068">
        <ele>484.176637</ele>
        <time>2024-09-08T09:43:40.000Z</time>
      </trkpt>
      <trkpt lat="47.805034" lon="13.450193">
        <ele>484.198976</ele>
        <time>2024-09-08T09:43:41.000Z</time>
      </trkpt>
      <trkpt lat="47.804932" lon="13.450365">
        <ele>484.224523</ele>
        <time>2024-09-08T09:43:43.000Z</time>
      </trkpt>
      <trkpt lat="47.804864" lon="13.450515">
        <ele>484.246613</ele>
        <time>2024-09-08T09:43:44.000Z</time>
      </trkpt>
      <trkpt lat="47.804688" lon="13.450624">
        <ele>484.280825</ele>
        <time>2024-09-08T09:43:46.000Z</time>
      </trkpt>
      <trkpt lat="47.804534" lon="13.45065">
        <ele>484.307516</ele>
        <time>2024-09-08T09:43:48.000Z</time>
      </trkpt>
      <trkpt lat="47.804446" lon="13.450655">
        <ele>484.321845</ele>
        <time>2024-09-08T09:43:49.000Z</time>
      </trkpt>
      <trkpt lat="47.804411" lon="13.450664">
        <ele>484.32774</ele>
        <time>2024-09-08T09:43:49.000Z</time>
      </trkpt>
      <trkpt lat="47.804341" lon="13.450627">
        <ele>484.341172</ele>
        <time>2024-09-08T09:43:50.000Z</time>
      </trkpt>
      <trkpt lat="47.804267" lon="13.450602">
        <ele>484.355358</ele>
        <time>2024-09-08T09:43:51.000Z</time>
      </trkpt>
      <trkpt lat="47.804187" lon="13.450592">
        <ele>484.371226</ele>
        <time>2024-09-08T09:43:52.000Z</time>
      </trkpt>
      <trkpt lat="47.804085" lon="13.450594">
        <ele>484.390109</ele>
        <time>2024-09-08T09:43:53.000Z</time>
      </trkpt>
      <trkpt lat="47.803736" lon="13.450667">
        <ele>484.451487</ele>
        <time>2024-09-08T09:43:57.000Z</time>
      </trkpt>
      <trkpt lat="47.803658" lon="13.450672">
        <ele>484.464699</ele>
        <time>2024-09-08T09:43:58.000Z</time>
      </trkpt>
      <trkpt lat="47.803574" lon="13.450665">
        <ele>484.478573</ele>
        <time>2024-09-08T09:43:59.000Z</time>
      </trkpt>
      <trkpt lat="47.803551" lon="13.45067">
        <ele>484.482724</ele>
        <time>2024-09-08T09:43:59.000Z</time>
      </trkpt>
      <trkpt lat="47.803477" lon="13.450642">
        <ele>484.500369</ele>
        <time>2024-09-08T09:44:00.000Z</time>
      </trkpt>
      <trkpt lat="47.803411" lon="13.450554">
        <ele>484.605797</ele>
        <time>2024-09-08T09:44:01.000Z</time>
      </trkpt>
      <trkpt lat="47.803362" lon="13.450444">
        <ele>484.717577</ele>
        <time>2024-09-08T09:44:02.000Z</time>
      </trkpt>
      <trkpt lat="47.803324" lon="13.450325">
        <ele>484.826523</ele>
        <time>2024-09-08T09:44:03.000Z</time>
      </trkpt>
      <trkpt lat="47.803289" lon="13.450068">
        <ele>485.049922</ele>
        <time>2024-09-08T09:44:05.000Z</time>
      </trkpt>
      <trkpt lat="47.803253" lon="13.449857">
        <ele>485.225294</ele>
        <time>2024-09-08T09:44:07.000Z</time>
      </trkpt>
      <trkpt lat="47.802934" lon="13.448996">
        <ele>486.031087</ele>
        <time>2024-09-08T09:44:14.000Z</time>
      </trkpt>
      <trkpt lat="47.802857" lon="13.448594">
        <ele>486.375015</ele>
        <time>2024-09-08T09:44:17.000Z</time>
      </trkpt>
      <trkpt lat="47.802815" lon="13.448433">
        <ele>486.512667</ele>
        <time>2024-09-08T09:44:18.000Z</time>
      </trkpt>
      <trkpt lat="47.802768" lon="13.448229">
        <ele>486.686711</ele>
        <time>2024-09-08T09:44:20.000Z</time>
      </trkpt>
      <trkpt lat="47.802717" lon="13.448095">
        <ele>486.74468</ele>
        <time>2024-09-08T09:44:21.000Z</time>
      </trkpt>
      <trkpt lat="47.802621" lon="13.44779">
        <ele>486.872685</ele>
        <time>2024-09-08T09:44:24.000Z</time>
      </trkpt>
      <trkpt lat="47.802555" lon="13.447574">
        <ele>486.966578</ele>
        <time>2024-09-08T09:44:26.000Z</time>
      </trkpt>
      <trkpt lat="47.802208" lon="13.446809">
        <ele>487.328131</ele>
        <time>2024-09-08T09:44:33.000Z</time>
      </trkpt>
      <trkpt lat="47.802123" lon="13.445966">
        <ele>487.665189</ele>
        <time>2024-09-08T09:44:39.000Z</time>
      </trkpt>
      <trkpt lat="47.801899" lon="13.44526">
        <ele>487.536443</ele>
        <time>2024-09-08T09:44:45.000Z</time>
      </trkpt>
      <trkpt lat="47.801888" lon="13.444949">
        <ele>487.436676</ele>
        <time>2024-09-08T09:44:47.000Z</time>
      </trkpt>
      <trkpt lat="47.801978" lon="13.444343">
        <ele>487.235796</ele>
        <time>2024-09-08T09:44:52.000Z</time>
      </trkpt>
      <trkpt lat="47.802045" lon="13.444075">
        <ele>487.143418</ele>
        <time>2024-09-08T09:44:54.000Z</time>
      </trkpt>
      <trkpt lat="47.802211" lon="13.443492">
        <ele>486.939945</ele>
        <time>2024-09-08T09:44:59.000Z</time>
      </trkpt>
      <trkpt lat="47.80228" lon="13.443305">
        <ele>486.871616</ele>
        <time>2024-09-08T09:45:01.000Z</time>
      </trkpt>
      <trkpt lat="47.802351" lon="13.442711">
        <ele>486.814159</ele>
        <time>2024-09-08T09:45:06.000Z</time>
      </trkpt>
      <trkpt lat="47.802269" lon="13.442144">
        <ele>486.760838</ele>
        <time>2024-09-08T09:45:10.000Z</time>
      </trkpt>
      <trkpt lat="47.801886" lon="13.440375">
        <ele>486.992099</ele>
        <time>2024-09-08T09:45:24.000Z</time>
      </trkpt>
      <trkpt lat="47.801456" lon="13.439251">
        <ele>488.296516</ele>
        <time>2024-09-08T09:45:34.000Z</time>
      </trkpt>
      <trkpt lat="47.801339" lon="13.438943">
        <ele>488.651682</ele>
        <time>2024-09-08T09:45:37.000Z</time>
      </trkpt>
      <trkpt lat="47.801088" lon="13.438108">
        <ele>489.634855</ele>
        <time>2024-09-08T09:45:44.000Z</time>
      </trkpt>
      <trkpt lat="47.801" lon="13.437891">
        <ele>489.933606</ele>
        <time>2024-09-08T09:45:46.000Z</time>
      </trkpt>
      <trkpt lat="47.800707" lon="13.437331">
        <ele>490.803904</ele>
        <time>2024-09-08T09:45:51.000Z</time>
      </trkpt>
      <trkpt lat="47.800668" lon="13.43722">
        <ele>490.948425</ele>
        <time>2024-09-08T09:45:52.000Z</time>
      </trkpt>
      <trkpt lat="47.800591" lon="13.437094">
        <ele>491.146271</ele>
        <time>2024-09-08T09:45:53.000Z</time>
      </trkpt>
      <trkpt lat="47.800588" lon="13.437089">
        <ele>491.169804</ele>
        <time>2024-09-08T09:45:53.000Z</time>
      </trkpt>
      <trkpt lat="47.80047" lon="13.436815">
        <ele>491.555208</ele>
        <time>2024-09-08T09:45:55.000Z</time>
      </trkpt>
      <trkpt lat="47.800326" lon="13.436191">
        <ele>492.364758</ele>
        <time>2024-09-08T09:46:00.000Z</time>
      </trkpt>
      <trkpt lat="47.800093" lon="13.434743">
        <ele>493.129077</ele>
        <time>2024-09-08T09:46:11.000Z</time>
      </trkpt>
      <trkpt lat="47.80009" lon="13.433658">
        <ele>493.564345</ele>
        <time>2024-09-08T09:46:19.000Z</time>
      </trkpt>
      <trkpt lat="47.799899" lon="13.432902">
        <ele>493.72251</ele>
        <time>2024-09-08T09:46:25.000Z</time>
      </trkpt>
      <trkpt lat="47.799882" lon="13.432552">
        <ele>493.745668</ele>
        <time>2024-09-08T09:46:28.000Z</time>
      </trkpt>
      <trkpt lat="47.799908" lon="13.432334">
        <ele>493.758854</ele>
        <time>2024-09-08T09:46:30.000Z</time>
      </trkpt>
      <trkpt lat="47.800074" lon="13.431688">
        <ele>493.80446</ele>
        <time>2024-09-08T09:46:35.000Z</time>
      </trkpt>
      <trkpt lat="47.800183" lon="13.430936">
        <ele>493.854134</ele>
        <time>2024-09-08T09:46:41.000Z</time>
      </trkpt>
      <trkpt lat="47.800266" lon="13.428537">
        <ele>492.181477</ele>
        <time>2024-09-08T09:46:59.000Z</time>
      </trkpt>
      <trkpt lat="47.800296" lon="13.428266">
        <ele>491.976454</ele>
        <time>2024-09-08T09:47:01.000Z</time>
      </trkpt>
      <trkpt lat="47.800348" lon="13.427905">
        <ele>491.633963</ele>
        <time>2024-09-08T09:47:04.000Z</time>
      </trkpt>
      <trkpt lat="47.800403" lon="13.427686">
        <ele>491.387806</ele>
        <time>2024-09-08T09:47:06.000Z</time>
      </trkpt>
      <trkpt lat="47.800595" lon="13.426694">
        <ele>490.30931</ele>
        <time>2024-09-08T09:47:14.000Z</time>
      </trkpt>
      <trkpt lat="47.800643" lon="13.426068">
        <ele>489.643215</ele>
        <time>2024-09-08T09:47:19.000Z</time>
      </trkpt>
      <trkpt lat="47.800626" lon="13.425723">
        <ele>489.266496</ele>
        <time>2024-09-08T09:47:22.000Z</time>
      </trkpt>
      <trkpt lat="47.800586" lon="13.425557">
        <ele>489.092587</ele>
        <time>2024-09-08T09:47:23.000Z</time>
      </trkpt>
      <trkpt lat="47.800527" lon="13.425362">
        <ele>489.399841</ele>
        <time>2024-09-08T09:47:25.000Z</time>
      </trkpt>
      <trkpt lat="47.800362" lon="13.424992">
        <ele>490.180186</ele>
        <time>2024-09-08T09:47:28.000Z</time>
      </trkpt>
      <trkpt lat="47.800191" lon="13.424647">
        <ele>490.959583</ele>
        <time>2024-09-08T09:47:31.000Z</time>
      </trkpt>
      <trkpt lat="47.799807" lon="13.423916">
        <ele>492.650217</ele>
        <time>2024-09-08T09:47:38.000Z</time>
      </trkpt>
      <trkpt lat="47.799625" lon="13.423532">
        <ele>493.521623</ele>
        <time>2024-09-08T09:47:42.000Z</time>
      </trkpt>
      <trkpt lat="47.799497" lon="13.423202">
        <ele>494.403653</ele>
        <time>2024-09-08T09:47:45.000Z</time>
      </trkpt>
      <trkpt lat="47.799368" lon="13.422743">
        <ele>495.955913</ele>
        <time>2024-09-08T09:47:49.000Z</time>
      </trkpt>
      <trkpt lat="47.799374" lon="13.422617">
        <ele>496.325962</ele>
        <time>2024-09-08T09:47:50.000Z</time>
      </trkpt>
      <trkpt lat="47.799257" lon="13.422179">
        <ele>497.865957</ele>
        <time>2024-09-08T09:47:54.000Z</time>
      </trkpt>
      <trkpt lat="47.799268" lon="13.421151">
        <ele>501.061737</ele>
        <time>2024-09-08T09:48:02.000Z</time>
      </trkpt>
      <trkpt lat="47.799201" lon="13.420893">
        <ele>501.909286</ele>
        <time>2024-09-08T09:48:04.000Z</time>
      </trkpt>
      <trkpt lat="47.799068" lon="13.420462">
        <ele>502.720981</ele>
        <time>2024-09-08T09:48:08.000Z</time>
      </trkpt>
      <trkpt lat="47.799043" lon="13.420321">
        <ele>502.879818</ele>
        <time>2024-09-08T09:48:09.000Z</time>
      </trkpt>
      <trkpt lat="47.798872" lon="13.419194">
        <ele>504.160852</ele>
        <time>2024-09-08T09:48:18.000Z</time>
      </trkpt>
      <trkpt lat="47.798748" lon="13.418353">
        <ele>505.104038</ele>
        <time>2024-09-08T09:48:24.000Z</time>
      </trkpt>
      <trkpt lat="47.798732" lon="13.417398">
        <ele>505.001791</ele>
        <time>2024-09-08T09:48:31.000Z</time>
      </trkpt>
      <trkpt lat="47.798698" lon="13.417258">
        <ele>504.943509</ele>
        <time>2024-09-08T09:48:32.000Z</time>
      </trkpt>
      <trkpt lat="47.798462" lon="13.417179">
        <ele>504.817102</ele>
        <time>2024-09-08T09:48:35.000Z</time>
      </trkpt>
      <trkpt lat="47.798346" lon="13.41681">
        <ele>504.665296</ele>
        <time>2024-09-08T09:48:38.000Z</time>
      </trkpt>
      <trkpt lat="47.798442" lon="13.416237">
        <ele>504.452189</ele>
        <time>2024-09-08T09:48:42.000Z</time>
      </trkpt>
      <trkpt lat="47.798263" lon="13.415878">
        <ele>504.283744</ele>
        <time>2024-09-08T09:48:45.000Z</time>
      </trkpt>
      <trkpt lat="47.798263" lon="13.415141">
        <ele>503.910868</ele>
        <time>2024-09-08T09:48:51.000Z</time>
      </trkpt>
      <trkpt lat="47.798396" lon="13.414122">
        <ele>503.389221</ele>
        <time>2024-09-08T09:48:59.000Z</time>
      </trkpt>
      <trkpt lat="47.79852" lon="13.41355">
        <ele>503.087109</ele>
        <time>2024-09-08T09:49:03.000Z</time>
      </trkpt>
      <trkpt lat="47.798543" lon="13.412981">
        <ele>502.788903</ele>
        <time>2024-09-08T09:49:07.000Z</time>
      </trkpt>
      <trkpt lat="47.798451" lon="13.412238">
        <ele>502.380673</ele>
        <time>2024-09-08T09:49:13.000Z</time>
      </trkpt>
      <trkpt lat="47.798726" lon="13.410899">
        <ele>501.632671</ele>
        <time>2024-09-08T09:49:23.000Z</time>
      </trkpt>
      <trkpt lat="47.798658" lon="13.410046">
        <ele>500.749983</ele>
        <time>2024-09-08T09:49:29.000Z</time>
      </trkpt>
      <trkpt lat="47.798667" lon="13.408985">
        <ele>499.495808</ele>
        <time>2024-09-08T09:49:37.000Z</time>
      </trkpt>
      <trkpt lat="47.798489" lon="13.408564">
        <ele>498.916994</ele>
        <time>2024-09-08T09:49:41.000Z</time>
      </trkpt>
      <trkpt lat="47.79823" lon="13.407401">
        <ele>495.900659</ele>
        <time>2024-09-08T09:49:50.000Z</time>
      </trkpt>
      <trkpt lat="47.798238" lon="13.407113">
        <ele>494.935573</ele>
        <time>2024-09-08T09:49:52.000Z</time>
      </trkpt>
      <trkpt lat="47.798266" lon="13.406873">
        <ele>494.149654</ele>
        <time>2024-09-08T09:49:54.000Z</time>
      </trkpt>
      <trkpt lat="47.798317" lon="13.406718">
        <ele>493.61674</ele>
        <time>2024-09-08T09:49:55.000Z</time>
      </trkpt>
      <trkpt lat="47.79843" lon="13.406392">
        <ele>492.368102</ele>
        <time>2024-09-08T09:49:58.000Z</time>
      </trkpt>
      <trkpt lat="47.798442" lon="13.406297">
        <ele>492.07099</ele>
        <time>2024-09-08T09:49:59.000Z</time>
      </trkpt>
      <trkpt lat="47.798548" lon="13.40617">
        <ele>491.416885</ele>
        <time>2024-09-08T09:50:01.000Z</time>
      </trkpt>
      <trkpt lat="47.798708" lon="13.406033">
        <ele>490.505725</ele>
        <time>2024-09-08T09:50:03.000Z</time>
      </trkpt>
      <trkpt lat="47.79912" lon="13.405591">
        <ele>488.617113</ele>
        <time>2024-09-08T09:50:09.000Z</time>
      </trkpt>
      <trkpt lat="47.799189" lon="13.405433">
        <ele>488.202246</ele>
        <time>2024-09-08T09:50:10.000Z</time>
      </trkpt>
      <trkpt lat="47.799268" lon="13.405208">
        <ele>487.655491</ele>
        <time>2024-09-08T09:50:12.000Z</time>
      </trkpt>
      <trkpt lat="47.799529" lon="13.402563">
        <ele>483.473406</ele>
        <time>2024-09-08T09:50:32.000Z</time>
      </trkpt>
      <trkpt lat="47.799527" lon="13.402202">
        <ele>483.30614</ele>
        <time>2024-09-08T09:50:35.000Z</time>
      </trkpt>
      <trkpt lat="47.799514" lon="13.402048">
        <ele>483.232582</ele>
        <time>2024-09-08T09:50:36.000Z</time>
      </trkpt>
      <trkpt lat="47.799496" lon="13.401977">
        <ele>483.198114</ele>
        <time>2024-09-08T09:50:37.000Z</time>
      </trkpt>
      <trkpt lat="47.799451" lon="13.401689">
        <ele>483.054562</ele>
        <time>2024-09-08T09:50:39.000Z</time>
      </trkpt>
      <trkpt lat="47.799294" lon="13.400985">
        <ele>482.706217</ele>
        <time>2024-09-08T09:50:45.000Z</time>
      </trkpt>
      <trkpt lat="47.799147" lon="13.400594">
        <ele>482.722988</ele>
        <time>2024-09-08T09:50:48.000Z</time>
      </trkpt>
      <trkpt lat="47.798778" lon="13.399957">
        <ele>482.91291</ele>
        <time>2024-09-08T09:50:54.000Z</time>
      </trkpt>
      <trkpt lat="47.797681" lon="13.39849">
        <ele>483.400396</ele>
        <time>2024-09-08T09:51:10.000Z</time>
      </trkpt>
      <trkpt lat="47.797691" lon="13.398321">
        <ele>483.435377</ele>
        <time>2024-09-08T09:51:11.000Z</time>
      </trkpt>
      <trkpt lat="47.798533" lon="13.396862">
        <ele>483.82096</ele>
        <time>2024-09-08T09:51:25.000Z</time>
      </trkpt>
      <trkpt lat="47.798678" lon="13.396496">
        <ele>483.914534</ele>
        <time>2024-09-08T09:51:28.000Z</time>
      </trkpt>
      <trkpt lat="47.798813" lon="13.395866">
        <ele>484.061938</ele>
        <time>2024-09-08T09:51:33.000Z</time>
      </trkpt>
      <trkpt lat="47.798848" lon="13.395506">
        <ele>484.144896</ele>
        <time>2024-09-08T09:51:36.000Z</time>
      </trkpt>
      <trkpt lat="47.798926" lon="13.394906">
        <ele>484.281924</ele>
        <time>2024-09-08T09:51:41.000Z</time>
      </trkpt>
      <trkpt lat="47.799075" lon="13.394197">
        <ele>484.57105</ele>
        <time>2024-09-08T09:51:47.000Z</time>
      </trkpt>
      <trkpt lat="47.799646" lon="13.392762">
        <ele>485.767476</ele>
        <time>2024-09-08T09:51:59.000Z</time>
      </trkpt>
      <trkpt lat="47.799906" lon="13.392151">
        <ele>486.288178</ele>
        <time>2024-09-08T09:52:04.000Z</time>
      </trkpt>
      <trkpt lat="47.800002" lon="13.391956">
        <ele>486.824971</ele>
        <time>2024-09-08T09:52:06.000Z</time>
      </trkpt>
      <trkpt lat="47.800068" lon="13.391826">
        <ele>487.309776</ele>
        <time>2024-09-08T09:52:07.000Z</time>
      </trkpt>
      <trkpt lat="47.800107" lon="13.391766">
        <ele>487.538544</ele>
        <time>2024-09-08T09:52:08.000Z</time>
      </trkpt>
      <trkpt lat="47.800162" lon="13.391629">
        <ele>488.012644</ele>
        <time>2024-09-08T09:52:09.000Z</time>
      </trkpt>
      <trkpt lat="47.800186" lon="13.391599">
        <ele>488.106051</ele>
        <time>2024-09-08T09:52:09.000Z</time>
      </trkpt>
      <trkpt lat="47.800782" lon="13.39053">
        <ele>492.014348</ele>
        <time>2024-09-08T09:52:19.000Z</time>
      </trkpt>
      <trkpt lat="47.800948" lon="13.389969">
        <ele>493.72484</ele>
        <time>2024-09-08T09:52:24.000Z</time>
      </trkpt>
      <trkpt lat="47.801025" lon="13.389481">
        <ele>495.736699</ele>
        <time>2024-09-08T09:52:28.000Z</time>
      </trkpt>
      <trkpt lat="47.801046" lon="13.38926">
        <ele>496.668395</ele>
        <time>2024-09-08T09:52:30.000Z</time>
      </trkpt>
      <trkpt lat="47.801033" lon="13.389154">
        <ele>497.057746</ele>
        <time>2024-09-08T09:52:31.000Z</time>
      </trkpt>
      <trkpt lat="47.801121" lon="13.388579">
        <ele>499.456122</ele>
        <time>2024-09-08T09:52:35.000Z</time>
      </trkpt>
      <trkpt lat="47.801174" lon="13.388455">
        <ele>500.073873</ele>
        <time>2024-09-08T09:52:36.000Z</time>
      </trkpt>
      <trkpt lat="47.801218" lon="13.38831">
        <ele>500.758122</ele>
        <time>2024-09-08T09:52:37.000Z</time>
      </trkpt>
      <trkpt lat="47.801268" lon="13.388222">
        <ele>501.196771</ele>
        <time>2024-09-08T09:52:38.000Z</time>
      </trkpt>
      <trkpt lat="47.801354" lon="13.388018">
        <ele>502.162046</ele>
        <time>2024-09-08T09:52:40.000Z</time>
      </trkpt>
      <trkpt lat="47.801385" lon="13.387876">
        <ele>502.778093</ele>
        <time>2024-09-08T09:52:41.000Z</time>
      </trkpt>
      <trkpt lat="47.801424" lon="13.387761">
        <ele>503.286559</ele>
        <time>2024-09-08T09:52:42.000Z</time>
      </trkpt>
      <trkpt lat="47.801434" lon="13.387732">
        <ele>503.43997</ele>
        <time>2024-09-08T09:52:42.000Z</time>
      </trkpt>
      <trkpt lat="47.801486" lon="13.387318">
        <ele>504.834691</ele>
        <time>2024-09-08T09:52:45.000Z</time>
      </trkpt>
      <trkpt lat="47.801491" lon="13.387234">
        <ele>504.873023</ele>
        <time>2024-09-08T09:52:46.000Z</time>
      </trkpt>
      <trkpt lat="47.801484" lon="13.386899">
        <ele>505.028738</ele>
        <time>2024-09-08T09:52:49.000Z</time>
      </trkpt>
      <trkpt lat="47.801498" lon="13.386447">
        <ele>505.235239</ele>
        <time>2024-09-08T09:52:52.000Z</time>
      </trkpt>
      <trkpt lat="47.801614" lon="13.385938">
        <ele>505.483439</ele>
        <time>2024-09-08T09:52:56.000Z</time>
      </trkpt>
      <trkpt lat="47.801654" lon="13.38583">
        <ele>505.540359</ele>
        <time>2024-09-08T09:52:57.000Z</time>
      </trkpt>
      <trkpt lat="47.801673" lon="13.385762">
        <ele>505.576375</ele>
        <time>2024-09-08T09:52:58.000Z</time>
      </trkpt>
      <trkpt lat="47.801774" lon="13.385577">
        <ele>505.686332</ele>
        <time>2024-09-08T09:53:00.000Z</time>
      </trkpt>
      <trkpt lat="47.801856" lon="13.38547">
        <ele>505.752425</ele>
        <time>2024-09-08T09:53:01.000Z</time>
      </trkpt>
      <trkpt lat="47.802482" lon="13.384738">
        <ele>505.300086</ele>
        <time>2024-09-08T09:53:10.000Z</time>
      </trkpt>
      <trkpt lat="47.802771" lon="13.384259">
        <ele>504.549594</ele>
        <time>2024-09-08T09:53:15.000Z</time>
      </trkpt>
      <trkpt lat="47.802995" lon="13.383536">
        <ele>503.587604</ele>
        <time>2024-09-08T09:53:21.000Z</time>
      </trkpt>
      <trkpt lat="47.803195" lon="13.383065">
        <ele>502.93262</ele>
        <time>2024-09-08T09:53:25.000Z</time>
      </trkpt>
      <trkpt lat="47.803893" lon="13.382164">
        <ele>503.435327</ele>
        <time>2024-09-08T09:53:35.000Z</time>
      </trkpt>
      <trkpt lat="47.804037" lon="13.381941">
        <ele>503.564857</ele>
        <time>2024-09-08T09:53:37.000Z</time>
      </trkpt>
      <trkpt lat="47.80407" lon="13.38185">
        <ele>503.611239</ele>
        <time>2024-09-08T09:53:38.000Z</time>
      </trkpt>
      <trkpt lat="47.80415" lon="13.381688">
        <ele>503.699094</ele>
        <time>2024-09-08T09:53:40.000Z</time>
      </trkpt>
      <trkpt lat="47.804212" lon="13.381542">
        <ele>503.776598</ele>
        <time>2024-09-08T09:53:41.000Z</time>
      </trkpt>
      <trkpt lat="47.804237" lon="13.381439">
        <ele>503.8285</ele>
        <time>2024-09-08T09:53:42.000Z</time>
      </trkpt>
      <trkpt lat="47.804386" lon="13.38112">
        <ele>504.004238</ele>
        <time>2024-09-08T09:53:45.000Z</time>
      </trkpt>
      <trkpt lat="47.804491" lon="13.380908">
        <ele>503.866431</ele>
        <time>2024-09-08T09:53:47.000Z</time>
      </trkpt>
      <trkpt lat="47.804621" lon="13.380681">
        <ele>503.583912</ele>
        <time>2024-09-08T09:53:49.000Z</time>
      </trkpt>
      <trkpt lat="47.80513" lon="13.379967">
        <ele>502.568171</ele>
        <time>2024-09-08T09:53:57.000Z</time>
      </trkpt>
      <trkpt lat="47.806021" lon="13.379129">
        <ele>501.362251</ele>
        <time>2024-09-08T09:54:09.000Z</time>
      </trkpt>
      <trkpt lat="47.806097" lon="13.37904">
        <ele>501.333843</ele>
        <time>2024-09-08T09:54:10.000Z</time>
      </trkpt>
      <trkpt lat="47.806142" lon="13.378976">
        <ele>501.313973</ele>
        <time>2024-09-08T09:54:11.000Z</time>
      </trkpt>
      <trkpt lat="47.806253" lon="13.378773">
        <ele>501.261146</ele>
        <time>2024-09-08T09:54:13.000Z</time>
      </trkpt>
      <trkpt lat="47.806289" lon="13.378657">
        <ele>501.235117</ele>
        <time>2024-09-08T09:54:14.000Z</time>
      </trkpt>
      <trkpt lat="47.806342" lon="13.378461">
        <ele>501.191764</ele>
        <time>2024-09-08T09:54:16.000Z</time>
      </trkpt>
      <trkpt lat="47.806367" lon="13.378381">
        <ele>501.176964</ele>
        <time>2024-09-08T09:54:17.000Z</time>
      </trkpt>
      <trkpt lat="47.806417" lon="13.378181">
        <ele>501.132491</ele>
        <time>2024-09-08T09:54:19.000Z</time>
      </trkpt>
      <trkpt lat="47.806452" lon="13.378027">
        <ele>501.097382</ele>
        <time>2024-09-08T09:54:20.000Z</time>
      </trkpt>
      <trkpt lat="47.806501" lon="13.377779">
        <ele>501.047671</ele>
        <time>2024-09-08T09:54:22.000Z</time>
      </trkpt>
      <trkpt lat="47.806739" lon="13.377171">
        <ele>500.905059</ele>
        <time>2024-09-08T09:54:27.000Z</time>
      </trkpt>
      <trkpt lat="47.807488" lon="13.375946">
        <ele>503.0261</ele>
        <time>2024-09-08T09:54:39.000Z</time>
      </trkpt>
      <trkpt lat="47.807871" lon="13.375058">
        <ele>504.383657</ele>
        <time>2024-09-08T09:54:47.000Z</time>
      </trkpt>
      <trkpt lat="47.807981" lon="13.374877">
        <ele>504.689027</ele>
        <time>2024-09-08T09:54:49.000Z</time>
      </trkpt>
      <trkpt lat="47.808077" lon="13.374738">
        <ele>504.912693</ele>
        <time>2024-09-08T09:54:50.000Z</time>
      </trkpt>
      <trkpt lat="47.808362" lon="13.374433">
        <ele>505.553898</ele>
        <time>2024-09-08T09:54:54.000Z</time>
      </trkpt>
      <trkpt lat="47.808484" lon="13.374305">
        <ele>505.819894</ele>
        <time>2024-09-08T09:54:56.000Z</time>
      </trkpt>
      <trkpt lat="47.808967" lon="13.373835">
        <ele>506.872345</ele>
        <time>2024-09-08T09:55:02.000Z</time>
      </trkpt>
      <trkpt lat="47.809497" lon="13.373171">
        <ele>507.920396</ele>
        <time>2024-09-08T09:55:10.000Z</time>
      </trkpt>
      <trkpt lat="47.809577" lon="13.373082">
        <ele>508.033854</ele>
        <time>2024-09-08T09:55:11.000Z</time>
      </trkpt>
      <trkpt lat="47.809638" lon="13.372997">
        <ele>508.117896</ele>
        <time>2024-09-08T09:55:12.000Z</time>
      </trkpt>
      <trkpt lat="47.809902" lon="13.372604">
        <ele>508.53707</ele>
        <time>2024-09-08T09:55:16.000Z</time>
      </trkpt>
      <trkpt lat="47.810183" lon="13.372166">
        <ele>509.000238</ele>
        <time>2024-09-08T09:55:21.000Z</time>
      </trkpt>
      <trkpt lat="47.810371" lon="13.37198">
        <ele>509.250096</ele>
        <time>2024-09-08T09:55:24.000Z</time>
      </trkpt>
      <trkpt lat="47.81069" lon="13.371722">
        <ele>509.474556</ele>
        <time>2024-09-08T09:55:28.000Z</time>
      </trkpt>
      <trkpt lat="47.810764" lon="13.371677">
        <ele>509.244029</ele>
        <time>2024-09-08T09:55:29.000Z</time>
      </trkpt>
      <trkpt lat="47.811167" lon="13.371222">
        <ele>507.572076</ele>
        <time>2024-09-08T09:55:35.000Z</time>
      </trkpt>
      <trkpt lat="47.81203" lon="13.370589">
        <ele>504.443522</ele>
        <time>2024-09-08T09:55:46.000Z</time>
      </trkpt>
      <trkpt lat="47.81253" lon="13.369888">
        <ele>501.726745</ele>
        <time>2024-09-08T09:55:54.000Z</time>
      </trkpt>
      <trkpt lat="47.812548" lon="13.369843">
        <ele>501.592682</ele>
        <time>2024-09-08T09:55:54.000Z</time>
      </trkpt>
      <trkpt lat="47.812608" lon="13.369743">
        <ele>501.206561</ele>
        <time>2024-09-08T09:55:55.000Z</time>
      </trkpt>
      <trkpt lat="47.812667" lon="13.369671">
        <ele>500.883567</ele>
        <time>2024-09-08T09:55:56.000Z</time>
      </trkpt>
      <trkpt lat="47.812849" lon="13.369428">
        <ele>499.867046</ele>
        <time>2024-09-08T09:55:59.000Z</time>
      </trkpt>
      <trkpt lat="47.813519" lon="13.368881">
        <ele>496.617424</ele>
        <time>2024-09-08T09:56:08.000Z</time>
      </trkpt>
      <trkpt lat="47.813581" lon="13.368825">
        <ele>496.341021</ele>
        <time>2024-09-08T09:56:09.000Z</time>
      </trkpt>
      <trkpt lat="47.813634" lon="13.36876">
        <ele>496.092997</ele>
        <time>2024-09-08T09:56:10.000Z</time>
      </trkpt>
      <trkpt lat="47.813809" lon="13.368494">
        <ele>495.917804</ele>
        <time>2024-09-08T09:56:13.000Z</time>
      </trkpt>
      <trkpt lat="47.813943" lon="13.368108">
        <ele>495.710142</ele>
        <time>2024-09-08T09:56:16.000Z</time>
      </trkpt>
      <trkpt lat="47.813977" lon="13.367986">
        <ele>495.641775</ele>
        <time>2024-09-08T09:56:17.000Z</time>
      </trkpt>
      <trkpt lat="47.814033" lon="13.367793">
        <ele>495.551091</ele>
        <time>2024-09-08T09:56:19.000Z</time>
      </trkpt>
      <trkpt lat="47.814348" lon="13.366259">
        <ele>494.8048</ele>
        <time>2024-09-08T09:56:31.000Z</time>
      </trkpt>
      <trkpt lat="47.814382" lon="13.36613">
        <ele>494.759119</ele>
        <time>2024-09-08T09:56:32.000Z</time>
      </trkpt>
      <trkpt lat="47.814457" lon="13.365969">
        <ele>494.693755</ele>
        <time>2024-09-08T09:56:33.000Z</time>
      </trkpt>
      <trkpt lat="47.814853" lon="13.365365">
        <ele>494.417125</ele>
        <time>2024-09-08T09:56:39.000Z</time>
      </trkpt>
      <trkpt lat="47.815475" lon="13.364825">
        <ele>494.066778</ele>
        <time>2024-09-08T09:56:47.000Z</time>
      </trkpt>
      <trkpt lat="47.81556" lon="13.364746">
        <ele>494.016936</ele>
        <time>2024-09-08T09:56:48.000Z</time>
      </trkpt>
      <trkpt lat="47.815678" lon="13.364661">
        <ele>493.954186</ele>
        <time>2024-09-08T09:56:49.000Z</time>
      </trkpt>
      <trkpt lat="47.815736" lon="13.364621">
        <ele>493.857616</ele>
        <time>2024-09-08T09:56:50.000Z</time>
      </trkpt>
      <trkpt lat="47.81582" lon="13.364546">
        <ele>493.698646</ele>
        <time>2024-09-08T09:56:51.000Z</time>
      </trkpt>
      <trkpt lat="47.816066" lon="13.364372">
        <ele>493.312356</ele>
        <time>2024-09-08T09:56:54.000Z</time>
      </trkpt>
      <trkpt lat="47.81609" lon="13.3643">
        <ele>493.228708</ele>
        <time>2024-09-08T09:56:55.000Z</time>
      </trkpt>
      <trkpt lat="47.816199" lon="13.364219">
        <ele>493.050301</ele>
        <time>2024-09-08T09:56:56.000Z</time>
      </trkpt>
      <trkpt lat="47.816657" lon="13.363877">
        <ele>492.311063</ele>
        <time>2024-09-08T09:57:02.000Z</time>
      </trkpt>
      <trkpt lat="47.816912" lon="13.3637">
        <ele>491.897939</ele>
        <time>2024-09-08T09:57:05.000Z</time>
      </trkpt>
      <trkpt lat="47.817197" lon="13.363481">
        <ele>491.440668</ele>
        <time>2024-09-08T09:57:09.000Z</time>
      </trkpt>
      <trkpt lat="47.817689" lon="13.363113">
        <ele>490.099309</ele>
        <time>2024-09-08T09:57:15.000Z</time>
      </trkpt>
      <trkpt lat="47.817797" lon="13.363032">
        <ele>489.785583</ele>
        <time>2024-09-08T09:57:16.000Z</time>
      </trkpt>
      <trkpt lat="47.818016" lon="13.36288">
        <ele>489.174173</ele>
        <time>2024-09-08T09:57:19.000Z</time>
      </trkpt>
      <trkpt lat="47.818739" lon="13.362319">
        <ele>487.160419</ele>
        <time>2024-09-08T09:57:28.000Z</time>
      </trkpt>
      <trkpt lat="47.819784" lon="13.361518">
        <ele>484.895746</ele>
        <time>2024-09-08T09:57:41.000Z</time>
      </trkpt>
      <trkpt lat="47.820008" lon="13.361334">
        <ele>484.406384</ele>
        <time>2024-09-08T09:57:44.000Z</time>
      </trkpt>
      <trkpt lat="47.822896" lon="13.359006">
        <ele>483.019585</ele>
        <time>2024-09-08T09:58:21.000Z</time>
      </trkpt>
      <trkpt lat="47.823708" lon="13.35834">
        <ele>482.97763</ele>
        <time>2024-09-08T09:58:31.000Z</time>
      </trkpt>
      <trkpt lat="47.824012" lon="13.358117">
        <ele>482.999647</ele>
        <time>2024-09-08T09:58:35.000Z</time>
      </trkpt>
      <trkpt lat="47.82421" lon="13.357959">
        <ele>483.013943</ele>
        <time>2024-09-08T09:58:37.000Z</time>
      </trkpt>
      <trkpt lat="47.824375" lon="13.357804">
        <ele>483.026353</ele>
        <time>2024-09-08T09:58:39.000Z</time>
      </trkpt>
      <trkpt lat="47.826253" lon="13.356267">
        <ele>483.415782</ele>
        <time>2024-09-08T09:59:03.000Z</time>
      </trkpt>
      <trkpt lat="47.826642" lon="13.355985">
        <ele>483.531894</ele>
        <time>2024-09-08T09:59:08.000Z</time>
      </trkpt>
      <trkpt lat="47.826783" lon="13.355863">
        <ele>483.598244</ele>
        <time>2024-09-08T09:59:10.000Z</time>
      </trkpt>
      <trkpt lat="47.827144" lon="13.355633">
        <ele>483.999685</ele>
        <time>2024-09-08T09:59:14.000Z</time>
      </trkpt>
      <trkpt lat="47.827309" lon="13.35553">
        <ele>484.19612</ele>
        <time>2024-09-08T09:59:16.000Z</time>
      </trkpt>
      <trkpt lat="47.827377" lon="13.355464">
        <ele>484.287305</ele>
        <time>2024-09-08T09:59:17.000Z</time>
      </trkpt>
      <trkpt lat="47.828337" lon="13.354913">
        <ele>485.369041</ele>
        <time>2024-09-08T09:59:28.000Z</time>
      </trkpt>
      <trkpt lat="47.829567" lon="13.354294">
        <ele>487.425733</ele>
        <time>2024-09-08T09:59:42.000Z</time>
      </trkpt>
      <trkpt lat="47.829793" lon="13.354172">
        <ele>487.807052</ele>
        <time>2024-09-08T09:59:45.000Z</time>
      </trkpt>
      <trkpt lat="47.829949" lon="13.354105">
        <ele>488.062503</ele>
        <time>2024-09-08T09:59:47.000Z</time>
      </trkpt>
      <trkpt lat="47.830025" lon="13.354049">
        <ele>488.202395</ele>
        <time>2024-09-08T09:59:48.000Z</time>
      </trkpt>
      <trkpt lat="47.830358" lon="13.353836">
        <ele>488.748019</ele>
        <time>2024-09-08T09:59:52.000Z</time>
      </trkpt>
      <trkpt lat="47.830723" lon="13.35361">
        <ele>489.330137</ele>
        <time>2024-09-08T09:59:56.000Z</time>
      </trkpt>
      <trkpt lat="47.831289" lon="13.353116">
        <ele>490.290944</ele>
        <time>2024-09-08T10:00:03.000Z</time>
      </trkpt>
      <trkpt lat="47.831563" lon="13.352873">
        <ele>490.747054</ele>
        <time>2024-09-08T10:00:07.000Z</time>
      </trkpt>
      <trkpt lat="47.83176" lon="13.352695">
        <ele>491.025181</ele>
        <time>2024-09-08T10:00:10.000Z</time>
      </trkpt>
      <trkpt lat="47.831945" lon="13.352526">
        <ele>491.093856</ele>
        <time>2024-09-08T10:00:12.000Z</time>
      </trkpt>
      <trkpt lat="47.832079" lon="13.352371">
        <ele>491.147881</ele>
        <time>2024-09-08T10:00:14.000Z</time>
      </trkpt>
      <trkpt lat="47.832711" lon="13.351655">
        <ele>491.41253</ele>
        <time>2024-09-08T10:00:23.000Z</time>
      </trkpt>
      <trkpt lat="47.833706" lon="13.350535">
        <ele>492.310315</ele>
        <time>2024-09-08T10:00:37.000Z</time>
      </trkpt>
      <trkpt lat="47.834059" lon="13.350156">
        <ele>492.760361</ele>
        <time>2024-09-08T10:00:42.000Z</time>
      </trkpt>
      <trkpt lat="47.834151" lon="13.350036">
        <ele>492.884851</ele>
        <time>2024-09-08T10:00:43.000Z</time>
      </trkpt>
      <trkpt lat="47.834361" lon="13.349811">
        <ele>493.163085</ele>
        <time>2024-09-08T10:00:46.000Z</time>
      </trkpt>
      <trkpt lat="47.834624" lon="13.349587">
        <ele>493.466176</ele>
        <time>2024-09-08T10:00:49.000Z</time>
      </trkpt>
      <trkpt lat="47.834954" lon="13.349323">
        <ele>494.397997</ele>
        <time>2024-09-08T10:00:53.000Z</time>
      </trkpt>
      <trkpt lat="47.835202" lon="13.349123">
        <ele>495.116266</ele>
        <time>2024-09-08T10:00:56.000Z</time>
      </trkpt>
      <trkpt lat="47.835438" lon="13.348961">
        <ele>495.772126</ele>
        <time>2024-09-08T10:00:59.000Z</time>
      </trkpt>
      <trkpt lat="47.835817" lon="13.348731">
        <ele>496.78463</ele>
        <time>2024-09-08T10:01:04.000Z</time>
      </trkpt>
      <trkpt lat="47.836155" lon="13.348548">
        <ele>497.64877</ele>
        <time>2024-09-08T10:01:08.000Z</time>
      </trkpt>
      <trkpt lat="47.836923" lon="13.348233">
        <ele>498.566433</ele>
        <time>2024-09-08T10:01:17.000Z</time>
      </trkpt>
      <trkpt lat="47.837339" lon="13.348056">
        <ele>498.96399</ele>
        <time>2024-09-08T10:01:22.000Z</time>
      </trkpt>
      <trkpt lat="47.838133" lon="13.34759">
        <ele>499.396706</ele>
        <time>2024-09-08T10:01:31.000Z</time>
      </trkpt>
      <trkpt lat="47.838875" lon="13.346924">
        <ele>498.46916</ele>
        <time>2024-09-08T10:01:41.000Z</time>
      </trkpt>
      <trkpt lat="47.839067" lon="13.346714">
        <ele>498.197529</ele>
        <time>2024-09-08T10:01:44.000Z</time>
      </trkpt>
      <trkpt lat="47.839223" lon="13.346523">
        <ele>497.965798</ele>
        <time>2024-09-08T10:01:46.000Z</time>
      </trkpt>
      <trkpt lat="47.839908" lon="13.345493">
        <ele>496.318331</ele>
        <time>2024-09-08T10:01:57.000Z</time>
      </trkpt>
      <trkpt lat="47.840375" lon="13.344689">
        <ele>494.909525</ele>
        <time>2024-09-08T10:02:05.000Z</time>
      </trkpt>
      <trkpt lat="47.840923" lon="13.343758">
        <ele>493.454735</ele>
        <time>2024-09-08T10:02:14.000Z</time>
      </trkpt>
      <trkpt lat="47.841578" lon="13.342608">
        <ele>491.910404</ele>
        <time>2024-09-08T10:02:25.000Z</time>
      </trkpt>
      <trkpt lat="47.842237" lon="13.341446">
        <ele>490.724934</ele>
        <time>2024-09-08T10:02:36.000Z</time>
      </trkpt>
      <trkpt lat="47.842425" lon="13.341122">
        <ele>490.464036</ele>
        <time>2024-09-08T10:02:39.000Z</time>
      </trkpt>
      <trkpt lat="47.842457" lon="13.341074">
        <ele>490.42223</ele>
        <time>2024-09-08T10:02:40.000Z</time>
      </trkpt>
      <trkpt lat="47.842743" lon="13.340578">
        <ele>490.016158</ele>
        <time>2024-09-08T10:02:45.000Z</time>
      </trkpt>
      <trkpt lat="47.843273" lon="13.339844">
        <ele>489.038158</ele>
        <time>2024-09-08T10:02:53.000Z</time>
      </trkpt>
      <trkpt lat="47.843609" lon="13.339533">
        <ele>488.321157</ele>
        <time>2024-09-08T10:02:57.000Z</time>
      </trkpt>
      <trkpt lat="47.843757" lon="13.339431">
        <ele>488.046073</ele>
        <time>2024-09-08T10:02:59.000Z</time>
      </trkpt>
      <trkpt lat="47.843811" lon="13.339373">
        <ele>487.916602</ele>
        <time>2024-09-08T10:03:00.000Z</time>
      </trkpt>
      <trkpt lat="47.844103" lon="13.339191">
        <ele>487.352503</ele>
        <time>2024-09-08T10:03:04.000Z</time>
      </trkpt>
      <trkpt lat="47.844187" lon="13.339149">
        <ele>487.184274</ele>
        <time>2024-09-08T10:03:05.000Z</time>
      </trkpt>
      <trkpt lat="47.844368" lon="13.339067">
        <ele>486.85208</ele>
        <time>2024-09-08T10:03:07.000Z</time>
      </trkpt>
      <trkpt lat="47.844729" lon="13.338944">
        <ele>486.202304</ele>
        <time>2024-09-08T10:03:11.000Z</time>
      </trkpt>
      <trkpt lat="47.84479" lon="13.338939">
        <ele>486.079916</ele>
        <time>2024-09-08T10:03:12.000Z</time>
      </trkpt>
      <trkpt lat="47.845016" lon="13.338879">
        <ele>485.647257</ele>
        <time>2024-09-08T10:03:15.000Z</time>
      </trkpt>
      <trkpt lat="47.845333" lon="13.338841">
        <ele>485.056517</ele>
        <time>2024-09-08T10:03:19.000Z</time>
      </trkpt>
      <trkpt lat="47.845468" lon="13.338848">
        <ele>484.836371</ele>
        <time>2024-09-08T10:03:21.000Z</time>
      </trkpt>
      <trkpt lat="47.845566" lon="13.338856">
        <ele>484.646757</ele>
        <time>2024-09-08T10:03:22.000Z</time>
      </trkpt>
      <trkpt lat="47.84559" lon="13.338861">
        <ele>484.604433</ele>
        <time>2024-09-08T10:03:22.000Z</time>
      </trkpt>
      <trkpt lat="47.845703" lon="13.338885">
        <ele>484.376038</ele>
        <time>2024-09-08T10:03:23.000Z</time>
      </trkpt>
      <trkpt lat="47.845747" lon="13.338892">
        <ele>484.324464</ele>
        <time>2024-09-08T10:03:23.000Z</time>
      </trkpt>
      <trkpt lat="47.845758" lon="13.338883">
        <ele>484.30416</ele>
        <time>2024-09-08T10:03:23.000Z</time>
      </trkpt>
      <trkpt lat="47.845932" lon="13.338922">
        <ele>483.963276</ele>
        <time>2024-09-08T10:03:25.000Z</time>
      </trkpt>
      <trkpt lat="47.846075" lon="13.338975">
        <ele>483.714286</ele>
        <time>2024-09-08T10:03:27.000Z</time>
      </trkpt>
      <trkpt lat="47.846229" lon="13.339024">
        <ele>483.412993</ele>
        <time>2024-09-08T10:03:29.000Z</time>
      </trkpt>
      <trkpt lat="47.846361" lon="13.339094">
        <ele>483.154809</ele>
        <time>2024-09-08T10:03:31.000Z</time>
      </trkpt>
      <trkpt lat="47.846581" lon="13.339218">
        <ele>483.138504</ele>
        <time>2024-09-08T10:03:34.000Z</time>
      </trkpt>
      <trkpt lat="47.846667" lon="13.339292">
        <ele>483.149901</ele>
        <time>2024-09-08T10:03:35.000Z</time>
      </trkpt>
      <trkpt lat="47.846877" lon="13.339433">
        <ele>483.178064</ele>
        <time>2024-09-08T10:03:38.000Z</time>
      </trkpt>
      <trkpt lat="47.847194" lon="13.339654">
        <ele>483.217885</ele>
        <time>2024-09-08T10:03:42.000Z</time>
      </trkpt>
      <trkpt lat="47.84729" lon="13.339737">
        <ele>483.231562</ele>
        <time>2024-09-08T10:03:43.000Z</time>
      </trkpt>
      <trkpt lat="47.847394" lon="13.339787">
        <ele>483.243937</ele>
        <time>2024-09-08T10:03:44.000Z</time>
      </trkpt>
      <trkpt lat="47.84752" lon="13.339918">
        <ele>483.261935</ele>
        <time>2024-09-08T10:03:46.000Z</time>
      </trkpt>
      <trkpt lat="47.847554" lon="13.339965">
        <ele>483.267647</ele>
        <time>2024-09-08T10:03:47.000Z</time>
      </trkpt>
      <trkpt lat="47.84759" lon="13.339986">
        <ele>483.273554</ele>
        <time>2024-09-08T10:03:47.000Z</time>
      </trkpt>
      <trkpt lat="47.847621" lon="13.340055">
        <ele>483.278537</ele>
        <time>2024-09-08T10:03:48.000Z</time>
      </trkpt>
      <trkpt lat="47.847747" lon="13.340174">
        <ele>483.29737</ele>
        <time>2024-09-08T10:03:50.000Z</time>
      </trkpt>
      <trkpt lat="47.847836" lon="13.340179">
        <ele>483.30594</ele>
        <time>2024-09-08T10:03:51.000Z</time>
      </trkpt>
      <trkpt lat="47.84793" lon="13.340242">
        <ele>483.320128</ele>
        <time>2024-09-08T10:03:52.000Z</time>
      </trkpt>
      <trkpt lat="47.84801" lon="13.340298">
        <ele>483.358467</ele>
        <time>2024-09-08T10:03:53.000Z</time>
      </trkpt>
      <trkpt lat="47.848701" lon="13.340865">
        <ele>484.03785</ele>
        <time>2024-09-08T10:04:02.000Z</time>
      </trkpt>
      <trkpt lat="47.849186" lon="13.341261">
        <ele>484.519902</ele>
        <time>2024-09-08T10:04:08.000Z</time>
      </trkpt>
      <trkpt lat="47.849306" lon="13.341362">
        <ele>484.638109</ele>
        <time>2024-09-08T10:04:10.000Z</time>
      </trkpt>
      <trkpt lat="47.849426" lon="13.341513">
        <ele>484.778855</ele>
        <time>2024-09-08T10:04:12.000Z</time>
      </trkpt>
      <trkpt lat="47.849563" lon="13.34166">
        <ele>484.885081</ele>
        <time>2024-09-08T10:04:14.000Z</time>
      </trkpt>
      <trkpt lat="47.849708" lon="13.341837">
        <ele>484.87373</ele>
        <time>2024-09-08T10:04:16.000Z</time>
      </trkpt>
      <trkpt lat="47.849905" lon="13.342173">
        <ele>484.854981</ele>
        <time>2024-09-08T10:04:19.000Z</time>
      </trkpt>
      <trkpt lat="47.850024" lon="13.342382">
        <ele>484.844116</ele>
        <time>2024-09-08T10:04:21.000Z</time>
      </trkpt>
      <trkpt lat="47.850058" lon="13.342475">
        <ele>484.839347</ele>
        <time>2024-09-08T10:04:22.000Z</time>
      </trkpt>
      <trkpt lat="47.850098" lon="13.342526">
        <ele>484.836436</ele>
        <time>2024-09-08T10:04:23.000Z</time>
      </trkpt>
      <trkpt lat="47.850363" lon="13.343208">
        <ele>484.803901</ele>
        <time>2024-09-08T10:04:29.000Z</time>
      </trkpt>
      <trkpt lat="47.850523" lon="13.343737">
        <ele>484.779933</ele>
        <time>2024-09-08T10:04:33.000Z</time>
      </trkpt>
      <trkpt lat="47.850565" lon="13.343958">
        <ele>484.69318</ele>
        <time>2024-09-08T10:04:35.000Z</time>
      </trkpt>
      <trkpt lat="47.85056" lon="13.343979">
        <ele>484.684084</ele>
        <time>2024-09-08T10:04:35.000Z</time>
      </trkpt>
      <trkpt lat="47.850566" lon="13.343976">
        <ele>484.679177</ele>
        <time>2024-09-08T10:04:35.000Z</time>
      </trkpt>
      <trkpt lat="47.850574" lon="13.343993">
        <ele>484.677637</ele>
        <time>2024-09-08T10:04:35.000Z</time>
      </trkpt>
      <trkpt lat="47.850616" lon="13.344259">
        <ele>484.526215</ele>
        <time>2024-09-08T10:04:37.000Z</time>
      </trkpt>
      <trkpt lat="47.850636" lon="13.344438">
        <ele>484.440878</ele>
        <time>2024-09-08T10:04:38.000Z</time>
      </trkpt>
      <trkpt lat="47.850655" lon="13.344559">
        <ele>484.36834</ele>
        <time>2024-09-08T10:04:39.000Z</time>
      </trkpt>
      <trkpt lat="47.850718" lon="13.344909">
        <ele>484.183176</ele>
        <time>2024-09-08T10:04:42.000Z</time>
      </trkpt>
      <trkpt lat="47.850724" lon="13.344961">
        <ele>484.156586</ele>
        <time>2024-09-08T10:04:42.000Z</time>
      </trkpt>
      <trkpt lat="47.850754" lon="13.34516">
        <ele>484.056021</ele>
        <time>2024-09-08T10:04:44.000Z</time>
      </trkpt>
      <trkpt lat="47.850797" lon="13.345312">
        <ele>483.967202</ele>
        <time>2024-09-08T10:04:45.000Z</time>
      </trkpt>
      <trkpt lat="47.850862" lon="13.345517">
        <ele>483.853659</ele>
        <time>2024-09-08T10:04:47.000Z</time>
      </trkpt>
      <trkpt lat="47.850957" lon="13.345824">
        <ele>483.676731</ele>
        <time>2024-09-08T10:04:50.000Z</time>
      </trkpt>
      <trkpt lat="47.851058" lon="13.346042">
        <ele>483.539711</ele>
        <time>2024-09-08T10:04:52.000Z</time>
      </trkpt>
      <trkpt lat="47.851238" lon="13.346427">
        <ele>483.380734</ele>
        <time>2024-09-08T10:04:56.000Z</time>
      </trkpt>
      <trkpt lat="47.851358" lon="13.346666">
        <ele>483.365262</ele>
        <time>2024-09-08T10:04:58.000Z</time>
      </trkpt>
      <trkpt lat="47.851645" lon="13.347377">
        <ele>483.319875</ele>
        <time>2024-09-08T10:05:04.000Z</time>
      </trkpt>
      <trkpt lat="47.851771" lon="13.347675">
        <ele>483.300768</ele>
        <time>2024-09-08T10:05:07.000Z</time>
      </trkpt>
      <trkpt lat="47.852087" lon="13.348544">
        <ele>483.247339</ele>
        <time>2024-09-08T10:05:14.000Z</time>
      </trkpt>
      <trkpt lat="47.852217" lon="13.348923">
        <ele>483.482975</ele>
        <time>2024-09-08T10:05:17.000Z</time>
      </trkpt>
      <trkpt lat="47.852285" lon="13.349154">
        <ele>483.643404</ele>
        <time>2024-09-08T10:05:19.000Z</time>
      </trkpt>
      <trkpt lat="47.852504" lon="13.349994">
        <ele>484.192012</ele>
        <time>2024-09-08T10:05:26.000Z</time>
      </trkpt>
      <trkpt lat="47.852522" lon="13.350069">
        <ele>484.237757</ele>
        <time>2024-09-08T10:05:27.000Z</time>
      </trkpt>
      <trkpt lat="47.852527" lon="13.350069">
        <ele>484.244995</ele>
        <time>2024-09-08T10:05:27.000Z</time>
      </trkpt>
      <trkpt lat="47.85254" lon="13.350136">
        <ele>484.28523</ele>
        <time>2024-09-08T10:05:28.000Z</time>
      </trkpt>
      <trkpt lat="47.852539" lon="13.350134">
        <ele>484.285837</ele>
        <time>2024-09-08T10:05:28.000Z</time>
      </trkpt>
      <trkpt lat="47.852546" lon="13.350178">
        <ele>484.313033</ele>
        <time>2024-09-08T10:05:28.000Z</time>
      </trkpt>
      <trkpt lat="47.852547" lon="13.350191">
        <ele>484.320843</ele>
        <time>2024-09-08T10:05:28.000Z</time>
      </trkpt>
      <trkpt lat="47.852654" lon="13.350669">
        <ele>484.62462</ele>
        <time>2024-09-08T10:05:32.000Z</time>
      </trkpt>
      <trkpt lat="47.852842" lon="13.351667">
        <ele>485.222404</ele>
        <time>2024-09-08T10:05:40.000Z</time>
      </trkpt>
      <trkpt lat="47.852898" lon="13.352078">
        <ele>485.448278</ele>
        <time>2024-09-08T10:05:43.000Z</time>
      </trkpt>
      <trkpt lat="47.852933" lon="13.352327">
        <ele>485.59034</ele>
        <time>2024-09-08T10:05:45.000Z</time>
      </trkpt>
      <trkpt lat="47.852954" lon="13.352684">
        <ele>485.7797</ele>
        <time>2024-09-08T10:05:48.000Z</time>
      </trkpt>
      <trkpt lat="47.852986" lon="13.353042">
        <ele>485.979114</ele>
        <time>2024-09-08T10:05:51.000Z</time>
      </trkpt>
      <trkpt lat="47.852993" lon="13.353139">
        <ele>486.035699</ele>
        <time>2024-09-08T10:05:52.000Z</time>
      </trkpt>
      <trkpt lat="47.852989" lon="13.353189">
        <ele>486.057086</ele>
        <time>2024-09-08T10:05:52.000Z</time>
      </trkpt>
      <trkpt lat="47.853015" lon="13.353866">
        <ele>486.441761</ele>
        <time>2024-09-08T10:05:57.000Z</time>
      </trkpt>
      <trkpt lat="47.852988" lon="13.354602">
        <ele>486.882244</ele>
        <time>2024-09-08T10:06:03.000Z</time>
      </trkpt>
      <trkpt lat="47.852945" lon="13.355229">
        <ele>487.258946</ele>
        <time>2024-09-08T10:06:08.000Z</time>
      </trkpt>
      <trkpt lat="47.852871" lon="13.355845">
        <ele>487.642007</ele>
        <time>2024-09-08T10:06:13.000Z</time>
      </trkpt>
      <trkpt lat="47.852805" lon="13.356352">
        <ele>487.95237</ele>
        <time>2024-09-08T10:06:17.000Z</time>
      </trkpt>
      <trkpt lat="47.852706" lon="13.356881">
        <ele>488.214209</ele>
        <time>2024-09-08T10:06:21.000Z</time>
      </trkpt>
      <trkpt lat="47.852618" lon="13.357189">
        <ele>488.369588</ele>
        <time>2024-09-08T10:06:23.000Z</time>
      </trkpt>
      <trkpt lat="47.852576" lon="13.357294">
        <ele>488.428197</ele>
        <time>2024-09-08T10:06:24.000Z</time>
      </trkpt>
      <trkpt lat="47.852499" lon="13.357496">
        <ele>488.530657</ele>
        <time>2024-09-08T10:06:26.000Z</time>
      </trkpt>
      <trkpt lat="47.852217" lon="13.358026">
        <ele>488.852121</ele>
        <time>2024-09-08T10:06:31.000Z</time>
      </trkpt>
      <trkpt lat="47.852121" lon="13.358165">
        <ele>488.933919</ele>
        <time>2024-09-08T10:06:32.000Z</time>
      </trkpt>
      <trkpt lat="47.851902" lon="13.35848">
        <ele>489.155692</ele>
        <time>2024-09-08T10:06:35.000Z</time>
      </trkpt>
      <trkpt lat="47.851667" lon="13.358823">
        <ele>489.153061</ele>
        <time>2024-09-08T10:06:39.000Z</time>
      </trkpt>
      <trkpt lat="47.8515" lon="13.359097">
        <ele>489.096555</ele>
        <time>2024-09-08T10:06:42.000Z</time>
      </trkpt>
      <trkpt lat="47.851357" lon="13.359385">
        <ele>489.04047</ele>
        <time>2024-09-08T10:06:45.000Z</time>
      </trkpt>
      <trkpt lat="47.851316" lon="13.359501">
        <ele>489.020702</ele>
        <time>2024-09-08T10:06:46.000Z</time>
      </trkpt>
      <trkpt lat="47.851203" lon="13.359765">
        <ele>488.972541</ele>
        <time>2024-09-08T10:06:48.000Z</time>
      </trkpt>
      <trkpt lat="47.85107" lon="13.360133">
        <ele>488.905887</ele>
        <time>2024-09-08T10:06:51.000Z</time>
      </trkpt>
      <trkpt lat="47.851032" lon="13.360248">
        <ele>488.887594</ele>
        <time>2024-09-08T10:06:52.000Z</time>
      </trkpt>
      <trkpt lat="47.850996" lon="13.360353">
        <ele>488.868425</ele>
        <time>2024-09-08T10:06:53.000Z</time>
      </trkpt>
      <trkpt lat="47.850934" lon="13.360521">
        <ele>488.839056</ele>
        <time>2024-09-08T10:06:54.000Z</time>
      </trkpt>
      <trkpt lat="47.850855" lon="13.360666">
        <ele>488.811147</ele>
        <time>2024-09-08T10:06:55.000Z</time>
      </trkpt>
      <trkpt lat="47.850464" lon="13.361205">
        <ele>489.07679</ele>
        <time>2024-09-08T10:07:01.000Z</time>
      </trkpt>
      <trkpt lat="47.850132" lon="13.361409">
        <ele>489.301709</ele>
        <time>2024-09-08T10:07:05.000Z</time>
      </trkpt>
      <trkpt lat="47.849967" lon="13.361523">
        <ele>489.418703</ele>
        <time>2024-09-08T10:07:07.000Z</time>
      </trkpt>
      <trkpt lat="47.849775" lon="13.36166">
        <ele>489.539774</ele>
        <time>2024-09-08T10:07:09.000Z</time>
      </trkpt>
      <trkpt lat="47.849602" lon="13.36185">
        <ele>489.675815</ele>
        <time>2024-09-08T10:07:11.000Z</time>
      </trkpt>
      <trkpt lat="47.849427" lon="13.362095">
        <ele>489.82617</ele>
        <time>2024-09-08T10:07:14.000Z</time>
      </trkpt>
      <trkpt lat="47.849208" lon="13.362796">
        <ele>490.303463</ele>
        <time>2024-09-08T10:07:20.000Z</time>
      </trkpt>
      <trkpt lat="47.849177" lon="13.363062">
        <ele>490.498353</ele>
        <time>2024-09-08T10:07:22.000Z</time>
      </trkpt>
      <trkpt lat="47.849151" lon="13.363215">
        <ele>490.596252</ele>
        <time>2024-09-08T10:07:23.000Z</time>
      </trkpt>
      <trkpt lat="47.849123" lon="13.363306">
        <ele>490.673208</ele>
        <time>2024-09-08T10:07:24.000Z</time>
      </trkpt>
      <trkpt lat="47.849092" lon="13.363501">
        <ele>490.811966</ele>
        <time>2024-09-08T10:07:25.000Z</time>
      </trkpt>
      <trkpt lat="47.848794" lon="13.364141">
        <ele>491.350958</ele>
        <time>2024-09-08T10:07:31.000Z</time>
      </trkpt>
      <trkpt lat="47.84837" lon="13.364918">
        <ele>491.471456</ele>
        <time>2024-09-08T10:07:38.000Z</time>
      </trkpt>
      <trkpt lat="47.84825" lon="13.365268">
        <ele>491.185831</ele>
        <time>2024-09-08T10:07:41.000Z</time>
      </trkpt>
      <trkpt lat="47.848137" lon="13.365928">
        <ele>490.692374</ele>
        <time>2024-09-08T10:07:46.000Z</time>
      </trkpt>
      <trkpt lat="47.847909" lon="13.367784">
        <ele>489.458685</ele>
        <time>2024-09-08T10:08:00.000Z</time>
      </trkpt>
      <trkpt lat="47.847859" lon="13.368051">
        <ele>489.313427</ele>
        <time>2024-09-08T10:08:02.000Z</time>
      </trkpt>
      <trkpt lat="47.847745" lon="13.368426">
        <ele>489.095763</ele>
        <time>2024-09-08T10:08:05.000Z</time>
      </trkpt>
      <trkpt lat="47.847266" lon="13.369731">
        <ele>488.367607</ele>
        <time>2024-09-08T10:08:16.000Z</time>
      </trkpt>
      <trkpt lat="47.847032" lon="13.370181">
        <ele>488.240422</ele>
        <time>2024-09-08T10:08:20.000Z</time>
      </trkpt>
      <trkpt lat="47.846979" lon="13.370279">
        <ele>488.21126</ele>
        <time>2024-09-08T10:08:21.000Z</time>
      </trkpt>
      <trkpt lat="47.846901" lon="13.370446">
        <ele>488.163105</ele>
        <time>2024-09-08T10:08:23.000Z</time>
      </trkpt>
      <trkpt lat="47.84685" lon="13.370533">
        <ele>488.134371</ele>
        <time>2024-09-08T10:08:24.000Z</time>
      </trkpt>
      <trkpt lat="47.846743" lon="13.370745">
        <ele>488.073685</ele>
        <time>2024-09-08T10:08:26.000Z</time>
      </trkpt>
      <trkpt lat="47.846206" lon="13.371542">
        <ele>487.813728</ele>
        <time>2024-09-08T10:08:34.000Z</time>
      </trkpt>
      <trkpt lat="47.846081" lon="13.371742">
        <ele>487.881396</ele>
        <time>2024-09-08T10:08:36.000Z</time>
      </trkpt>
      <trkpt lat="47.845975" lon="13.371924">
        <ele>488.011036</ele>
        <time>2024-09-08T10:08:38.000Z</time>
      </trkpt>
      <trkpt lat="47.845915" lon="13.372035">
        <ele>488.087689</ele>
        <time>2024-09-08T10:08:39.000Z</time>
      </trkpt>
      <trkpt lat="47.845901" lon="13.372066">
        <ele>488.10814</ele>
        <time>2024-09-08T10:08:39.000Z</time>
      </trkpt>
      <trkpt lat="47.84584" lon="13.37221">
        <ele>488.196485</ele>
        <time>2024-09-08T10:08:40.000Z</time>
      </trkpt>
      <trkpt lat="47.845674" lon="13.372795">
        <ele>488.524911</ele>
        <time>2024-09-08T10:08:45.000Z</time>
      </trkpt>
      <trkpt lat="47.845678" lon="13.372863">
        <ele>488.565138</ele>
        <time>2024-09-08T10:08:46.000Z</time>
      </trkpt>
      <trkpt lat="47.845625" lon="13.373271">
        <ele>488.778203</ele>
        <time>2024-09-08T10:08:49.000Z</time>
      </trkpt>
      <trkpt lat="47.845555" lon="13.373676">
        <ele>489.001365</ele>
        <time>2024-09-08T10:08:52.000Z</time>
      </trkpt>
      <trkpt lat="47.845507" lon="13.37391">
        <ele>489.123583</ele>
        <time>2024-09-08T10:08:54.000Z</time>
      </trkpt>
      <trkpt lat="47.845428" lon="13.374157">
        <ele>489.36764</ele>
        <time>2024-09-08T10:08:56.000Z</time>
      </trkpt>
      <trkpt lat="47.844714" lon="13.376059">
        <ele>492.149105</ele>
        <time>2024-09-08T10:09:12.000Z</time>
      </trkpt>
      <trkpt lat="47.844133" lon="13.377328">
        <ele>492.180407</ele>
        <time>2024-09-08T10:09:23.000Z</time>
      </trkpt>
      <trkpt lat="47.844009" lon="13.377548">
        <ele>492.083106</ele>
        <time>2024-09-08T10:09:25.000Z</time>
      </trkpt>
      <trkpt lat="47.84374" lon="13.377939">
        <ele>491.883797</ele>
        <time>2024-09-08T10:09:29.000Z</time>
      </trkpt>
      <trkpt lat="47.84359" lon="13.37816">
        <ele>491.773676</ele>
        <time>2024-09-08T10:09:31.000Z</time>
      </trkpt>
      <trkpt lat="47.84348" lon="13.378362">
        <ele>491.677158</ele>
        <time>2024-09-08T10:09:33.000Z</time>
      </trkpt>
      <trkpt lat="47.843311" lon="13.378641">
        <ele>491.397898</ele>
        <time>2024-09-08T10:09:36.000Z</time>
      </trkpt>
      <trkpt lat="47.843155" lon="13.378976">
        <ele>491.042928</ele>
        <time>2024-09-08T10:09:39.000Z</time>
      </trkpt>
      <trkpt lat="47.84289" lon="13.379514">
        <ele>490.458901</ele>
        <time>2024-09-08T10:09:44.000Z</time>
      </trkpt>
      <trkpt lat="47.842727" lon="13.379869">
        <ele>490.087936</ele>
        <time>2024-09-08T10:09:47.000Z</time>
      </trkpt>
      <trkpt lat="47.842553" lon="13.380269">
        <ele>489.669803</ele>
        <time>2024-09-08T10:09:51.000Z</time>
      </trkpt>
      <trkpt lat="47.84243" lon="13.380638">
        <ele>489.318402</ele>
        <time>2024-09-08T10:09:54.000Z</time>
      </trkpt>
      <trkpt lat="47.841961" lon="13.38248">
        <ele>490.011499</ele>
        <time>2024-09-08T10:10:09.000Z</time>
      </trkpt>
      <trkpt lat="47.841808" lon="13.382944">
        <ele>490.198502</ele>
        <time>2024-09-08T10:10:13.000Z</time>
      </trkpt>
      <trkpt lat="47.841705" lon="13.383153">
        <ele>490.280026</ele>
        <time>2024-09-08T10:10:15.000Z</time>
      </trkpt>
      <trkpt lat="47.841625" lon="13.383298">
        <ele>490.327617</ele>
        <time>2024-09-08T10:10:16.000Z</time>
      </trkpt>
      <trkpt lat="47.841362" lon="13.383666">
        <ele>490.453575</ele>
        <time>2024-09-08T10:10:20.000Z</time>
      </trkpt>
      <trkpt lat="47.84123" lon="13.383835">
        <ele>490.517118</ele>
        <time>2024-09-08T10:10:22.000Z</time>
      </trkpt>
      <trkpt lat="47.841159" lon="13.38392">
        <ele>490.551775</ele>
        <time>2024-09-08T10:10:23.000Z</time>
      </trkpt>
      <trkpt lat="47.840616" lon="13.384409">
        <ele>490.77679</ele>
        <time>2024-09-08T10:10:30.000Z</time>
      </trkpt>
      <trkpt lat="47.839642" lon="13.384947">
        <ele>489.854223</ele>
        <time>2024-09-08T10:10:42.000Z</time>
      </trkpt>
      <trkpt lat="47.83899" lon="13.385639">
        <ele>488.579256</ele>
        <time>2024-09-08T10:10:51.000Z</time>
      </trkpt>
      <trkpt lat="47.838407" lon="13.386038">
        <ele>487.589997</ele>
        <time>2024-09-08T10:10:58.000Z</time>
      </trkpt>
      <trkpt lat="47.838248" lon="13.386143">
        <ele>487.334227</ele>
        <time>2024-09-08T10:11:00.000Z</time>
      </trkpt>
      <trkpt lat="47.838231" lon="13.386149">
        <ele>487.290025</ele>
        <time>2024-09-08T10:11:00.000Z</time>
      </trkpt>
      <trkpt lat="47.838165" lon="13.386189">
        <ele>487.192896</ele>
        <time>2024-09-08T10:11:01.000Z</time>
      </trkpt>
      <trkpt lat="47.838091" lon="13.386262">
        <ele>487.054996</ele>
        <time>2024-09-08T10:11:02.000Z</time>
      </trkpt>
      <trkpt lat="47.837696" lon="13.386679">
        <ele>486.315373</ele>
        <time>2024-09-08T10:11:07.000Z</time>
      </trkpt>
      <trkpt lat="47.837383" lon="13.387237">
        <ele>485.570497</ele>
        <time>2024-09-08T10:11:12.000Z</time>
      </trkpt>
      <trkpt lat="47.837306" lon="13.387434">
        <ele>485.332466</ele>
        <time>2024-09-08T10:11:14.000Z</time>
      </trkpt>
      <trkpt lat="47.837143" lon="13.387881">
        <ele>485.337184</ele>
        <time>2024-09-08T10:11:18.000Z</time>
      </trkpt>
      <trkpt lat="47.837069" lon="13.388131">
        <ele>485.348959</ele>
        <time>2024-09-08T10:11:20.000Z</time>
      </trkpt>
      <trkpt lat="47.836983" lon="13.388344">
        <ele>485.359317</ele>
        <time>2024-09-08T10:11:22.000Z</time>
      </trkpt>
      <trkpt lat="47.836762" lon="13.388769">
        <ele>485.381061</ele>
        <time>2024-09-08T10:11:26.000Z</time>
      </trkpt>
      <trkpt lat="47.836669" lon="13.388889">
        <ele>485.388697</ele>
        <time>2024-09-08T10:11:27.000Z</time>
      </trkpt>
      <trkpt lat="47.836585" lon="13.389016">
        <ele>485.39659</ele>
        <time>2024-09-08T10:11:28.000Z</time>
      </trkpt>
      <trkpt lat="47.836376" lon="13.389211">
        <ele>485.411414</ele>
        <time>2024-09-08T10:11:31.000Z</time>
      </trkpt>
      <trkpt lat="47.83605" lon="13.389536">
        <ele>485.389387</ele>
        <time>2024-09-08T10:11:35.000Z</time>
      </trkpt>
      <trkpt lat="47.835949" lon="13.389618">
        <ele>485.357085</ele>
        <time>2024-09-08T10:11:36.000Z</time>
      </trkpt>
      <trkpt lat="47.835922" lon="13.38967">
        <ele>485.342201</ele>
        <time>2024-09-08T10:11:36.000Z</time>
      </trkpt>
      <trkpt lat="47.835832" lon="13.389776">
        <ele>485.309919</ele>
        <time>2024-09-08T10:11:37.000Z</time>
      </trkpt>
      <trkpt lat="47.835536" lon="13.390307">
        <ele>485.17155</ele>
        <time>2024-09-08T10:11:42.000Z</time>
      </trkpt>
      <trkpt lat="47.835369" lon="13.390751">
        <ele>485.068709</ele>
        <time>2024-09-08T10:11:46.000Z</time>
      </trkpt>
      <trkpt lat="47.835233" lon="13.391087">
        <ele>484.990058</ele>
        <time>2024-09-08T10:11:49.000Z</time>
      </trkpt>
      <trkpt lat="47.835084" lon="13.391413">
        <ele>484.908765</ele>
        <time>2024-09-08T10:11:52.000Z</time>
      </trkpt>
      <trkpt lat="47.83488" lon="13.391869">
        <ele>484.786889</ele>
        <time>2024-09-08T10:11:56.000Z</time>
      </trkpt>
      <trkpt lat="47.83485" lon="13.391946">
        <ele>484.767417</ele>
        <time>2024-09-08T10:11:57.000Z</time>
      </trkpt>
      <trkpt lat="47.834746" lon="13.392148">
        <ele>484.709555</ele>
        <time>2024-09-08T10:11:59.000Z</time>
      </trkpt>
      <trkpt lat="47.834498" lon="13.392549">
        <ele>484.588134</ele>
        <time>2024-09-08T10:12:03.000Z</time>
      </trkpt>
      <trkpt lat="47.834337" lon="13.392766">
        <ele>484.513583</ele>
        <time>2024-09-08T10:12:05.000Z</time>
      </trkpt>
      <trkpt lat="47.834188" lon="13.392974">
        <ele>484.442788</ele>
        <time>2024-09-08T10:12:07.000Z</time>
      </trkpt>
      <trkpt lat="47.833654" lon="13.393502">
        <ele>484.317233</ele>
        <time>2024-09-08T10:12:14.000Z</time>
      </trkpt>
      <trkpt lat="47.833441" lon="13.393688">
        <ele>484.382307</ele>
        <time>2024-09-08T10:12:17.000Z</time>
      </trkpt>
      <trkpt lat="47.833208" lon="13.393884">
        <ele>484.449509</ele>
        <time>2024-09-08T10:12:20.000Z</time>
      </trkpt>
      <trkpt lat="47.832858" lon="13.394174">
        <ele>484.548153</ele>
        <time>2024-09-08T10:12:24.000Z</time>
      </trkpt>
      <trkpt lat="47.832818" lon="13.394226">
        <ele>484.560185</ele>
        <time>2024-09-08T10:12:25.000Z</time>
      </trkpt>
      <trkpt lat="47.832778" lon="13.39426">
        <ele>484.571194</ele>
        <time>2024-09-08T10:12:26.000Z</time>
      </trkpt>
      <trkpt lat="47.832744" lon="13.394298">
        <ele>484.583423</ele>
        <time>2024-09-08T10:12:26.000Z</time>
      </trkpt>
      <trkpt lat="47.832672" lon="13.394388">
        <ele>484.60745</ele>
        <time>2024-09-08T10:12:27.000Z</time>
      </trkpt>
      <trkpt lat="47.832642" lon="13.394416">
        <ele>484.613568</ele>
        <time>2024-09-08T10:12:27.000Z</time>
      </trkpt>
      <trkpt lat="47.832474" lon="13.394607">
        <ele>484.666447</ele>
        <time>2024-09-08T10:12:29.000Z</time>
      </trkpt>
      <trkpt lat="47.832177" lon="13.395027">
        <ele>484.765264</ele>
        <time>2024-09-08T10:12:34.000Z</time>
      </trkpt>
      <trkpt lat="47.832001" lon="13.395295">
        <ele>484.820291</ele>
        <time>2024-09-08T10:12:37.000Z</time>
      </trkpt>
      <trkpt lat="47.831785" lon="13.395603">
        <ele>484.885107</ele>
        <time>2024-09-08T10:12:40.000Z</time>
      </trkpt>
      <trkpt lat="47.831448" lon="13.396044">
        <ele>484.986523</ele>
        <time>2024-09-08T10:12:45.000Z</time>
      </trkpt>
      <trkpt lat="47.831251" lon="13.396267">
        <ele>485.039267</ele>
        <time>2024-09-08T10:12:48.000Z</time>
      </trkpt>
      <trkpt lat="47.831105" lon="13.396408">
        <ele>485.076336</ele>
        <time>2024-09-08T10:12:50.000Z</time>
      </trkpt>
      <trkpt lat="47.831046" lon="13.39645">
        <ele>485.092135</ele>
        <time>2024-09-08T10:12:51.000Z</time>
      </trkpt>
      <trkpt lat="47.830981" lon="13.396514">
        <ele>485.111886</ele>
        <time>2024-09-08T10:12:52.000Z</time>
      </trkpt>
      <trkpt lat="47.830835" lon="13.396619">
        <ele>485.168856</ele>
        <time>2024-09-08T10:12:54.000Z</time>
      </trkpt>
      <trkpt lat="47.830527" lon="13.396844">
        <ele>485.346099</ele>
        <time>2024-09-08T10:12:58.000Z</time>
      </trkpt>
      <trkpt lat="47.830421" lon="13.396904">
        <ele>485.397888</ele>
        <time>2024-09-08T10:12:59.000Z</time>
      </trkpt>
      <trkpt lat="47.829954" lon="13.397223">
        <ele>485.655185</ele>
        <time>2024-09-08T10:13:05.000Z</time>
      </trkpt>
      <trkpt lat="47.829575" lon="13.397458">
        <ele>485.869176</ele>
        <time>2024-09-08T10:13:10.000Z</time>
      </trkpt>
      <trkpt lat="47.828653" lon="13.39816">
        <ele>487.398814</ele>
        <time>2024-09-08T10:13:22.000Z</time>
      </trkpt>
      <trkpt lat="47.828155" lon="13.398577">
        <ele>488.500342</ele>
        <time>2024-09-08T10:13:28.000Z</time>
      </trkpt>
      <trkpt lat="47.827911" lon="13.398765">
        <ele>489.024169</ele>
        <time>2024-09-08T10:13:31.000Z</time>
      </trkpt>
      <trkpt lat="47.827687" lon="13.39892">
        <ele>489.531585</ele>
        <time>2024-09-08T10:13:34.000Z</time>
      </trkpt>
      <trkpt lat="47.827036" lon="13.399276">
        <ele>492.113172</ele>
        <time>2024-09-08T10:13:42.000Z</time>
      </trkpt>
      <trkpt lat="47.826877" lon="13.399342">
        <ele>492.741991</ele>
        <time>2024-09-08T10:13:44.000Z</time>
      </trkpt>
      <trkpt lat="47.826771" lon="13.399375">
        <ele>493.161847</ele>
        <time>2024-09-08T10:13:45.000Z</time>
      </trkpt>
      <trkpt lat="47.826643" lon="13.399417">
        <ele>493.653568</ele>
        <time>2024-09-08T10:13:46.000Z</time>
      </trkpt>
      <trkpt lat="47.826378" lon="13.399482">
        <ele>494.65069</ele>
        <time>2024-09-08T10:13:49.000Z</time>
      </trkpt>
      <trkpt lat="47.826082" lon="13.399538">
        <ele>495.742231</ele>
        <time>2024-09-08T10:13:52.000Z</time>
      </trkpt>
      <trkpt lat="47.825712" lon="13.399547">
        <ele>498.170565</ele>
        <time>2024-09-08T10:13:56.000Z</time>
      </trkpt>
      <trkpt lat="47.825488" lon="13.39956">
        <ele>500.024342</ele>
        <time>2024-09-08T10:13:58.000Z</time>
      </trkpt>
      <trkpt lat="47.825114" lon="13.39953">
        <ele>503.027213</ele>
        <time>2024-09-08T10:14:02.000Z</time>
      </trkpt>
      <trkpt lat="47.824913" lon="13.399522">
        <ele>504.595774</ele>
        <time>2024-09-08T10:14:04.000Z</time>
      </trkpt>
      <trkpt lat="47.824637" lon="13.399462">
        <ele>506.832423</ele>
        <time>2024-09-08T10:14:07.000Z</time>
      </trkpt>
      <trkpt lat="47.824503" lon="13.399442">
        <ele>507.95083</ele>
        <time>2024-09-08T10:14:09.000Z</time>
      </trkpt>
      <trkpt lat="47.824373" lon="13.399404">
        <ele>508.959837</ele>
        <time>2024-09-08T10:14:10.000Z</time>
      </trkpt>
      <trkpt lat="47.824221" lon="13.399363">
        <ele>510.281875</ele>
        <time>2024-09-08T10:14:12.000Z</time>
      </trkpt>
      <trkpt lat="47.823529" lon="13.39904">
        <ele>515.046939</ele>
        <time>2024-09-08T10:14:20.000Z</time>
      </trkpt>
      <trkpt lat="47.822887" lon="13.398591">
        <ele>519.645563</ele>
        <time>2024-09-08T10:14:28.000Z</time>
      </trkpt>
      <trkpt lat="47.822303" lon="13.398028">
        <ele>522.368059</ele>
        <time>2024-09-08T10:14:36.000Z</time>
      </trkpt>
      <trkpt lat="47.821508" lon="13.397045">
        <ele>522.439909</ele>
        <time>2024-09-08T10:14:47.000Z</time>
      </trkpt>
      <trkpt lat="47.821076" lon="13.396687">
        <ele>522.474021</ele>
        <time>2024-09-08T10:14:52.000Z</time>
      </trkpt>
      <trkpt lat="47.820695" lon="13.396604">
        <ele>521.851545</ele>
        <time>2024-09-08T10:14:56.000Z</time>
      </trkpt>
      <trkpt lat="47.820335" lon="13.396661">
        <ele>521.283517</ele>
        <time>2024-09-08T10:15:00.000Z</time>
      </trkpt>
      <trkpt lat="47.819964" lon="13.396917">
        <ele>520.645474</ele>
        <time>2024-09-08T10:15:05.000Z</time>
      </trkpt>
      <trkpt lat="47.819682" lon="13.397244">
        <ele>520.091402</ele>
        <time>2024-09-08T10:15:09.000Z</time>
      </trkpt>
      <trkpt lat="47.819537" lon="13.397483">
        <ele>519.741879</ele>
        <time>2024-09-08T10:15:11.000Z</time>
      </trkpt>
      <trkpt lat="47.819358" lon="13.397777">
        <ele>518.917442</ele>
        <time>2024-09-08T10:15:14.000Z</time>
      </trkpt>
      <trkpt lat="47.819136" lon="13.398126">
        <ele>517.729609</ele>
        <time>2024-09-08T10:15:18.000Z</time>
      </trkpt>
      <trkpt lat="47.81887" lon="13.398343">
        <ele>516.657285</ele>
        <time>2024-09-08T10:15:21.000Z</time>
      </trkpt>
      <trkpt lat="47.817881" lon="13.398708">
        <ele>512.753241</ele>
        <time>2024-09-08T10:15:32.000Z</time>
      </trkpt>
      <trkpt lat="47.817474" lon="13.39899">
        <ele>509.931347</ele>
        <time>2024-09-08T10:15:37.000Z</time>
      </trkpt>
      <trkpt lat="47.817137" lon="13.39942">
        <ele>507.018008</ele>
        <time>2024-09-08T10:15:42.000Z</time>
      </trkpt>
      <trkpt lat="47.816777" lon="13.400109">
        <ele>503.195491</ele>
        <time>2024-09-08T10:15:49.000Z</time>
      </trkpt>
      <trkpt lat="47.816671" lon="13.400251">
        <ele>502.329701</ele>
        <time>2024-09-08T10:15:51.000Z</time>
      </trkpt>
      <trkpt lat="47.816582" lon="13.400393">
        <ele>501.425386</ele>
        <time>2024-09-08T10:15:52.000Z</time>
      </trkpt>
      <trkpt lat="47.816479" lon="13.40051">
        <ele>500.684667</ele>
        <time>2024-09-08T10:15:53.000Z</time>
      </trkpt>
      <trkpt lat="47.816303" lon="13.400667">
        <ele>499.502112</ele>
        <time>2024-09-08T10:15:55.000Z</time>
      </trkpt>
      <trkpt lat="47.816117" lon="13.40084">
        <ele>498.201632</ele>
        <time>2024-09-08T10:15:57.000Z</time>
      </trkpt>
      <trkpt lat="47.815735" lon="13.401323">
        <ele>495.225197</ele>
        <time>2024-09-08T10:16:03.000Z</time>
      </trkpt>
      <trkpt lat="47.815635" lon="13.401562">
        <ele>494.097756</ele>
        <time>2024-09-08T10:16:05.000Z</time>
      </trkpt>
      <trkpt lat="47.815573" lon="13.40177">
        <ele>493.186747</ele>
        <time>2024-09-08T10:16:07.000Z</time>
      </trkpt>
      <trkpt lat="47.815544" lon="13.401917">
        <ele>492.52911</ele>
        <time>2024-09-08T10:16:08.000Z</time>
      </trkpt>
      <trkpt lat="47.815524" lon="13.402034">
        <ele>492.099974</ele>
        <time>2024-09-08T10:16:09.000Z</time>
      </trkpt>
      <trkpt lat="47.815455" lon="13.402495">
        <ele>490.5288</ele>
        <time>2024-09-08T10:16:13.000Z</time>
      </trkpt>
      <trkpt lat="47.815405" lon="13.402856">
        <ele>489.883461</ele>
        <time>2024-09-08T10:16:16.000Z</time>
      </trkpt>
      <trkpt lat="47.815372" lon="13.403042">
        <ele>489.549327</ele>
        <time>2024-09-08T10:16:17.000Z</time>
      </trkpt>
      <trkpt lat="47.815328" lon="13.403451">
        <ele>488.84276</ele>
        <time>2024-09-08T10:16:20.000Z</time>
      </trkpt>
      <trkpt lat="47.815323" lon="13.403537">
        <ele>488.667223</ele>
        <time>2024-09-08T10:16:21.000Z</time>
      </trkpt>
      <trkpt lat="47.81528" lon="13.403843">
        <ele>488.136916</ele>
        <time>2024-09-08T10:16:23.000Z</time>
      </trkpt>
      <trkpt lat="47.815224" lon="13.404299">
        <ele>487.338962</ele>
        <time>2024-09-08T10:16:26.000Z</time>
      </trkpt>
      <trkpt lat="47.815199" lon="13.404409">
        <ele>487.124957</ele>
        <time>2024-09-08T10:16:27.000Z</time>
      </trkpt>
      <trkpt lat="47.815117" lon="13.406131">
        <ele>485.855906</ele>
        <time>2024-09-08T10:16:40.000Z</time>
      </trkpt>
      <trkpt lat="47.815086" lon="13.406374">
        <ele>485.794908</ele>
        <time>2024-09-08T10:16:42.000Z</time>
      </trkpt>
      <trkpt lat="47.815047" lon="13.40655">
        <ele>485.750299</ele>
        <time>2024-09-08T10:16:43.000Z</time>
      </trkpt>
      <trkpt lat="47.814798" lon="13.407249">
        <ele>485.560377</ele>
        <time>2024-09-08T10:16:49.000Z</time>
      </trkpt>
      <trkpt lat="47.81418" lon="13.408271">
        <ele>485.647112</ele>
        <time>2024-09-08T10:16:59.000Z</time>
      </trkpt>
      <trkpt lat="47.813913" lon="13.408598">
        <ele>485.72472</ele>
        <time>2024-09-08T10:17:03.000Z</time>
      </trkpt>
      <trkpt lat="47.813747" lon="13.40879">
        <ele>485.772354</ele>
        <time>2024-09-08T10:17:05.000Z</time>
      </trkpt>
      <trkpt lat="47.813535" lon="13.409068">
        <ele>485.834684</ele>
        <time>2024-09-08T10:17:08.000Z</time>
      </trkpt>
      <trkpt lat="47.81327" lon="13.409536">
        <ele>485.978967</ele>
        <time>2024-09-08T10:17:13.000Z</time>
      </trkpt>
      <trkpt lat="47.813205" lon="13.409647">
        <ele>486.029505</ele>
        <time>2024-09-08T10:17:14.000Z</time>
      </trkpt>
      <trkpt lat="47.813073" lon="13.410186">
        <ele>486.235397</ele>
        <time>2024-09-08T10:17:18.000Z</time>
      </trkpt>
      <trkpt lat="47.812994" lon="13.410488">
        <ele>486.351114</ele>
        <time>2024-09-08T10:17:20.000Z</time>
      </trkpt>
      <trkpt lat="47.812947" lon="13.410647">
        <ele>486.415998</ele>
        <time>2024-09-08T10:17:21.000Z</time>
      </trkpt>
      <trkpt lat="47.812908" lon="13.410745">
        <ele>486.458413</ele>
        <time>2024-09-08T10:17:22.000Z</time>
      </trkpt>
      <trkpt lat="47.812754" lon="13.411018">
        <ele>486.583844</ele>
        <time>2024-09-08T10:17:25.000Z</time>
      </trkpt>
      <trkpt lat="47.812442" lon="13.411494">
        <ele>486.821801</ele>
        <time>2024-09-08T10:17:30.000Z</time>
      </trkpt>
      <trkpt lat="47.811876" lon="13.412172">
        <ele>486.279527</ele>
        <time>2024-09-08T10:17:38.000Z</time>
      </trkpt>
      <trkpt lat="47.810919" lon="13.413833">
        <ele>485.012505</ele>
        <time>2024-09-08T10:17:54.000Z</time>
      </trkpt>
      <trkpt lat="47.810614" lon="13.414496">
        <ele>484.542699</ele>
        <time>2024-09-08T10:18:00.000Z</time>
      </trkpt>
      <trkpt lat="47.81057" lon="13.414573">
        <ele>484.474068</ele>
        <time>2024-09-08T10:18:01.000Z</time>
      </trkpt>
      <trkpt lat="47.810236" lon="13.415014">
        <ele>484.081105</ele>
        <time>2024-09-08T10:18:06.000Z</time>
      </trkpt>
      <trkpt lat="47.809741" lon="13.4152">
        <ele>483.786182</ele>
        <time>2024-09-08T10:18:12.000Z</time>
      </trkpt>
      <trkpt lat="47.809626" lon="13.415252">
        <ele>483.849162</ele>
        <time>2024-09-08T10:18:13.000Z</time>
      </trkpt>
      <trkpt lat="47.809593" lon="13.415284">
        <ele>483.868899</ele>
        <time>2024-09-08T10:18:13.000Z</time>
      </trkpt>
      <trkpt lat="47.809528" lon="13.415347">
        <ele>483.91157</ele>
        <time>2024-09-08T10:18:14.000Z</time>
      </trkpt>
      <trkpt lat="47.809423" lon="13.415469">
        <ele>483.990894</ele>
        <time>2024-09-08T10:18:15.000Z</time>
      </trkpt>
      <trkpt lat="47.809017" lon="13.416225">
        <ele>484.347306</ele>
        <time>2024-09-08T10:18:22.000Z</time>
      </trkpt>
      <trkpt lat="47.808028" lon="13.417299">
        <ele>485.138419</ele>
        <time>2024-09-08T10:18:36.000Z</time>
      </trkpt>
      <trkpt lat="47.807622" lon="13.418542">
        <ele>485.849614</ele>
        <time>2024-09-08T10:18:46.000Z</time>
      </trkpt>
      <trkpt lat="47.80734" lon="13.419212">
        <ele>486.032373</ele>
        <time>2024-09-08T10:18:52.000Z</time>
      </trkpt>
      <trkpt lat="47.807015" lon="13.419765">
        <ele>485.869339</ele>
        <time>2024-09-08T10:18:57.000Z</time>
      </trkpt>
      <trkpt lat="47.806675" lon="13.420739">
        <ele>485.635652</ele>
        <time>2024-09-08T10:19:05.000Z</time>
      </trkpt>
      <trkpt lat="47.806287" lon="13.42255">
        <ele>485.046176</ele>
        <time>2024-09-08T10:19:19.000Z</time>
      </trkpt>
      <trkpt lat="47.806182" lon="13.422863">
        <ele>484.925027</ele>
        <time>2024-09-08T10:19:22.000Z</time>
      </trkpt>
      <trkpt lat="47.805981" lon="13.423829">
        <ele>484.660601</ele>
        <time>2024-09-08T10:19:30.000Z</time>
      </trkpt>
      <trkpt lat="47.80576" lon="13.425767">
        <ele>486.926756</ele>
        <time>2024-09-08T10:19:45.000Z</time>
      </trkpt>
      <trkpt lat="47.80575" lon="13.425992">
        <ele>487.169369</ele>
        <time>2024-09-08T10:19:47.000Z</time>
      </trkpt>
      <trkpt lat="47.80576" lon="13.426135">
        <ele>487.351258</ele>
        <time>2024-09-08T10:19:48.000Z</time>
      </trkpt>
      <trkpt lat="47.805858" lon="13.427379">
        <ele>490.665583</ele>
        <time>2024-09-08T10:19:57.000Z</time>
      </trkpt>
      <trkpt lat="47.805982" lon="13.428344">
        <ele>493.692598</ele>
        <time>2024-09-08T10:20:04.000Z</time>
      </trkpt>
      <trkpt lat="47.80597" lon="13.42873">
        <ele>494.904518</ele>
        <time>2024-09-08T10:20:07.000Z</time>
      </trkpt>
      <trkpt lat="47.805957" lon="13.428784">
        <ele>495.072286</ele>
        <time>2024-09-08T10:20:07.000Z</time>
      </trkpt>
      <trkpt lat="47.805943" lon="13.428926">
        <ele>495.52566</ele>
        <time>2024-09-08T10:20:08.000Z</time>
      </trkpt>
      <trkpt lat="47.805925" lon="13.429003">
        <ele>495.751218</ele>
        <time>2024-09-08T10:20:09.000Z</time>
      </trkpt>
      <trkpt lat="47.805844" lon="13.429401">
        <ele>496.15339</ele>
        <time>2024-09-08T10:20:12.000Z</time>
      </trkpt>
      <trkpt lat="47.805811" lon="13.429816">
        <ele>496.39749</ele>
        <time>2024-09-08T10:20:15.000Z</time>
      </trkpt>
      <trkpt lat="47.805822" lon="13.429881">
        <ele>496.433236</ele>
        <time>2024-09-08T10:20:16.000Z</time>
      </trkpt>
      <trkpt lat="47.805833" lon="13.430042">
        <ele>496.531247</ele>
        <time>2024-09-08T10:20:17.000Z</time>
      </trkpt>
      <trkpt lat="47.805841" lon="13.430317">
        <ele>496.69662</ele>
        <time>2024-09-08T10:20:19.000Z</time>
      </trkpt>
      <trkpt lat="47.805862" lon="13.430868">
        <ele>497.013733</ele>
        <time>2024-09-08T10:20:23.000Z</time>
      </trkpt>
      <trkpt lat="47.80586" lon="13.431014">
        <ele>497.105046</ele>
        <time>2024-09-08T10:20:24.000Z</time>
      </trkpt>
      <trkpt lat="47.805849" lon="13.431061">
        <ele>497.129831</ele>
        <time>2024-09-08T10:20:24.000Z</time>
      </trkpt>
      <trkpt lat="47.805815" lon="13.431218">
        <ele>497.226336</ele>
        <time>2024-09-08T10:20:25.000Z</time>
      </trkpt>
      <trkpt lat="47.805762" lon="13.431471">
        <ele>497.385275</ele>
        <time>2024-09-08T10:20:27.000Z</time>
      </trkpt>
      <trkpt lat="47.805754" lon="13.431531">
        <ele>497.421941</ele>
        <time>2024-09-08T10:20:27.000Z</time>
      </trkpt>
      <trkpt lat="47.805689" lon="13.431903">
        <ele>496.942884</ele>
        <time>2024-09-08T10:20:30.000Z</time>
      </trkpt>
      <trkpt lat="47.805683" lon="13.432028">
        <ele>496.590531</ele>
        <time>2024-09-08T10:20:31.000Z</time>
      </trkpt>
      <trkpt lat="47.805686" lon="13.432161">
        <ele>496.230547</ele>
        <time>2024-09-08T10:20:32.000Z</time>
      </trkpt>
      <trkpt lat="47.805782" lon="13.432997">
        <ele>493.959881</ele>
        <time>2024-09-08T10:20:38.000Z</time>
      </trkpt>
      <trkpt lat="47.805774" lon="13.434442">
        <ele>490.180534</ele>
        <time>2024-09-08T10:20:49.000Z</time>
      </trkpt>
      <trkpt lat="47.805757" lon="13.434687">
        <ele>489.869379</ele>
        <time>2024-09-08T10:20:51.000Z</time>
      </trkpt>
      <trkpt lat="47.805733" lon="13.434971">
        <ele>489.527278</ele>
        <time>2024-09-08T10:20:53.000Z</time>
      </trkpt>
      <trkpt lat="47.805747" lon="13.435919">
        <ele>488.337925</ele>
        <time>2024-09-08T10:21:00.000Z</time>
      </trkpt>
      <trkpt lat="47.805691" lon="13.436875">
        <ele>487.155182</ele>
        <time>2024-09-08T10:21:07.000Z</time>
      </trkpt>
      <trkpt lat="47.805793" lon="13.437351">
        <ele>486.962573</ele>
        <time>2024-09-08T10:21:11.000Z</time>
      </trkpt>
      <trkpt lat="47.805897" lon="13.437599">
        <ele>486.958499</ele>
        <time>2024-09-08T10:21:13.000Z</time>
      </trkpt>
      <trkpt lat="47.805941" lon="13.437704">
        <ele>486.956486</ele>
        <time>2024-09-08T10:21:14.000Z</time>
      </trkpt>
      <trkpt lat="47.806045" lon="13.438025">
        <ele>486.951541</ele>
        <time>2024-09-08T10:21:17.000Z</time>
      </trkpt>
      <trkpt lat="47.806074" lon="13.438355">
        <ele>486.946868</ele>
        <time>2024-09-08T10:21:19.000Z</time>
      </trkpt>
      <trkpt lat="47.805953" lon="13.439474">
        <ele>486.931054</ele>
        <time>2024-09-08T10:21:27.000Z</time>
      </trkpt>
      <trkpt lat="47.806048" lon="13.440529">
        <ele>486.465158</ele>
        <time>2024-09-08T10:21:35.000Z</time>
      </trkpt>
      <trkpt lat="47.80607" lon="13.440836">
        <ele>486.319118</ele>
        <time>2024-09-08T10:21:37.000Z</time>
      </trkpt>
      <trkpt lat="47.806082" lon="13.440876">
        <ele>486.301757</ele>
        <time>2024-09-08T10:21:37.000Z</time>
      </trkpt>
      <trkpt lat="47.806089" lon="13.441422">
        <ele>486.042747</ele>
        <time>2024-09-08T10:21:41.000Z</time>
      </trkpt>
      <trkpt lat="47.806067" lon="13.441751">
        <ele>485.883601</ele>
        <time>2024-09-08T10:21:43.000Z</time>
      </trkpt>
      <trkpt lat="47.806049" lon="13.442041">
        <ele>485.743581</ele>
        <time>2024-09-08T10:21:45.000Z</time>
      </trkpt>
      <trkpt lat="47.806016" lon="13.442519">
        <ele>485.496498</ele>
        <time>2024-09-08T10:21:49.000Z</time>
      </trkpt>
      <trkpt lat="47.806015" lon="13.442903">
        <ele>485.293299</ele>
        <time>2024-09-08T10:21:52.000Z</time>
      </trkpt>
      <trkpt lat="47.806008" lon="13.44297">
        <ele>485.256376</ele>
        <time>2024-09-08T10:21:53.000Z</time>
      </trkpt>
      <trkpt lat="47.806011" lon="13.443139">
        <ele>485.17515</ele>
        <time>2024-09-08T10:21:54.000Z</time>
      </trkpt>
      <trkpt lat="47.806033" lon="13.443877">
        <ele>484.780656</ele>
        <time>2024-09-08T10:22:00.000Z</time>
      </trkpt>
      <trkpt lat="47.80606" lon="13.444166">
        <ele>484.631443</ele>
        <time>2024-09-08T10:22:02.000Z</time>
      </trkpt>
      <trkpt lat="47.80614" lon="13.445012">
        <ele>484.242037</ele>
        <time>2024-09-08T10:22:08.000Z</time>
      </trkpt>
      <trkpt lat="47.806151" lon="13.445657">
        <ele>484.283767</ele>
        <time>2024-09-08T10:22:13.000Z</time>
      </trkpt>
      <trkpt lat="47.806119" lon="13.446128">
        <ele>484.314566</ele>
        <time>2024-09-08T10:22:17.000Z</time>
      </trkpt>
      <trkpt lat="47.806067" lon="13.446343">
        <ele>484.329098</ele>
        <time>2024-09-08T10:22:19.000Z</time>
      </trkpt>
      <trkpt lat="47.805889" lon="13.447165">
        <ele>484.384437</ele>
        <time>2024-09-08T10:22:25.000Z</time>
      </trkpt>
      <trkpt lat="47.805809" lon="13.447672">
        <ele>484.394308</ele>
        <time>2024-09-08T10:22:29.000Z</time>
      </trkpt>
      <trkpt lat="47.805756" lon="13.448004">
        <ele>484.369225</ele>
        <time>2024-09-08T10:22:32.000Z</time>
      </trkpt>
      <trkpt lat="47.805731" lon="13.448369">
        <ele>484.341983</ele>
        <time>2024-09-08T10:22:35.000Z</time>
      </trkpt>
      <trkpt lat="47.805716" lon="13.448402">
        <ele>484.338254</ele>
        <time>2024-09-08T10:22:35.000Z</time>
      </trkpt>
      <trkpt lat="47.805694" lon="13.448642">
        <ele>484.320393</ele>
        <time>2024-09-08T10:22:37.000Z</time>
      </trkpt>
      <trkpt lat="47.805515" lon="13.449199">
        <ele>484.27411</ele>
        <time>2024-09-08T10:22:42.000Z</time>
      </trkpt>
      <trkpt lat="47.805521" lon="13.449229">
        <ele>484.271643</ele>
        <time>2024-09-08T10:22:42.000Z</time>
      </trkpt>
      <trkpt lat="47.805512" lon="13.449257">
        <ele>484.270482</ele>
        <time>2024-09-08T10:22:42.000Z</time>
      </trkpt>
      <trkpt lat="47.805503" lon="13.449247">
        <ele>484.269913</ele>
        <time>2024-09-08T10:22:42.000Z</time>
      </trkpt>
      <trkpt lat="47.805441" lon="13.449487">
        <ele>484.250832</ele>
        <time>2024-09-08T10:22:44.000Z</time>
      </trkpt>
      <trkpt lat="47.805112" lon="13.450054">
        <ele>484.217046</ele>
        <time>2024-09-08T10:22:50.000Z</time>
      </trkpt>
      <trkpt lat="47.805028" lon="13.450195">
        <ele>484.232142</ele>
        <time>2024-09-08T10:22:51.000Z</time>
      </trkpt>
      <trkpt lat="47.804938" lon="13.450354">
        <ele>484.249419</ele>
        <time>2024-09-08T10:22:53.000Z</time>
      </trkpt>
      <trkpt lat="47.804862" lon="13.450502">
        <ele>484.264365</ele>
        <time>2024-09-08T10:22:54.000Z</time>
      </trkpt>
      <trkpt lat="47.804675" lon="13.45061">
        <ele>484.287525</ele>
        <time>2024-09-08T10:22:56.000Z</time>
      </trkpt>
      <trkpt lat="47.804533" lon="13.450639">
        <ele>484.305583</ele>
        <time>2024-09-08T10:22:58.000Z</time>
      </trkpt>
      <trkpt lat="47.804456" lon="13.450652">
        <ele>484.315257</ele>
        <time>2024-09-08T10:22:59.000Z</time>
      </trkpt>
      <trkpt lat="47.804417" lon="13.45067">
        <ele>484.319245</ele>
        <time>2024-09-08T10:22:59.000Z</time>
      </trkpt>
      <trkpt lat="47.804347" lon="13.450614">
        <ele>484.328323</ele>
        <time>2024-09-08T10:23:00.000Z</time>
      </trkpt>
      <trkpt lat="47.804273" lon="13.450601">
        <ele>484.337929</ele>
        <time>2024-09-08T10:23:01.000Z</time>
      </trkpt>
      <trkpt lat="47.804178" lon="13.450578">
        <ele>484.348667</ele>
        <time>2024-09-08T10:23:02.000Z</time>
      </trkpt>
      <trkpt lat="47.804069" lon="13.450594">
        <ele>484.361444</ele>
        <time>2024-09-08T10:23:03.000Z</time>
      </trkpt>
      <trkpt lat="47.803733" lon="13.450654">
        <ele>484.40295</ele>
        <time>2024-09-08T10:23:07.000Z</time>
      </trkpt>
      <trkpt lat="47.803662" lon="13.450675">
        <ele>484.411893</ele>
        <time>2024-09-08T10:23:08.000Z</time>
      </trkpt>
      <trkpt lat="47.803588" lon="13.450675">
        <ele>484.421283</ele>
        <time>2024-09-08T10:23:09.000Z</time>
      </trkpt>
      <trkpt lat="47.80356" lon="13.450659">
        <ele>484.445695</ele>
        <time>2024-09-08T10:23:09.000Z</time>
      </trkpt>
      <trkpt lat="47.803483" lon="13.45064">
        <ele>484.538838</ele>
        <time>2024-09-08T10:23:10.000Z</time>
      </trkpt>
      <trkpt lat="47.803413" lon="13.450557">
        <ele>484.642758</ele>
        <time>2024-09-08T10:23:11.000Z</time>
      </trkpt>
      <trkpt lat="47.803359" lon="13.450453">
        <ele>484.752939</ele>
        <time>2024-09-08T10:23:12.000Z</time>
      </trkpt>
      <trkpt lat="47.803324" lon="13.450322">
        <ele>484.86032</ele>
        <time>2024-09-08T10:23:13.000Z</time>
      </trkpt>
      <trkpt lat="47.803284" lon="13.450056">
        <ele>485.08052</ele>
        <time>2024-09-08T10:23:15.000Z</time>
      </trkpt>
      <trkpt lat="47.803265" lon="13.449848">
        <ele>485.253374</ele>
        <time>2024-09-08T10:23:17.000Z</time>
      </trkpt>
      <trkpt lat="47.802929" lon="13.449003">
        <ele>486.047611</ele>
        <time>2024-09-08T10:23:24.000Z</time>
      </trkpt>
      <trkpt lat="47.802861" lon="13.448585">
        <ele>486.386605</ele>
        <time>2024-09-08T10:23:27.000Z</time>
      </trkpt>
      <trkpt lat="47.802815" lon="13.44842">
        <ele>486.522272</ele>
        <time>2024-09-08T10:23:28.000Z</time>
      </trkpt>
      <trkpt lat="47.802768" lon="13.448224">
        <ele>486.641956</ele>
        <time>2024-09-08T10:23:30.000Z</time>
      </trkpt>
      <trkpt lat="47.802725" lon="13.448078">
        <ele>486.705489</ele>
        <time>2024-09-08T10:23:31.000Z</time>
      </trkpt>
      <trkpt lat="47.802634" lon="13.447793">
        <ele>486.845785</ele>
        <time>2024-09-08T10:23:33.000Z</time>
      </trkpt>
      <trkpt lat="47.802559" lon="13.447574">
        <ele>486.948682</ele>
        <time>2024-09-08T10:23:35.000Z</time>
      </trkpt>
      <trkpt lat="47.802209" lon="13.44681">
        <ele>487.344942</ele>
        <time>2024-09-08T10:23:42.000Z</time>
      </trkpt>
      <trkpt lat="47.802119" lon="13.445961">
        <ele>487.714364</ele>
        <time>2024-09-08T10:23:48.000Z</time>
      </trkpt>
      <trkpt lat="47.801915" lon="13.445268">
        <ele>487.505412</ele>
        <time>2024-09-08T10:23:54.000Z</time>
      </trkpt>
      <trkpt lat="47.801904" lon="13.444952">
        <ele>487.413649</ele>
        <time>2024-09-08T10:23:56.000Z</time>
      </trkpt>
      <trkpt lat="47.801981" lon="13.44435">
        <ele>487.22886</ele>
        <time>2024-09-08T10:24:01.000Z</time>
      </trkpt>
      <trkpt lat="47.802039" lon="13.444063">
        <ele>487.143891</ele>
        <time>2024-09-08T10:24:03.000Z</time>
      </trkpt>
      <trkpt lat="47.802224" lon="13.443499">
        <ele>486.956722</ele>
        <time>2024-09-08T10:24:08.000Z</time>
      </trkpt>
      <trkpt lat="47.80228" lon="13.443302">
        <ele>486.914854</ele>
        <time>2024-09-08T10:24:10.000Z</time>
      </trkpt>
      <trkpt lat="47.802356" lon="13.442702">
        <ele>486.831346</ele>
        <time>2024-09-08T10:24:15.000Z</time>
      </trkpt>
      <trkpt lat="47.802263" lon="13.442139">
        <ele>486.751813</ele>
        <time>2024-09-08T10:24:19.000Z</time>
      </trkpt>
      <trkpt lat="47.801879" lon="13.440371">
        <ele>487.050244</ele>
        <time>2024-09-08T10:24:33.000Z</time>
      </trkpt>
      <trkpt lat="47.801464" lon="13.439243">
        <ele>488.287163</ele>
        <time>2024-09-08T10:24:43.000Z</time>
      </trkpt>
      <trkpt lat="47.80135" lon="13.438932">
        <ele>488.623959</ele>
        <time>2024-09-08T10:24:46.000Z</time>
      </trkpt>
      <trkpt lat="47.801092" lon="13.438114">
        <ele>489.617725</ele>
        <time>2024-09-08T10:24:53.000Z</time>
      </trkpt>
      <trkpt lat="47.801005" lon="13.4379">
        <ele>489.923858</ele>
        <time>2024-09-08T10:24:55.000Z</time>
      </trkpt>
      <trkpt lat="47.800722" lon="13.437315">
        <ele>490.815631</ele>
        <time>2024-09-08T10:25:00.000Z</time>
      </trkpt>
      <trkpt lat="47.800662" lon="13.437235">
        <ele>490.963726</ele>
        <time>2024-09-08T10:25:01.000Z</time>
      </trkpt>
      <trkpt lat="47.800597" lon="13.437091">
        <ele>491.166453</ele>
        <time>2024-09-08T10:25:02.000Z</time>
      </trkpt>
      <trkpt lat="47.800589" lon="13.437091">
        <ele>491.190559</ele>
        <time>2024-09-08T10:25:02.000Z</time>
      </trkpt>
      <trkpt lat="47.800487" lon="13.436811">
        <ele>491.585472</ele>
        <time>2024-09-08T10:25:04.000Z</time>
      </trkpt>
      <trkpt lat="47.800322" lon="13.4362">
        <ele>492.415023</ele>
        <time>2024-09-08T10:25:09.000Z</time>
      </trkpt>
      <trkpt lat="47.800087" lon="13.434742">
        <ele>493.118877</ele>
        <time>2024-09-08T10:25:20.000Z</time>
      </trkpt>
      <trkpt lat="47.800078" lon="13.433668">
        <ele>493.591979</ele>
        <time>2024-09-08T10:25:28.000Z</time>
      </trkpt>
      <trkpt lat="47.799907" lon="13.432897">
        <ele>493.722026</ele>
        <time>2024-09-08T10:25:34.000Z</time>
      </trkpt>
      <trkpt lat="47.799876" lon="13.432552">
        <ele>493.75303</ele>
        <time>2024-09-08T10:25:37.000Z</time>
      </trkpt>
      <trkpt lat="47.799914" lon="13.432349">
        <ele>493.770691</ele>
        <time>2024-09-08T10:25:39.000Z</time>
      </trkpt>
      <trkpt lat="47.80008" lon="13.431677">
        <ele>493.831767</ele>
        <time>2024-09-08T10:25:44.000Z</time>
      </trkpt>
      <trkpt lat="47.800178" lon="13.430931">
        <ele>493.892923</ele>
        <time>2024-09-08T10:25:50.000Z</time>
      </trkpt>
      <trkpt lat="47.800284" lon="13.428552">
        <ele>492.231916</ele>
        <time>2024-09-08T10:26:08.000Z</time>
      </trkpt>
      <trkpt lat="47.80029" lon="13.428278">
        <ele>492.040669</ele>
        <time>2024-09-08T10:26:10.000Z</time>
      </trkpt>
      <trkpt lat="47.800351" lon="13.427913">
        <ele>491.633533</ele>
        <time>2024-09-08T10:26:13.000Z</time>
      </trkpt>
      <trkpt lat="47.800391" lon="13.427688">
        <ele>491.37311</ele>
        <time>2024-09-08T10:26:15.000Z</time>
      </trkpt>
      <trkpt lat="47.800579" lon="13.426703">
        <ele>490.232027</ele>
        <time>2024-09-08T10:26:23.000Z</time>
      </trkpt>
      <trkpt lat="47.800651" lon="13.426066">
        <ele>489.527298</ele>
        <time>2024-09-08T10:26:28.000Z</time>
      </trkpt>
      <trkpt lat="47.800624" lon="13.425715">
        <ele>489.128719</ele>
        <time>2024-09-08T10:26:31.000Z</time>
      </trkpt>
      <trkpt lat="47.800585" lon="13.425555">
        <ele>489.232947</ele>
        <time>2024-09-08T10:26:32.000Z</time>
      </trkpt>
      <trkpt lat="47.80051" lon="13.425348">
        <ele>489.605669</ele>
        <time>2024-09-08T10:26:34.000Z</time>
      </trkpt>
      <trkpt lat="47.800362" lon="13.424991">
        <ele>490.314344</ele>
        <time>2024-09-08T10:26:37.000Z</time>
      </trkpt>
      <trkpt lat="47.800186" lon="13.424645">
        <ele>491.022199</ele>
        <time>2024-09-08T10:26:40.000Z</time>
      </trkpt>
      <trkpt lat="47.799819" lon="13.423908">
        <ele>492.557618</ele>
        <time>2024-09-08T10:26:47.000Z</time>
      </trkpt>
      <trkpt lat="47.79963" lon="13.423526">
        <ele>493.349007</ele>
        <time>2024-09-08T10:26:51.000Z</time>
      </trkpt>
      <trkpt lat="47.799507" lon="13.423203">
        <ele>494.415345</ele>
        <time>2024-09-08T10:26:54.000Z</time>
      </trkpt>
      <trkpt lat="47.79938" lon="13.422747">
        <ele>495.98782</ele>
        <time>2024-09-08T10:26:58.000Z</time>
      </trkpt>
      <trkpt lat="47.799379" lon="13.422629">
        <ele>496.362691</ele>
        <time>2024-09-08T10:26:59.000Z</time>
      </trkpt>
      <trkpt lat="47.79925" lon="13.422171">
        <ele>497.922743</ele>
        <time>2024-09-08T10:27:03.000Z</time>
      </trkpt>
      <trkpt lat="47.799269" lon="13.42116">
        <ele>501.16018</ele>
        <time>2024-09-08T10:27:11.000Z</time>
      </trkpt>
      <trkpt lat="47.799204" lon="13.420903">
        <ele>502.010564</ele>
        <time>2024-09-08T10:27:13.000Z</time>
      </trkpt>
      <trkpt lat="47.799082" lon="13.420454">
        <ele>502.601453</ele>
        <time>2024-09-08T10:27:17.000Z</time>
      </trkpt>
      <trkpt lat="47.799025" lon="13.420328">
        <ele>502.777108</ele>
        <time>2024-09-08T10:27:18.000Z</time>
      </trkpt>
      <trkpt lat="47.798874" lon="13.419193">
        <ele>504.193959</ele>
        <time>2024-09-08T10:27:27.000Z</time>
      </trkpt>
      <trkpt lat="47.798745" lon="13.418358">
        <ele>505.237147</ele>
        <time>2024-09-08T10:27:33.000Z</time>
      </trkpt>
      <trkpt lat="47.798732" lon="13.417393">
        <ele>504.963148</ele>
        <time>2024-09-08T10:27:40.000Z</time>
      </trkpt>
      <trkpt lat="47.798703" lon="13.417246">
        <ele>504.910122</ele>
        <time>2024-09-08T10:27:41.000Z</time>
      </trkpt>
      <trkpt lat="47.798462" lon="13.417192">
        <ele>504.795139</ele>
        <time>2024-09-08T10:27:44.000Z</time>
      </trkpt>
      <trkpt lat="47.798359" lon="13.416817">
        <ele>504.65707</ele>
        <time>2024-09-08T10:27:47.000Z</time>
      </trkpt>
      <trkpt lat="47.798441" lon="13.416245">
        <ele>504.463243</ele>
        <time>2024-09-08T10:27:51.000Z</time>
      </trkpt>
      <trkpt lat="47.798265" lon="13.415869">
        <ele>504.283708</ele>
        <time>2024-09-08T10:27:54.000Z</time>
      </trkpt>
      <trkpt lat="47.798272" lon="13.415147">
        <ele>503.911322</ele>
        <time>2024-09-08T10:27:59.000Z</time>
      </trkpt>
      <trkpt lat="47.798392" lon="13.414128">
        <ele>503.390335</ele>
        <time>2024-09-08T10:28:07.000Z</time>
      </trkpt>
      <trkpt lat="47.79852" lon="13.413559">
        <ele>503.08863</ele>
        <time>2024-09-08T10:28:11.000Z</time>
      </trkpt>
      <trkpt lat="47.798539" lon="13.412986">
        <ele>502.786233</ele>
        <time>2024-09-08T10:28:15.000Z</time>
      </trkpt>
      <trkpt lat="47.798438" lon="13.412243">
        <ele>502.378912</ele>
        <time>2024-09-08T10:28:21.000Z</time>
      </trkpt>
      <trkpt lat="47.798722" lon="13.410909">
        <ele>501.632539</ele>
        <time>2024-09-08T10:28:31.000Z</time>
      </trkpt>
      <trkpt lat="47.798649" lon="13.410057">
        <ele>500.731032</ele>
        <time>2024-09-08T10:28:37.000Z</time>
      </trkpt>
      <trkpt lat="47.798664" lon="13.408989">
        <ele>499.572189</ele>
        <time>2024-09-08T10:28:45.000Z</time>
      </trkpt>
      <trkpt lat="47.798504" lon="13.408567">
        <ele>499.037382</ele>
        <time>2024-09-08T10:28:49.000Z</time>
      </trkpt>
      <trkpt lat="47.798233" lon="13.407406">
        <ele>495.81542</ele>
        <time>2024-09-08T10:28:58.000Z</time>
      </trkpt>
      <trkpt lat="47.798241" lon="13.407107">
        <ele>494.868488</ele>
        <time>2024-09-08T10:29:00.000Z</time>
      </trkpt>
      <trkpt lat="47.798259" lon="13.406863">
        <ele>494.097333</ele>
        <time>2024-09-08T10:29:02.000Z</time>
      </trkpt>
      <trkpt lat="47.798308" lon="13.406728">
        <ele>493.574449</ele>
        <time>2024-09-08T10:29:03.000Z</time>
      </trkpt>
      <trkpt lat="47.798435" lon="13.40638">
        <ele>492.349277</ele>
        <time>2024-09-08T10:29:06.000Z</time>
      </trkpt>
      <trkpt lat="47.798448" lon="13.40629">
        <ele>492.057775</ele>
        <time>2024-09-08T10:29:07.000Z</time>
      </trkpt>
      <trkpt lat="47.79855" lon="13.406178">
        <ele>491.415961</ele>
        <time>2024-09-08T10:29:08.000Z</time>
      </trkpt>
      <trkpt lat="47.798713" lon="13.406032">
        <ele>490.521924</ele>
        <time>2024-09-08T10:29:10.000Z</time>
      </trkpt>
      <trkpt lat="47.799122" lon="13.405587">
        <ele>488.721083</ele>
        <time>2024-09-08T10:29:16.000Z</time>
      </trkpt>
      <trkpt lat="47.799194" lon="13.405444">
        <ele>488.283197</ele>
        <time>2024-09-08T10:29:17.000Z</time>
      </trkpt>
      <trkpt lat="47.799265" lon="13.405203">
        <ele>487.706089</ele>
        <time>2024-09-08T10:29:19.000Z</time>
      </trkpt>
      <trkpt lat="47.799528" lon="13.402561">
        <ele>483.498102</ele>
        <time>2024-09-08T10:29:39.000Z</time>
      </trkpt>
      <trkpt lat="47.799514" lon="13.402213">
        <ele>483.308145</ele>
        <time>2024-09-08T10:29:42.000Z</time>
      </trkpt>
      <trkpt lat="47.799513" lon="13.402049">
        <ele>483.224593</ele>
        <time>2024-09-08T10:29:43.000Z</time>
      </trkpt>
      <trkpt lat="47.799498" lon="13.401984">
        <ele>483.185454</ele>
        <time>2024-09-08T10:29:44.000Z</time>
      </trkpt>
      <trkpt lat="47.799462" lon="13.401682">
        <ele>483.022408</ele>
        <time>2024-09-08T10:29:46.000Z</time>
      </trkpt>
      <trkpt lat="47.799298" lon="13.400981">
        <ele>482.63747</ele>
        <time>2024-09-08T10:29:52.000Z</time>
      </trkpt>
      <trkpt lat="47.799135" lon="13.400594">
        <ele>482.738776</ele>
        <time>2024-09-08T10:29:55.000Z</time>
      </trkpt>
      <trkpt lat="47.79878" lon="13.399959">
        <ele>482.920616</ele>
        <time>2024-09-08T10:30:01.000Z</time>
      </trkpt>
      <trkpt lat="47.797683" lon="13.398498">
        <ele>483.394552</ele>
        <time>2024-09-08T10:30:17.000Z</time>
      </trkpt>
      <trkpt lat="47.797696" lon="13.398325">
        <ele>483.43047</ele>
        <time>2024-09-08T10:30:18.000Z</time>
      </trkpt>
      <trkpt lat="47.798545" lon="13.396864">
        <ele>483.826311</ele>
        <time>2024-09-08T10:30:32.000Z</time>
      </trkpt>
      <trkpt lat="47.798674" lon="13.396505">
        <ele>483.916504</ele>
        <time>2024-09-08T10:30:35.000Z</time>
      </trkpt>
      <trkpt lat="47.798801" lon="13.395875">
        <ele>484.058595</ele>
        <time>2024-09-08T10:30:40.000Z</time>
      </trkpt>
      <trkpt lat="47.798858" lon="13.395517">
        <ele>484.138569</ele>
        <time>2024-09-08T10:30:43.000Z</time>
      </trkpt>
      <trkpt lat="47.798927" lon="13.394908">
        <ele>484.270651</ele>
        <time>2024-09-08T10:30:48.000Z</time>
      </trkpt>
      <trkpt lat="47.799076" lon="13.394184">
        <ele>484.602875</ele>
        <time>2024-09-08T10:30:54.000Z</time>
      </trkpt>
      <trkpt lat="47.799657" lon="13.392757">
        <ele>485.697233</ele>
        <time>2024-09-08T10:31:06.000Z</time>
      </trkpt>
      <trkpt lat="47.799905" lon="13.392149">
        <ele>486.352089</ele>
        <time>2024-09-08T10:31:11.000Z</time>
      </trkpt>
      <trkpt lat="47.799985" lon="13.391956">
        <ele>486.967702</ele>
        <time>2024-09-08T10:31:13.000Z</time>
      </trkpt>
      <trkpt lat="47.800067" lon="13.39183">
        <ele>487.430683</ele>
        <time>2024-09-08T10:31:14.000Z</time>
      </trkpt>
      <trkpt lat="47.800097" lon="13.391764">
        <ele>487.649125</ele>
        <time>2024-09-08T10:31:15.000Z</time>
      </trkpt>
      <trkpt lat="47.800178" lon="13.391622">
        <ele>488.101852</ele>
        <time>2024-09-08T10:31:16.000Z</time>
      </trkpt>
      <trkpt lat="47.800183" lon="13.3916">
        <ele>488.191076</ele>
        <time>2024-09-08T10:31:16.000Z</time>
      </trkpt>
      <trkpt lat="47.800779" lon="13.390522">
        <ele>491.923245</ele>
        <time>2024-09-08T10:31:26.000Z</time>
      </trkpt>
      <trkpt lat="47.800951" lon="13.38998">
        <ele>493.706704</ele>
        <time>2024-09-08T10:31:30.000Z</time>
      </trkpt>
      <trkpt lat="47.801028" lon="13.389474">
        <ele>495.796314</ele>
        <time>2024-09-08T10:31:34.000Z</time>
      </trkpt>
      <trkpt lat="47.801044" lon="13.389264">
        <ele>496.740775</ele>
        <time>2024-09-08T10:31:36.000Z</time>
      </trkpt>
      <trkpt lat="47.801046" lon="13.389157">
        <ele>497.135432</ele>
        <time>2024-09-08T10:31:37.000Z</time>
      </trkpt>
      <trkpt lat="47.801133" lon="13.388585">
        <ele>499.56665</ele>
        <time>2024-09-08T10:31:41.000Z</time>
      </trkpt>
      <trkpt lat="47.801174" lon="13.388459">
        <ele>500.192841</ele>
        <time>2024-09-08T10:31:42.000Z</time>
      </trkpt>
      <trkpt lat="47.801228" lon="13.388305">
        <ele>500.886453</ele>
        <time>2024-09-08T10:31:43.000Z</time>
      </trkpt>
      <trkpt lat="47.801254" lon="13.388213">
        <ele>501.331117</ele>
        <time>2024-09-08T10:31:44.000Z</time>
      </trkpt>
      <trkpt lat="47.801344" lon="13.388025">
        <ele>502.309603</ele>
        <time>2024-09-08T10:31:46.000Z</time>
      </trkpt>
      <trkpt lat="47.801386" lon="13.387881">
        <ele>502.934074</ele>
        <time>2024-09-08T10:31:47.000Z</time>
      </trkpt>
      <trkpt lat="47.801429" lon="13.387768">
        <ele>503.449491</ele>
        <time>2024-09-08T10:31:48.000Z</time>
      </trkpt>
      <trkpt lat="47.801426" lon="13.387724">
        <ele>503.605014</ele>
        <time>2024-09-08T10:31:48.000Z</time>
      </trkpt>
      <trkpt lat="47.80149" lon="13.387327">
        <ele>504.547718</ele>
        <time>2024-09-08T10:31:51.000Z</time>
      </trkpt>
      <trkpt lat="47.801483" lon="13.387238">
        <ele>504.603568</ele>
        <time>2024-09-08T10:31:52.000Z</time>
      </trkpt>
      <trkpt lat="47.80148" lon="13.386897">
        <ele>504.830408</ele>
        <time>2024-09-08T10:31:55.000Z</time>
      </trkpt>
      <trkpt lat="47.801497" lon="13.386445">
        <ele>505.131206</ele>
        <time>2024-09-08T10:31:58.000Z</time>
      </trkpt>
      <trkpt lat="47.801603" lon="13.385928">
        <ele>505.492762</ele>
        <time>2024-09-08T10:32:02.000Z</time>
      </trkpt>
      <trkpt lat="47.801648" lon="13.385825">
        <ele>505.575693</ele>
        <time>2024-09-08T10:32:03.000Z</time>
      </trkpt>
      <trkpt lat="47.801686" lon="13.385747">
        <ele>505.628142</ele>
        <time>2024-09-08T10:32:04.000Z</time>
      </trkpt>
      <trkpt lat="47.801786" lon="13.385563">
        <ele>505.788352</ele>
        <time>2024-09-08T10:32:06.000Z</time>
      </trkpt>
      <trkpt lat="47.80186" lon="13.385461">
        <ele>505.884618</ele>
        <time>2024-09-08T10:32:07.000Z</time>
      </trkpt>
      <trkpt lat="47.802488" lon="13.38474">
        <ele>505.254844</ele>
        <time>2024-09-08T10:32:16.000Z</time>
      </trkpt>
      <trkpt lat="47.802754" lon="13.384265">
        <ele>504.47137</ele>
        <time>2024-09-08T10:32:21.000Z</time>
      </trkpt>
      <trkpt lat="47.802997" lon="13.383534">
        <ele>503.467078</ele>
        <time>2024-09-08T10:32:27.000Z</time>
      </trkpt>
      <trkpt lat="47.803183" lon="13.383059">
        <ele>502.895581</ele>
        <time>2024-09-08T10:32:31.000Z</time>
      </trkpt>
      <trkpt lat="47.803909" lon="13.382158">
        <ele>503.511935</ele>
        <time>2024-09-08T10:32:42.000Z</time>
      </trkpt>
      <trkpt lat="47.804029" lon="13.381943">
        <ele>503.640207</ele>
        <time>2024-09-08T10:32:44.000Z</time>
      </trkpt>
      <trkpt lat="47.80407" lon="13.381847">
        <ele>503.686113</ele>
        <time>2024-09-08T10:32:45.000Z</time>
      </trkpt>
      <trkpt lat="47.804151" lon="13.381697">
        <ele>503.773114</ele>
        <time>2024-09-08T10:32:46.000Z</time>
      </trkpt>
      <trkpt lat="47.804201" lon="13.381545">
        <ele>503.849866</ele>
        <time>2024-09-08T10:32:47.000Z</time>
      </trkpt>
      <trkpt lat="47.804239" lon="13.381446">
        <ele>503.90127</ele>
        <time>2024-09-08T10:32:48.000Z</time>
      </trkpt>
      <trkpt lat="47.804389" lon="13.381115">
        <ele>503.998218</ele>
        <time>2024-09-08T10:32:51.000Z</time>
      </trkpt>
      <trkpt lat="47.804487" lon="13.380905">
        <ele>503.758899</ele>
        <time>2024-09-08T10:32:53.000Z</time>
      </trkpt>
      <trkpt lat="47.804619" lon="13.380681">
        <ele>503.494478</ele>
        <time>2024-09-08T10:32:55.000Z</time>
      </trkpt>
      <trkpt lat="47.805135" lon="13.379973">
        <ele>502.543828</ele>
        <time>2024-09-08T10:33:03.000Z</time>
      </trkpt>
      <trkpt lat="47.806011" lon="13.379132">
        <ele>501.444566</ele>
        <time>2024-09-08T10:33:15.000Z</time>
      </trkpt>
      <trkpt lat="47.80609" lon="13.379036">
        <ele>501.399463</ele>
        <time>2024-09-08T10:33:16.000Z</time>
      </trkpt>
      <trkpt lat="47.806146" lon="13.378972">
        <ele>501.367954</ele>
        <time>2024-09-08T10:33:17.000Z</time>
      </trkpt>
      <trkpt lat="47.806243" lon="13.37877">
        <ele>501.28413</ele>
        <time>2024-09-08T10:33:19.000Z</time>
      </trkpt>
      <trkpt lat="47.806289" lon="13.378662">
        <ele>501.242804</ele>
        <time>2024-09-08T10:33:20.000Z</time>
      </trkpt>
      <trkpt lat="47.806338" lon="13.378449">
        <ele>501.174011</ele>
        <time>2024-09-08T10:33:22.000Z</time>
      </trkpt>
      <trkpt lat="47.80637" lon="13.378391">
        <ele>501.150522</ele>
        <time>2024-09-08T10:33:23.000Z</time>
      </trkpt>
      <trkpt lat="47.806409" lon="13.378186">
        <ele>501.079968</ele>
        <time>2024-09-08T10:33:25.000Z</time>
      </trkpt>
      <trkpt lat="47.806459" lon="13.378029">
        <ele>501.024228</ele>
        <time>2024-09-08T10:33:26.000Z</time>
      </trkpt>
      <trkpt lat="47.806502" lon="13.377786">
        <ele>500.945352</ele>
        <time>2024-09-08T10:33:28.000Z</time>
      </trkpt>
      <trkpt lat="47.806728" lon="13.377168">
        <ele>500.916695</ele>
        <time>2024-09-08T10:33:33.000Z</time>
      </trkpt>
      <trkpt lat="47.807497" lon="13.375955">
        <ele>503.068057</ele>
        <time>2024-09-08T10:33:45.000Z</time>
      </trkpt>
      <trkpt lat="47.807883" lon="13.37507">
        <ele>504.412682</ele>
        <time>2024-09-08T10:33:53.000Z</time>
      </trkpt>
      <trkpt lat="47.807993" lon="13.37488">
        <ele>504.712118</ele>
        <time>2024-09-08T10:33:55.000Z</time>
      </trkpt>
      <trkpt lat="47.808079" lon="13.374741">
        <ele>504.931459</ele>
        <time>2024-09-08T10:33:56.000Z</time>
      </trkpt>
      <trkpt lat="47.808357" lon="13.374432">
        <ele>505.560258</ele>
        <time>2024-09-08T10:34:00.000Z</time>
      </trkpt>
      <trkpt lat="47.808479" lon="13.374306">
        <ele>505.821095</ele>
        <time>2024-09-08T10:34:02.000Z</time>
      </trkpt>
      <trkpt lat="47.808975" lon="13.373829">
        <ele>506.853178</ele>
        <time>2024-09-08T10:34:09.000Z</time>
      </trkpt>
      <trkpt lat="47.809497" lon="13.373172">
        <ele>507.875363</ele>
        <time>2024-09-08T10:34:17.000Z</time>
      </trkpt>
      <trkpt lat="47.809587" lon="13.373064">
        <ele>508.002309</ele>
        <time>2024-09-08T10:34:18.000Z</time>
      </trkpt>
      <trkpt lat="47.809625" lon="13.372987">
        <ele>508.096367</ele>
        <time>2024-09-08T10:34:19.000Z</time>
      </trkpt>
      <trkpt lat="47.80989" lon="13.372604">
        <ele>508.565403</ele>
        <time>2024-09-08T10:34:23.000Z</time>
      </trkpt>
      <trkpt lat="47.810185" lon="13.372159">
        <ele>509.083693</ele>
        <time>2024-09-08T10:34:28.000Z</time>
      </trkpt>
      <trkpt lat="47.810384" lon="13.371966">
        <ele>509.363281</ele>
        <time>2024-09-08T10:34:31.000Z</time>
      </trkpt>
      <trkpt lat="47.810693" lon="13.371728">
        <ele>509.237376</ele>
        <time>2024-09-08T10:34:35.000Z</time>
      </trkpt>
      <trkpt lat="47.810761" lon="13.37166">
        <ele>509.024404</ele>
        <time>2024-09-08T10:34:36.000Z</time>
      </trkpt>
      <trkpt lat="47.811165" lon="13.371219">
        <ele>507.479652</ele>
        <time>2024-09-08T10:34:42.000Z</time>
      </trkpt>
      <trkpt lat="47.812018" lon="13.370593">
        <ele>504.589087</ele>
        <time>2024-09-08T10:34:53.000Z</time>
      </trkpt>
      <trkpt lat="47.812533" lon="13.369872">
        <ele>501.73782</ele>
        <time>2024-09-08T10:35:01.000Z</time>
      </trkpt>
      <trkpt lat="47.812548" lon="13.369837">
        <ele>501.599392</ele>
        <time>2024-09-08T10:35:01.000Z</time>
      </trkpt>
      <trkpt lat="47.812613" lon="13.369744">
        <ele>501.200689</ele>
        <time>2024-09-08T10:35:02.000Z</time>
      </trkpt>
      <trkpt lat="47.812654" lon="13.36966">
        <ele>500.867196</ele>
        <time>2024-09-08T10:35:03.000Z</time>
      </trkpt>
      <trkpt lat="47.812847" lon="13.369438">
        <ele>499.817568</ele>
        <time>2024-09-08T10:35:06.000Z</time>
      </trkpt>
      <trkpt lat="47.81352" lon="13.368885">
        <ele>496.462134</ele>
        <time>2024-09-08T10:35:15.000Z</time>
      </trkpt>
      <trkpt lat="47.813569" lon="13.368832">
        <ele>496.310834</ele>
        <time>2024-09-08T10:35:16.000Z</time>
      </trkpt>
      <trkpt lat="47.813631" lon="13.368763">
        <ele>496.250335</ele>
        <time>2024-09-08T10:35:17.000Z</time>
      </trkpt>
      <trkpt lat="47.813795" lon="13.368494">
        <ele>496.039314</ele>
        <time>2024-09-08T10:35:20.000Z</time>
      </trkpt>
      <trkpt lat="47.813958" lon="13.368115">
        <ele>495.789196</ele>
        <time>2024-09-08T10:35:23.000Z</time>
      </trkpt>
      <trkpt lat="47.813976" lon="13.367976">
        <ele>495.706853</ele>
        <time>2024-09-08T10:35:24.000Z</time>
      </trkpt>
      <trkpt lat="47.814035" lon="13.367802">
        <ele>495.597619</ele>
        <time>2024-09-08T10:35:25.000Z</time>
      </trkpt>
      <trkpt lat="47.814354" lon="13.366253">
        <ele>494.751427</ele>
        <time>2024-09-08T10:35:37.000Z</time>
      </trkpt>
      <trkpt lat="47.814383" lon="13.366131">
        <ele>494.712608</ele>
        <time>2024-09-08T10:35:38.000Z</time>
      </trkpt>
      <trkpt lat="47.814453" lon="13.365967">
        <ele>494.65709</ele>
        <time>2024-09-08T10:35:39.000Z</time>
      </trkpt>
      <trkpt lat="47.814854" lon="13.365365">
        <ele>494.422093</ele>
        <time>2024-09-08T10:35:45.000Z</time>
      </trkpt>
      <trkpt lat="47.815469" lon="13.364813">
        <ele>494.124476</ele>
        <time>2024-09-08T10:35:53.000Z</time>
      </trkpt>
      <trkpt lat="47.81557" lon="13.364751">
        <ele>494.08212</ele>
        <time>2024-09-08T10:35:54.000Z</time>
      </trkpt>
      <trkpt lat="47.815669" lon="13.36467">
        <ele>493.93329</ele>
        <time>2024-09-08T10:35:55.000Z</time>
      </trkpt>
      <trkpt lat="47.815723" lon="13.364626">
        <ele>493.838736</ele>
        <time>2024-09-08T10:35:56.000Z</time>
      </trkpt>
      <trkpt lat="47.815827" lon="13.36455">
        <ele>493.683113</ele>
        <time>2024-09-08T10:35:57.000Z</time>
      </trkpt>
      <trkpt lat="47.816077" lon="13.364377">
        <ele>493.304924</ele>
        <time>2024-09-08T10:36:00.000Z</time>
      </trkpt>
      <trkpt lat="47.816082" lon="13.364292">
        <ele>493.223045</ele>
        <time>2024-09-08T10:36:01.000Z</time>
      </trkpt>
      <trkpt lat="47.81619" lon="13.364212">
        <ele>493.048367</ele>
        <time>2024-09-08T10:36:02.000Z</time>
      </trkpt>
      <trkpt lat="47.816654" lon="13.363885">
        <ele>492.324667</ele>
        <time>2024-09-08T10:36:08.000Z</time>
      </trkpt>
      <trkpt lat="47.816907" lon="13.363691">
        <ele>491.920216</ele>
        <time>2024-09-08T10:36:11.000Z</time>
      </trkpt>
      <trkpt lat="47.817193" lon="13.363485">
        <ele>491.438581</ele>
        <time>2024-09-08T10:36:15.000Z</time>
      </trkpt>
      <trkpt lat="47.817693" lon="13.363108">
        <ele>490.064008</ele>
        <time>2024-09-08T10:36:21.000Z</time>
      </trkpt>
      <trkpt lat="47.817812" lon="13.363038">
        <ele>489.757316</ele>
        <time>2024-09-08T10:36:22.000Z</time>
      </trkpt>
      <trkpt lat="47.818024" lon="13.362873">
        <ele>489.159583</ele>
        <time>2024-09-08T10:36:25.000Z</time>
      </trkpt>
      <trkpt lat="47.818746" lon="13.362337">
        <ele>487.190924</ele>
        <time>2024-09-08T10:36:34.000Z</time>
      </trkpt>
      <trkpt lat="47.81978" lon="13.361529">
        <ele>484.860332</ele>
        <time>2024-09-08T10:36:47.000Z</time>
      </trkpt>
      <trkpt lat="47.820002" lon="13.361336">
        <ele>484.341385</ele>
        <time>2024-09-08T10:36:50.000Z</time>
      </trkpt>
      <trkpt lat="47.822903" lon="13.359019">
        <ele>483.01816</ele>
        <time>2024-09-08T10:37:27.000Z</time>
      </trkpt>
      <trkpt lat="47.823709" lon="13.35835">
        <ele>482.97924</ele>
        <time>2024-09-08T10:37:37.000Z</time>
      </trkpt>
      <trkpt lat="47.824025" lon="13.358102">
        <ele>483.000368</ele>
        <time>2024-09-08T10:37:41.000Z</time>
      </trkpt>
      <trkpt lat="47.824216" lon="13.357959">
        <ele>483.014066</ele>
        <time>2024-09-08T10:37:43.000Z</time>
      </trkpt>
      <trkpt lat="47.82438" lon="13.357808">
        <ele>483.025965</ele>
        <time>2024-09-08T10:37:45.000Z</time>
      </trkpt>
      <trkpt lat="47.826243" lon="13.356268">
        <ele>483.395842</ele>
        <time>2024-09-08T10:38:09.000Z</time>
      </trkpt>
      <trkpt lat="47.826627" lon="13.355976">
        <ele>483.499953</ele>
        <time>2024-09-08T10:38:14.000Z</time>
      </trkpt>
      <trkpt lat="47.826787" lon="13.355861">
        <ele>483.634183</ele>
        <time>2024-09-08T10:38:16.000Z</time>
      </trkpt>
      <trkpt lat="47.827132" lon="13.355646">
        <ele>484.020299</ele>
        <time>2024-09-08T10:38:20.000Z</time>
      </trkpt>
      <trkpt lat="47.827306" lon="13.355537">
        <ele>484.209231</ele>
        <time>2024-09-08T10:38:22.000Z</time>
      </trkpt>
      <trkpt lat="47.827375" lon="13.355478">
        <ele>484.296926</ele>
        <time>2024-09-08T10:38:23.000Z</time>
      </trkpt>
      <trkpt lat="47.828329" lon="13.354909">
        <ele>485.337343</ele>
        <time>2024-09-08T10:38:34.000Z</time>
      </trkpt>
      <trkpt lat="47.829581" lon="13.354283">
        <ele>487.425067</ele>
        <time>2024-09-08T10:38:49.000Z</time>
      </trkpt>
      <trkpt lat="47.829801" lon="13.354185">
        <ele>487.802548</ele>
        <time>2024-09-08T10:38:52.000Z</time>
      </trkpt>
      <trkpt lat="47.829954" lon="13.354105">
        <ele>488.055433</ele>
        <time>2024-09-08T10:38:54.000Z</time>
      </trkpt>
      <trkpt lat="47.830023" lon="13.354058">
        <ele>488.193919</ele>
        <time>2024-09-08T10:38:55.000Z</time>
      </trkpt>
      <trkpt lat="47.830354" lon="13.353848">
        <ele>488.74042</ele>
        <time>2024-09-08T10:38:59.000Z</time>
      </trkpt>
      <trkpt lat="47.83073" lon="13.353606">
        <ele>489.339587</ele>
        <time>2024-09-08T10:39:04.000Z</time>
      </trkpt>
      <trkpt lat="47.831287" lon="13.35312">
        <ele>490.328582</ele>
        <time>2024-09-08T10:39:11.000Z</time>
      </trkpt>
      <trkpt lat="47.831563" lon="13.352874">
        <ele>490.798076</ele>
        <time>2024-09-08T10:39:15.000Z</time>
      </trkpt>
      <trkpt lat="47.831766" lon="13.352693">
        <ele>490.978562</ele>
        <time>2024-09-08T10:39:18.000Z</time>
      </trkpt>
      <trkpt lat="47.831931" lon="13.352517">
        <ele>491.054379</ele>
        <time>2024-09-08T10:39:20.000Z</time>
      </trkpt>
      <trkpt lat="47.832073" lon="13.352375">
        <ele>491.114017</ele>
        <time>2024-09-08T10:39:22.000Z</time>
      </trkpt>
      <trkpt lat="47.832699" lon="13.351666">
        <ele>491.40622</ele>
        <time>2024-09-08T10:39:31.000Z</time>
      </trkpt>
      <trkpt lat="47.833707" lon="13.350532">
        <ele>492.310629</ele>
        <time>2024-09-08T10:39:45.000Z</time>
      </trkpt>
      <trkpt lat="47.834041" lon="13.350151">
        <ele>492.718038</ele>
        <time>2024-09-08T10:39:50.000Z</time>
      </trkpt>
      <trkpt lat="47.834153" lon="13.350047">
        <ele>492.830731</ele>
        <time>2024-09-08T10:39:51.000Z</time>
      </trkpt>
      <trkpt lat="47.834373" lon="13.34981">
        <ele>493.082625</ele>
        <time>2024-09-08T10:39:54.000Z</time>
      </trkpt>
      <trkpt lat="47.834625" lon="13.349583">
        <ele>493.497042</ele>
        <time>2024-09-08T10:39:57.000Z</time>
      </trkpt>
      <trkpt lat="47.834956" lon="13.34932">
        <ele>494.433764</ele>
        <time>2024-09-08T10:40:01.000Z</time>
      </trkpt>
      <trkpt lat="47.835212" lon="13.349108">
        <ele>495.152265</ele>
        <time>2024-09-08T10:40:04.000Z</time>
      </trkpt>
      <trkpt lat="47.835452" lon="13.348951">
        <ele>495.808327</ele>
        <time>2024-09-08T10:40:07.000Z</time>
      </trkpt>
      <trkpt lat="47.835831" lon="13.348735">
        <ele>496.821163</ele>
        <time>2024-09-08T10:40:12.000Z</time>
      </trkpt>
      <trkpt lat="47.836158" lon="13.348539">
        <ele>497.685575</ele>
        <time>2024-09-08T10:40:16.000Z</time>
      </trkpt>
      <trkpt lat="47.83693" lon="13.348245">
        <ele>498.550001</ele>
        <time>2024-09-08T10:40:25.000Z</time>
      </trkpt>
      <trkpt lat="47.83733" lon="13.348069">
        <ele>498.998028</ele>
        <time>2024-09-08T10:40:30.000Z</time>
      </trkpt>
      <trkpt lat="47.838136" lon="13.347586">
        <ele>499.332176</ele>
        <time>2024-09-08T10:40:40.000Z</time>
      </trkpt>
      <trkpt lat="47.838864" lon="13.346931">
        <ele>498.474352</ele>
        <time>2024-09-08T10:40:49.000Z</time>
      </trkpt>
      <trkpt lat="47.839077" lon="13.346721">
        <ele>498.223142</ele>
        <time>2024-09-08T10:40:52.000Z</time>
      </trkpt>
      <trkpt lat="47.839239" lon="13.346513">
        <ele>498.008851</ele>
        <time>2024-09-08T10:40:54.000Z</time>
      </trkpt>
      <trkpt lat="47.839912" lon="13.345493">
        <ele>496.301535</ele>
        <time>2024-09-08T10:41:05.000Z</time>
      </trkpt>
      <trkpt lat="47.840366" lon="13.344684">
        <ele>494.899089</ele>
        <time>2024-09-08T10:41:13.000Z</time>
      </trkpt>
      <trkpt lat="47.840909" lon="13.343768">
        <ele>493.470494</ele>
        <time>2024-09-08T10:41:22.000Z</time>
      </trkpt>
      <trkpt lat="47.841582" lon="13.342621">
        <ele>491.883522</ele>
        <time>2024-09-08T10:41:33.000Z</time>
      </trkpt>
      <trkpt lat="47.842252" lon="13.341447">
        <ele>490.743167</ele>
        <time>2024-09-08T10:41:45.000Z</time>
      </trkpt>
      <trkpt lat="47.842428" lon="13.341133">
        <ele>490.482977</ele>
        <time>2024-09-08T10:41:48.000Z</time>
      </trkpt>
      <trkpt lat="47.842463" lon="13.341088">
        <ele>490.441281</ele>
        <time>2024-09-08T10:41:49.000Z</time>
      </trkpt>
      <trkpt lat="47.842744" lon="13.340582">
        <ele>490.036327</ele>
        <time>2024-09-08T10:41:54.000Z</time>
      </trkpt>
      <trkpt lat="47.843286" lon="13.33984">
        <ele>489.002005</ele>
        <time>2024-09-08T10:42:02.000Z</time>
      </trkpt>
      <trkpt lat="47.843612" lon="13.339526">
        <ele>488.307714</ele>
        <time>2024-09-08T10:42:06.000Z</time>
      </trkpt>
      <trkpt lat="47.843748" lon="13.339428">
        <ele>488.041338</ele>
        <time>2024-09-08T10:42:08.000Z</time>
      </trkpt>
      <trkpt lat="47.843812" lon="13.339379">
        <ele>487.915963</ele>
        <time>2024-09-08T10:42:09.000Z</time>
      </trkpt>
      <trkpt lat="47.844105" lon="13.339202">
        <ele>487.369713</ele>
        <time>2024-09-08T10:42:13.000Z</time>
      </trkpt>
      <trkpt lat="47.844192" lon="13.339145">
        <ele>487.206805</ele>
        <time>2024-09-08T10:42:14.000Z</time>
      </trkpt>
      <trkpt lat="47.844369" lon="13.339059">
        <ele>486.885147</ele>
        <time>2024-09-08T10:42:16.000Z</time>
      </trkpt>
      <trkpt lat="47.844718" lon="13.338958">
        <ele>486.227531</ele>
        <time>2024-09-08T10:42:20.000Z</time>
      </trkpt>
      <trkpt lat="47.844781" lon="13.33894">
        <ele>486.100901</ele>
        <time>2024-09-08T10:42:21.000Z</time>
      </trkpt>
      <trkpt lat="47.845023" lon="13.33888">
        <ele>485.653265</ele>
        <time>2024-09-08T10:42:24.000Z</time>
      </trkpt>
      <trkpt lat="47.845344" lon="13.338836">
        <ele>485.042086</ele>
        <time>2024-09-08T10:42:28.000Z</time>
      </trkpt>
      <trkpt lat="47.845453" lon="13.338847">
        <ele>484.814311</ele>
        <time>2024-09-08T10:42:29.000Z</time>
      </trkpt>
      <trkpt lat="47.845571" lon="13.338864">
        <ele>484.618129</ele>
        <time>2024-09-08T10:42:30.000Z</time>
      </trkpt>
      <trkpt lat="47.845596" lon="13.33887">
        <ele>484.574347</ele>
        <time>2024-09-08T10:42:30.000Z</time>
      </trkpt>
      <trkpt lat="47.845707" lon="13.338877">
        <ele>484.338037</ele>
        <time>2024-09-08T10:42:31.000Z</time>
      </trkpt>
      <trkpt lat="47.845739" lon="13.338888">
        <ele>484.284692</ele>
        <time>2024-09-08T10:42:31.000Z</time>
      </trkpt>
      <trkpt lat="47.84575" lon="13.33888">
        <ele>484.263658</ele>
        <time>2024-09-08T10:42:31.000Z</time>
      </trkpt>
      <trkpt lat="47.845925" lon="13.338926">
        <ele>483.910985</ele>
        <time>2024-09-08T10:42:33.000Z</time>
      </trkpt>
      <trkpt lat="47.846061" lon="13.338971">
        <ele>483.653374</ele>
        <time>2024-09-08T10:42:35.000Z</time>
      </trkpt>
      <trkpt lat="47.846223" lon="13.339026">
        <ele>483.341651</ele>
        <time>2024-09-08T10:42:37.000Z</time>
      </trkpt>
      <trkpt lat="47.846367" lon="13.339108">
        <ele>483.21259</ele>
        <time>2024-09-08T10:42:39.000Z</time>
      </trkpt>
      <trkpt lat="47.846575" lon="13.339235">
        <ele>483.216796</ele>
        <time>2024-09-08T10:42:41.000Z</time>
      </trkpt>
      <trkpt lat="47.846662" lon="13.339294">
        <ele>483.218573</ele>
        <time>2024-09-08T10:42:42.000Z</time>
      </trkpt>
      <trkpt lat="47.846887" lon="13.339441">
        <ele>483.222969</ele>
        <time>2024-09-08T10:42:45.000Z</time>
      </trkpt>
      <trkpt lat="47.84719" lon="13.339647">
        <ele>483.229196</ele>
        <time>2024-09-08T10:42:49.000Z</time>
      </trkpt>
      <trkpt lat="47.847282" lon="13.339741">
        <ele>483.231342</ele>
        <time>2024-09-08T10:42:50.000Z</time>
      </trkpt>
      <trkpt lat="47.847379" lon="13.339782">
        <ele>483.233279</ele>
        <time>2024-09-08T10:42:51.000Z</time>
      </trkpt>
      <trkpt lat="47.847508" lon="13.339907">
        <ele>483.236079</ele>
        <time>2024-09-08T10:42:53.000Z</time>
      </trkpt>
      <trkpt lat="47.847558" lon="13.339959">
        <ele>483.236983</ele>
        <time>2024-09-08T10:42:54.000Z</time>
      </trkpt>
      <trkpt lat="47.847593" lon="13.339993">
        <ele>483.237892</ele>
        <time>2024-09-08T10:42:54.000Z</time>
      </trkpt>
      <trkpt lat="47.847624" lon="13.340049">
        <ele>483.238668</ele>
        <time>2024-09-08T10:42:55.000Z</time>
      </trkpt>
      <trkpt lat="47.847764" lon="13.340163">
        <ele>483.241609</ele>
        <time>2024-09-08T10:42:57.000Z</time>
      </trkpt>
      <trkpt lat="47.847827" lon="13.340181">
        <ele>483.242965</ele>
        <time>2024-09-08T10:42:58.000Z</time>
      </trkpt>
      <trkpt lat="47.847941" lon="13.340255">
        <ele>483.290305</ele>
        <time>2024-09-08T10:42:59.000Z</time>
      </trkpt>
      <trkpt lat="47.848012" lon="13.340307">
        <ele>483.361727</ele>
        <time>2024-09-08T10:43:00.000Z</time>
      </trkpt>
      <trkpt lat="47.848704" lon="13.340866">
        <ele>484.054251</ele>
        <time>2024-09-08T10:43:09.000Z</time>
      </trkpt>
      <trkpt lat="47.849187" lon="13.341266">
        <ele>484.545633</ele>
        <time>2024-09-08T10:43:15.000Z</time>
      </trkpt>
      <trkpt lat="47.849302" lon="13.341374">
        <ele>484.666137</ele>
        <time>2024-09-08T10:43:17.000Z</time>
      </trkpt>
      <trkpt lat="47.84944" lon="13.34151">
        <ele>484.809622</ele>
        <time>2024-09-08T10:43:19.000Z</time>
      </trkpt>
      <trkpt lat="47.849572" lon="13.341661">
        <ele>484.836202</ele>
        <time>2024-09-08T10:43:21.000Z</time>
      </trkpt>
      <trkpt lat="47.849696" lon="13.341841">
        <ele>484.835072</ele>
        <time>2024-09-08T10:43:23.000Z</time>
      </trkpt>
      <trkpt lat="47.849903" lon="13.342175">
        <ele>484.833223</ele>
        <time>2024-09-08T10:43:26.000Z</time>
      </trkpt>
      <trkpt lat="47.850011" lon="13.342375">
        <ele>484.832144</ele>
        <time>2024-09-08T10:43:28.000Z</time>
      </trkpt>
      <trkpt lat="47.850056" lon="13.342479">
        <ele>484.831686</ele>
        <time>2024-09-08T10:43:29.000Z</time>
      </trkpt>
      <trkpt lat="47.850095" lon="13.342532">
        <ele>484.831388</ele>
        <time>2024-09-08T10:43:30.000Z</time>
      </trkpt>
      <trkpt lat="47.850372" lon="13.343198">
        <ele>484.828168</ele>
        <time>2024-09-08T10:43:36.000Z</time>
      </trkpt>
      <trkpt lat="47.850529" lon="13.343729">
        <ele>484.790268</ele>
        <time>2024-09-08T10:43:40.000Z</time>
      </trkpt>
      <trkpt lat="47.850564" lon="13.343964">
        <ele>484.671445</ele>
        <time>2024-09-08T10:43:42.000Z</time>
      </trkpt>
      <trkpt lat="47.85056" lon="13.34398">
        <ele>484.662454</ele>
        <time>2024-09-08T10:43:42.000Z</time>
      </trkpt>
      <trkpt lat="47.85056" lon="13.343987">
        <ele>484.657607</ele>
        <time>2024-09-08T10:43:42.000Z</time>
      </trkpt>
      <trkpt lat="47.850571" lon="13.343991">
        <ele>484.65607</ele>
        <time>2024-09-08T10:43:42.000Z</time>
      </trkpt>
      <trkpt lat="47.850628" lon="13.344274">
        <ele>484.506437</ele>
        <time>2024-09-08T10:43:44.000Z</time>
      </trkpt>
      <trkpt lat="47.850633" lon="13.344422">
        <ele>484.422119</ele>
        <time>2024-09-08T10:43:45.000Z</time>
      </trkpt>
      <trkpt lat="47.850658" lon="13.344559">
        <ele>484.350421</ele>
        <time>2024-09-08T10:43:46.000Z</time>
      </trkpt>
      <trkpt lat="47.850703" lon="13.344924">
        <ele>484.167449</ele>
        <time>2024-09-08T10:43:49.000Z</time>
      </trkpt>
      <trkpt lat="47.850718" lon="13.344967">
        <ele>484.141181</ele>
        <time>2024-09-08T10:43:49.000Z</time>
      </trkpt>
      <trkpt lat="47.850758" lon="13.345152">
        <ele>484.041795</ele>
        <time>2024-09-08T10:43:50.000Z</time>
      </trkpt>
      <trkpt lat="47.850797" lon="13.345323">
        <ele>483.954031</ele>
        <time>2024-09-08T10:43:51.000Z</time>
      </trkpt>
      <trkpt lat="47.850849" lon="13.345509">
        <ele>483.841828</ele>
        <time>2024-09-08T10:43:53.000Z</time>
      </trkpt>
      <trkpt lat="47.850969" lon="13.345811">
        <ele>483.667</ele>
        <time>2024-09-08T10:43:56.000Z</time>
      </trkpt>
      <trkpt lat="47.851057" lon="13.346045">
        <ele>483.531575</ele>
        <time>2024-09-08T10:43:58.000Z</time>
      </trkpt>
      <trkpt lat="47.851246" lon="13.346423">
        <ele>483.414338</ele>
        <time>2024-09-08T10:44:02.000Z</time>
      </trkpt>
      <trkpt lat="47.85136" lon="13.346659">
        <ele>483.377335</ele>
        <time>2024-09-08T10:44:04.000Z</time>
      </trkpt>
      <trkpt lat="47.851651" lon="13.347374">
        <ele>483.268765</ele>
        <time>2024-09-08T10:44:10.000Z</time>
      </trkpt>
      <trkpt lat="47.851785" lon="13.347675">
        <ele>483.223054</ele>
        <time>2024-09-08T10:44:13.000Z</time>
      </trkpt>
      <trkpt lat="47.852096" lon="13.348538">
        <ele>483.106819324</ele>
        <time>2024-09-08T10:44:20.000Z</time>
      </trkpt>
      <trkpt lat="47.852212" lon="13.34892">
        <ele>483.057066787</ele>
        <time>2024-09-08T10:44:23.000Z</time>
      </trkpt>
      <trkpt lat="47.852297" lon="13.34915">
        <ele>483.025910318</ele>
        <time>2024-09-08T10:44:25.000Z</time>
      </trkpt>
      <trkpt lat="47.852521" lon="13.350078">
        <ele>482.908888728</ele>
        <time>2024-09-08T10:44:32.000Z</time>
      </trkpt>
      <trkpt lat="47.85254" lon="13.350139">
        <ele>482.900908897</ele>
        <time>2024-09-08T10:44:33.000Z</time>
      </trkpt>
      <trkpt lat="47.852549" lon="13.350188">
        <ele>482.894880817</ele>
        <time>2024-09-08T10:44:33.000Z</time>
      </trkpt>
    </trkseg>
  </trk>
</gpx>

<!--
Performance optimized by W3 Total Cache. Learn more: https://www.boldgrid.com/w3-total-cache/?utm_source=w3tc&utm_medium=footer_comment&utm_campaign=free_plugin

Page Caching using Disk: Enhanced{w3tc_pagecache_reject_reason} 

Served from: www.aquabike.world @ 2026-05-10 00:13:48 by W3 Total Cache
-->